# Wetter Temperatur Luftdruck Luftfeuchtigkeit Sichtweite Windgeschwindigkeit Windrichtung Zeit
1 Clear 23 1016 64 10000 2.6 320 04:57 11.07.2020
2 Clear 23 1016 64 10000 2.6 320 04:37 11.07.2020
3 Clear 24 1016 64 10000 3.1 330 04:18 11.07.2020
4 Clear 24 1016 60 10000 1 340 02:51 11.07.2020
5 Clear 24 1016 60 10000 2.12 67 01:53 11.07.2020
6 Clear 25 1016 57 10000 1 80 01:20 11.07.2020
7 Clear 25 1015 65 10000 2.1 100 00:41 11.07.2020
8 Clear 25 1015 65 10000 2.1 100 00:41 11.07.2020
9 Clear 25 1015 61 10000 1.5 90 00:22 11.07.2020
10 Clear 25 1015 61 10000 1.5 90 23:58 10.07.2020
11 Clear 25 1015 61 10000 1 50 23:40 10.07.2020
12 Clear 25 1015 61 10000 2.6 60 23:21 10.07.2020
13 Clear 26 1015 61 10000 2.6 50 22:49 10.07.2020
14 Clear 26 1015 61 10000 2.1 90 22:24 10.07.2020
15 Clear 26 1015 61 10000 2.1 90 21:59 10.07.2020
16 Clouds 26 1015 54 10000 3.6 100 21:38 10.07.2020
17 Clouds 27 1015 51 10000 3.6 90 21:20 10.07.2020
18 Clouds 27 1015 51 10000 3.6 80 20:54 10.07.2020
19 Clouds 28 1015 51 10000 3.6 80 20:36 10.07.2020
20 Clouds 28 1015 48 10000 4.1 70 20:18 10.07.2020
21 Clouds 28 1015 48 10000 4.1 90 19:42 10.07.2020
22 Clouds 28 1014 39 10000 4.6 80 19:21 10.07.2020
23 Clouds 29 1015 39 10000 4.1 70 18:55 10.07.2020
24 Clouds 29 1015 39 10000 4.1 70 18:37 10.07.2020
25 Clouds 30 1015 42 10000 4.1 70 18:18 10.07.2020
26 Clouds 29 1015 48 10000 5.7 20 17:42 10.07.2020
27 Clouds 28 1015 48 10000 5.7 20 17:23 10.07.2020
28 Clouds 28 1015 58 10000 6.7 70 16:57 10.07.2020
29 Clouds 28 1015 58 10000 6.7 70 16:39 10.07.2020
30 Clouds 27 1016 54 10000 4.6 90 16:18 10.07.2020
31 Clouds 27 1016 54 10000 3.6 120 15:43 10.07.2020
32 Clouds 27 1016 61 10000 6.2 150 15:21 10.07.2020
33 Clouds 28 1016 61 10000 6.2 150 14:54 10.07.2020
34 Clouds 28 1015 54 10000 6.2 60 14:36 10.07.2020
35 Clouds 28 1015 54 10000 6.2 60 14:18 10.07.2020
36 Clouds 27 1015 54 10000 6.2 60 13:54 10.07.2020
37 Clouds 27 1015 65 10000 4.6 70 13:36 10.07.2020
38 Clouds 27 1015 61 10000 4.6 100 13:18 10.07.2020
39 Clouds 27 1015 74 10000 4.6 100 12:42 10.07.2020
40 Clouds 27 1015 58 10000 4.1 90 12:23 10.07.2020
41 Clouds 27 1015 57 10000 3.1 100 11:58 10.07.2020
42 Clouds 27 1015 57 10000 3.1 100 11:38 10.07.2020
43 Clouds 27 1015 57 10000 3.1 100 11:18 10.07.2020
44 Clouds 26 1015 57 10000 2.1 10 10:41 10.07.2020
45 Clouds 26 1015 57 10000 2.1 10 10:21 10.07.2020
46 Clouds 25 1015 60 10000 2.6 330 09:56 10.07.2020
47 Clouds 25 1015 60 10000 2.6 330 09:36 10.07.2020
48 Clouds 25 1015 64 10000 2.6 350 09:18 10.07.2020
49 Clouds 25 1015 64 10000 2.6 350 08:55 10.07.2020
50 Clouds 24 1015 64 10000 2.6 350 08:36 10.07.2020
51 Clouds 24 1015 64 10000 2.6 340 08:18 10.07.2020
52 Drizzle 24 1015 60 10000 2.1 300 07:41 10.07.2020
53 Clouds 24 1015 57 10000 1.5 320 07:20 10.07.2020
54 Clouds 24 1015 60 10000 2.6 310 06:48 10.07.2020
55 Clouds 24 1015 64 10000 2.6 340 05:55 10.07.2020
56 Clouds 24 1016 60 10000 2.1 320 04:33 10.07.2020
57 Clouds 24 1016 73 10000 2.6 320 03:31 10.07.2020
58 Clouds 24 1016 64 10000 0.5 0 02:51 10.07.2020
59 Clouds 25 1016 69 10000 1 0 01:48 10.07.2020
60 Clouds 25 1016 65 10000 1 0 00:47 10.07.2020
61 Clouds 25 1016 65 10000 2.1 140 00:19 10.07.2020
62 Clouds 25 1016 65 10000 1 0 23:46 09.07.2020
63 Clouds 25 1015 65 10000 2.6 70 23:21 09.07.2020
64 Clouds 26 1015 65 10000 2.6 70 22:58 09.07.2020
65 Clouds 26 1015 61 10000 3.1 70 22:40 09.07.2020
66 Clouds 26 1015 65 10000 2.1 90 22:21 09.07.2020
67 Clouds 26 1015 65 10000 2.1 90 21:56 09.07.2020
68 Clouds 26 1015 61 10000 2.1 90 21:38 09.07.2020
69 Clouds 27 1015 51 10000 2.6 80 21:19 09.07.2020
70 Clouds 27 1016 54 10000 2.1 140 20:44 09.07.2020
71 Clouds 28 1015 44 10000 1.5 130 20:25 09.07.2020
72 Clouds 28 1015 51 10000 2.6 180 19:58 09.07.2020
73 Clouds 28 1015 51 10000 2.6 180 19:40 09.07.2020
74 Clouds 29 1016 51 10000 2.6 210 19:20 09.07.2020
75 Clouds 29 1016 48 10000 3.6 200 18:42 09.07.2020
76 Clouds 29 1016 54 10000 4.6 210 18:22 09.07.2020
77 Clouds 28 1016 65 10000 5.1 200 17:55 09.07.2020
78 Clouds 29 1016 65 10000 5.1 200 17:37 09.07.2020
79 Clouds 29 1017 65 10000 5.1 190 17:18 09.07.2020
80 Clouds 29 1017 65 10000 5.1 190 16:55 09.07.2020
81 Clouds 29 1016 69 10000 4.6 160 16:37 09.07.2020
82 Clouds 28 1016 65 10000 4.6 140 16:18 09.07.2020
83 Clouds 29 1016 62 10000 4.1 100 15:46 09.07.2020
84 Clouds 29 1016 62 10000 4.1 100 15:28 09.07.2020
85 Clouds 30 1016 65 10000 2.6 120 14:59 09.07.2020
86 Clouds 30 1017 61 10000 4.1 160 14:41 09.07.2020
87 Clouds 30 1017 48 10000 4.6 120 14:23 09.07.2020
88 Clouds 29 1017 69 10000 4.6 180 13:59 09.07.2020
89 Clouds 29 1017 74 10000 5.1 180 13:41 09.07.2020
90 Clouds 29 1017 69 10000 5.7 170 13:20 09.07.2020
91 Clouds 29 1017 69 10000 5.7 170 12:57 09.07.2020
92 Clouds 30 1017 45 10000 1.5 60 12:38 09.07.2020
93 Clouds 29 1017 45 10000 1 100 12:20 09.07.2020
94 Clouds 29 1017 65 10000 3.1 110 11:44 09.07.2020
95 Clouds 29 1017 65 10000 3.1 110 11:26 09.07.2020
96 Clouds 29 1017 54 10000 2.6 90 10:59 09.07.2020
97 Clouds 28 1017 65 10000 2.1 340 10:41 09.07.2020
98 Clouds 27 1017 69 10000 3.1 340 10:23 09.07.2020
99 Clouds 26 1017 69 10000 3.1 340 09:58 09.07.2020
100 Clouds 26 1017 73 10000 4.6 330 09:40 09.07.2020
101 Clouds 25 1017 73 10000 4.6 330 09:21 09.07.2020
102 Clouds 24 1017 78 10000 3.6 310 08:44 09.07.2020
103 Clouds 24 1016 83 10000 2.6 320 08:25 09.07.2020
104 Clouds 23 1016 78 10000 2.1 320 07:47 09.07.2020
105 Clouds 23 1016 78 10000 2.1 320 07:24 09.07.2020
106 Clouds 23 1016 78 10000 2.1 300 06:54 09.07.2020
107 Clouds 23 1016 78 10000 1.5 310 06:20 09.07.2020
108 Clouds 23 1016 73 10000 2.1 310 05:26 09.07.2020
109 Clouds 23 1015 78 10000 1.5 340 04:28 09.07.2020
110 Clouds 24 1017 73 10000 1 260 02:21 09.07.2020
111 Clouds 24 1017 69 10000 1 160 01:37 09.07.2020
112 Clouds 25 1017 65 10000 1 140 00:53 09.07.2020
113 Clouds 25 1017 65 10000 3.1 70 00:25 09.07.2020
114 Clouds 25 1018 65 10000 1.5 20 23:47 08.07.2020
115 Clouds 25 1018 65 10000 1.5 20 23:28 08.07.2020
116 Clouds 25 1018 69 10000 4.1 250 22:59 08.07.2020
117 Clouds 25 1018 65 10000 4.1 220 22:41 08.07.2020
118 Clouds 25 1018 65 10000 4.1 220 22:23 08.07.2020
119 Clouds 25 1018 69 10000 3.6 200 21:58 08.07.2020
120 Clouds 26 1018 65 10000 2.6 180 21:39 08.07.2020
121 Clouds 26 1017 65 10000 2.6 150 21:21 08.07.2020
122 Clouds 26 1017 65 10000 2.6 150 20:56 08.07.2020
123 Clouds 26 1017 69 10000 2.6 160 20:38 08.07.2020
124 Clouds 26 1016 69 10000 3.1 160 20:20 08.07.2020
125 Clouds 26 1016 61 10000 3.1 150 19:43 08.07.2020
126 Clouds 26 1016 65 10000 3.6 150 19:23 08.07.2020
127 Clouds 26 1016 65 10000 3.6 160 18:57 08.07.2020
128 Clouds 27 1016 65 10000 3.6 160 18:39 08.07.2020
129 Clouds 27 1016 69 10000 3.6 170 18:20 08.07.2020
130 Clouds 27 1016 69 10000 3.6 170 17:56 08.07.2020
131 Clouds 27 1016 65 10000 4.1 160 17:37 08.07.2020
132 Clear 27 1016 65 10000 4.1 150 17:19 08.07.2020
133 Clear 28 1017 51 10000 6.7 110 16:43 08.07.2020
134 Clear 28 1017 65 10000 5.1 180 16:24 08.07.2020
135 Clear 28 1017 65 10000 5.1 180 15:59 08.07.2020
136 Clear 28 1018 65 10000 5.1 190 15:41 08.07.2020
137 Clear 28 1018 65 10000 3.6 160 15:20 08.07.2020
138 Clear 28 1017 61 10000 6.2 110 14:58 08.07.2020
139 Clear 27 1017 69 10000 4.1 160 14:40 08.07.2020
140 Clear 27 1018 69 10000 3.6 170 14:19 08.07.2020
141 Clear 28 1018 65 10000 3.6 160 13:45 08.07.2020
142 Clear 28 1018 65 10000 4.1 170 13:26 08.07.2020
143 Clear 28 1018 65 10000 3.6 170 12:46 08.07.2020
144 Clear 28 1018 65 10000 3.1 140 12:22 08.07.2020
145 Clear 27 1018 65 10000 3.1 140 11:59 08.07.2020
146 Clear 27 1017 65 10000 2.6 120 11:39 08.07.2020
147 Clear 28 1017 48 10000 1 150 11:20 08.07.2020
148 Clear 28 1017 48 10000 1 150 10:55 08.07.2020
149 Clear 27 1017 51 10000 0.5 20 10:36 08.07.2020
150 Clear 26 1017 65 10000 1.5 330 10:18 08.07.2020
151 Clear 26 1017 73 10000 3.6 330 09:41 08.07.2020
152 Clear 25 1017 73 10000 2.6 320 09:23 08.07.2020
153 Clear 24 1016 78 10000 4.1 320 08:43 08.07.2020
154 Clear 24 1016 78 10000 4.6 310 08:24 08.07.2020
155 Clear 22 1016 83 10000 4.6 310 07:48 08.07.2020
156 Clouds 23 1016 83 10000 3.1 320 07:24 08.07.2020
157 Clouds 22 1016 83 10000 3.1 320 06:56 08.07.2020
158 Clouds 22 1016 83 10000 2.6 320 06:37 08.07.2020
159 Clouds 22 1016 83 10000 3.1 310 05:55 08.07.2020
160 Clouds 22 1016 83 10000 3.6 330 05:33 08.07.2020
161 Clouds 22 1016 83 10000 2.6 320 04:37 08.07.2020
162 Clouds 23 1017 83 10000 1.5 270 02:49 08.07.2020
163 Clouds 23 1017 83 10000 4.1 80 01:54 08.07.2020
164 Clouds 23 1017 78 10000 0.5 0 01:32 08.07.2020
165 Clouds 23 1017 78 10000 1 0 00:28 08.07.2020
166 Clouds 23 1017 78 10000 1 100 23:59 07.07.2020
167 Clouds 23 1017 78 10000 1 100 23:41 07.07.2020
168 Clouds 23 1016 78 10000 1.5 100 23:19 07.07.2020
169 Clouds 24 1016 78 10000 2.1 110 22:44 07.07.2020
170 Clouds 24 1016 78 10000 2.1 110 22:24 07.07.2020
171 Clouds 23 1016 78 10000 3.1 100 21:59 07.07.2020
172 Clouds 24 1016 73 10000 2.6 120 21:41 07.07.2020
173 Clouds 24 1016 73 10000 3.1 120 21:22 07.07.2020
174 Clouds 25 1016 65 10000 2.6 130 20:58 07.07.2020
175 Clouds 25 1016 65 10000 2.6 130 20:40 07.07.2020
176 Clouds 25 1016 69 10000 3.1 120 20:22 07.07.2020
177 Clouds 25 1015 65 10000 3.6 140 19:55 07.07.2020
178 Clouds 25 1015 65 10000 3.6 140 19:36 07.07.2020
179 Clouds 26 1016 65 10000 3.1 130 19:18 07.07.2020
180 Clouds 26 1016 65 10000 3.6 130 18:54 07.07.2020
181 Clouds 26 1016 65 10000 3.6 130 18:36 07.07.2020
182 Clouds 26 1016 65 10000 3.6 140 18:18 07.07.2020
183 Clouds 26 1016 65 10000 3.6 130 17:43 07.07.2020
184 Clouds 26 1016 65 10000 3.6 160 17:23 07.07.2020
185 Clouds 27 1016 65 10000 3.6 160 16:58 07.07.2020
186 Clouds 27 1016 69 10000 4.6 150 16:40 07.07.2020
187 Clouds 26 1016 65 10000 4.6 130 16:21 07.07.2020
188 Clouds 26 1016 69 10000 4.6 120 15:55 07.07.2020
189 Clouds 27 1016 69 10000 4.6 120 15:36 07.07.2020
190 Clouds 27 1016 69 10000 4.6 130 15:18 07.07.2020
191 Clouds 27 1016 69 10000 4.1 130 14:42 07.07.2020
192 Clouds 27 1016 69 10000 4.6 120 14:23 07.07.2020
193 Clouds 27 1016 65 10000 4.1 130 13:43 07.07.2020
194 Clouds 27 1016 65 10000 4.1 120 13:19 07.07.2020
195 Clouds 26 1016 61 10000 3.6 110 12:56 07.07.2020
196 Clouds 26 1016 61 10000 3.6 110 12:36 07.07.2020
197 Clouds 25 1016 65 10000 3.6 100 12:18 07.07.2020
198 Clouds 26 1016 65 10000 3.6 110 11:42 07.07.2020
199 Clouds 25 1016 65 10000 3.6 110 11:21 07.07.2020
200 Clouds 25 1016 57 10000 2.1 350 10:58 07.07.2020
201 Clouds 25 1016 57 10000 3.6 320 10:39 07.07.2020
202 Clouds 24 1016 53 10000 4.1 320 10:20 07.07.2020
203 Clouds 24 1016 56 10000 4.1 320 09:42 07.07.2020
204 Clouds 23 1015 60 10000 4.1 320 09:21 07.07.2020
205 Clouds 23 1015 60 10000 4.6 320 08:54 07.07.2020
206 Clouds 23 1015 60 10000 4.6 320 08:36 07.07.2020
207 Clouds 23 1015 64 10000 3.6 310 08:18 07.07.2020
208 Clouds 23 1015 69 10000 4.1 320 07:38 07.07.2020
209 Clouds 23 1015 78 10000 4.6 330 07:19 07.07.2020
210 Clouds 23 1015 83 10000 3.1 330 06:41 07.07.2020
211 Clouds 24 1015 88 10000 2.6 330 06:22 07.07.2020
212 Clouds 24 1015 88 10000 0.5 0 05:28 07.07.2020
213 Clouds 24 1015 83 10000 0.5 150 04:44 07.07.2020
214 Clouds 24 1015 83 10000 1 0 03:42 07.07.2020
215 Clouds 24 1015 88 10000 1.5 130 03:23 07.07.2020
216 Clouds 24 1016 83 10000 2.6 150 01:41 07.07.2020
217 Clouds 24 1016 83 10000 2.6 150 00:59 07.07.2020
218 Clouds 24 1016 83 10000 2.6 130 00:40 07.07.2020
219 Clouds 24 1016 83 10000 2.6 130 00:20 07.07.2020
220 Clouds 24 1016 83 10000 2.6 130 23:44 06.07.2020
221 Clouds 24 1016 83 10000 2.6 130 23:25 06.07.2020
222 Clouds 25 1016 83 10000 2.6 130 22:57 06.07.2020
223 Clouds 25 1015 83 10000 2.6 130 22:39 06.07.2020
224 Clouds 25 1015 74 10000 2.1 120 22:18 06.07.2020
225 Clouds 25 1015 74 10000 3.1 120 21:56 06.07.2020
226 Clouds 25 1015 74 10000 3.1 120 21:36 06.07.2020
227 Clear 25 1016 83 10000 4.1 140 21:18 06.07.2020
228 Clouds 26 1015 78 10000 3.1 140 20:41 06.07.2020
229 Clouds 26 1015 74 10000 3.6 140 20:21 06.07.2020
230 Clouds 26 1015 74 10000 3.6 130 19:59 06.07.2020
231 Clouds 27 1015 74 10000 3.6 130 19:41 06.07.2020
232 Clouds 26 1015 74 10000 3.6 130 19:41 06.07.2020
233 Clouds 27 1015 69 10000 4.1 120 19:22 06.07.2020
234 Clouds 27 1015 69 10000 4.1 120 18:58 06.07.2020
235 Clear 27 1015 69 10000 4.6 90 18:40 06.07.2020
236 Clear 28 1015 65 10000 4.6 100 18:22 06.07.2020
237 Clear 28 1015 65 10000 4.1 100 17:54 06.07.2020
238 Clear 28 1015 65 10000 4.1 100 17:36 06.07.2020
239 Clear 28 1015 65 10000 4.1 100 17:36 06.07.2020
240 Clear 28 1015 65 10000 4.1 80 17:18 06.07.2020
241 Clouds 28 1015 51 10000 3.6 110 16:42 06.07.2020
242 Clouds 28 1015 51 10000 3.1 110 16:23 06.07.2020
243 Clouds 28 1015 51 10000 3.1 110 15:55 06.07.2020
244 Clouds 28 1015 54 10000 2.6 170 15:36 06.07.2020
245 Clouds 28 1015 54 10000 2.6 170 15:36 06.07.2020
246 Clouds 28 1015 65 10000 2.6 150 15:18 06.07.2020
247 Clouds 28 1016 69 10000 2.6 160 14:41 06.07.2020
248 Clouds 29 1016 69 10000 2.6 140 14:23 06.07.2020
249 Clouds 29 1016 69 10000 2.6 140 13:59 06.07.2020
250 Clear 29 1015 69 10000 3.1 140 13:40 06.07.2020
251 Clear 29 1016 69 10000 2.6 120 13:21 06.07.2020
252 Clear 29 1016 69 10000 2.6 140 12:44 06.07.2020
253 Clear 29 1015 78 10000 3.6 170 12:20 06.07.2020
254 Clear 29 1015 74 10000 2.1 190 11:59 06.07.2020
255 Clear 29 1015 74 10000 2.1 190 11:41 06.07.2020
256 Clear 29 1016 54 10000 2.6 280 11:23 06.07.2020
257 Clear 29 1016 54 10000 2.6 280 10:59 06.07.2020
258 Clear 28 1016 57 10000 3.6 290 10:40 06.07.2020
259 Clear 27 1016 61 10000 3.1 270 10:19 06.07.2020
260 Clear 27 1016 61 10000 3.1 270 09:54 06.07.2020
261 Clear 26 1016 65 10000 2.6 310 09:36 06.07.2020
262 Clear 26 1016 69 10000 3.6 320 09:18 06.07.2020
263 Clear 25 1016 73 10000 3.1 330 08:40 06.07.2020
264 Clear 24 1016 78 10000 3.1 320 08:22 06.07.2020
265 Clear 24 1016 78 10000 3.6 320 07:50 06.07.2020
266 Clear 23 1016 78 10000 3.6 320 07:30 06.07.2020
267 Clear 23 1015 83 10000 3.1 320 06:55 06.07.2020
268 Clear 23 1016 83 10000 3.6 310 06:37 06.07.2020
269 Clear 23 1016 78 10000 3.1 290 05:53 06.07.2020
270 Clear 23 1016 78 10000 3.1 290 05:26 06.07.2020
271 Clear 23 1016 78 10000 2.1 290 03:58 06.07.2020
272 Clear 24 1017 73 10000 1.5 290 02:41 06.07.2020
273 Clear 24 1017 78 10000 1.5 270 01:55 06.07.2020
274 Clear 25 1017 83 10000 3.6 230 00:49 06.07.2020
275 Clear 25 1017 83 10000 4.6 240 00:24 06.07.2020
276 Clear 25 1017 83 10000 4.6 240 23:57 05.07.2020
277 Clear 26 1017 73 10000 4.6 240 23:38 05.07.2020
278 Clear 26 1017 78 10000 5.1 230 23:20 05.07.2020
279 Clear 26 1016 83 10000 5.7 230 22:42 05.07.2020
280 Clear 26 1016 83 10000 6.7 230 22:21 05.07.2020
281 Clear 26 1016 83 10000 6.7 230 21:59 05.07.2020
282 Clear 27 1016 83 10000 6.7 230 21:41 05.07.2020
283 Clear 27 1016 78 10000 8.2 230 21:19 05.07.2020
284 Clear 28 1016 78 10000 8.2 230 20:59 05.07.2020
285 Clear 28 1016 78 10000 8.2 230 20:41 05.07.2020
286 Clear 28 1016 78 10000 8.2 230 20:22 05.07.2020
287 Clouds 28 1017 74 10000 8.7 230 19:57 05.07.2020
288 Clouds 29 1017 78 10000 9.3 230 19:39 05.07.2020
289 Clouds 29 1017 74 10000 9.3 220 19:19 05.07.2020
290 Clouds 29 1017 69 10000 8.7 220 18:42 05.07.2020
291 Clear 29 1018 65 10000 9.3 220 18:23 05.07.2020
292 Clear 29 1018 65 10000 9.3 220 17:58 05.07.2020
293 Clear 30 1018 65 10000 8.2 220 17:39 05.07.2020
294 Clear 29 1018 65 10000 7.7 220 17:19 05.07.2020
295 Clear 30 1019 58 10000 7.7 220 16:44 05.07.2020
296 Clear 30 1019 54 10000 7.7 220 16:25 05.07.2020
297 Clear 29 1019 54 10000 7.7 220 15:58 05.07.2020
298 Clear 30 1019 54 10000 6.7 220 15:38 05.07.2020
299 Clouds 30 1019 54 10000 6.7 210 15:19 05.07.2020
300 Clouds 29 1020 61 10000 5.7 210 14:42 05.07.2020
301 Clouds 28 1020 74 10000 4.6 190 14:23 05.07.2020
302 Clouds 29 1020 61 10000 5.7 210 14:23 05.07.2020
303 Clouds 28 1020 74 10000 4.6 190 13:55 05.07.2020
304 Clouds 28 1020 74 10000 4.6 190 13:37 05.07.2020
305 Clouds 28 1020 74 10000 5.1 200 13:19 05.07.2020
306 Clouds 28 1020 74 10000 5.1 200 13:19 05.07.2020
307 Clear 28 1020 45 10000 0.5 190 12:39 05.07.2020
308 Clear 28 1020 51 10000 1 0 12:20 05.07.2020
309 Clear 27 1020 51 10000 1 0 11:55 05.07.2020
310 Clouds 27 1020 74 10000 3.6 200 11:36 05.07.2020
311 Clouds 27 1020 65 10000 1 0 11:18 05.07.2020
312 Clouds 26 1021 65 10000 2.6 320 10:42 05.07.2020
313 Clouds 25 1021 64 10000 3.1 320 10:20 05.07.2020
314 Clouds 25 1021 64 10000 3.1 320 09:59 05.07.2020
315 Clouds 24 1020 64 10000 3.1 320 09:41 05.07.2020
316 Clouds 24 1020 68 10000 3.6 320 09:20 05.07.2020
317 Clouds 23 1020 68 10000 3.6 320 08:53 05.07.2020
318 Clouds 23 1020 73 10000 3.1 320 08:34 05.07.2020
319 Clouds 22 1020 72 10000 2.6 330 07:51 05.07.2020
320 Clouds 21 1020 72 10000 2.6 330 07:30 05.07.2020
321 Clear 21 1020 72 10000 4.1 310 06:53 05.07.2020
322 Clear 21 1020 72 10000 3.1 330 06:20 05.07.2020
323 Clouds 22 1020 72 10000 3.1 300 03:54 05.07.2020
324 Clear 22 1021 68 10000 2.1 310 02:47 05.07.2020
325 Clear 22 1021 68 10000 2.1 310 02:29 05.07.2020
326 Clear 22 1021 64 10000 2.1 320 01:43 05.07.2020
327 Clear 22 1021 60 10000 1.5 270 01:20 05.07.2020
328 Clear 23 1021 64 10000 1.5 300 00:43 05.07.2020
329 Clear 23 1021 73 10000 3.1 240 00:24 05.07.2020
330 Clear 23 1021 69 10000 3.1 230 23:54 04.07.2020
331 Clear 23 1021 69 10000 3.1 230 23:31 04.07.2020
332 Clear 24 1021 64 10000 3.6 240 22:59 04.07.2020
333 Clear 24 1020 60 10000 4.6 230 22:40 04.07.2020
334 Clear 24 1020 60 10000 4.6 220 22:22 04.07.2020
335 Clear 24 1020 60 10000 4.6 220 21:56 04.07.2020
336 Clear 24 1020 57 10000 5.7 220 21:38 04.07.2020
337 Clear 25 1020 53 10000 5.1 220 21:19 04.07.2020
338 Clear 25 1020 57 10000 4.6 210 20:41 04.07.2020
339 Clear 25 1020 61 10000 4.6 220 20:20 04.07.2020
340 Clear 25 1020 61 10000 4.6 220 19:55 04.07.2020
341 Clear 25 1020 65 10000 4.6 220 19:37 04.07.2020
342 Clouds 25 1020 69 10000 4.6 180 19:19 04.07.2020
343 Clouds 25 1020 69 10000 4.6 160 18:42 04.07.2020
344 Clouds 25 1020 65 10000 5.1 170 18:22 04.07.2020
345 Clouds 25 1020 65 10000 4.6 170 17:44 04.07.2020
346 Clouds 25 1020 65 10000 4.6 170 17:44 04.07.2020
347 Clouds 25 1020 65 10000 4.6 170 17:26 04.07.2020
348 Clouds 26 1021 65 10000 5.1 170 16:59 04.07.2020
349 Clouds 25 1021 64 10000 4.6 160 16:39 04.07.2020
350 Clouds 25 1021 65 10000 4.6 160 16:21 04.07.2020
351 Clouds 25 1021 65 10000 4.6 160 15:57 04.07.2020
352 Clouds 25 1021 60 10000 4.6 150 15:38 04.07.2020
353 Clouds 25 1021 60 10000 4.6 150 15:20 04.07.2020
354 Clouds 25 1021 60 10000 4.6 150 14:55 04.07.2020
355 Clouds 25 1021 60 10000 4.6 150 14:55 04.07.2020
356 Clouds 25 1021 60 10000 4.6 150 14:55 04.07.2020
357 Clouds 25 1022 60 10000 4.1 140 14:36 04.07.2020
358 Clouds 25 1022 60 10000 5.1 120 14:18 04.07.2020
359 Clouds 25 1022 57 10000 4.1 130 13:41 04.07.2020
360 Clouds 25 1022 57 10000 3.6 130 13:19 04.07.2020
361 Clouds 24 1022 57 10000 3.6 120 12:55 04.07.2020
362 Clouds 24 1022 57 10000 3.6 120 12:37 04.07.2020
363 Clouds 24 1022 60 10000 4.1 120 12:18 04.07.2020
364 Clouds 24 1022 60 10000 4.1 110 11:42 04.07.2020
365 Clouds 23 1022 64 10000 4.1 90 11:22 04.07.2020
366 Clouds 23 1021 64 10000 4.1 90 10:55 04.07.2020
367 Clouds 23 1021 64 10000 4.1 90 10:36 04.07.2020
368 Clouds 23 1021 56 10000 3.6 330 10:18 04.07.2020
369 Clouds 22 1021 56 10000 5.7 330 09:40 04.07.2020
370 Clouds 22 1021 56 10000 6.2 330 09:21 04.07.2020
371 Clouds 22 1020 56 10000 5.1 330 08:57 04.07.2020
372 Clouds 21 1020 56 10000 5.1 330 08:39 04.07.2020
373 Clouds 21 1020 64 10000 5.1 330 08:19 04.07.2020
374 Clouds 21 1020 68 10000 4.6 340 07:39 04.07.2020
375 Clouds 21 1019 88 10000 4.1 330 07:18 04.07.2020
376 Rain 21 1019 94 10000 4.1 320 06:38 04.07.2020
377 Rain 22 1019 88 10000 3.1 320 06:18 04.07.2020
378 Rain 22 1019 88 10000 2.1 310 05:28 04.07.2020
379 Rain 22 1019 83 10000 5.1 70 03:56 04.07.2020
380 Rain 23 1020 83 10000 3.6 180 02:41 04.07.2020
381 Clouds 23 1020 73 10000 5.1 180 01:40 04.07.2020
382 Clouds 23 1020 73 10000 5.7 170 00:49 04.07.2020
383 Clouds 23 1020 73 10000 5.1 180 00:30 04.07.2020
384 Clouds 23 1020 78 10000 4.6 180 23:59 03.07.2020
385 Clouds 23 1020 78 10000 4.6 180 23:39 03.07.2020
386 Clouds 23 1019 78 10000 5.1 180 23:18 03.07.2020
387 Clouds 23 1019 73 10000 4.6 180 22:41 03.07.2020
388 Clouds 23 1018 73 10000 4.6 180 22:23 03.07.2020
389 Clouds 23 1018 73 10000 4.6 180 21:59 03.07.2020
390 Clouds 23 1018 73 10000 4.6 180 21:38 03.07.2020
391 Clouds 24 1018 73 10000 4.6 190 21:19 03.07.2020
392 Clouds 24 1018 73 10000 4.6 180 20:43 03.07.2020
393 Clouds 24 1018 73 10000 4.6 190 20:25 03.07.2020
394 Clouds 24 1018 73 10000 5.1 180 19:56 03.07.2020
395 Clouds 24 1018 73 10000 5.1 180 19:38 03.07.2020
396 Clouds 24 1018 73 10000 5.7 180 19:18 03.07.2020
397 Clouds 24 1018 65 10000 6.2 180 18:42 03.07.2020
398 Clouds 25 1018 65 10000 6.2 180 18:23 03.07.2020
399 Clouds 25 1018 65 10000 6.2 180 17:56 03.07.2020
400 Clouds 25 1018 65 10000 6.2 180 17:37 03.07.2020
401 Clouds 25 1018 65 10000 6.2 180 17:19 03.07.2020
402 Clouds 25 1018 65 10000 6.2 180 17:19 03.07.2020
403 Clouds 25 1018 65 10000 6.7 190 16:40 03.07.2020
404 Clouds 24 1018 69 10000 6.7 190 16:20 03.07.2020
405 Clouds 24 1018 69 10000 6.7 190 15:44 03.07.2020
406 Clouds 24 1018 69 10000 6.7 190 15:23 03.07.2020
407 Clouds 24 1018 69 10000 5.1 180 14:57 03.07.2020
408 Clouds 24 1019 69 10000 4.6 170 14:38 03.07.2020
409 Clouds 24 1019 64 10000 3.6 130 14:19 03.07.2020
410 Clouds 24 1019 69 10000 3.6 120 13:43 03.07.2020
411 Clouds 24 1019 69 10000 2.6 120 13:25 03.07.2020
412 Clouds 24 1019 57 10000 2.1 80 12:45 03.07.2020
413 Clouds 23 1019 60 10000 1.5 360 12:24 03.07.2020
414 Clouds 23 1019 60 10000 1.5 360 11:58 03.07.2020
415 Clouds 23 1018 64 10000 3.6 350 11:40 03.07.2020
416 Clouds 23 1018 64 10000 3.6 350 11:21 03.07.2020
417 Clouds 23 1018 64 10000 3.6 350 10:55 03.07.2020
418 Clouds 22 1018 68 10000 4.6 360 10:37 03.07.2020
419 Clouds 22 1018 68 10000 5.1 350 10:18 03.07.2020
420 Clouds 21 1018 73 10000 5.1 350 09:42 03.07.2020
421 Rain 21 1018 77 10000 4.6 350 09:22 03.07.2020
422 Rain 21 1018 77 10000 4.6 350 08:59 03.07.2020
423 Rain 21 1017 83 10000 1.5 330 08:39 03.07.2020
424 Clouds 21 1017 83 10000 2.1 330 08:18 03.07.2020
425 Clouds 21 1017 77 10000 2.6 30 07:47 03.07.2020
426 Rain 21 1016 88 10000 3.6 340 07:24 03.07.2020
427 Rain 21 1016 94 10000 4.1 360 06:47 03.07.2020
428 Rain 21 1017 100 1000 10.3 280 05:57 03.07.2020
429 Clouds 23 1016 69 10000 3.1 330 04:40 03.07.2020
430 Clouds 24 1016 69 10000 3.6 330 02:58 03.07.2020
431 Clouds 24 1016 69 10000 2.6 330 02:39 03.07.2020
432 Clouds 24 1016 65 10000 2.6 280 02:18 03.07.2020
433 Clouds 24 1016 73 10000 2.1 270 01:27 03.07.2020
434 Clouds 24 1015 78 10000 2.6 80 00:44 03.07.2020
435 Clouds 25 1015 69 10000 0.5 0 00:21 03.07.2020
436 Clouds 25 1015 69 10000 1.5 100 23:43 02.07.2020
437 Clouds 25 1015 73 10000 3.1 80 23:20 02.07.2020
438 Clouds 25 1015 73 10000 3.1 80 22:57 02.07.2020
439 Clouds 25 1014 69 10000 4.6 80 22:39 02.07.2020
440 Clouds 25 1014 65 10000 3.6 90 22:20 02.07.2020
441 Clouds 25 1014 65 10000 3.6 90 22:20 02.07.2020
442 Clouds 25 1014 65 10000 3.6 90 21:54 02.07.2020
443 Clouds 25 1014 65 10000 4.6 90 21:36 02.07.2020
444 Clouds 26 1014 69 10000 5.7 90 21:18 02.07.2020
445 Clear 26 1014 65 10000 5.7 90 20:42 02.07.2020
446 Clear 26 1013 61 10000 5.1 90 20:21 02.07.2020
447 Clear 26 1013 61 10000 5.1 90 20:21 02.07.2020
448 Clear 26 1013 61 10000 5.1 90 19:59 02.07.2020
449 Clouds 26 1013 61 10000 4.6 100 19:38 02.07.2020
450 Clouds 27 1013 61 10000 5.1 110 19:20 02.07.2020
451 Clouds 27 1013 61 10000 5.7 100 18:57 02.07.2020
452 Clouds 27 1013 61 10000 5.7 100 18:38 02.07.2020
453 Clouds 27 1013 69 10000 4.6 120 18:20 02.07.2020
454 Clouds 27 1013 69 10000 4.1 140 17:40 02.07.2020
455 Clouds 28 1014 69 10000 4.6 160 17:20 02.07.2020
456 Clouds 28 1014 69 10000 4.6 160 16:56 02.07.2020
457 Clouds 29 1014 74 10000 5.7 180 16:38 02.07.2020
458 Clouds 28 1014 74 10000 5.7 190 16:19 02.07.2020
459 Clouds 29 1014 65 10000 5.1 200 15:55 02.07.2020
460 Clouds 29 1014 65 10000 5.1 200 15:36 02.07.2020
461 Clouds 29 1014 65 10000 5.1 200 15:36 02.07.2020
462 Clouds 29 1014 69 10000 7.2 200 15:18 02.07.2020
463 Clouds 29 1014 69 10000 6.7 200 14:42 02.07.2020
464 Clouds 29 1014 65 10000 6.2 220 14:19 02.07.2020
465 Clouds 29 1014 65 10000 6.2 220 13:55 02.07.2020
466 Clouds 29 1014 74 10000 5.7 210 13:36 02.07.2020
467 Clouds 29 1014 69 10000 6.2 200 13:18 02.07.2020
468 Clouds 29 1014 74 10000 5.1 210 12:40 02.07.2020
469 Clouds 28 1014 69 10000 4.1 200 12:21 02.07.2020
470 Clouds 28 1014 74 10000 4.6 190 11:45 02.07.2020
471 Clouds 28 1014 74 10000 4.6 190 11:27 02.07.2020
472 Clouds 27 1014 74 10000 4.1 190 10:58 02.07.2020
473 Clouds 27 1014 74 10000 2.6 150 10:39 02.07.2020
474 Clouds 27 1014 74 10000 1 280 10:21 02.07.2020
475 Clouds 26 1014 83 10000 1.5 200 09:43 02.07.2020
476 Clouds 25 1013 83 10000 0.5 210 09:22 02.07.2020
477 Clouds 25 1013 83 10000 0.5 210 08:58 02.07.2020
478 Clouds 25 1013 83 10000 0.5 0 08:39 02.07.2020
479 Clouds 24 1013 88 10000 1 0 08:19 02.07.2020
480 Clouds 24 1013 83 10000 1.5 300 07:41 02.07.2020
481 Clouds 23 1013 88 10000 1.5 310 07:21 02.07.2020
482 Clouds 23 1013 88 10000 1.5 10 06:41 02.07.2020
483 Clouds 24 1012 88 10000 3.1 30 06:20 02.07.2020
484 Clouds 24 1013 83 10000 3.1 30 05:47 02.07.2020
485 Clouds 24 1012 88 10000 2.1 50 04:50 02.07.2020
486 Clouds 24 1013 83 10000 1.5 70 03:34 02.07.2020
487 Clouds 24 1013 88 10000 2.1 90 01:50 02.07.2020
488 Clouds 25 1013 83 10000 2.6 80 00:44 02.07.2020
489 Clouds 25 1013 78 10000 3.6 60 00:18 02.07.2020
490 Clouds 25 1012 78 10000 3.1 70 23:43 01.07.2020
491 Clouds 25 1012 78 10000 3.1 70 23:22 01.07.2020
492 Clouds 25 1011 78 10000 1.5 100 22:55 01.07.2020
493 Clouds 25 1011 78 10000 1.5 100 22:37 01.07.2020
494 Clouds 25 1011 83 10000 1.5 120 22:18 01.07.2020
495 Clouds 25 1011 83 10000 1.5 120 21:56 01.07.2020
496 Clouds 26 1011 83 10000 2.1 180 21:38 01.07.2020
497 Clouds 26 1010 83 10000 3.1 190 21:19 01.07.2020
498 Clouds 27 1011 74 10000 3.1 190 20:46 01.07.2020
499 Clouds 28 1011 74 10000 3.1 190 20:26 01.07.2020
500 Clear 28 1010 74 10000 3.1 170 19:57 01.07.2020
501 Clear 28 1010 69 10000 3.6 170 19:39 01.07.2020
502 Clear 28 1010 74 10000 3.6 150 19:20 01.07.2020
503 Clouds 28 1010 69 10000 3.6 140 18:55 01.07.2020
504 Clouds 28 1010 69 10000 3.6 140 18:37 01.07.2020
505 Clouds 29 1010 65 10000 3.6 130 18:19 01.07.2020
506 Clouds 29 1010 62 10000 3.6 120 17:41 01.07.2020
507 Clear 30 1011 58 10000 3.6 120 17:20 01.07.2020
508 Clear 30 1011 45 10000 4.6 120 16:56 01.07.2020
509 Clear 30 1011 45 10000 4.6 120 16:38 01.07.2020
510 Clear 30 1011 58 10000 3.6 120 16:20 01.07.2020
511 Clear 30 1011 51 10000 3.6 110 15:41 01.07.2020
512 Clear 31 1011 58 10000 3.6 120 15:22 01.07.2020
513 Clear 31 1011 62 10000 3.1 120 14:56 01.07.2020
514 Clear 30 1011 62 10000 3.1 120 14:37 01.07.2020
515 Clear 30 1011 58 10000 3.6 120 14:19 01.07.2020
516 Clear 31 1011 61 10000 3.6 140 13:40 01.07.2020
517 Clear 31 1011 58 10000 3.1 130 13:22 01.07.2020
518 Clear 31 1011 54 10000 2.6 110 12:59 01.07.2020
519 Clear 31 1012 48 10000 1 150 12:40 01.07.2020
520 Clouds 30 1011 62 10000 3.1 110 12:22 01.07.2020
521 Clouds 30 1011 62 10000 3.1 110 11:57 01.07.2020
522 Clear 30 1012 51 10000 1 0 11:38 01.07.2020
523 Clear 30 1012 51 10000 1 0 11:38 01.07.2020
524 Clouds 29 1011 54 10000 1 0 11:19 01.07.2020
525 Clouds 28 1011 58 10000 2.1 350 10:43 01.07.2020
526 Clouds 28 1011 58 10000 2.1 350 10:23 01.07.2020
527 Clouds 27 1011 65 10000 3.1 330 09:59 01.07.2020
528 Clear 26 1011 73 10000 3.1 320 09:38 01.07.2020
529 Clear 25 1011 73 10000 2.6 330 09:20 01.07.2020
530 Clear 24 1011 78 10000 3.1 330 08:56 01.07.2020
531 Clear 24 1011 78 10000 3.1 330 08:38 01.07.2020
532 Clear 23 1011 88 10000 3.1 330 08:18 01.07.2020
533 Clear 23 1011 88 10000 3.1 330 07:40 01.07.2020
534 Clear 23 1011 88 10000 3.1 320 07:21 01.07.2020
535 Clear 23 1011 88 10000 3.1 320 07:21 01.07.2020
536 Clear 23 1011 88 10000 2.6 320 06:50 01.07.2020
537 Clear 23 1011 88 10000 2.6 320 06:28 01.07.2020
538 Clouds 22 1011 88 10000 2.1 320 05:30 01.07.2020
539 Clouds 23 1012 88 10000 0.5 290 03:55 01.07.2020
540 Clouds 23 1012 83 10000 0.57 171 03:36 01.07.2020
541 Clouds 23 1012 83 10000 0.36 244 03:18 01.07.2020
542 Clouds 24 1013 83 10000 0.5 0 01:55 01.07.2020
543 Clear 24 1013 88 7000 0.5 170 00:48 01.07.2020
544 Clouds 24 1013 83 10000 0.5 0 00:26 01.07.2020
545 Clouds 24 1013 83 10000 0.5 0 23:57 30.06.2020
546 Clouds 24 1013 83 10000 0.5 0 23:39 30.06.2020
547 Clouds 24 1013 83 10000 1 130 23:19 30.06.2020
548 Clouds 24 1013 83 10000 0.5 0 22:41 30.06.2020
549 Clouds 25 1013 83 10000 1.5 160 22:18 30.06.2020
550 Clouds 25 1013 83 10000 1.5 160 21:41 30.06.2020
551 Clouds 25 1013 83 10000 2.6 170 21:19 30.06.2020
552 Clouds 25 1013 83 10000 2.6 170 20:59 30.06.2020
553 Clouds 26 1013 78 10000 2.6 160 20:40 30.06.2020
554 Clouds 26 1013 78 10000 3.1 160 20:20 30.06.2020
555 Clouds 27 1013 74 10000 3.1 170 19:43 30.06.2020
556 Clouds 27 1013 74 10000 3.6 160 19:20 30.06.2020
557 Clouds 26 1013 74 10000 3.6 160 19:20 30.06.2020
558 Clouds 27 1013 74 10000 4.1 170 18:54 30.06.2020
559 Clouds 27 1013 74 10000 4.1 170 18:36 30.06.2020
560 Clouds 27 1014 74 10000 4.1 170 18:18 30.06.2020
561 Clouds 27 1014 74 10000 4.1 170 18:18 30.06.2020
562 Clouds 27 1014 69 10000 4.1 170 17:38 30.06.2020
563 Clouds 28 1014 74 10000 4.6 170 17:20 30.06.2020
564 Clouds 27 1014 74 10000 4.6 170 16:56 30.06.2020
565 Clouds 27 1014 69 10000 5.1 160 16:37 30.06.2020
566 Clouds 27 1014 69 10000 4.6 160 16:19 30.06.2020
567 Clouds 27 1015 69 10000 4.6 150 15:42 30.06.2020
568 Clouds 27 1015 69 10000 4.6 160 15:23 30.06.2020
569 Clouds 27 1015 69 10000 4.6 160 14:58 30.06.2020
570 Clouds 27 1015 69 10000 4.6 160 14:58 30.06.2020
571 Clouds 26 1015 69 10000 5.1 150 14:40 30.06.2020
572 Clouds 27 1015 69 10000 4.6 140 14:21 30.06.2020
573 Clouds 26 1015 74 10000 4.6 160 13:42 30.06.2020
574 Clouds 26 1015 74 10000 3.6 150 13:21 30.06.2020
575 Clouds 26 1015 74 10000 3.6 150 12:59 30.06.2020
576 Clouds 26 1015 74 10000 3.6 150 12:41 30.06.2020
577 Clouds 25 1015 74 10000 3.1 160 12:23 30.06.2020
578 Clouds 25 1015 74 10000 3.1 160 11:59 30.06.2020
579 Clouds 25 1016 78 10000 3.1 160 11:39 30.06.2020
580 Clouds 25 1015 78 10000 2.6 150 11:20 30.06.2020
581 Clouds 25 1015 78 10000 2.6 150 11:20 30.06.2020
582 Clouds 25 1015 78 10000 2.6 160 10:59 30.06.2020
583 Clear 28 1017 74 10000 5.7 210 16:45 28.06.2020
584 Clear 28 1017 69 10000 4.6 200 16:27 28.06.2020
585 Clear 29 1017 69 10000 4.6 200 15:59 28.06.2020
586 Clear 29 1017 40 10000 4.6 140 15:39 28.06.2020
587 Clear 28 1017 74 10000 4.6 190 15:20 28.06.2020
588 Clear 29 1017 45 10000 4.6 130 14:55 28.06.2020
589 Clear 29 1017 45 10000 4.6 130 14:37 28.06.2020
590 Clear 29 1018 40 10000 5.1 120 14:19 28.06.2020
591 Clear 28 1018 74 10000 4.6 170 13:39 28.06.2020
592 Clear 28 1018 69 10000 3.6 170 13:21 28.06.2020
593 Clear 28 1018 69 10000 3.6 170 12:57 28.06.2020
594 Clear 28 1018 69 10000 4.1 170 12:38 28.06.2020
595 Clear 28 1018 69 10000 3.6 170 12:19 28.06.2020
596 Clear 28 1018 69 10000 3.6 170 11:58 28.06.2020
597 Clear 28 1018 51 10000 0.5 170 11:39 28.06.2020
598 Clear 28 1018 51 10000 0.5 170 11:39 28.06.2020
599 Clear 28 1017 58 10000 1 150 11:20 28.06.2020
600 Clear 27 1017 61 10000 0.5 250 10:57 28.06.2020
601 Clear 27 1017 61 10000 0.5 250 10:39 28.06.2020
602 Clear 27 1018 69 10000 0.5 180 10:21 28.06.2020
603 Clear 26 1017 78 10000 2.6 320 09:40 28.06.2020
604 Clear 24 1017 78 10000 3.1 320 09:21 28.06.2020
605 Clear 24 1017 83 10000 2.6 320 08:53 28.06.2020
606 Clear 24 1017 83 10000 2.6 320 08:34 28.06.2020
607 Clear 23 1017 83 10000 2.1 310 07:53 28.06.2020
608 Clear 22 1017 88 10000 2.6 320 07:31 28.06.2020
609 Clouds 22 1017 88 10000 2.6 330 06:55 28.06.2020
610 Clouds 22 1017 88 10000 2.6 330 06:32 28.06.2020
611 Clouds 22 1017 88 10000 2.1 320 05:30 28.06.2020
612 Clouds 23 1017 83 10000 1.19 133 03:52 28.06.2020
613 Clouds 23 1017 78 10000 1 0 02:51 28.06.2020
614 Clouds 24 1017 78 10000 1 0 02:19 28.06.2020
615 Clouds 24 1016 78 10000 2.1 90 01:27 28.06.2020
616 Clouds 24 1017 83 10000 1.5 90 00:53 28.06.2020
617 Clouds 24 1017 83 10000 1.5 90 00:29 28.06.2020
618 Clouds 24 1016 83 10000 1.5 100 23:45 27.06.2020
619 Clouds 24 1016 83 10000 1.5 100 23:24 27.06.2020
620 Clouds 24 1016 78 10000 1.5 100 22:59 27.06.2020
621 Clouds 24 1016 83 10000 1 110 22:41 27.06.2020
622 Clouds 24 1015 78 10000 1 0 22:23 27.06.2020
623 Clouds 24 1015 78 10000 1 0 21:58 27.06.2020
624 Clouds 24 1015 78 10000 1.5 150 21:40 27.06.2020
625 Clouds 25 1015 78 10000 2.1 130 21:20 27.06.2020
626 Clouds 25 1015 78 10000 2.1 130 21:20 27.06.2020
627 Clouds 25 1015 78 10000 2.1 130 20:55 27.06.2020
628 Clouds 25 1015 78 10000 2.1 120 20:36 27.06.2020
629 Clouds 25 1015 78 10000 2.6 150 20:18 27.06.2020
630 Clouds 26 1015 73 10000 2.6 140 19:37 27.06.2020
631 Clouds 26 1015 69 10000 2.6 150 19:19 27.06.2020
632 Clouds 26 1015 69 10000 2.6 150 19:19 27.06.2020
633 Clouds 26 1015 69 10000 3.1 150 18:48 27.06.2020
634 Clouds 26 1015 69 10000 3.1 150 18:29 27.06.2020
635 Clouds 26 1015 74 10000 3.1 140 17:59 27.06.2020
636 Clouds 26 1015 69 10000 3.6 130 17:40 27.06.2020
637 Clouds 27 1015 65 10000 3.6 130 17:20 27.06.2020
638 Clouds 27 1015 65 10000 3.6 130 16:57 27.06.2020
639 Clouds 27 1015 69 10000 3.1 130 16:38 27.06.2020
640 Clouds 27 1015 69 10000 3.6 120 16:19 27.06.2020
641 Clouds 27 1016 69 10000 4.1 110 15:42 27.06.2020
642 Clouds 27 1016 69 10000 4.1 110 15:24 27.06.2020
643 Clouds 27 1016 69 10000 4.1 110 15:24 27.06.2020
644 Clouds 26 1016 69 10000 4.1 110 14:57 27.06.2020
645 Clouds 26 1016 69 10000 3.6 100 14:38 27.06.2020
646 Clouds 27 1016 69 10000 3.6 120 14:19 27.06.2020
647 Clouds 27 1016 69 10000 4.1 110 13:42 27.06.2020
648 Clouds 27 1016 69 10000 4.1 120 13:20 27.06.2020
649 Clouds 27 1015 69 10000 4.1 100 12:58 27.06.2020
650 Clouds 27 1015 69 10000 4.1 100 12:40 27.06.2020
651 Clouds 26 1015 69 10000 4.6 80 12:22 27.06.2020
652 Clouds 26 1015 69 10000 4.6 80 11:58 27.06.2020
653 Clouds 26 1015 69 10000 4.1 90 11:38 27.06.2020
654 Clouds 26 1015 73 10000 4.1 90 11:19 27.06.2020
655 Clouds 26 1015 73 10000 3.1 60 10:41 27.06.2020
656 Clouds 25 1015 69 10000 3.6 70 10:19 27.06.2020
657 Clouds 25 1015 69 10000 3.6 70 09:58 27.06.2020
658 Clouds 24 1015 69 10000 2.6 310 09:39 27.06.2020
659 Clouds 24 1014 69 10000 2.6 320 09:20 27.06.2020
660 Clouds 24 1014 73 10000 3.1 320 08:42 27.06.2020
661 Clouds 24 1014 73 10000 3.1 320 08:23 27.06.2020
662 Clouds 23 1014 73 10000 2.6 320 07:48 27.06.2020
663 Clouds 23 1014 73 10000 0.5 320 07:25 27.06.2020
664 Clouds 23 1014 73 10000 1.5 340 06:51 27.06.2020
665 Clouds 23 1014 73 10000 1.5 340 06:33 27.06.2020
666 Clouds 23 1014 73 10000 2.6 330 04:51 27.06.2020
667 Clouds 24 1014 73 10000 0.5 40 04:18 27.06.2020
668 Clouds 23 1014 73 10000 1 0 03:46 27.06.2020
669 Clouds 23 1014 64 10000 1.5 320 02:42 27.06.2020
670 Clear 23 1014 64 10000 1.5 0 02:23 27.06.2020
671 Clear 24 1014 61 10000 1.5 90 01:34 27.06.2020
672 Clear 23 1014 64 10000 2.1 320 00:47 27.06.2020
673 Clear 25 1014 69 10000 1.5 90 23:56 26.06.2020
674 Clear 25 1014 78 10000 1.5 60 23:37 26.06.2020
675 Clear 25 1013 73 10000 2.6 80 23:19 26.06.2020
676 Clear 25 1013 69 10000 1.5 80 22:42 26.06.2020
677 Clear 25 1013 69 10000 1.5 60 22:24 26.06.2020
678 Clear 25 1013 69 10000 1.5 60 21:58 26.06.2020
679 Clear 25 1013 73 10000 1.5 80 21:39 26.06.2020
680 Clear 25 1013 73 10000 2.1 80 21:21 26.06.2020
681 Clear 26 1013 73 10000 2.1 80 20:58 26.06.2020
682 Clear 26 1013 61 10000 2.1 90 20:38 26.06.2020
683 Clear 27 1013 69 10000 2.6 90 20:18 26.06.2020
684 Clear 27 1013 74 10000 3.6 110 19:40 26.06.2020
685 Clear 27 1014 74 10000 4.6 120 19:20 26.06.2020
686 Clear 27 1014 54 10000 3.6 110 18:43 26.06.2020
687 Clear 28 1014 58 10000 4.1 110 18:25 26.06.2020
688 Clear 28 1014 61 10000 4.1 110 17:54 26.06.2020
689 Clear 29 1014 61 10000 4.1 110 17:36 26.06.2020
690 Clear 29 1014 51 10000 4.1 110 17:18 26.06.2020
691 Clear 29 1015 58 10000 4.1 120 16:42 26.06.2020
692 Clear 29 1015 58 10000 4.1 120 16:23 26.06.2020
693 Clear 29 1015 42 10000 3.6 150 15:41 26.06.2020
694 Clear 29 1015 54 10000 3.6 110 15:22 26.06.2020
695 Clear 29 1015 57 10000 3.1 140 14:58 26.06.2020
696 Clear 29 1015 57 10000 3.1 140 14:40 26.06.2020
697 Clear 29 1015 54 10000 3.1 140 14:21 26.06.2020
698 Clear 29 1015 57 10000 2.6 140 13:47 26.06.2020
699 Clear 29 1015 57 10000 2.6 140 13:25 26.06.2020
700 Clear 29 1015 57 10000 3.1 130 12:59 26.06.2020
701 Clear 29 1015 51 10000 3.6 130 12:41 26.06.2020
702 Clear 29 1015 45 10000 2.1 140 12:22 26.06.2020
703 Clear 29 1015 45 10000 2.1 140 11:57 26.06.2020
704 Clear 28 1015 44 10000 2.6 140 11:39 26.06.2020
705 Clear 29 1015 45 10000 2.6 140 11:20 26.06.2020
706 Clear 28 1015 47 10000 2.1 320 10:57 26.06.2020
707 Clear 28 1015 47 10000 2.1 320 10:38 26.06.2020
708 Clear 28 1015 57 10000 3.1 320 10:18 26.06.2020
709 Clear 27 1015 60 10000 3.1 320 09:43 26.06.2020
710 Clear 23 1015 60 10000 4.1 320 09:23 26.06.2020
711 Clear 24 1015 64 10000 3.6 320 08:55 26.06.2020
712 Clear 23 1015 64 10000 3.6 320 08:28 26.06.2020
713 Clear 23 1015 64 10000 3.1 330 07:53 26.06.2020
714 Clear 23 1015 64 10000 3.1 330 07:24 26.06.2020
715 Clear 23 1015 64 10000 4.6 330 06:58 26.06.2020
716 Clear 23 1015 64 10000 4.6 330 06:36 26.06.2020
717 Clear 23 1015 60 10000 3.1 330 06:18 26.06.2020
718 Clear 23 1015 64 10000 2.1 330 05:41 26.06.2020
719 Clear 23 1016 64 10000 2.1 290 03:52 26.06.2020
720 Clear 23 1016 53 10000 0.5 0 02:22 26.06.2020
721 Clear 24 1016 53 10000 1 320 01:20 26.06.2020
722 Clear 24 1016 57 10000 1.5 350 00:41 26.06.2020
723 Clear 25 1016 64 10000 2.1 270 00:19 26.06.2020
724 Clear 25 1016 69 10000 1 0 23:42 25.06.2020
725 Clear 25 1015 69 10000 1 0 23:18 25.06.2020
726 Clear 25 1015 65 10000 2.1 210 22:56 25.06.2020
727 Clear 25 1015 65 10000 2.1 210 22:37 25.06.2020
728 Clear 26 1015 65 10000 1 0 22:18 25.06.2020
729 Clear 26 1015 65 10000 2.1 200 21:56 25.06.2020
730 Clear 26 1015 65 10000 1 0 21:56 25.06.2020
731 Clear 26 1015 65 10000 2.1 200 21:38 25.06.2020
732 Clear 26 1015 61 10000 2.6 170 21:19 25.06.2020
733 Clear 26 1015 61 10000 2.6 170 21:19 25.06.2020
734 Clear 26 1016 61 10000 3.1 180 20:44 25.06.2020
735 Clear 28 1015 51 10000 2.6 160 20:23 25.06.2020
736 Clear 28 1015 51 10000 2.6 160 19:58 25.06.2020
737 Clear 28 1016 47 10000 2.6 150 19:39 25.06.2020
738 Clouds 28 1016 47 10000 2.6 150 19:19 25.06.2020
739 Clouds 28 1015 44 10000 2.6 130 18:56 25.06.2020
740 Clouds 28 1015 44 10000 2.6 130 18:37 25.06.2020
741 Clouds 28 1015 42 10000 2.6 140 18:19 25.06.2020
742 Clouds 28 1015 47 10000 2.6 160 17:41 25.06.2020
743 Clouds 28 1015 54 10000 3.6 150 17:19 25.06.2020
744 Clouds 28 1016 54 10000 3.1 150 16:55 25.06.2020
745 Clouds 28 1016 54 10000 3.1 150 16:36 25.06.2020
746 Clouds 28 1016 61 10000 3.6 170 16:18 25.06.2020
747 Clouds 28 1016 61 10000 3.1 170 15:41 25.06.2020
748 Clouds 28 1016 69 10000 4.1 160 15:19 25.06.2020
749 Clouds 27 1017 69 10000 4.1 160 14:43 25.06.2020
750 Clouds 28 1017 65 10000 5.1 130 14:23 25.06.2020
751 Clouds 27 1017 69 10000 4.1 160 13:56 25.06.2020
752 Clouds 27 1017 69 10000 3.6 150 13:38 25.06.2020
753 Clouds 27 1017 78 10000 4.1 150 13:19 25.06.2020
754 Clouds 27 1017 73 10000 3.6 140 12:45 25.06.2020
755 Clouds 27 1016 61 10000 3.6 130 12:21 25.06.2020
756 Clouds 27 1016 61 10000 3.6 130 11:58 25.06.2020
757 Clouds 27 1016 57 10000 3.1 130 11:40 25.06.2020
758 Clouds 27 1016 57 10000 1.5 0 11:21 25.06.2020
759 Clouds 27 1016 54 10000 1 320 10:42 25.06.2020
760 Clouds 26 1016 65 10000 1.5 300 10:23 25.06.2020
761 Clouds 26 1016 69 10000 3.1 340 09:42 25.06.2020
762 Clouds 25 1016 69 10000 3.1 340 09:23 25.06.2020
763 Clouds 25 1016 69 10000 3.1 340 09:23 25.06.2020
764 Clouds 24 1016 73 10000 1.5 330 08:59 25.06.2020
765 Clouds 23 1016 78 10000 1.5 320 08:40 25.06.2020
766 Clouds 23 1016 78 10000 0.83 97 08:18 25.06.2020
767 Clouds 23 1016 83 10000 2.6 320 07:42 25.06.2020
768 Clouds 22 1016 83 10000 2.1 310 07:24 25.06.2020
769 Clouds 22 1016 83 10000 2.1 330 06:37 25.06.2020
770 Clouds 22 1016 78 10000 3.1 320 06:18 25.06.2020
771 Clouds 22 1016 78 10000 2.6 320 05:32 25.06.2020
772 Clouds 23 1017 83 10000 2.6 250 03:42 25.06.2020
773 Clouds 23 1017 83 10000 2.1 240 02:56 25.06.2020
774 Clouds 23 1017 83 10000 2.1 220 02:37 25.06.2020
775 Clouds 23 1017 83 10000 2.1 200 01:42 25.06.2020
776 Clouds 23 1017 78 10000 2.1 190 00:51 25.06.2020
777 Clouds 23 1017 78 10000 2.1 190 00:51 25.06.2020
778 Clouds 24 1017 78 10000 2.1 190 00:24 25.06.2020
779 Clouds 23 1017 83 10000 2.6 200 23:58 24.06.2020
780 Clouds 24 1017 83 10000 2.6 200 23:38 24.06.2020
781 Clouds 24 1017 78 10000 1.5 140 23:19 24.06.2020
782 Clouds 24 1017 78 10000 1.5 170 22:43 24.06.2020
783 Clouds 24 1017 78 10000 1.5 170 22:21 24.06.2020
784 Clouds 25 1017 78 10000 2.1 170 21:57 24.06.2020
785 Clouds 25 1017 78 10000 3.1 210 21:38 24.06.2020
786 Clear 25 1017 73 10000 2.6 180 21:19 24.06.2020
787 Clear 25 1017 73 10000 2.6 180 20:59 24.06.2020
788 Clear 26 1017 69 10000 3.1 180 20:41 24.06.2020
789 Clear 26 1017 69 10000 3.1 180 20:22 24.06.2020
790 Clear 27 1017 69 10000 2.6 200 19:59 24.06.2020
791 Clear 27 1017 69 10000 3.6 190 19:39 24.06.2020
792 Clear 27 1017 69 10000 3.1 200 19:21 24.06.2020
793 Clear 27 1017 69 10000 3.1 200 18:58 24.06.2020
794 Clear 27 1017 69 10000 4.6 200 18:40 24.06.2020
795 Clear 27 1017 65 10000 4.6 190 18:21 24.06.2020
796 Clear 27 1017 65 10000 4.6 190 17:56 24.06.2020
797 Clear 28 1017 74 10000 4.6 180 17:56 24.06.2020
798 Clear 28 1017 74 10000 4.6 180 17:38 24.06.2020
799 Clear 28 1017 69 10000 4.6 180 17:19 24.06.2020
800 Clear 28 1017 48 10000 5.1 170 16:56 24.06.2020
801 Clear 28 1017 69 10000 4.6 190 16:37 24.06.2020
802 Clear 28 1017 69 10000 4.6 190 16:37 24.06.2020
803 Clear 28 1017 65 10000 4.6 180 16:19 24.06.2020
804 Clear 28 1017 65 10000 4.6 180 15:55 24.06.2020
805 Clear 28 1018 74 10000 5.1 180 15:37 24.06.2020
806 Clear 28 1017 74 10000 4.6 190 15:19 24.06.2020
807 Clear 28 1017 65 10000 4.6 180 14:42 24.06.2020
808 Clear 28 1017 65 10000 4.6 180 14:24 24.06.2020
809 Clear 28 1017 51 10000 1.5 230 13:43 24.06.2020
810 Clear 28 1017 54 10000 2.6 160 13:22 24.06.2020
811 Clear 27 1017 57 10000 2.1 190 12:56 24.06.2020
812 Clear 27 1017 73 10000 4.6 180 12:37 24.06.2020
813 Clear 27 1018 65 10000 2.1 250 12:18 24.06.2020
814 Clear 26 1017 69 10000 4.6 190 11:54 24.06.2020
815 Clear 26 1017 69 10000 4.6 190 11:36 24.06.2020
816 Clear 26 1017 69 10000 4.6 190 11:36 24.06.2020
817 Clear 26 1018 65 10000 2.1 190 11:18 24.06.2020
818 Clouds 25 1018 78 10000 2.6 180 10:41 24.06.2020
819 Clouds 25 1018 78 10000 2.1 220 10:18 24.06.2020
820 Clouds 24 1017 73 10000 0.5 250 09:42 24.06.2020
821 Clouds 24 1017 78 10000 1.5 330 09:21 24.06.2020
822 Clouds 23 1017 77 10000 2.6 320 08:42 24.06.2020
823 Clouds 22 1017 82 10000 2.6 320 08:21 24.06.2020
824 Clouds 22 1017 82 10000 1.5 320 07:51 24.06.2020
825 Clouds 22 1017 82 10000 3.1 320 07:31 24.06.2020
826 Clouds 21 1017 77 10000 2.6 320 06:51 24.06.2020
827 Clouds 21 1017 77 10000 2.6 320 06:25 24.06.2020
828 Clouds 21 1017 77 10000 1.5 320 05:56 24.06.2020
829 Clouds 21 1017 77 9000 1.5 310 04:46 24.06.2020
830 Clouds 22 1017 77 9000 1.5 310 04:28 24.06.2020
831 Clouds 22 1018 94 9000 2.6 250 03:34 24.06.2020
832 Clouds 22 1018 94 9000 2.6 230 02:50 24.06.2020
833 Clouds 22 1018 94 9000 2.6 220 01:45 24.06.2020
834 Clouds 23 1018 88 10000 2.6 220 00:47 24.06.2020
835 Clouds 23 1018 88 10000 2.6 220 00:27 24.06.2020
836 Clear 23 1018 83 10000 3.1 220 23:46 23.06.2020
837 Clear 23 1017 83 10000 3.1 220 23:20 23.06.2020
838 Clear 24 1017 83 10000 3.1 220 22:54 23.06.2020
839 Clear 24 1017 83 10000 3.1 220 22:36 23.06.2020
840 Clear 24 1017 83 10000 4.1 220 22:18 23.06.2020
841 Clear 24 1017 78 10000 4.1 220 21:41 23.06.2020
842 Clear 25 1017 78 10000 4.6 210 21:20 23.06.2020
843 Clear 25 1017 78 10000 4.6 210 21:20 23.06.2020
844 Clear 25 1017 78 10000 4.6 210 20:56 23.06.2020
845 Clear 25 1017 78 10000 4.6 210 20:56 23.06.2020
846 Clear 26 1017 73 10000 6.2 220 20:37 23.06.2020
847 Clouds 26 1017 73 10000 6.2 210 20:19 23.06.2020
848 Clear 27 1016 51 10000 4.1 170 19:49 23.06.2020
849 Clouds 27 1017 51 10000 4.1 170 19:28 23.06.2020
850 Clear 27 1017 73 10000 7.2 210 18:55 23.06.2020
851 Clouds 28 1017 51 10000 3.1 180 18:37 23.06.2020
852 Clouds 28 1017 48 10000 4.6 180 18:18 23.06.2020
853 Clouds 28 1017 48 10000 4.1 180 17:39 23.06.2020
854 Clouds 28 1017 48 10000 4.6 200 17:21 23.06.2020
855 Clouds 28 1017 48 10000 4.6 200 16:56 23.06.2020
856 Clouds 28 1017 48 10000 5.1 170 16:38 23.06.2020
857 Clouds 28 1017 48 10000 5.1 170 16:38 23.06.2020
858 Clouds 28 1017 51 10000 5.1 180 16:20 23.06.2020
859 Clouds 28 1017 51 10000 5.1 180 15:55 23.06.2020
860 Clouds 28 1018 69 10000 7.7 210 15:37 23.06.2020
861 Clouds 28 1018 48 10000 5.1 160 15:18 23.06.2020
862 Clouds 28 1018 51 10000 4.6 180 14:42 23.06.2020
863 Clouds 28 1018 58 10000 1.5 330 14:19 23.06.2020
864 Clouds 28 1018 58 10000 3.1 120 13:56 23.06.2020
865 Clouds 28 1018 58 10000 3.1 120 13:38 23.06.2020
866 Clouds 28 1019 48 10000 3.1 190 13:20 23.06.2020
867 Clear 28 1019 54 10000 3.1 220 12:41 23.06.2020
868 Clear 27 1019 57 10000 2.1 200 12:22 23.06.2020
869 Clear 27 1019 57 10000 2.1 180 11:55 23.06.2020
870 Clear 27 1019 57 10000 2.1 180 11:37 23.06.2020
871 Clouds 27 1019 69 10000 5.7 220 11:19 23.06.2020
872 Clouds 26 1019 69 10000 3.6 230 10:55 23.06.2020
873 Clouds 26 1019 69 10000 3.6 230 10:37 23.06.2020
874 Clouds 25 1019 73 10000 1 0 10:19 23.06.2020
875 Clear 24 1019 69 10000 2.1 290 09:41 23.06.2020
876 Clear 24 1019 78 10000 2.6 300 09:20 23.06.2020
877 Clear 23 1019 83 10000 2.6 320 08:48 23.06.2020
878 Clouds 23 1019 83 10000 3.1 320 08:29 23.06.2020
879 Clouds 22 1019 83 10000 3.1 320 07:59 23.06.2020
880 Clouds 22 1019 88 10000 3.1 320 07:39 23.06.2020
881 Clouds 21 1019 83 10000 2.6 320 07:21 23.06.2020
882 Clouds 21 1019 77 10000 1.5 310 06:48 23.06.2020
883 Clouds 21 1019 77 10000 1.5 310 06:30 23.06.2020
884 Clouds 21 1019 77 10000 1.5 330 05:39 23.06.2020
885 Clouds 22 1020 88 10000 2.6 300 03:39 23.06.2020
886 Clouds 22 1020 88 10000 1.5 290 02:56 23.06.2020
887 Clouds 22 1020 88 10000 1.5 290 02:36 23.06.2020
888 Clear 22 1020 88 10000 1.5 210 01:51 23.06.2020
889 Clear 22 1020 88 10000 1.5 210 01:32 23.06.2020
890 Clear 22 1021 78 10000 1 160 00:56 23.06.2020
891 Clear 22 1021 78 10000 1 160 00:24 23.06.2020
892 Clear 22 1020 78 10000 1 130 23:56 22.06.2020
893 Clear 22 1020 78 10000 1 130 23:38 22.06.2020
894 Clear 23 1020 78 10000 1 0 23:19 22.06.2020
895 Clear 23 1020 78 10000 1 0 22:56 22.06.2020
896 Clear 23 1020 78 10000 1.5 150 22:37 22.06.2020
897 Clear 23 1020 78 10000 1.5 140 22:19 22.06.2020
898 Clear 23 1019 73 10000 2.1 130 21:57 22.06.2020
899 Clear 23 1019 73 10000 2.1 130 21:38 22.06.2020
900 Clear 24 1019 73 10000 2.6 140 21:20 22.06.2020
901 Clear 24 1019 73 10000 2.6 150 20:41 22.06.2020
902 Clear 24 1019 73 10000 2.6 160 20:23 22.06.2020
903 Clear 25 1019 69 10000 2.6 180 19:56 22.06.2020
904 Clear 25 1019 69 10000 2.6 180 19:37 22.06.2020
905 Clouds 25 1020 65 10000 4.1 180 19:18 22.06.2020
906 Clouds 25 1020 65 10000 4.1 180 18:40 22.06.2020
907 Clouds 25 1020 65 10000 4.1 180 18:22 22.06.2020
908 Clouds 25 1020 69 10000 4.1 170 17:57 22.06.2020
909 Clouds 25 1020 64 10000 4.1 180 17:38 22.06.2020
910 Clouds 25 1020 65 10000 4.6 170 17:20 22.06.2020
911 Clouds 25 1020 65 10000 4.6 170 16:56 22.06.2020
912 Clouds 25 1021 69 10000 4.6 170 16:38 22.06.2020
913 Clouds 26 1021 69 10000 4.6 170 16:18 22.06.2020
914 Clouds 26 1021 69 10000 4.6 160 15:44 22.06.2020
915 Clouds 26 1021 69 10000 4.6 160 15:25 22.06.2020
916 Clouds 26 1021 57 10000 5.7 110 14:57 22.06.2020
917 Clouds 26 1021 73 10000 5.1 160 14:37 22.06.2020
918 Clouds 26 1021 73 10000 5.1 160 14:19 22.06.2020
919 Clouds 26 1021 54 10000 5.1 120 13:54 22.06.2020
920 Clouds 26 1021 78 10000 4.6 160 13:36 22.06.2020
921 Clouds 26 1021 78 10000 4.6 160 13:18 22.06.2020
922 Clouds 27 1021 83 10000 4.1 150 12:41 22.06.2020
923 Clouds 26 1021 83 10000 4.1 150 12:22 22.06.2020
924 Clouds 26 1021 73 10000 3.1 150 11:38 22.06.2020
925 Clouds 27 1021 73 10000 3.1 150 11:19 22.06.2020
926 Clear 27 1021 73 10000 2.6 160 10:57 22.06.2020
927 Clear 26 1021 61 10000 0.5 120 10:38 22.06.2020
928 Clear 25 1021 69 10000 1.5 300 10:19 22.06.2020
929 Clear 25 1021 69 10000 1.5 300 09:58 22.06.2020
930 Clear 25 1021 73 10000 2.1 310 09:39 22.06.2020
931 Clear 23 1021 73 10000 2.1 310 09:19 22.06.2020
932 Clear 23 1021 83 10000 2.1 290 08:57 22.06.2020
933 Clear 23 1021 83 10000 2.1 320 08:38 22.06.2020
934 Clouds 22 1021 83 10000 2.1 320 08:19 22.06.2020
935 Clouds 22 1021 88 10000 2.1 290 07:49 22.06.2020
936 Clouds 21 1021 88 10000 2.1 290 07:30 22.06.2020
937 Clouds 21 1021 88 10000 1 300 06:43 22.06.2020
938 Clouds 21 1021 88 10000 2.1 290 06:24 22.06.2020
939 Clouds 21 1021 94 10000 1.5 290 05:43 22.06.2020
940 Clouds 21 1021 94 10000 3.6 280 03:48 22.06.2020
941 Clouds 22 1022 83 10000 1 0 02:23 22.06.2020
942 Clouds 22 1022 88 10000 0.5 0 01:18 22.06.2020
943 Clouds 22 1022 94 10000 1 0 00:39 22.06.2020
944 Clouds 22 1021 94 10000 1 0 23:58 21.06.2020
945 Clouds 22 1021 88 10000 1.5 210 23:39 21.06.2020
946 Clouds 23 1021 88 10000 1.5 210 23:20 21.06.2020
947 Clouds 23 1021 83 10000 1.5 190 22:57 21.06.2020
948 Clouds 23 1020 83 10000 2.1 200 22:37 21.06.2020
949 Clear 23 1020 83 10000 2.6 200 22:19 21.06.2020
950 Clear 23 1020 83 10000 2.6 200 21:56 21.06.2020
951 Clear 24 1020 83 10000 3.1 200 21:38 21.06.2020
952 Clear 24 1020 83 10000 4.1 190 21:20 21.06.2020
953 Clear 24 1020 83 10000 4.1 190 20:57 21.06.2020
954 Clear 24 1019 78 10000 4.6 200 20:37 21.06.2020
955 Clouds 24 1019 78 10000 4.6 200 20:18 21.06.2020
956 Clouds 25 1019 78 10000 5.7 220 19:55 21.06.2020
957 Clouds 25 1019 78 10000 6.2 220 19:37 21.06.2020
958 Clouds 25 1019 78 10000 6.2 220 19:18 21.06.2020
959 Clouds 25 1020 73 10000 6.7 220 18:40 21.06.2020
960 Clouds 26 1020 73 10000 6.7 220 18:22 21.06.2020
961 Clouds 26 1020 78 10000 7.2 220 17:59 21.06.2020
962 Clouds 26 1020 73 10000 7.2 220 17:38 21.06.2020
963 Clouds 26 1020 78 10000 7.2 210 17:19 21.06.2020
964 Clouds 26 1020 73 10000 6.2 210 16:41 21.06.2020
965 Clouds 26 1020 73 10000 6.2 210 16:23 21.06.2020
966 Clouds 26 1020 78 10000 5.7 200 15:57 21.06.2020
967 Clouds 26 1021 78 10000 6.2 200 15:37 21.06.2020
968 Clouds 26 1021 78 10000 6.2 200 15:19 21.06.2020
969 Clouds 26 1021 83 10000 5.1 190 14:39 21.06.2020
970 Clouds 26 1021 83 10000 5.1 190 14:20 21.06.2020
971 Clouds 25 1021 78 10000 4.6 190 13:58 21.06.2020
972 Clouds 25 1021 78 10000 4.1 180 13:40 21.06.2020
973 Clouds 25 1021 78 10000 4.1 180 13:19 21.06.2020
974 Clouds 25 1021 73 10000 3.6 170 12:45 21.06.2020
975 Clouds 25 1021 73 10000 3.6 170 12:26 21.06.2020
976 Clouds 25 1021 73 10000 2.6 170 11:59 21.06.2020
977 Clouds 25 1021 73 10000 2.6 160 11:41 21.06.2020
978 Clouds 25 1021 73 10000 2.6 160 11:23 21.06.2020
979 Clear 25 1022 65 10000 0.5 20 10:57 21.06.2020
980 Clouds 25 1021 69 10000 1 310 10:38 21.06.2020
981 Clouds 24 1021 69 10000 1 310 10:20 21.06.2020
982 Clear 24 1021 83 10000 1.5 290 09:43 21.06.2020
983 Clear 23 1021 83 10000 1.5 290 09:22 21.06.2020
984 Clear 22 1021 83 10000 2.6 310 08:57 21.06.2020
985 Clear 21 1021 88 10000 4.1 300 08:39 21.06.2020
986 Clear 21 1021 88 10000 3.6 310 08:19 21.06.2020
987 Clouds 20 1020 88 10000 3.1 320 07:41 21.06.2020
988 Clouds 20 1020 88 10000 3.1 320 07:23 21.06.2020
989 Clouds 20 1020 88 10000 2.6 320 06:50 21.06.2020
990 Clouds 20 1020 88 10000 3.1 320 06:28 21.06.2020
991 Clouds 20 1020 88 10000 3.1 320 05:57 21.06.2020
992 Clouds 20 1020 88 10000 2.1 310 04:34 21.06.2020
993 Clouds 20 1021 88 10000 1 310 03:19 21.06.2020
994 Clouds 21 1021 88 10000 1.5 280 02:36 21.06.2020
995 Clouds 21 1021 94 10000 2.1 250 01:39 21.06.2020
996 Clouds 21 1021 94 10000 2.6 220 01:19 21.06.2020
997 Clouds 21 1021 94 10000 2.6 220 00:45 21.06.2020
998 Clouds 21 1021 88 10000 2.1 210 00:25 21.06.2020
999 Clouds 22 1021 88 10000 0.5 0 23:45 20.06.2020
1000 Clouds 22 1021 88 10000 0.5 0 23:22 20.06.2020
1001 Clouds 22 1021 88 10000 2.6 240 22:57 20.06.2020
1002 Clouds 22 1020 88 10000 4.1 210 22:39 20.06.2020
1003 Clouds 22 1020 88 10000 4.1 210 22:20 20.06.2020
1004 Clouds 22 1020 88 10000 3.6 220 21:58 20.06.2020
1005 Clouds 23 1020 83 10000 4.1 220 21:40 20.06.2020
1006 Clouds 23 1020 83 10000 4.1 220 21:21 20.06.2020
1007 Clouds 23 1020 83 10000 4.1 210 20:58 20.06.2020
1008 Clouds 23 1020 83 10000 4.6 210 20:40 20.06.2020
1009 Clouds 24 1020 83 10000 4.6 210 20:20 20.06.2020
1010 Clouds 24 1020 83 10000 5.7 210 19:57 20.06.2020
1011 Clouds 24 1020 78 10000 6.7 230 19:38 20.06.2020
1012 Clouds 24 1020 78 10000 6.7 230 19:19 20.06.2020
1013 Clouds 24 1020 78 10000 7.2 220 18:42 20.06.2020
1014 Clouds 25 1020 78 10000 7.7 220 18:20 20.06.2020
1015 Clouds 24 1020 78 10000 7.7 220 17:57 20.06.2020
1016 Clouds 24 1020 73 10000 7.2 210 17:39 20.06.2020
1017 Clouds 25 1020 73 10000 7.2 210 17:20 20.06.2020
1018 Clouds 25 1021 73 10000 6.7 210 16:42 20.06.2020
1019 Clouds 25 1021 73 10000 6.7 210 16:19 20.06.2020
1020 Clouds 25 1021 78 10000 7.2 210 15:58 20.06.2020
1021 Clouds 25 1021 78 10000 6.7 200 15:40 20.06.2020
1022 Clouds 25 1021 78 10000 6.7 200 15:18 20.06.2020
1023 Clouds 25 1021 78 10000 5.7 180 14:43 20.06.2020
1024 Clouds 25 1021 78 10000 5.7 180 14:21 20.06.2020
1025 Clouds 25 1021 78 10000 4.6 160 13:46 20.06.2020
1026 Clouds 24 1021 73 10000 5.7 190 13:26 20.06.2020
1027 Clouds 24 1021 73 10000 5.7 190 12:59 20.06.2020
1028 Clouds 24 1021 73 10000 4.6 180 12:40 20.06.2020
1029 Clouds 24 1021 69 10000 4.1 200 12:20 20.06.2020
1030 Clouds 24 1021 69 10000 4.1 200 11:55 20.06.2020
1031 Clouds 23 1021 68 10000 4.1 190 11:37 20.06.2020
1032 Clear 24 1021 64 10000 0.5 350 11:19 20.06.2020
1033 Clouds 23 1021 69 10000 2.1 220 10:46 20.06.2020
1034 Clouds 23 1021 69 10000 2.1 220 10:22 20.06.2020
1035 Clouds 23 1021 73 10000 1.5 230 09:55 20.06.2020
1036 Clouds 22 1021 77 10000 2.1 330 09:37 20.06.2020
1037 Clouds 21 1021 82 10000 2.6 320 09:19 20.06.2020
1038 Clouds 20 1021 82 10000 2.6 320 08:46 20.06.2020
1039 Clouds 20 1021 82 10000 2.6 320 08:27 20.06.2020
1040 Clouds 19 1021 82 10000 2.1 320 07:51 20.06.2020
1041 Clouds 19 1020 82 10000 2.1 310 07:28 20.06.2020
1042 Clouds 19 1020 88 10000 2.6 320 06:55 20.06.2020
1043 Clouds 18 1020 88 10000 3.1 310 06:23 20.06.2020
1044 Clouds 18 1020 88 10000 3.1 310 06:23 20.06.2020
1045 Clouds 18 1020 88 10000 2.1 310 05:52 20.06.2020
1046 Clouds 19 1020 82 10000 2.6 320 04:58 20.06.2020
1047 Clouds 19 1021 82 10000 2.6 320 02:50 20.06.2020
1048 Clouds 19 1021 82 10000 2.1 300 01:48 20.06.2020
1049 Clouds 19 1021 82 10000 1 300 00:57 20.06.2020
1050 Clouds 20 1021 77 10000 1.5 300 00:21 20.06.2020
1051 Clouds 20 1021 77 10000 1.5 230 23:56 19.06.2020
1052 Clouds 20 1021 77 10000 1.5 230 23:56 19.06.2020
1053 Clouds 20 1021 77 10000 2.1 220 23:37 19.06.2020
1054 Clouds 20 1021 77 10000 2.1 220 23:18 19.06.2020
1055 Clouds 20 1020 73 10000 2.6 220 22:41 19.06.2020
1056 Clouds 21 1020 73 10000 2.6 220 22:22 19.06.2020
1057 Clouds 21 1019 73 10000 3.1 210 21:59 19.06.2020
1058 Clouds 21 1019 73 10000 3.1 210 21:38 19.06.2020
1059 Clouds 21 1019 73 10000 3.1 210 21:18 19.06.2020
1060 Clouds 22 1019 68 10000 4.1 210 20:58 19.06.2020
1061 Clouds 22 1019 68 10000 3.6 200 20:40 19.06.2020
1062 Clouds 22 1019 68 10000 4.6 190 20:21 19.06.2020
1063 Clouds 22 1019 68 10000 4.6 190 19:57 19.06.2020
1064 Clouds 22 1019 68 10000 5.7 210 19:39 19.06.2020
1065 Clear 23 1019 64 10000 5.7 210 19:21 19.06.2020
1066 Clear 23 1019 64 10000 5.7 210 18:55 19.06.2020
1067 Clear 23 1019 64 10000 5.1 210 18:37 19.06.2020
1068 Clear 23 1019 64 10000 5.1 210 18:37 19.06.2020
1069 Clear 23 1019 64 10000 5.1 210 18:19 19.06.2020
1070 Clouds 23 1019 68 10000 4.6 180 17:40 19.06.2020
1071 Clouds 23 1019 68 10000 4.6 180 17:22 19.06.2020
1072 Clouds 23 1019 64 10000 4.1 160 16:57 19.06.2020
1073 Clouds 23 1019 64 10000 4.1 170 16:37 19.06.2020
1074 Clouds 23 1019 64 10000 4.1 170 16:19 19.06.2020
1075 Clouds 23 1019 60 10000 3.6 140 15:43 19.06.2020
1076 Clouds 23 1019 60 10000 3.6 140 15:25 19.06.2020
1077 Clouds 23 1019 60 10000 2.6 110 14:56 19.06.2020
1078 Clouds 23 1019 60 10000 3.1 130 14:38 19.06.2020
1079 Clouds 23 1019 60 10000 3.1 130 14:20 19.06.2020
1080 Clouds 22 1019 60 10000 2.6 110 13:45 19.06.2020
1081 Clouds 22 1019 60 10000 2.6 110 13:27 19.06.2020
1082 Clouds 22 1019 64 10000 3.1 120 12:58 19.06.2020
1083 Clouds 22 1019 56 10000 2.6 120 12:40 19.06.2020
1084 Clouds 21 1019 56 10000 2.6 120 12:18 19.06.2020
1085 Rain 21 1019 60 10000 1.5 90 11:40 19.06.2020
1086 Rain 21 1019 64 10000 2.1 80 11:19 19.06.2020
1087 Rain 21 1019 64 10000 2.1 80 10:59 19.06.2020
1088 Rain 21 1019 68 10000 1.5 290 10:41 19.06.2020
1089 Rain 21 1019 68 10000 1.5 290 10:19 19.06.2020
1090 Rain 20 1019 72 10000 1.5 320 09:44 19.06.2020
1091 Clouds 20 1019 72 10000 1.5 320 09:25 19.06.2020
1092 Rain 19 1019 77 10000 3.1 330 08:58 19.06.2020
1093 Rain 19 1019 77 10000 2.6 320 08:38 19.06.2020
1094 Rain 18 1019 77 10000 2.6 320 08:20 19.06.2020
1095 Clouds 18 1018 77 10000 2.1 320 07:41 19.06.2020
1096 Clouds 18 1018 77 10000 2.1 320 07:21 19.06.2020
1097 Rain 18 1018 88 10000 2.6 310 06:45 19.06.2020
1098 Rain 18 1018 88 10000 2.6 310 06:21 19.06.2020
1099 Rain 18 1018 82 10000 2.6 320 04:59 19.06.2020
1100 Rain 18 1017 82 10000 2.6 330 03:31 19.06.2020
1101 Rain 18 1017 82 10000 1.5 10 02:19 19.06.2020
1102 Clouds 19 1018 77 10000 2.1 60 00:44 19.06.2020
1103 Rain 19 1018 77 10000 3.6 60 00:22 19.06.2020
1104 Rain 19 1018 77 10000 3.6 60 23:57 18.06.2020
1105 Rain 19 1017 77 10000 3.6 70 23:38 18.06.2020
1106 Rain 19 1017 77 10000 4.1 40 23:20 18.06.2020
1107 Clouds 19 1016 82 10000 4.1 70 22:40 18.06.2020
1108 Clouds 19 1016 82 10000 4.1 70 22:20 18.06.2020
1109 Clouds 19 1016 82 10000 4.1 70 22:20 18.06.2020
1110 Clouds 19 1016 77 10000 4.1 60 21:56 18.06.2020
1111 Rain 19 1016 77 10000 3.6 70 21:37 18.06.2020
1112 Rain 19 1016 77 10000 3.6 70 21:18 18.06.2020
1113 Rain 20 1015 77 10000 3.6 80 20:40 18.06.2020
1114 Clouds 20 1015 77 10000 4.1 100 20:20 18.06.2020
1115 Clouds 20 1015 77 10000 4.1 100 19:57 18.06.2020
1116 Clouds 20 1015 77 10000 3.6 80 19:39 18.06.2020
1117 Clouds 20 1015 77 10000 3.6 80 19:19 18.06.2020
1118 Clouds 21 1015 73 10000 3.6 110 18:41 18.06.2020
1119 Clouds 21 1015 73 10000 3.6 110 18:22 18.06.2020
1120 Clouds 21 1015 73 10000 3.1 90 17:55 18.06.2020
1121 Clouds 21 1015 68 10000 3.6 110 17:37 18.06.2020
1122 Clouds 21 1015 68 10000 3.6 110 17:18 18.06.2020
1123 Clouds 21 1015 73 10000 4.1 110 16:42 18.06.2020
1124 Clouds 21 1015 73 10000 4.1 110 16:24 18.06.2020
1125 Clouds 21 1015 73 10000 4.1 110 15:58 18.06.2020
1126 Clouds 21 1015 77 10000 4.6 100 15:39 18.06.2020
1127 Clouds 21 1015 77 10000 4.6 100 15:20 18.06.2020
1128 Clouds 21 1016 73 10000 4.1 100 14:56 18.06.2020
1129 Clouds 21 1016 68 10000 4.1 90 14:38 18.06.2020
1130 Clouds 21 1016 68 10000 4.1 90 14:20 18.06.2020
1131 Clouds 21 1016 77 10000 3.1 100 13:48 18.06.2020
1132 Clouds 20 1016 77 10000 4.1 100 13:29 18.06.2020
1133 Clouds 20 1016 68 10000 4.6 60 12:57 18.06.2020
1134 Clouds 20 1016 72 10000 4.6 60 12:39 18.06.2020
1135 Clouds 19 1015 77 10000 4.6 80 12:20 18.06.2020
1136 Clouds 19 1015 77 10000 4.6 80 11:57 18.06.2020
1137 Clouds 18 1016 77 10000 2.1 30 11:38 18.06.2020
1138 Rain 18 1016 77 10000 2.1 30 11:19 18.06.2020
1139 Thunderstorm 16 1016 93 8000 6.7 330 10:40 18.06.2020
1140 Rain 16 1016 93 8000 6.7 330 10:19 18.06.2020
1141 Rain 16 1016 93 6000 6.2 300 09:47 18.06.2020
1142 Rain 16 1015 93 9000 4.6 350 09:27 18.06.2020
1143 Rain 16 1015 93 10000 4.1 340 08:58 18.06.2020
1144 Rain 16 1015 93 8000 4.6 310 08:38 18.06.2020
1145 Rain 16 1015 93 8000 4.6 310 08:20 18.06.2020
1146 Rain 17 1015 82 10000 4.1 340 07:45 18.06.2020
1147 Rain 17 1015 82 10000 4.1 340 07:26 18.06.2020
1148 Clouds 18 1014 72 10000 3.6 40 06:42 18.06.2020
1149 Clouds 18 1015 77 10000 3.6 50 05:34 18.06.2020
1150 Clouds 18 1015 64 10000 4.6 50 04:21 18.06.2020
1151 Clouds 19 1016 77 10000 6.2 60 02:37 18.06.2020
1152 Clouds 19 1016 77 10000 6.7 60 01:27 18.06.2020
1153 Clouds 19 1016 77 10000 6.2 70 00:54 18.06.2020
1154 Clouds 19 1017 72 10000 3.1 30 00:32 18.06.2020
1155 Clouds 20 1016 77 10000 1.5 340 23:57 17.06.2020
1156 Clouds 20 1016 77 10000 1 360 23:38 17.06.2020
1157 Clouds 20 1016 77 10000 1 360 23:20 17.06.2020
1158 Clouds 20 1016 77 10000 1 0 22:57 17.06.2020
1159 Clouds 20 1015 77 10000 1.5 210 22:37 17.06.2020
1160 Clouds 20 1015 77 10000 1.5 210 22:19 17.06.2020
1161 Clouds 21 1015 73 10000 3.1 180 21:42 17.06.2020
1162 Clouds 21 1015 73 10000 3.1 180 21:23 17.06.2020
1163 Clouds 21 1015 73 10000 3.1 180 20:59 17.06.2020
1164 Clouds 22 1015 64 10000 3.1 170 20:38 17.06.2020
1165 Clouds 22 1015 64 10000 3.1 170 20:19 17.06.2020
1166 Clouds 22 1015 73 10000 3.1 190 19:46 17.06.2020
1167 Clouds 22 1014 68 10000 3.1 190 19:23 17.06.2020
1168 Clouds 22 1014 68 10000 4.6 200 18:58 17.06.2020
1169 Clouds 22 1015 68 10000 5.1 200 18:40 17.06.2020
1170 Clouds 23 1015 68 10000 5.1 200 18:22 17.06.2020
1171 Clouds 23 1015 64 10000 4.6 190 17:44 17.06.2020
1172 Clouds 23 1015 68 10000 5.1 180 17:22 17.06.2020
1173 Clouds 23 1015 68 10000 5.1 180 17:22 17.06.2020
1174 Clouds 23 1015 64 10000 4.6 190 16:57 17.06.2020
1175 Clouds 23 1015 56 10000 5.7 180 16:38 17.06.2020
1176 Clouds 23 1015 56 10000 5.7 180 16:20 17.06.2020
1177 Clouds 23 1015 60 10000 5.1 190 15:56 17.06.2020
1178 Clouds 23 1015 56 10000 5.1 200 15:38 17.06.2020
1179 Clouds 23 1015 56 10000 5.1 200 15:18 17.06.2020
1180 Clouds 23 1015 60 10000 5.1 190 14:57 17.06.2020
1181 Clouds 23 1016 60 10000 5.1 190 14:38 17.06.2020
1182 Clouds 23 1016 56 10000 4.6 200 14:19 17.06.2020
1183 Clouds 23 1016 60 10000 4.6 170 13:42 17.06.2020
1184 Clouds 22 1016 60 10000 4.6 170 13:22 17.06.2020
1185 Clouds 22 1016 60 10000 3.1 130 12:59 17.06.2020
1186 Clouds 23 1016 53 10000 1 0 12:40 17.06.2020
1187 Clouds 22 1016 53 10000 1 0 12:20 17.06.2020
1188 Clouds 22 1016 60 10000 3.6 330 11:44 17.06.2020
1189 Clouds 21 1016 60 10000 3.6 330 11:26 17.06.2020
1190 Clouds 21 1016 60 10000 3.6 330 11:26 17.06.2020
1191 Clouds 21 1016 60 10000 4.1 330 10:56 17.06.2020
1192 Clouds 21 1016 60 10000 4.6 340 10:37 17.06.2020
1193 Clouds 20 1016 60 10000 4.6 340 10:19 17.06.2020
1194 Rain 20 1016 64 10000 5.1 340 09:55 17.06.2020
1195 Rain 20 1016 68 10000 5.1 320 09:36 17.06.2020
1196 Clear 19 1016 68 10000 5.1 320 09:18 17.06.2020
1197 Clear 19 1016 68 10000 5.1 320 09:18 17.06.2020
1198 Clouds 18 1015 72 10000 5.7 340 08:42 17.06.2020
1199 Clouds 18 1015 72 10000 5.7 340 08:19 17.06.2020
1200 Clouds 18 1015 77 10000 4.6 340 07:44 17.06.2020
1201 Clouds 17 1015 77 10000 4.6 340 07:23 17.06.2020
1202 Rain 17 1015 82 10000 1.5 340 06:59 17.06.2020
1203 Rain 17 1015 77 10000 2.1 290 06:40 17.06.2020
1204 Rain 17 1015 77 10000 2.1 290 06:22 17.06.2020
1205 Clouds 17 1015 77 10000 3.1 310 05:48 17.06.2020
1206 Rain 17 1015 72 10000 4.1 300 04:38 17.06.2020
1207 Rain 18 1016 72 10000 2.1 330 02:21 17.06.2020
1208 Rain 19 1016 77 10000 2.6 260 00:53 17.06.2020
1209 Clear 19 1016 77 10000 2.1 230 00:30 17.06.2020
1210 Clear 19 1016 72 10000 2.1 180 23:59 16.06.2020
1211 Clear 19 1016 72 10000 1 0 23:41 16.06.2020
1212 Clear 19 1016 72 10000 1 0 23:22 16.06.2020
1213 Clouds 20 1016 68 10000 3.6 250 22:57 16.06.2020
1214 Clouds 20 1015 77 10000 5.1 250 22:38 16.06.2020
1215 Clouds 20 1015 77 10000 5.1 250 22:19 16.06.2020
1216 Clear 20 1015 82 10000 4.6 240 21:58 16.06.2020
1217 Clear 20 1015 82 10000 4.6 240 21:58 16.06.2020
1218 Clear 20 1015 72 10000 3.1 220 21:40 16.06.2020
1219 Clear 20 1015 72 10000 3.1 220 21:21 16.06.2020
1220 Clouds 21 1015 56 10000 3.6 210 20:44 16.06.2020
1221 Clouds 22 1015 56 10000 3.6 210 20:23 16.06.2020
1222 Clouds 22 1015 60 10000 4.1 210 19:59 16.06.2020
1223 Clouds 22 1015 64 10000 1.5 230 19:40 16.06.2020
1224 Clouds 21 1015 64 10000 1.5 230 19:22 16.06.2020
1225 -273 0 0 0 0 0 18:59 16.06.2020
1226 Clouds 22 1015 60 10000 1.5 240 18:41 16.06.2020
1227 Rain 20 1016 77 10000 3.1 320 18:21 16.06.2020
1228 Rain 19 1016 77 10000 3.1 320 17:57 16.06.2020
1229 Rain 19 1016 72 10000 2.1 290 17:38 16.06.2020
1230 Rain 19 1016 72 10000 2.1 290 17:19 16.06.2020
1231 Rain 19 1016 72 10000 2.6 310 16:56 16.06.2020
1232 Drizzle 18 1017 72 10000 4.6 310 16:38 16.06.2020
1233 Drizzle 18 1017 72 10000 4.6 310 16:19 16.06.2020
1234 Rain 18 1017 72 10000 5.7 300 15:56 16.06.2020
1235 Rain 19 1017 88 10000 2.6 260 15:38 16.06.2020
1236 Rain 19 1017 88 10000 2.6 260 15:38 16.06.2020
1237 Rain 19 1017 64 10000 5.1 310 15:20 16.06.2020
1238 Clouds 20 1017 68 10000 2.6 310 14:43 16.06.2020
1239 Clouds 21 1017 68 10000 2.6 310 14:25 16.06.2020
1240 Clouds 21 1017 64 10000 1 0 13:59 16.06.2020
1241 Clouds 21 1017 64 10000 2.1 260 13:41 16.06.2020
1242 Clouds 21 1017 64 10000 2.1 260 13:22 16.06.2020
1243 Rain 20 1018 72 10000 1.5 300 12:42 16.06.2020
1244 Rain 20 1018 72 10000 2.1 290 12:22 16.06.2020
1245 Rain 20 1018 72 10000 2.1 290 11:57 16.06.2020
1246 Clouds 20 1019 77 10000 3.6 310 11:39 16.06.2020
1247 Rain 19 1019 77 10000 3.6 310 11:20 16.06.2020
1248 Rain 20 1018 73 10000 2.6 330 10:57 16.06.2020
1249 Rain 20 1018 73 10000 2.1 320 10:38 16.06.2020
1250 Rain 20 1018 73 10000 2.6 310 10:18 16.06.2020
1251 Clouds 20 1018 82 10000 3.1 330 09:43 16.06.2020
1252 Clouds 20 1018 82 10000 3.1 330 09:22 16.06.2020
1253 Rain 20 1018 82 9000 4.1 330 08:51 16.06.2020
1254 Clouds 20 1018 77 9000 3.6 310 08:32 16.06.2020
1255 Clouds 19 1017 82 9000 3.1 310 07:51 16.06.2020
1256 Clouds 19 1017 88 10000 3.1 330 07:29 16.06.2020
1257 Rain 19 1017 82 10000 3.1 360 06:57 16.06.2020
1258 Rain 19 1018 82 10000 3.1 340 06:34 16.06.2020
1259 Rain 19 1017 82 10000 3.1 360 05:50 16.06.2020
1260 Rain 20 1018 83 10000 2.4 47 04:55 16.06.2020
1261 Clouds 20 1018 83 10000 0.5 340 03:56 16.06.2020
1262 Clouds 20 1019 83 10000 0.5 0 02:35 16.06.2020
1263 Clouds 20 1019 83 10000 1 140 01:34 16.06.2020
1264 Clouds 20 1019 83 10000 1 130 00:55 16.06.2020
1265 Clouds 20 1019 83 10000 1.5 100 00:22 16.06.2020
1266 Clouds 20 1019 83 10000 1.5 100 23:56 15.06.2020
1267 Clouds 20 1019 88 10000 2.6 110 23:38 15.06.2020
1268 Clouds 21 1019 88 10000 2.6 110 23:19 15.06.2020
1269 Clouds 21 1019 83 10000 3.1 120 22:42 15.06.2020
1270 Clouds 21 1019 83 10000 3.1 120 22:22 15.06.2020
1271 Clouds 21 1018 83 10000 2.6 150 21:58 15.06.2020
1272 Clouds 21 1018 83 10000 3.1 160 21:38 15.06.2020
1273 Clouds 22 1018 83 10000 3.1 160 21:20 15.06.2020
1274 Clouds 22 1018 83 10000 3.1 200 20:58 15.06.2020
1275 Clouds 22 1017 83 10000 5.7 230 20:38 15.06.2020
1276 Clouds 22 1017 83 10000 5.7 230 20:19 15.06.2020
1277 Clouds 23 1018 78 10000 6.7 220 19:57 15.06.2020
1278 Clouds 23 1018 78 10000 5.1 200 19:39 15.06.2020
1279 Clouds 23 1018 78 10000 5.1 200 19:21 15.06.2020
1280 Clouds 23 1018 73 10000 5.1 200 18:56 15.06.2020
1281 Clouds 23 1018 69 10000 5.7 190 18:38 15.06.2020
1282 Clouds 23 1018 69 10000 5.7 190 18:19 15.06.2020
1283 Clouds 23 1018 69 10000 6.2 190 17:56 15.06.2020
1284 Clouds 23 1018 64 10000 5.7 190 17:37 15.06.2020
1285 Clouds 24 1019 64 10000 5.1 180 17:18 15.06.2020
1286 Clouds 23 1019 64 10000 5.7 180 16:41 15.06.2020
1287 Clouds 24 1019 64 10000 5.7 180 16:19 15.06.2020
1288 Clouds 23 1019 60 10000 5.7 170 15:57 15.06.2020
1289 Clouds 24 1019 60 10000 6.2 170 15:39 15.06.2020
1290 Clouds 24 1020 60 10000 5.1 160 15:19 15.06.2020
1291 Clouds 24 1020 60 10000 5.1 160 14:55 15.06.2020
1292 Clouds 24 1020 60 10000 5.7 170 14:36 15.06.2020
1293 Clouds 23 1020 60 10000 5.7 170 14:18 15.06.2020
1294 Clouds 23 1020 73 10000 3.6 160 13:42 15.06.2020
1295 Clouds 23 1020 73 10000 3.6 160 13:23 15.06.2020
1296 Clouds 24 1020 73 10000 2.6 150 12:58 15.06.2020
1297 Clouds 23 1020 73 10000 2.6 130 12:39 15.06.2020
1298 Clouds 23 1020 73 10000 2.6 130 12:21 15.06.2020
1299 Clouds 23 1020 64 10000 2.1 170 11:45 15.06.2020
1300 Clouds 23 1020 64 10000 2.1 170 11:26 15.06.2020
1301 Clouds 23 1020 64 10000 2.1 170 11:26 15.06.2020
1302 Clouds 23 1020 64 10000 1.5 130 10:57 15.06.2020
1303 Clouds 23 1020 60 10000 1.5 100 10:38 15.06.2020
1304 Clouds 23 1020 60 10000 1.5 100 10:19 15.06.2020
1305 Clouds 22 1020 68 10000 2.6 320 09:42 15.06.2020
1306 Clouds 21 1020 68 10000 2.6 320 09:22 15.06.2020
1307 Clouds 20 1019 77 10000 2.6 320 08:43 15.06.2020
1308 Clouds 20 1019 77 10000 2.6 320 08:25 15.06.2020
1309 Clouds 19 1019 82 10000 2.6 340 07:51 15.06.2020
1310 Clouds 19 1019 82 10000 2.1 340 07:33 15.06.2020
1311 Clouds 19 1019 82 10000 2.1 320 06:57 15.06.2020
1312 Clouds 19 1019 82 10000 2.1 330 06:27 15.06.2020
1313 Clouds 19 1019 77 10000 2.1 330 05:50 15.06.2020
1314 Clouds 19 1018 77 10000 2.1 330 05:28 15.06.2020
1315 Clouds 19 1018 77 10000 1.5 340 04:22 15.06.2020
1316 Clouds 19 1018 77 10000 2.1 340 03:48 15.06.2020
1317 Clouds 19 1018 77 10000 2.1 340 03:48 15.06.2020
1318 Clouds 20 1019 77 10000 1.5 340 02:56 15.06.2020
1319 Clouds 20 1019 77 10000 1.5 340 02:20 15.06.2020
1320 Clouds 20 1019 72 10000 1 0 01:40 15.06.2020
1321 Clouds 20 1019 72 10000 1 0 01:40 15.06.2020
1322 Clouds 20 1019 72 10000 1 0 01:40 15.06.2020
1323 Clouds 20 1019 72 10000 1 0 01:22 15.06.2020
1324 Clouds 21 1018 83 10000 0.5 200 00:41 15.06.2020
1325 Clouds 21 1018 83 10000 0.5 200 00:22 15.06.2020
1326 Clouds 20 1018 83 10000 2.6 230 23:56 14.06.2020
1327 Clouds 20 1018 88 10000 3.6 250 23:38 14.06.2020
1328 Clouds 21 1018 88 10000 4.6 240 23:20 14.06.2020
1329 Clouds 21 1018 88 10000 4.6 240 22:56 14.06.2020
1330 Clouds 21 1018 83 10000 5.1 230 22:37 14.06.2020
1331 Clouds 21 1017 83 10000 4.6 230 22:18 14.06.2020
1332 Clouds 21 1017 83 10000 4.6 230 21:55 14.06.2020
1333 Clouds 22 1017 83 10000 5.7 230 21:37 14.06.2020
1334 Clouds 22 1017 83 10000 5.1 220 21:18 14.06.2020
1335 Clouds 23 1017 83 10000 5.1 220 20:55 14.06.2020
1336 Clouds 23 1017 78 10000 6.2 220 20:36 14.06.2020
1337 Clouds 23 1017 78 10000 6.2 220 20:18 14.06.2020
1338 Clouds 23 1017 78 10000 5.7 220 19:55 14.06.2020
1339 Clouds 23 1017 73 10000 5.7 220 19:36 14.06.2020
1340 Clouds 23 1017 73 10000 5.7 220 19:18 14.06.2020
1341 Clouds 23 1017 73 10000 6.2 210 18:55 14.06.2020
1342 Clouds 24 1017 73 10000 6.2 200 18:37 14.06.2020
1343 Clouds 24 1017 73 10000 6.2 200 18:18 14.06.2020
1344 Clouds 23 1017 73 10000 5.7 200 17:40 14.06.2020
1345 Clouds 23 1017 73 10000 5.7 200 17:40 14.06.2020
1346 Clouds 24 1017 73 10000 5.7 200 17:20 14.06.2020
1347 Clouds 23 1017 73 10000 6.2 210 16:58 14.06.2020
1348 Clouds 23 1018 73 10000 5.7 200 16:39 14.06.2020
1349 Clouds 23 1018 73 10000 4.6 190 16:19 14.06.2020
1350 Clouds 23 1018 73 10000 4.6 190 15:56 14.06.2020
1351 Clouds 23 1018 73 10000 4.6 190 15:37 14.06.2020
1352 Clouds 23 1018 73 10000 4.6 190 15:18 14.06.2020
1353 Clouds 23 1018 69 10000 6.7 200 14:41 14.06.2020
1354 Clouds 23 1018 69 10000 6.7 200 14:23 14.06.2020
1355 Clouds 23 1018 69 10000 6.2 190 13:59 14.06.2020
1356 Clouds 23 1018 78 10000 5.1 160 13:40 14.06.2020
1357 Clouds 23 1018 78 10000 5.1 160 13:22 14.06.2020
1358 Clouds 23 1018 78 10000 3.1 130 12:57 14.06.2020
1359 Clouds 23 1018 73 10000 4.1 100 12:39 14.06.2020
1360 Clouds 23 1018 73 10000 4.1 100 12:39 14.06.2020
1361 Clouds 23 1018 73 10000 4.1 100 12:21 14.06.2020
1362 Clouds 23 1018 68 10000 3.6 90 11:58 14.06.2020
1363 Clouds 22 1018 68 10000 2.6 80 11:38 14.06.2020
1364 Clouds 22 1018 68 10000 2.6 80 11:20 14.06.2020
1365 Clouds 22 1018 64 10000 2.1 90 10:42 14.06.2020
1366 Clouds 22 1018 64 10000 2.1 90 10:20 14.06.2020
1367 Clouds 22 1018 60 10000 1.5 340 09:57 14.06.2020
1368 Clouds 21 1018 64 10000 3.1 310 09:39 14.06.2020
1369 Clouds 20 1018 64 10000 3.1 310 09:20 14.06.2020
1370 Clouds 19 1018 72 10000 4.1 320 08:42 14.06.2020
1371 Clear 19 1018 72 10000 4.1 320 08:21 14.06.2020
1372 Clear 18 1017 68 10000 3.6 330 07:52 14.06.2020
1373 Clear 18 1017 72 10000 3.6 330 07:34 14.06.2020
1374 Clear 18 1017 72 10000 3.1 330 06:40 14.06.2020
1375 Clear 18 1017 77 10000 3.1 330 05:49 14.06.2020
1376 Clear 18 1017 77 10000 2.1 340 05:21 14.06.2020
1377 Clear 19 1017 77 10000 1.5 340 04:36 14.06.2020
1378 Clear 19 1017 72 10000 0.5 0 03:44 14.06.2020
1379 Clear 20 1018 64 10000 1.5 70 02:34 14.06.2020
1380 Clouds 20 1018 64 10000 2.1 40 01:49 14.06.2020
1381 Clouds 20 1018 60 10000 5.1 60 01:26 14.06.2020
1382 Clouds 21 1017 64 10000 3.6 50 00:42 14.06.2020
1383 Clouds 21 1017 64 10000 3.6 50 00:20 14.06.2020
1384 Clouds 21 1017 60 10000 1.5 50 23:44 13.06.2020
1385 Clouds 22 1017 60 10000 1.5 50 23:25 13.06.2020
1386 Clouds 22 1017 60 10000 1.5 50 23:25 13.06.2020
1387 Clouds 21 1016 64 10000 2.6 40 22:58 13.06.2020
1388 Clouds 22 1016 64 10000 3.6 50 22:38 13.06.2020
1389 Clouds 22 1016 64 10000 3.6 50 22:18 13.06.2020
1390 Clouds 22 1015 53 10000 3.6 270 21:57 13.06.2020
1391 Clouds 22 1014 56 10000 8.2 240 21:38 13.06.2020
1392 Clouds 22 1014 56 10000 8.2 240 21:20 13.06.2020
1393 Clouds 23 1013 64 10000 10.8 230 20:44 13.06.2020
1394 Clouds 24 1013 64 10000 10.8 230 20:20 13.06.2020
1395 Clouds 25 1013 27 10000 5.1 260 19:58 13.06.2020
1396 Clear 26 1012 64 10000 11.3 230 19:37 13.06.2020
1397 Clouds 26 1012 27 10000 5.7 240 19:18 13.06.2020
1398 Clouds 27 1012 29 10000 5.7 250 18:57 13.06.2020
1399 Clear 27 1012 50 10000 8.7 220 18:38 13.06.2020
1400 Clear 27 1012 50 10000 8.7 220 18:18 13.06.2020
1401 Clouds 27 1012 30 10000 4.6 250 17:55 13.06.2020
1402 Clouds 27 1012 30 10000 4.6 250 17:55 13.06.2020
1403 Clouds 27 1011 31 10000 6.2 250 17:36 13.06.2020
1404 Clear 27 1011 53 10000 9.3 210 17:18 13.06.2020
1405 Clear 27 1011 41 10000 9.3 220 16:41 13.06.2020
1406 Clear 27 1011 41 10000 9.3 220 16:20 13.06.2020
1407 Clear 26 1011 47 10000 9.8 220 15:59 13.06.2020
1408 Clouds 26 1011 53 10000 10.3 220 15:39 13.06.2020
1409 Clouds 26 1011 53 10000 10.3 220 15:20 13.06.2020
1410 Clouds 25 1011 53 10000 9.8 210 14:43 13.06.2020
1411 Clouds 25 1011 53 10000 9.8 210 14:23 13.06.2020
1412 Clouds 25 1012 50 10000 10.3 220 13:56 13.06.2020
1413 Clouds 25 1011 47 10000 6.7 210 13:37 13.06.2020
1414 Clouds 25 1011 47 10000 6.7 210 13:18 13.06.2020
1415 Clouds 24 1011 49 10000 6.7 220 12:43 13.06.2020
1416 Clouds 24 1011 49 10000 6.7 220 12:25 13.06.2020
1417 Clear 23 1011 46 10000 6.2 190 11:55 13.06.2020
1418 Clear 23 1011 46 10000 6.2 190 11:55 13.06.2020
1419 Clear 23 1010 49 10000 5.1 290 11:37 13.06.2020
1420 Clear 23 1010 49 10000 5.1 290 11:18 13.06.2020
1421 Clear 22 1010 49 10000 5.1 310 10:49 13.06.2020
1422 Clear 21 1010 49 10000 5.1 310 10:27 13.06.2020
1423 Clouds 20 1010 52 10000 2.1 260 09:57 13.06.2020
1424 Clouds 19 1010 55 10000 4.1 340 09:39 13.06.2020
1425 Clouds 19 1010 55 10000 4.1 340 09:20 13.06.2020
1426 Clouds 18 1009 67 10000 4.6 340 08:45 13.06.2020
1427 Clouds 18 1009 67 10000 4.6 340 08:26 13.06.2020
1428 Clouds 18 1008 72 10000 4.1 330 07:45 13.06.2020
1429 Clouds 18 1008 72 10000 4.1 330 07:27 13.06.2020
1430 Clouds 18 1007 72 10000 5.1 330 06:45 13.06.2020
1431 Clouds 18 1008 68 10000 4.1 320 06:26 13.06.2020
1432 Clouds 18 1008 77 10000 4.1 320 05:33 13.06.2020
1433 Clouds 18 1007 77 10000 2.1 350 04:46 13.06.2020
1434 Clouds 18 1008 77 10000 2.1 340 03:46 13.06.2020
1435 Clouds 19 1008 72 10000 1.5 350 02:53 13.06.2020
1436 Clouds 19 1008 72 10000 2.1 330 02:24 13.06.2020
1437 Clouds 20 1008 82 10000 1 0 01:26 13.06.2020
1438 Clouds 20 1008 77 10000 2.1 260 00:57 13.06.2020
1439 Clouds 20 1008 77 10000 2.1 260 00:37 13.06.2020
1440 Clouds 20 1008 77 10000 2.1 260 00:19 13.06.2020
1441 Clouds 21 1008 77 10000 4.6 230 23:40 12.06.2020
1442 Clouds 21 1008 77 10000 4.6 230 23:18 12.06.2020
1443 Clouds 21 1008 77 10000 4.6 230 23:18 12.06.2020
1444 Clouds 21 1007 77 10000 5.1 230 22:55 12.06.2020
1445 Clouds 21 1007 73 10000 4.6 220 22:37 12.06.2020
1446 Clouds 21 1007 73 10000 4.6 220 22:37 12.06.2020
1447 Clouds 21 1007 68 10000 5.7 220 22:18 12.06.2020
1448 Clouds 22 1006 73 10000 5.7 210 21:44 12.06.2020
1449 Clouds 22 1006 73 10000 5.7 210 21:24 12.06.2020
1450 Clouds 23 1006 56 10000 5.7 220 20:57 12.06.2020
1451 Clouds 23 1005 49 10000 8.2 240 20:39 12.06.2020
1452 Clouds 23 1005 49 10000 8.2 240 20:20 12.06.2020
1453 Clouds 23 1005 56 10000 7.7 220 19:46 12.06.2020
1454 Clouds 24 1005 56 10000 7.7 220 19:22 12.06.2020
1455 Clouds 23 1005 53 10000 7.7 220 18:59 12.06.2020
1456 Clouds 24 1005 56 10000 8.7 220 18:37 12.06.2020
1457 Clouds 24 1005 56 10000 8.7 220 18:37 12.06.2020
1458 Clouds 24 1005 56 10000 8.2 210 18:18 12.06.2020
1459 Clouds 24 1005 56 10000 8.2 210 17:45 12.06.2020
1460 Clouds 24 1004 53 10000 8.2 210 17:26 12.06.2020
1461 Clouds 25 1004 57 10000 8.2 210 16:58 12.06.2020
1462 Clouds 24 1004 57 10000 8.2 210 16:40 12.06.2020
1463 Clouds 24 1004 57 10000 8.2 210 16:19 12.06.2020
1464 Clouds 25 1004 44 10000 5.1 240 15:43 12.06.2020
1465 Clouds 24 1004 44 10000 5.1 240 15:19 12.06.2020
1466 Clouds 25 1004 50 10000 7.7 200 14:43 12.06.2020
1467 Clouds 24 1004 38 10000 3.1 250 14:23 12.06.2020
1468 Clouds 24 1004 53 10000 7.7 210 13:58 12.06.2020
1469 Clouds 25 1004 50 10000 7.2 220 13:40 12.06.2020
1470 Clouds 24 1004 50 10000 7.2 220 13:19 12.06.2020
1471 Clouds 24 1004 53 10000 7.2 220 12:40 12.06.2020
1472 Clouds 24 1004 53 10000 7.2 220 12:40 12.06.2020
1473 Clouds 24 1004 53 10000 7.2 220 12:19 12.06.2020
1474 Clouds 24 1004 47 10000 6.7 230 11:56 12.06.2020
1475 Clouds 23 1003 49 10000 6.2 220 11:36 12.06.2020
1476 Clouds 22 1003 60 10000 4.1 260 11:18 12.06.2020
1477 Clouds 22 1003 47 10000 3.1 300 10:42 12.06.2020
1478 Clouds 22 1003 47 10000 3.1 300 10:23 12.06.2020
1479 Clouds 21 1002 56 10000 4.6 320 09:44 12.06.2020
1480 Clouds 21 1002 56 10000 4.6 320 09:21 12.06.2020
1481 Clouds 21 1002 68 10000 2.1 300 08:44 12.06.2020
1482 Clouds 20 1002 68 10000 2.1 300 08:24 12.06.2020
1483 Clouds 20 1001 88 8000 1.5 330 07:44 12.06.2020
1484 Clouds 20 1001 88 8000 1.5 330 07:25 12.06.2020
1485 Clouds 20 1001 88 8000 1.5 310 06:55 12.06.2020
1486 Clouds 20 1001 88 8000 0.5 0 06:26 12.06.2020
1487 Clouds 20 1001 94 8000 1.5 70 05:50 12.06.2020
1488 Clouds 20 1001 88 8000 1.5 70 05:29 12.06.2020
1489 Clouds 20 1001 88 9000 2.1 100 04:50 12.06.2020
1490 Clouds 20 1002 88 8000 3.1 90 03:20 12.06.2020
1491 Clouds 20 1002 94 8000 3.1 90 01:53 12.06.2020
1492 Clouds 20 1003 88 8000 2.6 90 01:26 12.06.2020
1493 Clouds 20 1003 88 9000 2.1 110 00:42 12.06.2020
1494 Clouds 20 1003 88 9000 2.1 110 00:24 12.06.2020
1495 Clouds 20 1003 88 9000 1.5 100 23:59 11.06.2020
1496 Clouds 20 1003 88 9000 1.5 120 23:40 11.06.2020
1497 Clouds 20 1003 88 10000 1 0 23:21 11.06.2020
1498 Clouds 20 1003 88 10000 1 0 22:57 11.06.2020
1499 Clouds 20 1004 88 10000 1.5 140 22:38 11.06.2020
1500 Clouds 20 1004 88 10000 1.5 140 22:19 11.06.2020
1501 Clouds 20 1004 88 10000 2.1 170 21:55 11.06.2020
1502 Clouds 21 1004 88 10000 2.6 170 21:37 11.06.2020
1503 Clouds 21 1004 88 10000 2.6 170 21:19 11.06.2020
1504 Clouds 21 1004 88 10000 2.6 180 20:43 11.06.2020
1505 Clouds 21 1004 83 10000 2.6 180 20:21 11.06.2020
1506 Clouds 21 1004 83 10000 2.6 180 19:55 11.06.2020
1507 Clouds 22 1004 83 10000 3.6 200 19:36 11.06.2020
1508 Clouds 22 1004 83 10000 3.6 200 19:18 11.06.2020
1509 Clouds 22 1004 83 10000 4.1 200 18:41 11.06.2020
1510 Clouds 22 1005 78 10000 2.6 180 18:20 11.06.2020
1511 Clouds 21 1005 78 10000 2.6 120 17:56 11.06.2020
1512 Clouds 21 1005 78 10000 2.6 120 17:38 11.06.2020
1513 Clouds 21 1005 78 10000 3.6 90 17:19 11.06.2020
1514 Clouds 21 1006 69 10000 4.1 80 16:56 11.06.2020
1515 Clouds 21 1006 69 10000 4.1 80 16:37 11.06.2020
1516 Clouds 21 1006 73 10000 3.6 80 16:19 11.06.2020
1517 Clouds 21 1007 73 10000 3.6 90 15:42 11.06.2020
1518 Clouds 21 1007 73 10000 3.6 80 15:23 11.06.2020
1519 Clouds 21 1007 73 10000 3.6 80 14:56 11.06.2020
1520 Clouds 21 1007 68 10000 4.1 90 14:38 11.06.2020
1521 Clouds 21 1007 68 10000 4.1 70 14:20 11.06.2020
1522 Clouds 21 1007 68 10000 4.1 70 13:54 11.06.2020
1523 Clouds 21 1008 73 10000 3.6 80 13:36 11.06.2020
1524 Clouds 21 1008 73 10000 3.6 70 13:18 11.06.2020
1525 Clouds 21 1008 73 10000 4.6 50 12:54 11.06.2020
1526 Clouds 21 1008 73 10000 4.6 50 12:36 11.06.2020
1527 Clouds 20 1008 73 10000 4.1 70 12:18 11.06.2020
1528 Clouds 20 1009 72 10000 4.1 60 11:41 11.06.2020
1529 Clouds 19 1009 77 10000 3.6 70 11:23 11.06.2020
1530 Clouds 19 1009 77 10000 3.6 70 10:59 11.06.2020
1531 Clouds 18 1009 77 10000 4.1 60 10:41 11.06.2020
1532 Clouds 18 1010 82 10000 3.6 60 10:19 11.06.2020
1533 Clouds 18 1010 77 10000 3.1 80 09:44 11.06.2020
1534 Clouds 18 1010 77 10000 3.1 80 09:26 11.06.2020
1535 Clouds 18 1010 72 10000 4.1 70 08:55 11.06.2020
1536 Clouds 17 1010 72 10000 3.6 70 08:36 11.06.2020
1537 Clouds 17 1010 68 10000 3.1 60 08:18 11.06.2020
1538 Clouds 17 1011 77 10000 3.1 60 07:41 11.06.2020
1539 Clouds 17 1011 82 10000 2.1 340 07:23 11.06.2020
1540 Clouds 17 1011 77 10000 0.5 0 06:33 11.06.2020
1541 Clouds 18 1011 82 10000 2.1 350 06:33 11.06.2020
1542 Clouds 18 1011 88 10000 2.6 320 05:54 11.06.2020
1543 Clouds 18 1011 82 10000 1 0 04:37 11.06.2020
1544 Clouds 18 1012 82 10000 2.1 100 03:25 11.06.2020
1545 Clouds 18 1013 77 10000 1.5 100 02:46 11.06.2020
1546 Clouds 18 1014 77 10000 1.5 70 01:56 11.06.2020
1547 Clouds 18 1014 77 10000 1.5 70 01:35 11.06.2020
1548 Clouds 18 1014 77 10000 1.5 90 00:57 11.06.2020
1549 Clouds 18 1014 77 10000 1.5 90 00:38 11.06.2020
1550 Clouds 18 1014 77 10000 1.5 90 00:19 11.06.2020
1551 Clouds 18 1014 77 10000 2.6 70 23:40 10.06.2020
1552 Clouds 18 1014 77 10000 2.1 80 23:21 10.06.2020
1553 Clouds 19 1014 77 10000 2.1 90 22:54 10.06.2020
1554 Clouds 19 1014 77 10000 2.1 90 22:36 10.06.2020
1555 Clouds 19 1014 77 10000 3.1 80 22:18 10.06.2020
1556 Clouds 19 1014 77 10000 3.1 80 21:55 10.06.2020
1557 Clouds 19 1014 60 10000 2.6 80 21:37 10.06.2020
1558 Clouds 19 1014 64 10000 2.6 100 21:18 10.06.2020
1559 Clouds 19 1013 64 10000 2.6 120 20:54 10.06.2020
1560 Clouds 19 1013 64 10000 2.6 120 20:36 10.06.2020
1561 Clouds 19 1013 64 10000 3.1 110 20:18 10.06.2020
1562 Clouds 20 1013 60 10000 3.1 120 19:38 10.06.2020
1563 Clouds 20 1013 60 10000 3.6 170 19:18 10.06.2020
1564 Clouds 20 1013 60 10000 3.6 190 18:54 10.06.2020
1565 Clouds 21 1013 60 10000 3.6 190 18:36 10.06.2020
1566 Clouds 21 1013 60 10000 3.6 190 18:36 10.06.2020
1567 Clouds 21 1013 56 10000 4.1 190 18:18 10.06.2020
1568 Clouds 21 1014 60 10000 4.6 200 17:42 10.06.2020
1569 Clouds 21 1014 64 10000 5.7 200 17:21 10.06.2020
1570 Clouds 21 1014 64 10000 5.7 200 16:59 10.06.2020
1571 Clouds 22 1014 60 10000 5.7 200 16:41 10.06.2020
1572 Clouds 21 1014 64 10000 5.1 200 16:22 10.06.2020
1573 Clouds 21 1015 64 10000 5.1 200 15:59 10.06.2020
1574 Clouds 21 1015 64 10000 5.1 200 15:38 10.06.2020
1575 Clouds 21 1015 64 10000 4.6 190 15:20 10.06.2020
1576 Clouds 21 1015 64 10000 4.1 180 14:41 10.06.2020
1577 Clouds 21 1015 64 10000 4.1 190 14:22 10.06.2020
1578 Clouds 21 1015 64 10000 4.1 190 13:58 10.06.2020
1579 Clouds 21 1015 60 10000 4.1 180 13:39 10.06.2020
1580 Clouds 21 1015 56 10000 3.1 170 13:21 10.06.2020
1581 Clouds 21 1015 56 10000 3.6 170 12:42 10.06.2020
1582 Clouds 21 1015 60 10000 2.1 230 12:20 10.06.2020
1583 Clouds 20 1015 60 10000 1 280 11:56 10.06.2020
1584 Clouds 20 1015 60 10000 1 280 11:38 10.06.2020
1585 Clouds 19 1016 63 10000 3.1 320 11:19 10.06.2020
1586 Clouds 19 1016 63 10000 3.1 320 11:19 10.06.2020
1587 Clouds 19 1016 68 10000 4.1 320 10:55 10.06.2020
1588 Clouds 20 1016 68 10000 4.1 320 10:36 10.06.2020
1589 Clouds 20 1016 68 10000 4.1 320 10:36 10.06.2020
1590 Clouds 19 1016 68 10000 4.1 330 10:18 10.06.2020
1591 Clouds 18 1016 77 10000 4.6 330 09:39 10.06.2020
1592 Clouds 18 1016 82 10000 5.1 330 09:21 10.06.2020
1593 Clouds 16 1016 87 10000 4.6 330 08:44 10.06.2020
1594 Clouds 16 1016 87 10000 3.6 350 08:23 10.06.2020
1595 Clouds 15 1016 93 10000 3.6 330 07:43 10.06.2020
1596 Clouds 15 1016 93 10000 4.1 330 07:24 10.06.2020
1597 Clouds 15 1016 87 10000 4.6 330 06:59 10.06.2020
1598 Clouds 15 1016 87 10000 4.6 330 06:40 10.06.2020
1599 Clouds 15 1016 87 10000 4.6 320 06:19 10.06.2020
1600 Clouds 15 1016 93 10000 4.6 320 05:55 10.06.2020
1601 Clouds 15 1016 93 10000 3.6 330 05:23 10.06.2020
1602 Clouds 15 1016 93 10000 3.1 350 04:30 10.06.2020
1603 Rain 16 1017 93 10000 2.1 350 02:49 10.06.2020
1604 Rain 15 1017 93 10000 0.5 0 01:54 10.06.2020
1605 Rain 15 1017 93 10000 0.5 0 01:31 10.06.2020
1606 Rain 15 1017 87 10000 3.6 330 00:39 10.06.2020
1607 Rain 16 1017 87 6000 5.7 320 00:21 10.06.2020
1608 Rain 16 1017 87 10000 3.6 320 23:55 09.06.2020
1609 Clouds 16 1017 87 10000 3.6 320 23:36 09.06.2020
1610 Clouds 16 1017 82 10000 3.6 320 23:18 09.06.2020
1611 Clouds 16 1016 87 10000 3.1 320 22:54 09.06.2020
1612 Clouds 16 1016 87 10000 3.1 320 22:36 09.06.2020
1613 Clouds 16 1016 93 10000 3.1 320 22:18 09.06.2020
1614 Clouds 16 1016 82 10000 2.1 310 21:54 09.06.2020
1615 Clouds 16 1016 82 10000 2.1 310 21:36 09.06.2020
1616 Clouds 17 1015 82 10000 1.5 320 21:18 09.06.2020
1617 Clouds 17 1015 82 10000 1.5 320 20:55 09.06.2020
1618 Rain 17 1015 87 10000 3.1 140 20:37 09.06.2020
1619 Rain 17 1016 87 10000 1.5 100 20:18 09.06.2020
1620 Rain 16 1016 87 10000 4.6 10 19:54 09.06.2020
1621 Rain 16 1016 87 10000 4.6 10 19:36 09.06.2020
1622 Drizzle 16 1015 88 10000 5.7 70 19:18 09.06.2020
1623 Drizzle 16 1015 88 10000 5.7 70 19:18 09.06.2020
1624 Rain 17 1015 82 10000 6.2 70 18:43 09.06.2020
1625 Rain 16 1016 68 6000 1 130 18:25 09.06.2020
1626 Rain 17 1015 64 9000 2.1 130 17:57 09.06.2020
1627 Rain 17 1015 64 9000 2.1 130 17:38 09.06.2020
1628 Rain 18 1015 82 9000 2.1 90 17:20 09.06.2020
1629 Rain 19 1015 56 10000 4.6 180 16:55 09.06.2020
1630 Rain 19 1015 56 10000 4.6 180 16:36 09.06.2020
1631 Rain 19 1015 60 10000 5.7 200 16:18 09.06.2020
1632 Rain 20 1015 56 10000 5.1 190 15:39 09.06.2020
1633 Clouds 21 1015 60 10000 4.6 180 15:21 09.06.2020
1634 Clouds 21 1015 60 10000 4.6 180 14:57 09.06.2020
1635 Clouds 22 1016 56 10000 4.1 190 14:37 09.06.2020
1636 Clouds 21 1016 60 10000 3.6 170 14:18 09.06.2020
1637 Clouds 21 1016 60 10000 3.6 140 13:43 09.06.2020
1638 Clouds 21 1015 56 10000 4.1 120 13:21 09.06.2020
1639 Clouds 21 1015 56 10000 4.1 120 12:59 09.06.2020
1640 Clouds 21 1015 46 10000 3.1 120 12:41 09.06.2020
1641 Clouds 21 1015 52 10000 3.6 330 12:19 09.06.2020
1642 Clouds 21 1015 52 10000 3.6 330 11:56 09.06.2020
1643 Clouds 20 1015 52 10000 5.1 310 11:37 09.06.2020
1644 Clouds 20 1015 59 10000 4.6 320 11:19 09.06.2020
1645 Clouds 20 1015 63 10000 6.2 320 10:45 09.06.2020
1646 Clouds 19 1015 63 10000 5.7 340 10:25 09.06.2020
1647 Clouds 19 1015 67 10000 5.7 330 09:57 09.06.2020
1648 Clouds 18 1015 67 10000 5.7 330 09:38 09.06.2020
1649 Rain 17 1015 72 10000 6.7 320 09:18 09.06.2020
1650 Rain 16 1015 77 10000 5.1 320 08:39 09.06.2020
1651 Rain 16 1015 77 10000 5.1 320 08:39 09.06.2020
1652 Rain 16 1015 77 10000 5.1 320 08:39 09.06.2020
1653 Clouds 16 1015 82 10000 4.1 330 08:20 09.06.2020
1654 Clouds 15 1015 82 10000 3.6 320 07:42 09.06.2020
1655 Rain 16 1015 87 10000 3.1 330 07:22 09.06.2020
1656 Rain 15 1015 87 10000 3.1 330 06:55 09.06.2020
1657 Rain 16 1015 87 10000 3.1 320 06:36 09.06.2020
1658 Clouds 15 1014 93 10000 2.6 310 05:37 09.06.2020
1659 Clouds 16 1015 87 10000 4.1 330 03:53 09.06.2020
1660 Rain 16 1015 82 10000 3.6 300 02:20 09.06.2020
1661 Rain 17 1015 82 10000 3.6 300 01:36 09.06.2020
1662 Clouds 17 1015 77 10000 4.6 310 01:18 09.06.2020
1663 Clouds 16 1015 77 10000 4.1 320 00:40 09.06.2020
1664 Clouds 17 1015 72 10000 3.6 320 00:19 09.06.2020
1665 Clouds 17 1015 72 10000 3.1 300 23:41 08.06.2020
1666 Clouds 17 1015 68 10000 2.1 280 23:21 08.06.2020
1667 Clouds 17 1015 68 10000 2.1 280 22:58 08.06.2020
1668 Clouds 17 1014 68 10000 2.6 250 22:38 08.06.2020
1669 Clouds 17 1014 68 10000 2.6 250 22:38 08.06.2020
1670 Clouds 17 1014 68 10000 1.5 200 22:20 08.06.2020
1671 Clouds 17 1014 59 10000 1 0 21:55 08.06.2020
1672 Clouds 18 1014 59 10000 1 0 21:37 08.06.2020
1673 Clouds 18 1014 59 10000 1.5 190 21:18 08.06.2020
1674 Clouds 18 1014 59 10000 2.1 190 20:55 08.06.2020
1675 Clouds 19 1014 59 10000 2.1 190 20:36 08.06.2020
1676 Clouds 19 1013 55 10000 2.6 190 20:18 08.06.2020
1677 Clouds 19 1013 55 10000 2.6 190 20:18 08.06.2020
1678 Clouds 19 1013 59 10000 3.6 180 19:43 08.06.2020
1679 Clouds 19 1013 52 10000 4.6 180 19:21 08.06.2020
1680 Clouds 19 1013 52 10000 4.6 190 18:43 08.06.2020
1681 Clouds 20 1013 56 10000 4.1 160 18:21 08.06.2020
1682 Clouds 20 1013 56 10000 4.1 160 17:58 08.06.2020
1683 Clouds 20 1013 56 10000 4.1 160 17:58 08.06.2020
1684 Clouds 20 1013 56 10000 4.1 170 17:40 08.06.2020
1685 Clouds 20 1013 49 10000 4.6 170 17:21 08.06.2020
1686 Clouds 20 1013 49 10000 4.6 170 16:58 08.06.2020
1687 Clouds 20 1013 52 10000 4.1 160 16:39 08.06.2020
1688 Clouds 20 1013 52 10000 4.1 160 16:39 08.06.2020
1689 Clouds 20 1014 56 10000 4.1 190 16:21 08.06.2020
1690 Clouds 20 1014 56 10000 4.6 180 15:42 08.06.2020
1691 Clouds 20 1014 56 10000 3.6 170 15:22 08.06.2020
1692 Clouds 20 1014 55 10000 3.6 170 14:58 08.06.2020
1693 Clouds 20 1014 55 10000 3.6 170 14:58 08.06.2020
1694 Clouds 19 1014 55 10000 3.6 170 14:39 08.06.2020
1695 Clouds 19 1014 59 10000 3.6 140 14:19 08.06.2020
1696 Clouds 19 1014 59 10000 3.6 140 13:43 08.06.2020
1697 Clouds 19 1014 63 10000 4.6 120 13:23 08.06.2020
1698 Rain 18 1014 63 10000 5.7 110 12:43 08.06.2020
1699 Clouds 17 1014 68 10000 4.6 120 12:20 08.06.2020
1700 Clouds 17 1014 68 10000 4.6 120 11:59 08.06.2020
1701 Clouds 17 1013 72 10000 4.6 120 11:40 08.06.2020
1702 Rain 17 1013 63 10000 1 110 11:22 08.06.2020
1703 Rain 17 1013 63 10000 1 110 11:22 08.06.2020
1704 Rain 16 1013 63 10000 1 110 10:58 08.06.2020
1705 Rain 16 1013 63 10000 4.6 340 10:38 08.06.2020
1706 Clouds 16 1013 63 10000 4.1 330 10:20 08.06.2020
1707 Clouds 16 1012 63 10000 5.1 320 09:57 08.06.2020
1708 Clouds 16 1012 63 10000 5.1 320 09:57 08.06.2020
1709 Clouds 16 1012 63 10000 5.1 320 09:57 08.06.2020
1710 Clouds 16 1012 63 10000 5.1 320 09:39 08.06.2020
1711 Clouds 16 1012 63 10000 4.1 330 09:20 08.06.2020
1712 Clouds 15 1012 67 10000 4.6 320 08:42 08.06.2020
1713 Clouds 15 1012 72 10000 5.7 320 08:20 08.06.2020
1714 Clouds 16 1011 72 10000 4.6 320 07:43 08.06.2020
1715 Clouds 15 1011 72 10000 5.7 330 07:21 08.06.2020
1716 Clouds 15 1011 72 10000 5.1 330 06:48 08.06.2020
1717 Clouds 16 1011 72 10000 5.1 330 06:28 08.06.2020
1718 Clouds 16 1011 77 10000 3.6 320 05:43 08.06.2020
1719 Clouds 16 1011 88 10000 2.1 320 04:27 08.06.2020
1720 Rain 16 1011 88 10000 4.1 320 02:32 08.06.2020
1721 Clouds 17 1011 88 10000 4.1 320 01:45 08.06.2020
1722 Clouds 17 1011 88 10000 4.1 320 01:26 08.06.2020
1723 Rain 17 1011 88 10000 3.6 320 00:30 08.06.2020
1724 Clouds 17 1011 93 10000 5.1 310 23:41 07.06.2020
1725 Rain 17 1012 88 10000 2.1 300 23:20 07.06.2020
1726 Rain 17 1011 88 10000 2.1 290 22:59 07.06.2020
1727 Rain 17 1011 88 10000 2.1 290 22:39 07.06.2020
1728 Rain 17 1011 82 9000 0.5 0 22:19 07.06.2020
1729 Rain 17 1011 82 9000 0.5 0 21:59 07.06.2020
1730 Rain 17 1011 82 8000 1.5 110 21:38 07.06.2020
1731 Rain 18 1011 77 5000 2.97 122 21:20 07.06.2020
1732 Rain 18 1011 77 5000 2.97 122 20:55 07.06.2020
1733 Rain 19 1010 68 10000 3.6 100 20:37 07.06.2020
1734 Rain 19 1010 72 10000 3.6 110 20:18 07.06.2020
1735 Rain 19 1010 72 10000 3.6 110 19:55 07.06.2020
1736 Clouds 19 1009 72 10000 3.1 110 19:37 07.06.2020
1737 Clouds 20 1009 68 10000 3.6 110 19:18 07.06.2020
1738 Clouds 20 1009 68 10000 4.1 110 18:40 07.06.2020
1739 Clouds 21 1009 68 10000 3.6 110 18:22 07.06.2020
1740 Clouds 21 1008 68 10000 4.6 90 17:59 07.06.2020
1741 Clouds 21 1008 68 10000 4.6 90 17:40 07.06.2020
1742 Rain 21 1008 64 10000 5.1 90 17:21 07.06.2020
1743 Rain 21 1008 64 10000 4.6 100 16:44 07.06.2020
1744 Rain 22 1008 64 10000 4.1 90 16:22 07.06.2020
1745 Clouds 22 1009 73 10000 3.1 120 15:45 07.06.2020
1746 Rain 21 1009 64 10000 3.1 130 15:24 07.06.2020
1747 Rain 21 1009 64 10000 3.1 130 14:59 07.06.2020
1748 Rain 21 1008 60 10000 4.6 90 14:38 07.06.2020
1749 Clouds 21 1008 73 10000 3.6 90 14:19 07.06.2020
1750 Clouds 22 1008 77 10000 3.1 90 13:45 07.06.2020
1751 Clouds 22 1008 77 10000 3.1 90 13:45 07.06.2020
1752 Clouds 21 1008 77 10000 2.6 80 13:20 07.06.2020
1753 Clouds 19 1008 82 10000 2.1 70 12:44 07.06.2020
1754 Clouds 19 1008 82 10000 3.1 50 12:26 07.06.2020
1755 Clouds 19 1008 82 10000 3.1 50 12:26 07.06.2020
1756 Clouds 19 1007 82 10000 4.1 60 11:56 07.06.2020
1757 Clouds 19 1008 82 10000 3.1 50 11:56 07.06.2020
1758 Clouds 19 1007 82 10000 4.1 60 11:56 07.06.2020
1759 Clouds 19 1007 82 10000 4.1 60 11:38 07.06.2020
1760 Thunderstorm 19 1007 82 10000 2.1 30 11:20 07.06.2020
1761 Rain 19 1007 88 10000 2.6 80 10:59 07.06.2020
1762 Thunderstorm 19 1007 88 10000 2.6 80 10:40 07.06.2020
1763 Rain 19 1007 72 10000 4.6 50 10:19 07.06.2020
1764 Rain 19 1007 72 10000 4.6 50 09:56 07.06.2020
1765 Thunderstorm 20 1006 68 10000 5.7 80 09:38 07.06.2020
1766 Clouds 20 1006 72 10000 5.7 80 09:19 07.06.2020
1767 Clouds 20 1006 77 10000 5.1 80 08:47 07.06.2020
1768 Clouds 20 1006 77 10000 3.6 70 08:23 07.06.2020
1769 Clouds 19 1006 77 10000 2.6 40 07:49 07.06.2020
1770 Clouds 19 1006 77 10000 2.6 40 07:28 07.06.2020
1771 Clouds 19 1005 82 10000 3.6 70 06:43 07.06.2020
1772 Clouds 19 1006 88 10000 3.6 60 05:40 07.06.2020
1773 Rain 20 1006 88 10000 3.6 50 04:20 07.06.2020
1774 Rain 20 1006 88 10000 3.6 50 04:20 07.06.2020
1775 Clouds 20 1006 88 10000 4.1 80 02:32 07.06.2020
1776 Clouds 20 1006 88 10000 2.1 70 01:50 07.06.2020
1777 Clouds 21 1006 88 10000 3.1 80 01:25 07.06.2020
1778 Clouds 21 1006 88 10000 2.6 80 00:45 07.06.2020
1779 Clouds 21 1006 88 10000 2.1 90 00:19 07.06.2020
1780 Clouds 21 1006 88 10000 2.1 90 23:57 06.06.2020
1781 Clouds 21 1007 88 10000 2.1 120 23:36 06.06.2020
1782 Clouds 21 1007 88 10000 2.1 120 23:36 06.06.2020
1783 Clouds 21 1006 88 10000 1.5 100 23:18 06.06.2020
1784 Clouds 21 1006 88 10000 1.5 100 22:56 06.06.2020
1785 Clouds 21 1006 88 10000 1.5 110 22:37 06.06.2020
1786 Clouds 21 1006 88 10000 1 0 22:18 06.06.2020
1787 Clouds 21 1005 88 10000 1.5 130 21:44 06.06.2020
1788 Clouds 21 1006 78 10000 2.1 160 21:22 06.06.2020
1789 Clouds 21 1006 78 10000 2.1 160 20:56 06.06.2020
1790 Clouds 22 1006 78 10000 3.1 170 20:37 06.06.2020
1791 Clouds 22 1006 83 10000 3.6 160 20:18 06.06.2020
1792 Clouds 22 1006 83 10000 2.1 130 19:56 06.06.2020
1793 Clouds 23 1006 83 10000 2.1 130 19:37 06.06.2020
1794 Clouds 23 1006 83 10000 2.1 130 19:37 06.06.2020
1795 Clouds 22 1007 78 10000 3.1 110 19:19 06.06.2020
1796 Clouds 23 1007 78 10000 3.6 100 18:43 06.06.2020
1797 Clouds 23 1007 73 10000 3.6 90 18:24 06.06.2020
1798 Clouds 23 1007 73 10000 3.6 90 17:58 06.06.2020
1799 Clouds 23 1008 73 10000 3.6 110 17:39 06.06.2020
1800 Clouds 23 1008 73 10000 4.1 110 17:18 06.06.2020
1801 Clouds 23 1009 73 10000 4.6 110 16:41 06.06.2020
1802 Clouds 23 1009 73 10000 4.6 110 16:22 06.06.2020
1803 Clouds 23 1009 73 10000 4.6 100 15:56 06.06.2020
1804 Clouds 23 1009 69 10000 4.6 100 15:37 06.06.2020
1805 Clouds 23 1009 73 10000 4.6 90 15:19 06.06.2020
1806 Clouds 23 1010 69 10000 4.6 80 14:43 06.06.2020
1807 Clouds 23 1010 69 10000 4.6 90 14:24 06.06.2020
1808 Clouds 23 1010 69 10000 4.6 90 13:58 06.06.2020
1809 Clouds 23 1010 73 10000 5.1 90 13:40 06.06.2020
1810 Clouds 23 1011 73 10000 5.1 100 13:18 06.06.2020
1811 Clouds 22 1010 69 10000 5.1 70 12:43 06.06.2020
1812 Clouds 22 1011 73 10000 4.6 70 12:23 06.06.2020
1813 Clouds 22 1011 73 10000 3.6 90 11:58 06.06.2020
1814 Clouds 22 1011 73 10000 3.6 90 11:38 06.06.2020
1815 Clouds 22 1011 77 10000 4.1 90 11:20 06.06.2020
1816 Clouds 22 1011 77 10000 4.1 90 10:58 06.06.2020
1817 Clouds 22 1011 68 10000 4.1 80 10:39 06.06.2020
1818 Clouds 21 1011 68 10000 3.1 80 10:21 06.06.2020
1819 Clouds 21 1010 72 10000 2.1 340 09:46 06.06.2020
1820 Clouds 21 1010 72 10000 2.1 340 09:46 06.06.2020
1821 Clouds 20 1010 72 10000 2.1 320 09:28 06.06.2020
1822 Clouds 20 1010 72 10000 2.1 320 08:58 06.06.2020
1823 Clouds 19 1010 77 10000 3.1 320 08:40 06.06.2020
1824 Clear 18 1010 82 10000 4.1 320 08:20 06.06.2020
1825 Clear 18 1010 82 10000 3.1 330 07:45 06.06.2020
1826 Clear 18 1010 82 10000 3.1 330 07:22 06.06.2020
1827 Clear 17 1010 82 10000 3.1 330 06:47 06.06.2020
1828 Clear 18 1010 82 10000 3.1 330 06:29 06.06.2020
1829 Clear 17 1010 82 10000 3.1 330 05:55 06.06.2020
1830 Clear 17 1010 82 10000 2.1 320 05:28 06.06.2020
1831 Clear 17 1011 82 10000 1 0 04:44 06.06.2020
1832 Clear 19 1011 72 10000 1.92 255 02:52 06.06.2020
1833 Clear 19 1011 77 10000 0.5 0 01:56 06.06.2020
1834 Clear 19 1012 72 10000 1 0 01:19 06.06.2020
1835 Clear 20 1012 72 10000 1 0 00:46 06.06.2020
1836 Clouds 20 1012 72 10000 3.1 240 00:27 06.06.2020
1837 Clouds 20 1012 72 10000 3.1 240 23:56 05.06.2020
1838 Clouds 20 1012 68 10000 4.6 220 23:38 05.06.2020
1839 Clear 20 1011 72 10000 3.1 210 23:18 05.06.2020
1840 Clear 20 1010 77 10000 4.1 200 22:55 05.06.2020
1841 Clear 20 1010 77 10000 4.1 200 22:37 05.06.2020
1842 Clouds 20 1010 77 10000 5.1 200 22:18 05.06.2020
1843 Clouds 20 1010 73 10000 4.1 200 21:42 05.06.2020
1844 Clouds 21 1010 68 10000 4.6 210 21:22 05.06.2020
1845 Clouds 21 1010 68 10000 4.6 210 20:58 05.06.2020
1846 Clouds 22 1009 64 10000 5.7 200 20:39 05.06.2020
1847 Clouds 22 1009 64 10000 7.2 220 20:20 05.06.2020
1848 Clouds 22 1009 56 10000 6.2 220 19:42 05.06.2020
1849 Clouds 23 1009 60 10000 5.1 210 19:23 05.06.2020
1850 Clouds 23 1009 60 10000 5.1 210 18:57 05.06.2020
1851 Clouds 23 1009 53 10000 5.7 200 18:38 05.06.2020
1852 Clear 23 1009 47 10000 6.7 220 18:19 05.06.2020
1853 Clear 23 1009 47 10000 7.7 220 17:57 05.06.2020
1854 Clear 23 1009 47 10000 7.7 220 17:39 05.06.2020
1855 Clear 23 1009 47 10000 8.7 220 17:19 05.06.2020
1856 Clear 23 1009 44 10000 6.7 230 16:39 05.06.2020
1857 Clear 23 1009 44 10000 7.2 190 16:20 05.06.2020
1858 Clear 23 1009 44 10000 7.2 190 15:55 05.06.2020
1859 Clear 23 1009 44 10000 7.2 190 15:55 05.06.2020
1860 Clear 23 1009 53 10000 5.7 160 15:36 05.06.2020
1861 Clear 23 1009 46 10000 6.7 210 15:18 05.06.2020
1862 Clear 23 1009 53 10000 5.7 160 14:41 05.06.2020
1863 Clouds 23 1009 56 10000 5.1 170 14:22 05.06.2020
1864 Clouds 23 1009 52 10000 6.2 190 13:59 05.06.2020
1865 Clouds 23 1009 52 10000 6.2 190 13:41 05.06.2020
1866 Clouds 22 1009 56 10000 5.1 180 13:22 05.06.2020
1867 Clouds 22 1009 52 10000 4.1 180 12:43 05.06.2020
1868 Clouds 22 1009 52 10000 2.1 200 12:20 05.06.2020
1869 Clouds 21 1009 43 10000 2.6 340 11:57 05.06.2020
1870 Clouds 21 1009 43 10000 2.6 340 11:39 05.06.2020
1871 Clouds 21 1009 52 10000 5.1 310 11:20 05.06.2020
1872 Clouds 20 1009 52 10000 5.1 310 10:54 05.06.2020
1873 Clouds 20 1009 52 10000 5.7 330 10:36 05.06.2020
1874 Clouds 19 1009 52 10000 6.2 340 10:18 05.06.2020
1875 Clouds 19 1008 55 10000 4.1 330 09:55 05.06.2020
1876 Clouds 18 1008 55 10000 4.1 330 09:36 05.06.2020
1877 Clouds 18 1008 59 10000 3.1 320 09:18 05.06.2020
1878 Clouds 16 1007 67 10000 2.6 310 08:41 05.06.2020
1879 Clouds 16 1007 67 10000 4.6 320 08:20 05.06.2020
1880 Clouds 16 1007 67 10000 4.1 330 07:57 05.06.2020
1881 Clouds 16 1007 67 10000 4.1 330 07:38 05.06.2020
1882 Clouds 16 1007 72 10000 3.6 310 07:19 05.06.2020
1883 Clouds 16 1006 77 10000 2.6 340 05:50 05.06.2020
1884 Clouds 16 1006 77 10000 3.6 320 05:19 05.06.2020
1885 Clouds 16 1006 82 10000 2.6 320 03:53 05.06.2020
1886 Clouds 16 1006 82 10000 2.6 320 02:45 05.06.2020
1887 Clouds 16 1006 77 10000 2.6 320 02:21 05.06.2020
1888 Clouds 16 1006 77 10000 2.6 320 02:21 05.06.2020
1889 Clouds 16 1005 72 10000 2.1 320 01:52 05.06.2020
1890 Clouds 17 1005 72 10000 2.1 10 01:20 05.06.2020
1891 Clouds 17 1005 77 10000 2.6 30 00:41 05.06.2020
1892 Clouds 17 1005 77 10000 2.6 10 00:20 05.06.2020
1893 Clouds 17 1005 77 10000 4.6 50 23:46 04.06.2020
1894 Clouds 17 1004 77 10000 6.7 50 23:26 04.06.2020
1895 Clouds 17 1003 68 10000 8.2 40 22:55 04.06.2020
1896 Clouds 17 1003 68 10000 8.2 40 22:36 04.06.2020
1897 Clouds 17 1003 72 10000 3.6 40 22:18 04.06.2020
1898 Clouds 18 1003 67 10000 4.6 30 21:55 04.06.2020
1899 Clouds 18 1002 68 10000 4.6 220 21:36 04.06.2020
1900 Clouds 20 1001 73 10000 7.2 230 21:18 04.06.2020
1901 Clouds 22 1001 73 10000 7.7 230 20:40 04.06.2020
1902 Clouds 22 1001 73 10000 9.3 230 20:21 04.06.2020
1903 Clouds 21 1001 73 10000 10.8 230 19:59 04.06.2020
1904 Clouds 21 1001 73 10000 10.8 230 19:38 04.06.2020
1905 Clouds 21 1001 68 10000 11.3 230 19:20 04.06.2020
1906 Clouds 22 1001 68 10000 10.8 230 18:54 04.06.2020
1907 Clouds 22 1001 68 10000 10.8 230 18:36 04.06.2020
1908 Clouds 21 1001 64 10000 8.7 230 18:18 04.06.2020
1909 Clouds 22 1001 64 10000 7.7 220 17:41 04.06.2020
1910 Clouds 22 1002 64 10000 7.7 220 17:21 04.06.2020
1911 Clouds 21 1002 60 10000 7.7 220 16:55 04.06.2020
1912 Clouds 21 1002 60 10000 7.7 220 16:37 04.06.2020
1913 Clouds 22 1002 64 10000 5.7 210 16:18 04.06.2020
1914 Clouds 21 1002 64 10000 5.7 220 15:41 04.06.2020
1915 Clouds 21 1002 64 10000 5.7 220 15:22 04.06.2020
1916 Clouds 21 1003 64 10000 4.1 210 14:39 04.06.2020
1917 Clouds 21 1003 64 10000 2.1 190 14:20 04.06.2020
1918 Clouds 20 1003 60 10000 1 0 13:56 04.06.2020
1919 Clouds 20 1003 60 10000 1 0 13:56 04.06.2020
1920 Clouds 20 1003 60 10000 1 0 13:38 04.06.2020
1921 Clouds 20 1003 64 10000 2.6 300 13:19 04.06.2020
1922 Clouds 19 1003 64 10000 2.6 300 12:55 04.06.2020
1923 Clouds 20 1003 60 10000 3.6 300 12:37 04.06.2020
1924 Rain 18 1002 68 10000 3.1 320 12:18 04.06.2020
1925 Clouds 19 1002 64 10000 5.1 300 11:41 04.06.2020
1926 Clouds 19 1002 82 10000 4.6 310 11:20 04.06.2020
1927 Clouds 18 1002 72 10000 3.1 310 10:59 04.06.2020
1928 Clouds 18 1002 72 10000 3.1 310 10:39 04.06.2020
1929 Rain 18 1002 77 10000 3.6 270 10:20 04.06.2020
1930 Rain 18 1002 77 10000 3.6 290 09:46 04.06.2020
1931 Clouds 19 1002 82 10000 2.6 290 09:28 04.06.2020
1932 Clouds 19 1002 88 10000 3.1 260 08:57 04.06.2020
1933 Clouds 19 1002 88 10000 3.1 260 08:38 04.06.2020
1934 Clouds 19 1002 88 10000 1.5 280 08:20 04.06.2020
1935 Rain 18 1002 82 10000 1.5 250 07:31 04.06.2020
1936 Rain 18 1002 82 10000 1 0 06:47 04.06.2020
1937 Clouds 18 1002 82 10000 1.5 310 06:27 04.06.2020
1938 Clouds 19 1002 82 10000 2.1 300 05:52 04.06.2020
1939 Clouds 19 1002 82 10000 2.1 300 05:31 04.06.2020
1940 Clouds 19 1003 93 10000 2.6 300 03:34 04.06.2020
1941 Clouds 19 1003 93 10000 1.5 340 02:21 04.06.2020
1942 Rain 19 1005 93 10000 1.5 220 01:21 04.06.2020
1943 Rain 19 1006 93 10000 2.6 250 00:59 04.06.2020
1944 Rain 19 1006 82 10000 3.1 240 00:18 04.06.2020
1945 Rain 19 1006 82 10000 3.1 240 00:18 04.06.2020
1946 Rain 19 1006 88 10000 4.1 220 23:37 03.06.2020
1947 Rain 20 1006 77 10000 3.6 210 23:19 03.06.2020
1948 Rain 20 1006 77 10000 3.6 210 23:19 03.06.2020
1949 Rain 20 1006 94 9000 3.1 210 22:54 03.06.2020
1950 Rain 21 1006 94 9000 3.1 210 22:36 03.06.2020
1951 Rain 21 1006 88 9000 3.1 200 22:18 03.06.2020
1952 Rain 21 1006 83 10000 2.6 200 21:55 03.06.2020
1953 Rain 21 1006 83 10000 2.6 200 21:36 03.06.2020
1954 Rain 21 1005 83 10000 2.6 190 21:18 03.06.2020
1955 Rain 21 1005 83 10000 4.1 190 20:41 03.06.2020
1956 Rain 21 1005 83 10000 3.6 180 20:21 03.06.2020
1957 Rain 22 1005 83 10000 5.7 210 19:57 03.06.2020
1958 Rain 22 1005 83 10000 5.7 210 19:38 03.06.2020
1959 Rain 22 1005 78 10000 5.7 200 19:20 03.06.2020
1960 Clouds 23 1005 78 10000 5.7 200 18:57 03.06.2020
1961 Clouds 23 1005 78 10000 6.2 190 18:39 03.06.2020
1962 Clouds 24 1005 78 10000 6.7 200 18:19 03.06.2020
1963 Clouds 24 1006 78 10000 7.7 210 17:44 03.06.2020
1964 Clouds 24 1006 78 10000 8.7 210 17:23 03.06.2020
1965 Clouds 24 1006 78 10000 8.7 210 16:58 03.06.2020
1966 Clouds 24 1007 69 10000 7.7 200 16:39 03.06.2020
1967 Clouds 25 1007 69 10000 8.2 200 16:19 03.06.2020
1968 Clouds 25 1007 69 10000 8.2 200 15:54 03.06.2020
1969 Clouds 25 1007 69 10000 8.2 200 15:36 03.06.2020
1970 Clouds 25 1007 69 10000 8.2 200 15:36 03.06.2020
1971 Clouds 25 1008 64 10000 7.7 210 15:18 03.06.2020
1972 Clouds 25 1008 64 10000 7.2 210 14:42 03.06.2020
1973 Clouds 25 1008 64 10000 7.2 210 14:22 03.06.2020
1974 Clouds 25 1009 60 10000 5.7 220 13:40 03.06.2020
1975 Clouds 25 1009 64 10000 4.1 220 13:21 03.06.2020
1976 Clouds 25 1009 57 10000 1.5 210 12:56 03.06.2020
1977 Clouds 25 1009 57 10000 1.5 210 12:38 03.06.2020
1978 Clouds 24 1009 69 10000 6.2 220 12:18 03.06.2020
1979 Clouds 24 1010 73 10000 4.6 220 11:43 03.06.2020
1980 Clouds 24 1010 73 10000 4.6 220 11:24 03.06.2020
1981 Clouds 23 1010 78 10000 4.6 210 10:43 03.06.2020
1982 Clouds 23 1010 73 10000 3.6 210 10:24 03.06.2020
1983 Clouds 23 1010 73 10000 3.6 210 09:55 03.06.2020
1984 Clouds 22 1010 78 10000 2.6 230 09:36 03.06.2020
1985 Clouds 22 1011 77 10000 1 0 09:18 03.06.2020
1986 Clouds 21 1011 82 10000 1.5 310 08:45 03.06.2020
1987 Clouds 20 1011 88 10000 2.1 310 08:21 03.06.2020
1988 Clouds 20 1010 88 10000 2.1 300 07:45 03.06.2020
1989 Clouds 20 1010 88 10000 2.1 320 07:24 03.06.2020
1990 Clouds 19 1010 88 10000 1.5 320 06:55 03.06.2020
1991 Clouds 19 1010 88 10000 1.5 320 06:34 03.06.2020
1992 Clouds 19 1011 88 10000 1.5 320 05:49 03.06.2020
1993 Clouds 19 1011 88 10000 1.5 330 05:23 03.06.2020
1994 Clouds 20 1012 88 10000 2.1 280 03:52 03.06.2020
1995 Clouds 20 1013 88 10000 2.1 270 03:24 03.06.2020
1996 Clouds 20 1013 88 10000 2.6 240 02:25 03.06.2020
1997 Clouds 21 1014 83 10000 3.1 220 01:26 03.06.2020
1998 Clouds 21 1014 83 10000 2.6 210 00:37 03.06.2020
1999 Clouds 21 1014 83 10000 1.5 210 00:18 03.06.2020
2000 Rain 21 1014 88 10000 2.1 190 23:39 02.06.2020
2001 Rain 21 1014 83 10000 1.5 210 23:21 02.06.2020
2002 Clouds 21 1013 78 10000 1.5 170 22:39 02.06.2020
2003 Clouds 21 1014 83 10000 2.1 200 22:19 02.06.2020
2004 Clouds 22 1014 78 10000 2.1 190 21:57 02.06.2020
2005 Clouds 22 1014 78 10000 2.1 190 21:39 02.06.2020
2006 Clouds 22 1014 78 10000 3.1 200 21:20 02.06.2020
2007 Clouds 22 1014 78 10000 3.1 200 20:59 02.06.2020
2008 Clouds 22 1014 78 10000 2.6 200 20:40 02.06.2020
2009 Clouds 23 1014 73 10000 4.1 200 20:22 02.06.2020
2010 Clouds 23 1014 73 10000 4.1 210 19:45 02.06.2020
2011 Clouds 23 1014 73 10000 2.6 200 19:26 02.06.2020
2012 Clouds 23 1014 73 10000 2.6 200 18:59 02.06.2020
2013 Clouds 23 1014 69 10000 4.1 170 18:40 02.06.2020
2014 Clouds 23 1014 69 10000 4.1 200 18:20 02.06.2020
2015 Clouds 24 1014 69 10000 4.1 200 17:59 02.06.2020
2016 Clouds 24 1015 69 10000 4.1 180 17:40 02.06.2020
2017 Clouds 24 1015 73 10000 4.1 190 17:21 02.06.2020
2018 Clouds 24 1015 73 10000 4.1 190 16:56 02.06.2020
2019 Clouds 25 1015 73 10000 4.1 150 16:37 02.06.2020
2020 Clouds 24 1015 73 10000 4.6 170 16:19 02.06.2020
2021 Clouds 25 1015 69 10000 4.1 140 15:40 02.06.2020
2022 Clouds 24 1015 73 10000 4.1 140 15:22 02.06.2020
2023 Clouds 24 1016 73 10000 4.6 130 14:48 02.06.2020
2024 Clouds 24 1016 73 10000 4.6 130 14:28 02.06.2020
2025 Clouds 23 1016 73 10000 4.1 130 13:57 02.06.2020
2026 Clouds 24 1016 69 10000 3.6 150 13:37 02.06.2020
2027 Clouds 24 1016 69 10000 3.6 160 13:19 02.06.2020
2028 Clouds 23 1016 69 10000 3.6 160 12:57 02.06.2020
2029 Clouds 24 1016 69 10000 3.6 180 12:38 02.06.2020
2030 Clouds 23 1016 69 10000 3.1 140 12:20 02.06.2020
2031 Clouds 23 1016 64 10000 2.6 150 11:54 02.06.2020
2032 Clouds 23 1016 64 10000 2.6 150 11:36 02.06.2020
2033 Clouds 23 1016 68 10000 1 300 11:18 02.06.2020
2034 Clouds 22 1016 68 10000 1.5 330 10:41 02.06.2020
2035 Clouds 22 1016 68 10000 1.5 330 10:41 02.06.2020
2036 Clouds 22 1016 73 10000 2.6 330 10:22 02.06.2020
2037 Clouds 21 1016 72 10000 3.1 330 09:43 02.06.2020
2038 Clouds 20 1016 77 10000 3.6 330 09:22 02.06.2020
2039 Clouds 20 1016 77 10000 3.6 330 08:57 02.06.2020
2040 Clouds 19 1016 82 10000 3.6 320 08:36 02.06.2020
2041 Clouds 19 1016 82 10000 3.6 330 08:18 02.06.2020
2042 Clouds 18 1016 82 10000 3.6 320 07:39 02.06.2020
2043 Clouds 18 1016 82 10000 3.6 330 07:20 02.06.2020
2044 Clouds 17 1016 82 10000 4.1 330 06:43 02.06.2020
2045 Clouds 17 1016 88 10000 4.1 330 05:46 02.06.2020
2046 Clouds 18 1016 88 10000 2.6 340 04:54 02.06.2020
2047 Clouds 18 1017 88 10000 4.1 330 03:20 02.06.2020
2048 Clouds 18 1017 88 10000 4.1 310 02:20 02.06.2020
2049 Clouds 19 1017 88 10000 2.1 310 00:57 02.06.2020
2050 Rain 20 1017 82 10000 4.1 330 00:23 02.06.2020
2051 Rain 20 1018 73 10000 1.5 300 23:39 01.06.2020
2052 Rain 20 1017 77 10000 1 0 23:21 01.06.2020
2053 Rain 20 1017 77 10000 1 0 22:59 01.06.2020
2054 Rain 20 1017 73 10000 1 0 22:40 01.06.2020
2055 Clouds 21 1016 68 10000 1 150 22:20 01.06.2020
2056 Clouds 21 1016 68 10000 1 150 22:20 01.06.2020
2057 Clouds 21 1016 73 10000 2.1 180 21:57 01.06.2020
2058 Clouds 22 1016 73 10000 2.1 180 21:37 01.06.2020
2059 Clouds 22 1016 68 10000 2.6 180 21:18 01.06.2020
2060 Clouds 22 1016 73 10000 2.1 170 20:54 01.06.2020
2061 Clouds 22 1016 73 10000 2.1 170 20:36 01.06.2020
2062 Clouds 22 1015 64 10000 4.6 210 20:18 01.06.2020
2063 Clouds 23 1015 64 10000 4.6 210 19:43 01.06.2020
2064 Clouds 23 1016 69 10000 3.6 200 19:21 01.06.2020
2065 Clouds 23 1016 69 10000 3.6 200 18:59 01.06.2020
2066 Clouds 23 1015 69 10000 4.1 200 18:39 01.06.2020
2067 Clouds 23 1015 64 10000 3.6 180 18:19 01.06.2020
2068 Clouds 23 1015 64 10000 3.6 180 17:55 01.06.2020
2069 Clouds 23 1016 69 10000 3.6 210 17:36 01.06.2020
2070 Clouds 23 1016 69 10000 3.6 170 17:18 01.06.2020
2071 Clouds 23 1016 69 10000 4.1 170 16:39 01.06.2020
2072 Clouds 24 1016 64 10000 4.1 180 16:20 01.06.2020
2073 Clouds 24 1016 69 10000 4.1 170 15:55 01.06.2020
2074 Clouds 24 1016 69 10000 4.1 170 15:37 01.06.2020
2075 Clouds 24 1016 69 10000 4.1 150 15:18 01.06.2020
2076 Clouds 24 1016 69 10000 4.1 150 14:56 01.06.2020
2077 Clouds 24 1016 64 10000 3.6 150 14:38 01.06.2020
2078 Clouds 24 1016 69 10000 3.1 170 14:19 01.06.2020
2079 Clouds 23 1016 73 10000 3.1 160 13:43 01.06.2020
2080 Clouds 22 1016 73 10000 3.1 160 13:21 01.06.2020
2081 Drizzle 22 1016 78 10000 3.1 140 12:58 01.06.2020
2082 Clouds 23 1016 64 10000 2.6 140 12:40 01.06.2020
2083 Clouds 23 1016 64 10000 2.6 140 12:40 01.06.2020
2084 Clouds 22 1016 64 10000 2.6 140 12:21 01.06.2020
2085 Clouds 22 1016 64 10000 2.1 130 11:58 01.06.2020
2086 Clouds 22 1016 64 10000 1 70 11:37 01.06.2020
2087 Clouds 22 1016 68 10000 1.5 80 11:18 01.06.2020
2088 Clouds 21 1016 68 10000 1.5 80 10:55 01.06.2020
2089 Clouds 21 1016 64 10000 1 0 10:36 01.06.2020
2090 Clouds 21 1016 64 10000 1 0 10:18 01.06.2020
2091 Clouds 21 1015 77 10000 2.1 350 09:44 01.06.2020
2092 Clouds 20 1015 77 10000 2.1 350 09:25 01.06.2020
2093 Clouds 20 1015 82 10000 2.6 320 08:55 01.06.2020
2094 Clouds 20 1015 77 10000 2.1 320 08:33 01.06.2020
2095 Clouds 20 1015 77 10000 1 0 07:59 01.06.2020
2096 Clouds 19 1014 77 10000 0.5 0 07:40 01.06.2020
2097 Clouds 19 1014 77 10000 0.5 0 07:22 01.06.2020
2098 Clouds 19 1014 77 10000 1 0 06:49 01.06.2020
2099 Clouds 19 1014 77 10000 1 0 05:57 01.06.2020
2100 Clouds 19 1013 77 10000 2.13 210 04:56 01.06.2020
2101 Clouds 20 1014 77 10000 0.5 0 03:57 01.06.2020
2102 Drizzle 20 1014 72 10000 0.5 0 03:37 01.06.2020
2103 Clouds 20 1014 72 10000 1 0 02:49 01.06.2020
2104 Clouds 20 1015 64 10000 1.5 140 01:40 01.06.2020
2105 Clouds 20 1015 64 10000 1.5 140 01:18 01.06.2020
2106 Clouds 20 1016 64 10000 2.1 300 00:46 01.06.2020
2107 Clouds 20 1016 64 10000 2.1 300 00:21 01.06.2020
2108 Clouds 20 1016 68 10000 1.5 300 23:59 31.05.2020
2109 Clouds 20 1016 68 10000 1.5 300 23:59 31.05.2020
2110 Clouds 20 1016 68 10000 3.1 270 23:40 31.05.2020
2111 Clouds 21 1016 68 10000 3.1 270 23:22 31.05.2020
2112 Clouds 21 1016 73 10000 1.5 220 22:58 31.05.2020
2113 Clouds 21 1015 77 10000 1 0 22:40 31.05.2020
2114 Clouds 20 1015 77 10000 1 0 22:22 31.05.2020
2115 Clouds 21 1015 73 10000 1.5 180 21:57 31.05.2020
2116 Clouds 21 1015 73 10000 2.1 190 21:38 31.05.2020
2117 Clouds 21 1015 73 10000 2.1 190 21:20 31.05.2020
2118 Clouds 21 1014 68 10000 2.6 160 20:44 31.05.2020
2119 Clouds 21 1014 64 10000 2.1 150 20:25 31.05.2020
2120 Clouds 22 1013 64 10000 2.6 160 19:56 31.05.2020
2121 Clouds 22 1014 60 10000 3.6 190 19:37 31.05.2020
2122 Clouds 22 1014 60 10000 3.6 190 19:19 31.05.2020
2123 Clouds 23 1014 56 10000 4.6 180 18:44 31.05.2020
2124 Clouds 24 1014 56 10000 4.6 180 18:25 31.05.2020
2125 Clouds 24 1014 60 10000 4.6 180 17:59 31.05.2020
2126 Clouds 24 1014 64 10000 5.7 180 17:40 31.05.2020
2127 Clouds 24 1014 64 10000 5.7 180 17:20 31.05.2020
2128 Clouds 24 1014 69 10000 6.2 190 16:41 31.05.2020
2129 Clouds 24 1014 69 10000 6.2 190 16:21 31.05.2020
2130 Clouds 24 1014 64 10000 5.7 190 15:55 31.05.2020
2131 Clouds 24 1014 60 10000 5.7 190 15:36 31.05.2020
2132 Clouds 24 1014 69 10000 5.7 190 15:18 31.05.2020
2133 Clouds 24 1014 69 10000 4.6 180 14:41 31.05.2020
2134 Clouds 23 1014 69 10000 4.6 180 14:19 31.05.2020
2135 Clouds 23 1014 69 10000 4.6 180 13:55 31.05.2020
2136 Clouds 24 1014 73 10000 4.6 170 13:37 31.05.2020
2137 Clouds 23 1014 73 10000 4.6 170 13:19 31.05.2020
2138 Clouds 23 1015 73 10000 4.1 160 12:46 31.05.2020
2139 Clouds 23 1015 73 10000 4.1 180 12:24 31.05.2020
2140 Clouds 22 1015 68 10000 4.1 170 11:59 31.05.2020
2141 Clouds 22 1015 77 10000 2.6 140 11:39 31.05.2020
2142 Clouds 22 1015 77 10000 2.6 140 11:21 31.05.2020
2143 Clouds 22 1015 73 10000 2.1 140 10:45 31.05.2020
2144 Clouds 22 1015 73 10000 2.1 140 10:27 31.05.2020
2145 Clouds 21 1015 68 10000 0.5 110 09:59 31.05.2020
2146 Clouds 21 1014 72 10000 2.1 330 09:41 31.05.2020
2147 Clouds 20 1014 72 10000 2.1 330 09:21 31.05.2020
2148 Clouds 19 1014 77 10000 2.6 320 08:43 31.05.2020
2149 Clouds 19 1014 82 10000 3.1 330 08:24 31.05.2020
2150 Clouds 18 1014 88 10000 4.1 330 07:52 31.05.2020
2151 Clouds 18 1014 88 10000 2.6 330 07:22 31.05.2020
2152 Clouds 18 1014 88 10000 2.6 330 07:22 31.05.2020
2153 Clear 18 1014 88 10000 3.6 320 06:58 31.05.2020
2154 Clear 18 1014 88 10000 3.1 320 06:36 31.05.2020
2155 Clear 18 1014 88 10000 3.1 330 05:56 31.05.2020
2156 Clear 18 1014 88 10000 3.1 330 05:37 31.05.2020
2157 Clear 18 1014 88 10000 2.6 330 04:22 31.05.2020
2158 Clear 18 1015 82 10000 1.5 320 03:47 31.05.2020
2159 Clear 18 1015 82 10000 1.5 310 02:58 31.05.2020
2160 Clear 19 1016 77 10000 0.5 90 01:47 31.05.2020
2161 Clouds 19 1016 68 10000 1 110 00:52 31.05.2020
2162 Clouds 19 1016 68 10000 1 110 00:29 31.05.2020
2163 Clouds 20 1016 68 10000 1 110 23:45 30.05.2020
2164 Clouds 20 1016 68 10000 1 110 23:27 30.05.2020
2165 Clouds 20 1015 73 10000 1 130 22:59 30.05.2020
2166 Clouds 20 1015 73 10000 1 0 22:40 30.05.2020
2167 Clouds 20 1015 73 10000 1 0 22:40 30.05.2020
2168 Clouds 20 1015 73 10000 1 0 22:21 30.05.2020
2169 Clouds 20 1015 73 10000 1 0 21:55 30.05.2020
2170 Clouds 20 1015 73 10000 1.5 160 21:37 30.05.2020
2171 Clouds 21 1015 73 10000 1.5 160 21:18 30.05.2020
2172 Clouds 21 1015 68 10000 2.1 170 20:56 30.05.2020
2173 Clouds 21 1015 68 10000 2.6 150 20:37 30.05.2020
2174 Clouds 21 1015 68 10000 2.6 150 20:19 30.05.2020
2175 Clouds 22 1015 64 10000 3.1 170 19:41 30.05.2020
2176 Clouds 22 1015 64 10000 3.1 170 19:21 30.05.2020
2177 Clouds 22 1015 64 10000 4.1 160 18:45 30.05.2020
2178 Clouds 22 1015 64 10000 4.1 160 18:24 30.05.2020
2179 Clouds 22 1015 68 10000 3.6 170 17:55 30.05.2020
2180 Clouds 23 1015 68 10000 4.1 170 17:37 30.05.2020
2181 Clouds 22 1015 68 10000 4.1 170 17:18 30.05.2020
2182 Clouds 23 1015 64 10000 3.6 150 16:41 30.05.2020
2183 Clouds 23 1015 64 10000 3.6 150 16:22 30.05.2020
2184 Clouds 23 1016 69 10000 3.6 140 15:48 30.05.2020
2185 Clouds 23 1016 68 10000 3.6 140 15:29 30.05.2020
2186 Clouds 23 1016 73 10000 3.6 130 14:48 30.05.2020
2187 Clouds 23 1016 73 10000 4.1 110 14:30 30.05.2020
2188 Clouds 22 1016 78 10000 4.1 120 13:58 30.05.2020
2189 Clouds 23 1016 73 10000 4.1 130 13:40 30.05.2020
2190 Clouds 23 1016 73 10000 4.1 130 13:18 30.05.2020
2191 Clouds 22 1017 68 10000 3.6 100 12:39 30.05.2020
2192 Clouds 22 1017 68 10000 3.6 100 12:20 30.05.2020
2193 Clouds 22 1016 68 10000 3.6 80 11:42 30.05.2020
2194 Clouds 22 1016 68 10000 3.6 80 11:23 30.05.2020
2195 Clouds 22 1017 68 10000 3.6 70 10:58 30.05.2020
2196 Clouds 21 1017 73 10000 2.6 60 10:38 30.05.2020
2197 Clouds 21 1017 73 10000 2.6 60 10:20 30.05.2020
2198 Clouds 21 1017 73 10000 2.6 60 10:20 30.05.2020
2199 Clouds 20 1017 82 10000 3.6 310 09:45 30.05.2020
2200 Clouds 19 1017 82 10000 3.6 310 09:26 30.05.2020
2201 Clouds 18 1017 82 10000 3.1 320 08:46 30.05.2020
2202 Clouds 18 1016 88 10000 3.6 320 08:27 30.05.2020
2203 Clouds 18 1016 88 10000 3.1 330 07:43 30.05.2020
2204 Clouds 18 1016 82 10000 3.6 320 07:20 30.05.2020
2205 Clouds 18 1016 82 10000 3.1 320 06:31 30.05.2020
2206 Clouds 19 1017 82 10000 3.1 330 05:52 30.05.2020
2207 Clouds 18 1017 88 10000 2.1 320 05:30 30.05.2020
2208 Clouds 18 1017 88 10000 2.1 340 03:38 30.05.2020
2209 Clouds 18 1017 88 10000 2.6 320 02:29 30.05.2020
2210 Clouds 18 1017 82 10000 3.6 310 01:40 30.05.2020
2211 Clouds 19 1017 82 10000 5.7 310 00:37 30.05.2020
2212 Clouds 19 1017 82 10000 5.7 310 00:18 30.05.2020
2213 Clouds 19 1016 88 10000 5.7 320 23:42 29.05.2020
2214 Clouds 19 1016 88 10000 5.7 320 23:21 29.05.2020
2215 Clouds 18 1016 88 10000 4.1 340 22:58 29.05.2020
2216 Clouds 18 1016 88 10000 4.6 340 22:40 29.05.2020
2217 Rain 19 1015 82 10000 4.1 240 22:19 29.05.2020
2218 Rain 19 1015 82 10000 4.1 240 21:58 29.05.2020
2219 Rain 19 1016 88 10000 5.1 220 21:37 29.05.2020
2220 Rain 19 1016 88 10000 5.1 220 21:18 29.05.2020
2221 Rain 20 1017 77 8000 2.1 240 20:44 29.05.2020
2222 Rain 20 1017 52 8000 2.6 90 20:20 29.05.2020
2223 Rain 20 1017 77 10000 1 0 19:59 29.05.2020
2224 Thunderstorm 21 1016 68 10000 2.6 140 19:39 29.05.2020
2225 Thunderstorm 22 1016 68 10000 2.6 140 19:21 29.05.2020
2226 Clouds 23 1015 69 10000 5.7 200 18:46 29.05.2020
2227 Clouds 23 1015 69 10000 5.7 200 18:20 29.05.2020
2228 Clouds 23 1015 73 10000 6.2 200 17:56 29.05.2020
2229 Clouds 24 1015 73 10000 6.7 210 17:38 29.05.2020
2230 Clouds 24 1015 73 10000 6.7 210 17:19 29.05.2020
2231 Clouds 24 1015 69 10000 7.7 200 16:44 29.05.2020
2232 Clouds 24 1015 69 10000 7.7 200 16:25 29.05.2020
2233 Clouds 25 1015 64 10000 7.7 200 15:57 29.05.2020
2234 Clouds 25 1015 69 10000 7.2 210 15:38 29.05.2020
2235 Clouds 25 1015 69 10000 7.2 210 15:19 29.05.2020
2236 Clouds 26 1015 69 10000 6.7 200 14:50 29.05.2020
2237 Clear 26 1015 39 10000 3.6 110 14:24 29.05.2020
2238 Clear 26 1015 42 10000 3.6 110 13:58 29.05.2020
2239 Clear 26 1016 61 10000 8.7 220 13:39 29.05.2020
2240 Clear 26 1016 61 10000 8.7 220 13:18 29.05.2020
2241 Clear 26 1016 60 10000 9.3 220 12:44 29.05.2020
2242 Clear 26 1016 60 10000 9.3 220 12:25 29.05.2020
2243 Clear 25 1016 53 10000 8.2 230 11:46 29.05.2020
2244 Clear 25 1016 53 10000 8.2 230 11:27 29.05.2020
2245 Clear 24 1017 53 10000 7.2 230 10:58 29.05.2020
2246 Clear 24 1017 64 10000 5.7 220 10:40 29.05.2020
2247 Clear 24 1017 64 10000 5.7 220 10:21 29.05.2020
2248 Clear 23 1017 73 10000 1.5 290 09:55 29.05.2020
2249 Clear 23 1017 73 10000 1.5 290 09:55 29.05.2020
2250 Clear 22 1017 64 10000 2.1 300 09:37 29.05.2020
2251 Clear 22 1017 64 10000 2.1 300 09:18 29.05.2020
2252 Clear 20 1017 72 10000 2.1 310 08:44 29.05.2020
2253 Clear 20 1017 68 10000 2.1 290 08:21 29.05.2020
2254 Clear 19 1017 77 10000 2.1 310 07:46 29.05.2020
2255 Clear 18 1017 77 10000 2.1 310 07:27 29.05.2020
2256 Clear 18 1018 77 10000 2.1 310 06:49 29.05.2020
2257 Clouds 18 1018 77 10000 2.6 320 06:29 29.05.2020
2258 Clouds 18 1018 77 10000 2.6 320 05:56 29.05.2020
2259 Clear 19 1019 72 10000 2.1 300 03:55 29.05.2020
2260 Clear 20 1020 68 10000 1.5 270 01:48 29.05.2020
2261 Clear 20 1021 77 10000 2.1 260 01:25 29.05.2020
2262 Clear 20 1021 77 10000 2.1 270 00:49 29.05.2020
2263 Clear 20 1021 82 10000 2.1 230 00:23 29.05.2020
2264 Clear 20 1021 77 10000 1.5 220 23:41 28.05.2020
2265 Clear 21 1021 77 10000 1.5 220 23:41 28.05.2020
2266 Clear 20 1021 77 10000 1.5 220 23:19 28.05.2020
2267 Clear 20 1021 77 10000 1.5 220 23:19 28.05.2020
2268 Clear 20 1021 77 10000 1.5 220 22:58 28.05.2020
2269 Clear 21 1021 77 10000 1 200 22:39 28.05.2020
2270 Clear 20 1021 77 10000 1 200 22:18 28.05.2020
2271 Clear 21 1021 77 10000 1.5 210 21:54 28.05.2020
2272 Clear 21 1021 73 10000 2.1 200 21:36 28.05.2020
2273 Clear 21 1021 73 10000 2.6 190 21:18 28.05.2020
2274 Clear 22 1021 73 10000 3.1 180 20:40 28.05.2020
2275 Clear 22 1021 73 10000 3.1 180 20:19 28.05.2020
2276 Clear 22 1021 68 10000 2.6 190 19:58 28.05.2020
2277 Clear 22 1021 68 10000 2.6 190 19:58 28.05.2020
2278 Clear 23 1022 68 10000 3.1 180 19:40 28.05.2020
2279 Clear 23 1022 68 10000 3.1 180 19:20 28.05.2020
2280 Clear 23 1022 68 10000 3.1 190 18:55 28.05.2020
2281 Clear 23 1022 68 10000 3.1 170 18:36 28.05.2020
2282 Clear 23 1022 68 10000 3.1 170 18:18 28.05.2020
2283 Clear 23 1023 68 10000 3.1 180 17:40 28.05.2020
2284 Clear 24 1023 68 10000 3.1 180 17:21 28.05.2020
2285 Clear 23 1023 68 10000 3.6 180 16:47 28.05.2020
2286 Clear 23 1023 73 10000 3.1 170 16:21 28.05.2020
2287 Clouds 24 1024 73 10000 3.1 140 15:56 28.05.2020
2288 Clouds 24 1024 68 10000 3.6 130 15:38 28.05.2020
2289 Clouds 24 1024 68 10000 3.6 130 15:19 28.05.2020
2290 Clouds 23 1024 68 10000 5.1 130 14:42 28.05.2020
2291 Clouds 23 1024 68 10000 5.1 130 14:23 28.05.2020
2292 Clouds 23 1025 68 10000 4.6 140 13:47 28.05.2020
2293 Clouds 23 1025 68 10000 4.6 150 13:29 28.05.2020
2294 Clouds 23 1025 73 10000 4.6 140 12:57 28.05.2020
2295 Clouds 22 1025 77 10000 4.6 140 12:38 28.05.2020
2296 Clouds 23 1025 68 10000 3.6 110 12:18 28.05.2020
2297 Clouds 22 1025 73 10000 3.1 120 11:41 28.05.2020
2298 Clouds 22 1025 73 10000 3.1 100 11:23 28.05.2020
2299 Clouds 22 1025 73 10000 3.1 100 10:50 28.05.2020
2300 Clouds 22 1025 68 10000 3.1 100 10:28 28.05.2020
2301 Clouds 21 1026 73 10000 2.6 90 09:59 28.05.2020
2302 Clouds 21 1026 77 10000 2.1 70 09:38 28.05.2020
2303 Clouds 20 1026 77 10000 2.1 70 09:19 28.05.2020
2304 Clouds 19 1026 82 10000 1.5 320 08:44 28.05.2020
2305 Clouds 19 1026 82 10000 1.5 320 08:25 28.05.2020
2306 Clouds 18 1026 88 10000 2.1 30 07:45 28.05.2020
2307 Clouds 18 1026 88 10000 2.1 30 07:24 28.05.2020
2308 Clouds 18 1026 88 10000 2.6 60 06:55 28.05.2020
2309 Clouds 18 1026 82 10000 2.6 50 06:36 28.05.2020
2310 Clouds 19 1026 82 10000 2.6 50 05:40 28.05.2020
2311 Clouds 19 1027 82 10000 2.6 60 04:46 28.05.2020
2312 Clouds 19 1027 82 10000 2.1 100 04:25 28.05.2020
2313 Clouds 19 1027 82 10000 2.1 80 03:45 28.05.2020
2314 Clouds 19 1027 82 10000 3.1 60 02:45 28.05.2020
2315 Clouds 19 1027 88 10000 4.1 50 01:49 28.05.2020
2316 Clouds 19 1027 88 10000 4.6 50 00:54 28.05.2020
2317 Clouds 20 1027 82 10000 4.6 60 00:23 28.05.2020
2318 Clouds 20 1027 88 10000 4.6 60 23:57 27.05.2020
2319 Clouds 20 1027 88 10000 4.6 70 23:38 27.05.2020
2320 Clouds 20 1027 88 10000 4.6 70 23:20 27.05.2020
2321 Clouds 20 1026 82 10000 4.6 50 22:54 27.05.2020
2322 Clouds 20 1026 82 10000 4.6 50 22:36 27.05.2020
2323 Clouds 20 1026 82 10000 4.6 50 22:18 27.05.2020
2324 Clouds 20 1026 77 10000 4.6 60 21:40 27.05.2020
2325 Clouds 21 1026 77 10000 4.6 60 21:21 27.05.2020
2326 Clouds 21 1026 73 10000 4.6 60 20:58 27.05.2020
2327 Clouds 22 1026 73 10000 5.7 60 20:40 27.05.2020
2328 Clouds 22 1026 73 10000 5.7 60 20:21 27.05.2020
2329 Clouds 22 1026 68 10000 5.1 70 19:55 27.05.2020
2330 Clouds 22 1026 68 10000 5.7 70 19:37 27.05.2020
2331 Clouds 22 1026 68 10000 5.7 70 19:18 27.05.2020
2332 Clear 23 1026 60 10000 6.2 60 18:39 27.05.2020
2333 Clear 23 1026 60 10000 6.2 60 18:19 27.05.2020
2334 Clear 23 1026 50 10000 5.7 70 17:45 27.05.2020
2335 Clear 23 1026 50 10000 5.7 70 17:26 27.05.2020
2336 Clear 23 1026 47 10000 4.6 100 16:57 27.05.2020
2337 Clear 23 1026 50 10000 5.1 100 16:38 27.05.2020
2338 Clear 23 1026 50 10000 5.1 100 16:38 27.05.2020
2339 Clear 24 1026 50 10000 5.1 100 16:20 27.05.2020
2340 Clear 24 1026 50 10000 5.1 110 15:59 27.05.2020
2341 Clear 24 1027 47 10000 5.7 100 15:39 27.05.2020
2342 Clear 24 1027 47 10000 5.7 100 15:21 27.05.2020
2343 Clouds 24 1027 53 10000 6.2 90 14:42 27.05.2020
2344 Clouds 24 1027 53 10000 6.2 90 14:21 27.05.2020
2345 Clear 24 1027 53 10000 6.2 80 13:55 27.05.2020
2346 Clear 24 1027 50 10000 6.7 90 13:36 27.05.2020
2347 Clear 24 1027 50 10000 6.7 90 13:18 27.05.2020
2348 Clear 24 1027 50 10000 6.7 80 12:40 27.05.2020
2349 Clear 24 1027 53 10000 6.7 80 12:22 27.05.2020
2350 Clear 23 1026 53 10000 7.2 70 11:40 27.05.2020
2351 Clear 23 1026 53 10000 7.2 70 11:40 27.05.2020
2352 Clear 23 1026 53 10000 7.2 70 11:22 27.05.2020
2353 Clear 23 1026 49 10000 7.7 80 10:58 27.05.2020
2354 Clear 23 1026 46 10000 7.7 60 10:39 27.05.2020
2355 Clear 23 1026 46 10000 7.7 60 10:20 27.05.2020
2356 Clear 22 1026 43 10000 7.2 50 09:41 27.05.2020
2357 Clear 22 1026 43 10000 7.2 50 09:22 27.05.2020
2358 Clear 22 1026 43 10000 7.2 50 08:56 27.05.2020
2359 Clear 22 1026 43 10000 7.2 50 08:56 27.05.2020
2360 Clear 22 1025 64 10000 2.6 360 08:36 27.05.2020
2361 Clear 21 1025 68 10000 3.1 320 08:18 27.05.2020
2362 Clear 20 1025 68 10000 3.1 320 07:50 27.05.2020
2363 Clear 20 1025 68 10000 3.1 330 07:32 27.05.2020
2364 Clear 20 1025 63 10000 3.6 330 06:49 27.05.2020
2365 Clear 20 1025 63 10000 3.6 320 06:21 27.05.2020
2366 Clear 20 1025 63 10000 4.1 330 05:49 27.05.2020
2367 Clear 20 1025 68 10000 3.1 330 05:22 27.05.2020
2368 Clear 21 1025 72 10000 2.1 300 02:34 27.05.2020
2369 Clear 21 1025 77 10000 1.5 300 01:55 27.05.2020
2370 Clear 21 1025 82 10000 1.5 290 01:30 27.05.2020
2371 Clear 21 1025 82 10000 1.5 240 00:46 27.05.2020
2372 Clear 21 1025 77 10000 2.6 210 00:20 27.05.2020
2373 Clear 21 1025 77 10000 2.6 210 23:57 26.05.2020
2374 Clear 21 1025 77 10000 2.1 210 23:38 26.05.2020
2375 Clear 22 1025 77 10000 2.1 210 23:20 26.05.2020
2376 Clear 22 1025 73 10000 1.5 150 22:41 26.05.2020
2377 Clear 22 1025 73 10000 1.5 150 22:22 26.05.2020
2378 Clear 22 1024 73 10000 2.1 150 21:59 26.05.2020
2379 Clear 22 1024 68 10000 1.5 160 21:40 26.05.2020
2380 Clear 22 1024 68 10000 1.5 160 21:40 26.05.2020
2381 Clear 22 1024 68 10000 1.5 160 21:21 26.05.2020
2382 Clear 23 1024 64 10000 2.6 170 20:57 26.05.2020
2383 Clear 23 1024 60 10000 3.1 160 20:39 26.05.2020
2384 Clear 24 1024 60 10000 3.1 170 20:19 26.05.2020
2385 Clear 24 1024 57 10000 3.6 180 19:40 26.05.2020
2386 Clear 24 1024 57 10000 3.6 180 19:20 26.05.2020
2387 Clear 24 1024 57 10000 4.1 190 18:58 26.05.2020
2388 Clear 25 1024 47 10000 4.6 200 18:39 26.05.2020
2389 Clear 25 1024 47 10000 4.6 200 18:20 26.05.2020
2390 Clear 25 1024 44 10000 6.2 200 17:39 26.05.2020
2391 Clear 25 1024 44 10000 6.2 200 17:21 26.05.2020
2392 Clear 26 1025 44 10000 5.1 200 16:48 26.05.2020
2393 Clear 26 1025 44 10000 5.1 200 16:23 26.05.2020
2394 Clear 26 1025 50 10000 5.7 200 15:58 26.05.2020
2395 Clear 26 1025 44 10000 5.1 190 15:39 26.05.2020
2396 Clear 26 1025 44 10000 5.1 190 15:19 26.05.2020
2397 Clear 26 1025 44 10000 4.6 180 14:45 26.05.2020
2398 Clear 26 1025 44 10000 4.6 180 14:27 26.05.2020
2399 Clear 26 1026 53 10000 4.1 190 13:58 26.05.2020
2400 Clear 26 1025 42 10000 2.6 150 13:40 26.05.2020
2401 Clear 26 1026 50 10000 4.1 160 13:21 26.05.2020
2402 Clear 26 1026 53 10000 3.1 170 12:44 26.05.2020
2403 Clear 25 1026 53 10000 3.1 170 12:22 26.05.2020
2404 Clear 26 1026 44 10000 1.5 210 11:59 26.05.2020
2405 Clear 25 1026 57 10000 3.6 120 11:40 26.05.2020
2406 Clear 25 1026 57 10000 3.6 120 11:19 26.05.2020
2407 Clear 25 1026 57 10000 3.6 120 11:19 26.05.2020
2408 Clear 25 1026 44 10000 1 90 10:47 26.05.2020
2409 Clear 24 1026 60 10000 4.1 320 10:19 26.05.2020
2410 Clear 24 1026 60 10000 4.1 320 09:55 26.05.2020
2411 Clear 21 1026 68 10000 4.1 330 09:37 26.05.2020
2412 Clear 21 1026 68 10000 4.1 330 09:18 26.05.2020
2413 Clear 20 1026 77 10000 4.1 320 08:39 26.05.2020
2414 Clear 19 1026 77 10000 4.6 320 08:21 26.05.2020
2415 Clear 19 1025 82 10000 5.1 320 07:42 26.05.2020
2416 Clear 19 1025 82 10000 5.1 320 07:22 26.05.2020
2417 Clear 19 1025 77 10000 5.1 320 06:52 26.05.2020
2418 Clear 19 1025 82 10000 5.1 320 06:28 26.05.2020
2419 Clear 19 1025 82 10000 4.6 320 05:41 26.05.2020
2420 Clear 19 1025 82 10000 4.6 320 05:18 26.05.2020
2421 Clear 19 1025 82 10000 4.1 320 04:47 26.05.2020
2422 Clear 19 1025 77 10000 4.1 330 04:28 26.05.2020
2423 Clear 19 1025 82 10000 3.1 330 03:45 26.05.2020
2424 Clear 19 1025 82 10000 3.6 320 03:45 26.05.2020
2425 Clear 19 1026 82 10000 3.1 320 02:34 26.05.2020
2426 Clear 19 1026 77 10000 2.1 320 01:43 26.05.2020
2427 Clear 19 1026 77 10000 0.63 324 00:40 26.05.2020
2428 Clear 19 1026 77 10000 0.63 324 00:40 26.05.2020
2429 Clear 19 1026 77 10000 0.45 334 00:21 26.05.2020
2430 Clear 19 1026 77 10000 0.45 334 23:59 25.05.2020
2431 Clear 20 1026 82 10000 0.5 120 23:39 25.05.2020
2432 Clear 20 1026 82 10000 0.5 120 23:20 25.05.2020
2433 Clear 20 1025 82 10000 1 0 22:56 25.05.2020
2434 Clear 20 1025 82 10000 1 0 22:56 25.05.2020
2435 Clear 20 1025 77 10000 2.1 210 22:37 25.05.2020
2436 Clear 20 1025 77 10000 2.1 210 22:19 25.05.2020
2437 Clear 21 1025 77 10000 2.1 210 21:58 25.05.2020
2438 Clear 20 1025 72 10000 2.6 220 21:38 25.05.2020
2439 Clear 21 1025 72 10000 2.6 220 21:19 25.05.2020
2440 Clear 21 1025 72 10000 2.6 220 21:19 25.05.2020
2441 Clear 22 1024 68 10000 4.1 210 20:58 25.05.2020
2442 Clear 22 1024 68 10000 6.2 220 20:40 25.05.2020
2443 Clear 22 1024 68 10000 6.2 220 20:20 25.05.2020
2444 Clear 23 1024 68 10000 6.7 220 19:55 25.05.2020
2445 Clear 23 1024 64 10000 7.2 210 19:37 25.05.2020
2446 Clear 23 1024 64 10000 7.2 210 19:18 25.05.2020
2447 Clear 23 1025 64 10000 7.7 220 18:43 25.05.2020
2448 Clear 24 1025 53 10000 8.2 210 18:21 25.05.2020
2449 Clear 24 1025 53 10000 8.2 210 17:55 25.05.2020
2450 Clear 24 1025 60 10000 7.7 210 17:37 25.05.2020
2451 Clear 24 1025 60 10000 7.7 210 17:18 25.05.2020
2452 Clear 23 1026 64 10000 7.7 210 16:41 25.05.2020
2453 Clear 23 1026 64 10000 7.7 210 16:22 25.05.2020
2454 Clear 23 1026 64 10000 7.2 210 15:58 25.05.2020
2455 Clouds 23 1026 60 10000 6.2 210 15:40 25.05.2020
2456 Clouds 24 1026 60 10000 6.2 210 15:18 25.05.2020
2457 Clouds 24 1026 56 10000 6.7 200 14:43 25.05.2020
2458 Clouds 24 1026 56 10000 6.7 200 14:24 25.05.2020
2459 Clouds 24 1026 56 10000 6.2 200 13:57 25.05.2020
2460 Clouds 24 1026 47 10000 2.6 210 13:38 25.05.2020
2461 Clouds 24 1026 47 10000 2.6 210 13:19 25.05.2020
2462 Clouds 24 1027 49 10000 5.1 200 12:54 25.05.2020
2463 Clouds 23 1027 56 10000 5.1 220 12:36 25.05.2020
2464 Clouds 23 1027 56 10000 5.1 220 12:18 25.05.2020
2465 Clouds 23 1026 53 10000 2.6 90 11:38 25.05.2020
2466 Clouds 23 1026 60 10000 3.1 170 11:19 25.05.2020
2467 Clouds 22 1026 56 10000 3.6 180 10:45 25.05.2020
2468 Clouds 22 1026 73 10000 2.6 160 10:21 25.05.2020
2469 Clouds 22 1026 73 10000 1.5 160 09:59 25.05.2020
2470 Clouds 21 1026 77 10000 1 0 09:40 25.05.2020
2471 Clouds 20 1027 77 10000 0.5 0 09:19 25.05.2020
2472 Clouds 20 1027 77 10000 0.5 0 08:59 25.05.2020
2473 Clouds 20 1027 72 10000 2.1 290 08:37 25.05.2020
2474 Clouds 19 1026 77 10000 1.5 290 08:18 25.05.2020
2475 Clouds 19 1026 77 10000 1 0 07:45 25.05.2020
2476 Clouds 19 1026 77 10000 1 0 07:21 25.05.2020
2477 Clouds 19 1026 77 10000 2.6 320 06:54 25.05.2020
2478 Clouds 19 1025 77 10000 2.1 310 06:33 25.05.2020
2479 Clouds 19 1026 77 10000 4.1 310 04:19 25.05.2020
2480 Clouds 19 1026 77 10000 3.1 310 03:23 25.05.2020
2481 Clouds 19 1026 77 10000 0.5 0 02:45 25.05.2020
2482 Clouds 19 1027 77 10000 3.6 250 01:58 25.05.2020
2483 Clouds 19 1027 77 10000 3.6 250 01:30 25.05.2020
2484 Clouds 19 1027 77 10000 3.1 230 00:43 25.05.2020
2485 Clouds 19 1027 77 10000 3.1 230 00:23 25.05.2020
2486 Clouds 19 1027 77 10000 3.1 230 23:57 24.05.2020
2487 Clouds 19 1027 77 10000 3.6 230 23:38 24.05.2020
2488 Clouds 19 1027 77 10000 4.1 230 23:18 24.05.2020
2489 Clouds 20 1027 77 10000 4.1 230 22:41 24.05.2020
2490 Clouds 20 1026 77 10000 4.6 230 22:19 24.05.2020
2491 Clouds 20 1026 77 10000 4.6 230 21:57 24.05.2020
2492 Clouds 20 1026 72 10000 4.1 220 21:39 24.05.2020
2493 Clouds 20 1026 72 10000 4.1 220 21:20 24.05.2020
2494 Clouds 20 1026 72 10000 4.1 200 20:56 24.05.2020
2495 Clouds 21 1026 68 10000 4.6 200 20:38 24.05.2020
2496 Clouds 21 1026 68 10000 4.6 200 20:18 24.05.2020
2497 Clouds 21 1026 64 10000 4.1 200 19:42 24.05.2020
2498 Clouds 21 1026 64 10000 4.1 200 19:20 24.05.2020
2499 Clouds 21 1027 64 10000 4.6 190 18:59 24.05.2020
2500 Clouds 22 1027 64 10000 4.1 180 18:40 24.05.2020
2501 Clouds 22 1027 64 10000 4.1 180 18:22 24.05.2020
2502 Clouds 22 1027 64 10000 4.1 180 17:56 24.05.2020
2503 Clouds 22 1027 60 10000 4.1 170 17:37 24.05.2020
2504 Clouds 22 1027 60 10000 4.1 170 17:37 24.05.2020
2505 Clouds 22 1027 60 10000 4.1 170 17:19 24.05.2020
2506 Clouds 22 1027 60 10000 5.1 160 16:39 24.05.2020
2507 Clouds 22 1027 60 10000 5.1 160 16:21 24.05.2020
2508 Clouds 22 1027 56 10000 5.1 160 15:59 24.05.2020
2509 Clouds 22 1027 60 10000 5.1 180 15:40 24.05.2020
2510 Clouds 22 1027 60 10000 5.1 180 15:20 24.05.2020
2511 Clouds 22 1027 73 10000 5.7 180 14:58 24.05.2020
2512 Clouds 22 1027 73 10000 5.7 200 14:40 24.05.2020
2513 Clouds 23 1027 73 10000 5.7 200 14:21 24.05.2020
2514 Clouds 23 1028 73 10000 5.7 190 13:55 24.05.2020
2515 Clouds 23 1028 77 10000 5.1 200 13:36 24.05.2020
2516 Clouds 23 1028 77 10000 5.1 200 13:18 24.05.2020
2517 Clouds 22 1028 77 10000 4.1 190 12:55 24.05.2020
2518 Clouds 22 1028 77 10000 3.6 180 12:37 24.05.2020
2519 Clouds 23 1028 77 10000 3.6 180 12:18 24.05.2020
2520 Clouds 22 1028 77 10000 3.6 170 11:45 24.05.2020
2521 Clouds 22 1028 77 10000 3.6 170 11:26 24.05.2020
2522 Clouds 21 1028 77 10000 3.1 160 10:59 24.05.2020
2523 Clouds 21 1028 77 10000 3.1 170 10:41 24.05.2020
2524 Clouds 21 1028 77 10000 3.1 170 10:23 24.05.2020
2525 Clouds 21 1028 82 10000 2.6 190 09:55 24.05.2020
2526 Clouds 21 1028 82 10000 2.6 220 09:37 24.05.2020
2527 Clouds 21 1028 82 10000 2.1 210 09:18 24.05.2020
2528 Clouds 20 1028 82 10000 1.54 60 08:41 24.05.2020
2529 Clouds 20 1028 82 10000 1.54 60 08:41 24.05.2020
2530 Clouds 20 1028 82 10000 0.43 314 08:22 24.05.2020
2531 Clouds 19 1027 82 10000 1 0 07:57 24.05.2020
2532 Clouds 19 1027 82 10000 1 190 07:39 24.05.2020
2533 Clouds 19 1027 82 10000 1 190 07:19 24.05.2020
2534 Clouds 19 1027 82 10000 1.5 120 06:38 24.05.2020
2535 Clouds 20 1027 82 10000 1.5 130 05:49 24.05.2020
2536 Clouds 21 1027 88 10000 2.6 200 03:56 24.05.2020
2537 Clouds 21 1027 88 10000 2.6 200 03:35 24.05.2020
2538 Clouds 21 1028 82 10000 1.5 270 02:24 24.05.2020
2539 Clouds 21 1027 77 10000 1 0 00:59 24.05.2020
2540 Clouds 21 1027 77 10000 1 170 00:36 24.05.2020
2541 Clouds 21 1027 77 10000 0.34 317 00:18 24.05.2020
2542 Clouds 21 1028 83 10000 1.5 50 23:38 23.05.2020
2543 Clouds 21 1027 83 10000 3.1 90 23:19 23.05.2020
2544 Clouds 21 1027 83 10000 3.1 90 22:55 23.05.2020
2545 Clouds 21 1027 83 10000 2.6 70 22:37 23.05.2020
2546 Clouds 21 1027 83 10000 2.6 70 22:37 23.05.2020
2547 Clouds 21 1026 83 10000 3.6 80 22:18 23.05.2020
2548 Clouds 21 1026 83 10000 3.6 80 21:56 23.05.2020
2549 Clouds 22 1026 78 10000 4.1 70 21:36 23.05.2020
2550 Clouds 22 1026 83 10000 5.7 70 21:18 23.05.2020
2551 Clouds 22 1026 73 10000 5.7 80 20:40 23.05.2020
2552 Clouds 23 1025 73 10000 7.7 70 20:20 23.05.2020
2553 Clouds 23 1025 73 10000 7.7 70 19:59 23.05.2020
2554 Clouds 23 1025 83 10000 5.1 80 19:40 23.05.2020
2555 Clouds 23 1025 83 10000 5.1 80 19:19 23.05.2020
2556 Clouds 23 1024 83 10000 3.6 150 19:19 23.05.2020
2557 Clouds 24 1024 83 10000 5.7 190 18:42 23.05.2020
2558 Clouds 25 1024 83 10000 5.7 190 18:23 23.05.2020
2559 Clouds 26 1024 83 10000 5.1 200 17:58 23.05.2020
2560 Clouds 27 1024 73 10000 5.1 180 17:40 23.05.2020
2561 Clouds 27 1024 73 10000 5.1 180 17:21 23.05.2020
2562 Clouds 28 1024 30 10000 3.1 180 16:59 23.05.2020
2563 Clouds 28 1024 30 10000 4.6 170 16:41 23.05.2020
2564 Clouds 28 1024 30 10000 4.6 170 16:21 23.05.2020
2565 Clouds 28 1024 30 10000 4.6 170 16:21 23.05.2020
2566 Clouds 28 1024 30 10000 4.1 170 15:59 23.05.2020
2567 Clouds 28 1025 50 10000 6.7 220 15:40 23.05.2020
2568 Clouds 29 1024 35 10000 4.6 170 15:22 23.05.2020
2569 Clouds 28 1025 37 10000 3.6 150 14:43 23.05.2020
2570 Clouds 28 1025 61 10000 6.2 210 14:24 23.05.2020
2571 Clouds 27 1025 64 10000 6.2 210 13:56 23.05.2020
2572 Clouds 27 1025 37 10000 2.6 0 13:37 23.05.2020
2573 Clouds 27 1025 69 10000 6.7 200 13:18 23.05.2020
2574 Clouds 26 1025 64 10000 5.1 210 12:41 23.05.2020
2575 Clouds 26 1025 64 10000 5.7 200 12:20 23.05.2020
2576 Clouds 26 1025 64 10000 5.7 200 11:57 23.05.2020
2577 Clouds 26 1025 36 10000 2.6 210 11:39 23.05.2020
2578 Clouds 26 1025 36 10000 2.6 210 11:19 23.05.2020
2579 Clouds 26 1025 41 10000 2.6 260 10:55 23.05.2020
2580 Clear 25 1025 50 10000 0.5 120 10:37 23.05.2020
2581 Clear 25 1025 50 10000 0.5 120 10:18 23.05.2020
2582 Clear 24 1025 64 10000 2.1 280 09:43 23.05.2020
2583 Clear 23 1025 64 10000 2.1 280 09:24 23.05.2020
2584 Clear 23 1024 64 10000 2.6 310 08:58 23.05.2020
2585 Clear 22 1024 68 10000 2.6 300 08:38 23.05.2020
2586 Clouds 21 1024 72 10000 3.1 310 08:19 23.05.2020
2587 Clouds 20 1024 82 10000 4.1 310 07:44 23.05.2020
2588 Clouds 20 1024 82 10000 4.1 310 07:23 23.05.2020
2589 Clouds 20 1024 82 10000 3.6 310 06:43 23.05.2020
2590 Clouds 20 1024 82 10000 4.1 310 05:55 23.05.2020
2591 Clouds 20 1024 82 10000 4.1 310 05:55 23.05.2020
2592 Clouds 20 1024 77 10000 3.1 300 03:55 23.05.2020
2593 Clouds 20 1024 72 10000 3.6 310 03:24 23.05.2020
2594 Clouds 21 1025 72 10000 2.6 310 02:40 23.05.2020
2595 Clouds 20 1025 77 10000 2.1 280 01:48 23.05.2020
2596 Clouds 20 1025 77 10000 2.1 250 01:18 23.05.2020
2597 Clouds 20 1025 88 10000 2.6 210 00:42 23.05.2020
2598 Clouds 21 1025 83 10000 3.1 210 23:59 22.05.2020
2599 Clouds 21 1025 83 10000 3.1 220 23:41 22.05.2020
2600 Clouds 21 1025 83 10000 3.1 220 23:22 22.05.2020
2601 Clouds 22 1024 83 10000 2.6 210 22:58 22.05.2020
2602 Clouds 22 1024 83 10000 2.6 210 22:58 22.05.2020
2603 Clouds 22 1024 83 10000 3.1 210 22:40 22.05.2020
2604 Clouds 22 1024 83 10000 3.1 210 22:20 22.05.2020
2605 Clouds 23 1024 83 10000 3.6 220 21:47 22.05.2020
2606 Clouds 23 1024 83 10000 3.6 220 21:23 22.05.2020
2607 Clouds 23 1024 83 10000 3.6 220 21:23 22.05.2020
2608 Clouds 23 1024 78 10000 3.6 210 20:59 22.05.2020
2609 Clouds 24 1023 78 10000 4.1 210 20:40 22.05.2020
2610 Clouds 25 1023 73 10000 4.6 210 20:20 22.05.2020
2611 Clouds 25 1023 73 10000 5.1 200 19:44 22.05.2020
2612 Clouds 26 1023 73 10000 5.1 200 19:25 22.05.2020
2613 Clouds 26 1023 73 10000 5.1 200 18:54 22.05.2020
2614 Clouds 26 1023 78 10000 5.7 200 18:36 22.05.2020
2615 Clouds 26 1023 78 10000 5.7 200 18:18 22.05.2020
2616 Clouds 27 1023 64 10000 5.1 190 17:40 22.05.2020
2617 Clouds 27 1023 64 10000 5.1 190 17:40 22.05.2020
2618 Clouds 28 1023 64 10000 5.1 190 17:20 22.05.2020
2619 Clouds 28 1023 64 10000 5.1 190 16:57 22.05.2020
2620 Clouds 29 1023 29 10000 4.6 170 16:39 22.05.2020
2621 Clouds 29 1023 29 10000 4.6 170 16:19 22.05.2020
2622 Clouds 28 1023 33 10000 4.1 170 15:42 22.05.2020
2623 Clouds 29 1023 33 10000 4.1 170 15:22 22.05.2020
2624 Clouds 27 1023 69 10000 6.2 190 14:56 22.05.2020
2625 Clouds 27 1024 78 10000 5.1 190 14:38 22.05.2020
2626 Clear 27 1023 78 10000 5.1 180 14:20 22.05.2020
2627 Clear 29 1023 42 10000 2.1 120 13:41 22.05.2020
2628 Clear 29 1023 35 10000 1.5 0 13:19 22.05.2020
2629 Clear 29 1023 39 10000 2.1 170 12:43 22.05.2020
2630 Clear 29 1023 39 10000 2.1 170 12:43 22.05.2020
2631 Clear 28 1023 39 10000 2.1 170 12:24 22.05.2020
2632 Clear 27 1023 51 10000 0.5 70 11:47 22.05.2020
2633 Clear 27 1023 51 10000 0.5 70 11:22 22.05.2020
2634 Clear 26 1023 69 10000 2.6 230 10:59 22.05.2020
2635 Clear 26 1022 69 10000 2.1 220 10:39 22.05.2020
2636 Clear 25 1022 73 10000 1.5 260 10:20 22.05.2020
2637 Clear 24 1022 73 10000 1.5 260 09:55 22.05.2020
2638 Clear 24 1022 73 10000 2.1 300 09:36 22.05.2020
2639 Clouds 22 1022 72 10000 2.6 290 09:18 22.05.2020
2640 Clouds 22 1022 72 10000 2.1 310 08:42 22.05.2020
2641 Clouds 21 1021 72 10000 3.1 290 08:19 22.05.2020
2642 Clouds 20 1021 72 10000 3.1 290 07:52 22.05.2020
2643 Clouds 20 1021 72 10000 2.6 300 07:23 22.05.2020
2644 Clouds 19 1021 77 10000 2.6 310 06:53 22.05.2020
2645 Clouds 20 1021 72 10000 3.6 300 06:32 22.05.2020
2646 Clouds 20 1021 68 10000 1.5 270 05:38 22.05.2020
2647 Clear 19 1021 72 10000 1.5 290 04:50 22.05.2020
2648 Clear 20 1021 72 10000 1.5 290 04:19 22.05.2020
2649 Clear 20 1021 82 10000 1.96 260 03:41 22.05.2020
2650 Clouds 20 1021 82 10000 1.39 266 02:59 22.05.2020
2651 Clouds 21 1021 88 10000 1 270 01:49 22.05.2020
2652 Clouds 21 1021 82 10000 0.5 220 01:24 22.05.2020
2653 Clear 21 1021 77 10000 0.5 0 00:34 22.05.2020
2654 Clear 21 1021 68 10000 1 60 23:59 21.05.2020
2655 Clear 21 1020 68 10000 1.5 50 23:40 21.05.2020
2656 Clouds 22 1020 68 10000 1.5 50 23:22 21.05.2020
2657 Clouds 22 1020 68 10000 1.5 80 22:57 21.05.2020
2658 Clouds 23 1020 49 10000 2.1 90 22:37 21.05.2020
2659 Clouds 23 1020 49 10000 2.1 90 22:19 21.05.2020
2660 Clouds 23 1019 53 10000 5.1 230 21:49 21.05.2020
2661 Clouds 23 1019 53 10000 5.1 230 21:27 21.05.2020
2662 Clouds 25 1018 47 10000 7.2 240 20:59 21.05.2020
2663 Clouds 26 1018 41 10000 9.3 230 20:40 21.05.2020
2664 Clouds 26 1018 41 10000 9.3 230 20:21 21.05.2020
2665 Clouds 27 1018 47 10000 8.7 220 19:40 21.05.2020
2666 Clouds 28 1018 40 10000 2.6 250 19:20 21.05.2020
2667 Clouds 28 1018 33 10000 3.1 230 18:58 21.05.2020
2668 Clouds 28 1018 57 10000 8.2 220 18:37 21.05.2020
2669 Clouds 28 1018 53 10000 8.7 220 18:19 21.05.2020
2670 Clouds 28 1018 53 10000 8.7 220 17:56 21.05.2020
2671 Clouds 29 1017 33 10000 5.1 180 17:37 21.05.2020
2672 Clouds 28 1018 53 10000 7.7 210 17:19 21.05.2020
2673 Clouds 29 1018 33 10000 5.7 160 16:44 21.05.2020
2674 Clouds 29 1018 33 10000 5.7 160 16:22 21.05.2020
2675 Clouds 29 1018 33 10000 4.6 160 15:44 21.05.2020
2676 Clouds 29 1018 33 10000 4.6 160 15:23 21.05.2020
2677 Clouds 29 1018 33 10000 2.6 200 14:43 21.05.2020
2678 Clouds 29 1018 33 10000 2.6 200 14:23 21.05.2020
2679 Clouds 29 1019 33 10000 3.1 220 13:59 21.05.2020
2680 Clouds 29 1019 37 10000 3.1 210 13:38 21.05.2020
2681 Clear 29 1019 37 10000 3.1 210 13:20 21.05.2020
2682 Clear 28 1019 40 10000 0.5 240 12:40 21.05.2020
2683 Clear 28 1019 40 10000 0.5 240 12:22 21.05.2020
2684 Clear 27 1019 45 10000 1 0 11:59 21.05.2020
2685 Clear 27 1019 51 10000 1.5 110 11:39 21.05.2020
2686 Clear 27 1019 51 10000 1.5 110 11:21 21.05.2020
2687 Clear 27 1019 54 10000 3.1 290 10:54 21.05.2020
2688 Clear 26 1019 53 10000 3.1 280 10:36 21.05.2020
2689 Clear 25 1019 53 10000 3.1 280 10:18 21.05.2020
2690 Clear 24 1019 64 10000 4.1 290 09:42 21.05.2020
2691 Clear 22 1019 64 10000 4.1 290 09:24 21.05.2020
2692 Clear 22 1018 68 10000 5.1 300 08:57 21.05.2020
2693 Clear 22 1018 68 10000 5.7 310 08:38 21.05.2020
2694 Clear 21 1018 68 10000 5.7 310 08:20 21.05.2020
2695 Clear 20 1017 72 10000 5.1 310 07:42 21.05.2020
2696 Clear 20 1017 72 10000 5.1 310 07:22 21.05.2020
2697 Clear 19 1017 72 10000 4.1 300 06:37 21.05.2020
2698 Clear 19 1017 72 10000 4.1 280 05:50 21.05.2020
2699 Clear 20 1017 77 10000 4.6 320 04:18 21.05.2020
2700 Clear 19 1017 77 10000 2.1 300 03:21 21.05.2020
2701 Clear 21 1017 88 10000 3.6 250 02:31 21.05.2020
2702 Clear 21 1017 93 10000 2.6 240 01:51 21.05.2020
2703 Clear 20 1017 88 10000 2.1 260 01:24 21.05.2020
2704 Clear 20 1017 88 10000 1.5 270 00:55 21.05.2020
2705 Clear 20 1017 88 10000 2.6 240 00:27 21.05.2020
2706 Clear 19 1017 93 10000 2.1 260 23:59 20.05.2020
2707 Clear 19 1017 93 10000 2.1 230 23:40 20.05.2020
2708 Clear 19 1017 93 10000 2.1 230 23:19 20.05.2020
2709 Clear 20 1016 77 10000 0.5 120 22:43 20.05.2020
2710 Clear 20 1016 77 10000 0.5 120 22:25 20.05.2020
2711 Clear 21 1016 88 10000 1 0 21:58 20.05.2020
2712 Clear 21 1016 83 10000 2.1 100 21:39 20.05.2020
2713 Clear 22 1016 83 10000 3.1 110 21:20 20.05.2020
2714 Clear 23 1015 78 10000 2.6 100 20:44 20.05.2020
2715 Clear 23 1015 73 10000 2.1 140 20:24 20.05.2020
2716 Clear 25 1015 69 10000 2.6 180 19:44 20.05.2020
2717 Clear 25 1015 69 10000 2.6 180 19:25 20.05.2020
2718 Clear 25 1015 69 10000 3.1 190 18:59 20.05.2020
2719 Clear 26 1015 69 10000 3.1 190 18:41 20.05.2020
2720 Clouds 25 1015 69 10000 3.1 190 18:21 20.05.2020
2721 Clouds 25 1015 60 10000 3.1 170 17:41 20.05.2020
2722 Clouds 25 1015 60 10000 3.1 170 17:22 20.05.2020
2723 Clouds 25 1015 60 10000 2.6 180 16:55 20.05.2020
2724 Clouds 25 1015 60 10000 3.1 180 16:37 20.05.2020
2725 Clouds 24 1015 69 10000 3.6 170 16:18 20.05.2020
2726 Clouds 25 1015 64 10000 3.6 180 15:43 20.05.2020
2727 Clouds 25 1015 64 10000 3.6 180 15:43 20.05.2020
2728 Clouds 25 1015 64 10000 3.6 180 15:25 20.05.2020
2729 Clouds 26 1015 69 10000 4.1 190 14:45 20.05.2020
2730 Clouds 26 1015 69 10000 5.1 200 14:24 20.05.2020
2731 Clear 27 1015 28 7000 2.6 200 13:56 20.05.2020
2732 Clear 27 1015 30 7000 2.6 150 13:37 20.05.2020
2733 Clear 27 1015 32 7000 2.6 170 13:18 20.05.2020
2734 Clear 27 1015 57 10000 4.6 210 12:42 20.05.2020
2735 Clear 26 1015 57 10000 4.6 210 12:21 20.05.2020
2736 Clear 26 1015 41 10000 0.5 140 11:38 20.05.2020
2737 Clear 26 1015 41 10000 0.5 140 11:38 20.05.2020
2738 Clear 25 1015 41 10000 0.5 140 11:38 20.05.2020
2739 Clear 25 1015 41 10000 0.5 140 11:19 20.05.2020
2740 Clear 25 1015 49 10000 4.6 320 10:44 20.05.2020
2741 Clear 24 1015 49 10000 4.6 320 10:23 20.05.2020
2742 Clear 24 1015 49 10000 4.6 320 10:23 20.05.2020
2743 Clear 23 1015 53 10000 5.1 310 09:58 20.05.2020
2744 Clouds 22 1015 60 10000 5.7 320 09:40 20.05.2020
2745 Clouds 20 1015 63 10000 5.1 320 09:20 20.05.2020
2746 Clouds 20 1015 68 10000 6.2 330 08:42 20.05.2020
2747 Clouds 20 1015 68 10000 6.2 330 08:19 20.05.2020
2748 Clouds 19 1015 72 10000 6.2 340 07:50 20.05.2020
2749 Clouds 19 1015 72 10000 6.2 340 07:23 20.05.2020
2750 Clouds 19 1014 72 10000 6.2 320 06:52 20.05.2020
2751 Clouds 19 1014 72 10000 5.1 320 05:59 20.05.2020
2752 Clouds 19 1015 72 10000 5.1 320 04:38 20.05.2020
2753 Clouds 19 1015 77 10000 4.6 310 03:58 20.05.2020
2754 Clouds 20 1016 72 10000 3.6 290 03:29 20.05.2020
2755 Clouds 20 1016 88 10000 1.5 270 01:41 20.05.2020
2756 Clouds 20 1016 88 10000 1.5 270 01:23 20.05.2020
2757 Clouds 20 1017 82 10000 2.1 240 00:40 20.05.2020
2758 Clouds 19 1017 82 10000 2.1 240 00:20 20.05.2020
2759 Clouds 19 1016 82 10000 1.5 220 23:36 19.05.2020
2760 Clouds 19 1016 82 10000 1.5 220 23:18 19.05.2020
2761 Clouds 20 1016 88 10000 1.5 230 22:55 19.05.2020
2762 Clouds 20 1016 82 10000 3.6 200 22:36 19.05.2020
2763 Clouds 20 1016 82 10000 3.6 190 22:18 19.05.2020
2764 Clouds 20 1016 82 10000 3.6 190 21:55 19.05.2020
2765 Clouds 21 1016 82 10000 3.1 190 21:36 19.05.2020
2766 Clouds 22 1015 82 10000 3.6 200 21:18 19.05.2020
2767 Clouds 22 1015 82 10000 3.6 200 20:54 19.05.2020
2768 Clouds 22 1015 73 10000 3.1 200 20:36 19.05.2020
2769 Clouds 23 1015 64 10000 2.1 110 20:36 19.05.2020
2770 Clouds 23 1015 73 10000 3.1 200 20:18 19.05.2020
2771 Clouds 23 1015 73 10000 3.6 190 19:37 19.05.2020
2772 Clear 24 1015 64 10000 3.6 190 19:19 19.05.2020
2773 Clear 25 1015 64 10000 3.6 190 18:44 19.05.2020
2774 Clear 25 1015 64 10000 3.1 180 18:22 19.05.2020
2775 Clear 26 1015 34 10000 5.1 130 17:57 19.05.2020
2776 Clear 26 1015 34 10000 5.1 130 17:39 19.05.2020
2777 Clear 26 1015 34 10000 5.1 130 17:19 19.05.2020
2778 Clear 26 1015 42 10000 5.7 110 16:41 19.05.2020
2779 Clear 26 1015 42 10000 5.7 110 16:23 19.05.2020
2780 Clear 27 1015 50 10000 4.1 200 15:56 19.05.2020
2781 Clear 27 1015 57 10000 4.6 190 15:38 19.05.2020
2782 Clear 27 1015 53 10000 4.1 190 15:20 19.05.2020
2783 Clear 27 1015 53 10000 4.1 190 14:54 19.05.2020
2784 Clear 27 1015 44 10000 3.6 200 14:36 19.05.2020
2785 Clear 27 1015 44 10000 3.6 200 14:18 19.05.2020
2786 Clear 27 1016 34 9000 2.6 260 13:55 19.05.2020
2787 Clear 27 1016 34 9000 2.6 260 13:36 19.05.2020
2788 Clear 27 1016 34 9000 2.6 260 13:18 19.05.2020
2789 Clear 26 1016 41 10000 4.6 330 12:40 19.05.2020
2790 Clear 25 1016 41 10000 4.6 330 12:22 19.05.2020
2791 Clear 24 1016 41 10000 4.1 330 11:59 19.05.2020
2792 Clear 25 1016 47 10000 5.1 320 11:40 19.05.2020
2793 Clear 24 1016 47 10000 5.1 320 11:21 19.05.2020
2794 Clear 22 1016 53 10000 6.2 330 10:55 19.05.2020
2795 Clear 22 1016 53 10000 6.2 330 10:37 19.05.2020
2796 Clear 22 1016 52 10000 5.7 320 10:18 19.05.2020
2797 Clear 21 1016 60 10000 6.2 320 09:42 19.05.2020
2798 Clear 20 1016 60 10000 6.2 320 09:24 19.05.2020
2799 Clear 19 1016 63 10000 7.2 310 08:47 19.05.2020
2800 Clear 18 1016 63 10000 4.1 320 08:24 19.05.2020
2801 Clear 18 1016 67 10000 4.6 320 07:47 19.05.2020
2802 Clear 18 1016 67 10000 4.6 320 07:27 19.05.2020
2803 Clear 18 1016 72 10000 3.6 320 06:55 19.05.2020
2804 Clear 18 1016 72 10000 4.6 310 06:26 19.05.2020
2805 Clear 18 1016 72 10000 4.1 320 05:42 19.05.2020
2806 Clear 18 1016 77 10000 3.6 320 05:19 19.05.2020
2807 Clear 18 1017 77 10000 3.1 310 04:35 19.05.2020
2808 Clear 19 1018 77 10000 2.1 280 02:23 19.05.2020
2809 Clouds 20 1019 72 10000 3.1 250 00:48 19.05.2020
2810 Clouds 20 1019 72 10000 3.1 250 00:29 19.05.2020
2811 Clouds 20 1019 88 10000 2.6 250 23:59 18.05.2020
2812 -273 0 0 0 0 0 23:59 18.05.2020
2813 Clouds 20 1019 88 10000 3.6 250 23:40 18.05.2020
2814 Clouds 20 1019 88 10000 3.6 250 23:20 18.05.2020
2815 Clouds 20 1019 88 10000 4.1 250 22:54 18.05.2020
2816 Clouds 20 1018 82 10000 4.1 250 22:36 18.05.2020
2817 Clouds 20 1018 82 10000 4.1 250 22:18 18.05.2020
2818 Clouds 20 1018 77 10000 4.6 230 21:41 18.05.2020
2819 Clouds 21 1018 77 10000 4.6 230 21:21 18.05.2020
2820 Clouds 21 1018 77 10000 4.6 210 20:57 18.05.2020
2821 Clouds 21 1018 77 10000 4.6 210 20:37 18.05.2020
2822 Clouds 22 1018 77 10000 4.6 210 20:18 18.05.2020
2823 Clouds 22 1018 77 10000 5.1 200 19:41 18.05.2020
2824 Clouds 23 1018 68 10000 4.6 200 19:20 18.05.2020
2825 Clouds 23 1018 68 10000 4.6 200 18:59 18.05.2020
2826 Clouds 23 1018 68 10000 4.1 210 18:41 18.05.2020
2827 Clouds 23 1018 68 10000 4.1 210 18:20 18.05.2020
2828 Clouds 23 1019 68 10000 4.1 220 17:38 18.05.2020
2829 Clouds 23 1019 72 10000 3.6 180 17:18 18.05.2020
2830 Clouds 23 1019 72 10000 3.6 180 16:56 18.05.2020
2831 Clouds 23 1019 73 10000 4.1 180 16:37 18.05.2020
2832 Clouds 23 1020 73 10000 3.1 170 16:18 18.05.2020
2833 Clouds 22 1019 73 10000 4.1 180 16:18 18.05.2020
2834 Clouds 22 1020 73 10000 3.1 140 15:46 18.05.2020
2835 Clouds 22 1020 73 10000 3.1 140 15:25 18.05.2020
2836 Clouds 23 1020 68 10000 4.1 140 14:59 18.05.2020
2837 Clouds 23 1020 64 10000 3.1 110 14:40 18.05.2020
2838 Clouds 23 1020 64 10000 3.1 110 14:22 18.05.2020
2839 Clouds 23 1020 56 10000 3.6 110 13:54 18.05.2020
2840 Clouds 23 1020 56 10000 3.1 130 13:36 18.05.2020
2841 Clouds 23 1020 56 10000 3.1 130 13:18 18.05.2020
2842 Clouds 24 1020 56 10000 2.1 140 12:54 18.05.2020
2843 Clear 22 1020 68 10000 2.1 170 12:36 18.05.2020
2844 Clear 22 1020 68 10000 3.1 170 12:18 18.05.2020
2845 Clear 22 1020 68 10000 2.6 170 11:44 18.05.2020
2846 Clear 22 1020 68 10000 2.6 170 11:25 18.05.2020
2847 Clear 21 1020 52 10000 0.5 310 10:47 18.05.2020
2848 Clear 21 1020 52 10000 3.6 320 10:27 18.05.2020
2849 Clear 21 1020 63 10000 4.1 310 09:54 18.05.2020
2850 Clear 20 1020 68 10000 4.1 320 09:36 18.05.2020
2851 Clear 19 1020 68 10000 4.1 320 09:18 18.05.2020
2852 Clear 17 1020 77 10000 5.1 330 08:42 18.05.2020
2853 Clear 17 1020 77 10000 5.1 330 08:42 18.05.2020
2854 Clear 17 1020 77 10000 5.1 330 08:23 18.05.2020
2855 Clear 16 1020 82 10000 5.7 330 07:48 18.05.2020
2856 Clear 16 1020 82 10000 5.7 330 07:26 18.05.2020
2857 Clear 16 1020 82 10000 3.6 320 06:48 18.05.2020
2858 Clear 16 1019 87 10000 4.1 320 06:25 18.05.2020
2859 Clear 16 1020 82 10000 2.6 310 05:46 18.05.2020
2860 Clear 16 1020 82 10000 3.1 320 04:26 18.05.2020
2861 Clouds 17 1020 88 10000 2.6 280 03:30 18.05.2020
2862 Clouds 17 1021 93 10000 4.1 220 01:57 18.05.2020
2863 Clouds 18 1021 88 10000 3.6 210 00:50 18.05.2020
2864 Clouds 18 1021 88 10000 3.6 200 00:22 18.05.2020
2865 Clouds 18 1021 88 10000 3.1 190 23:56 17.05.2020
2866 Clouds 18 1021 88 10000 4.1 200 23:38 17.05.2020
2867 Clouds 19 1020 77 10000 4.1 190 23:19 17.05.2020
2868 Clouds 19 1020 77 10000 4.1 190 22:55 17.05.2020
2869 Clouds 19 1020 72 10000 5.1 200 22:36 17.05.2020
2870 Clouds 19 1020 72 10000 5.1 200 22:18 17.05.2020
2871 Clouds 19 1019 68 10000 2.1 150 21:41 17.05.2020
2872 Clouds 20 1018 68 10000 6.2 220 21:20 17.05.2020
2873 Clouds 20 1018 68 10000 6.2 220 20:58 17.05.2020
2874 Clouds 20 1018 68 10000 7.2 220 20:40 17.05.2020
2875 Clouds 21 1018 68 10000 7.2 220 20:19 17.05.2020
2876 Clouds 21 1018 64 10000 7.2 220 19:55 17.05.2020
2877 Clouds 22 1018 64 10000 7.2 220 19:37 17.05.2020
2878 Clouds 23 1018 60 10000 7.7 220 19:18 17.05.2020
2879 Clouds 23 1018 60 10000 7.7 220 18:39 17.05.2020
2880 Clouds 23 1018 60 10000 7.7 220 18:21 17.05.2020
2881 Clouds 24 1017 36 9000 4.6 250 17:56 17.05.2020
2882 Clouds 24 1018 56 10000 8.2 220 17:36 17.05.2020
2883 Clouds 24 1018 56 10000 7.7 210 17:18 17.05.2020
2884 Clouds 23 1018 44 9000 3.6 200 16:39 17.05.2020
2885 Clouds 23 1018 44 9000 3.6 200 16:20 17.05.2020
2886 Clouds 23 1019 64 10000 7.2 220 15:56 17.05.2020
2887 Clouds 23 1019 50 9000 3.1 200 15:37 17.05.2020
2888 Clouds 22 1019 68 10000 6.7 210 15:18 17.05.2020
2889 Clouds 22 1020 64 10000 5.7 200 14:42 17.05.2020
2890 Clouds 22 1020 64 10000 5.7 200 14:24 17.05.2020
2891 Clouds 22 1020 64 10000 5.1 190 13:58 17.05.2020
2892 Clouds 22 1020 64 10000 3.1 190 13:39 17.05.2020
2893 Clouds 21 1020 68 10000 3.6 200 13:18 17.05.2020
2894 Clouds 16 1018 82 10000 2.1 290 04:26 17.05.2020
2895 Clouds 16 1018 82 10000 1.5 320 02:29 17.05.2020
2896 Clouds 16 1018 82 10000 1.5 340 01:58 17.05.2020
2897 Clouds 16 1018 82 10000 2.1 330 01:38 17.05.2020
2898 Clouds 16 1018 87 10000 2.6 320 00:40 17.05.2020
2899 Clouds 16 1018 87 10000 4.6 320 23:57 16.05.2020
2900 Clouds 16 1018 87 10000 4.1 310 23:39 16.05.2020
2901 Clouds 16 1018 87 10000 4.1 310 23:20 16.05.2020
2902 Clouds 16 1018 87 10000 3.6 290 22:58 16.05.2020
2903 Clouds 16 1017 87 10000 3.6 340 22:40 16.05.2020
2904 Rain 16 1017 87 10000 3.6 340 22:20 16.05.2020
2905 Rain 16 1017 87 10000 2.6 320 21:46 16.05.2020
2906 Rain 16 1017 87 10000 2.6 320 21:46 16.05.2020
2907 Rain 16 1017 87 10000 2.6 320 21:27 16.05.2020
2908 Rain 17 1016 87 10000 3.1 310 20:59 16.05.2020
2909 Rain 17 1016 93 10000 3.6 320 20:41 16.05.2020
2910 Rain 17 1016 93 10000 3.6 320 20:41 16.05.2020
2911 Drizzle 17 1016 93 10000 3.6 320 20:22 16.05.2020
2912 Clouds 17 1016 82 10000 2.1 310 19:58 16.05.2020
2913 Rain 17 1016 82 10000 3.1 290 19:40 16.05.2020
2914 Rain 17 1016 82 10000 3.1 290 19:22 16.05.2020
2915 Rain 16 1016 93 10000 3.6 310 18:43 16.05.2020
2916 Rain 16 1016 93 10000 3.6 310 18:25 16.05.2020
2917 Rain 17 1016 88 8000 5.1 300 17:57 16.05.2020
2918 Rain 17 1016 88 10000 6.2 310 17:39 16.05.2020
2919 Rain 17 1016 88 10000 6.2 310 17:20 16.05.2020
2920 Rain 18 1015 68 10000 1.5 130 16:42 16.05.2020
2921 Rain 18 1015 68 10000 1.5 130 16:23 16.05.2020
2922 Rain 19 1015 68 10000 2.1 100 15:58 16.05.2020
2923 Thunderstorm 19 1015 56 10000 4.6 100 15:40 16.05.2020
2924 Thunderstorm 20 1015 60 10000 6.2 100 15:19 16.05.2020
2925 Thunderstorm 20 1015 60 10000 6.2 100 14:48 16.05.2020
2926 Thunderstorm 20 1015 60 10000 4.1 100 14:21 16.05.2020
2927 Clouds 21 1016 60 10000 3.6 140 13:59 16.05.2020
2928 Clouds 21 1016 60 10000 3.6 140 13:59 16.05.2020
2929 Clouds 21 1016 68 10000 4.1 140 13:40 16.05.2020
2930 Clouds 21 1016 68 10000 4.1 140 13:22 16.05.2020
2931 Clouds 21 1015 60 10000 2.6 140 12:45 16.05.2020
2932 Clouds 21 1015 60 10000 2.6 140 12:23 16.05.2020
2933 Clouds 21 1015 56 10000 2.1 100 12:00 16.05.2020
2934 Clouds 20 1015 56 10000 2.1 310 11:39 16.05.2020
2935 Clouds 20 1015 56 10000 2.1 310 11:20 16.05.2020
2936 Clouds 20 1016 64 10000 3.6 310 10:56 16.05.2020
2937 Clouds 20 1016 64 10000 3.6 310 10:56 16.05.2020
2938 Clouds 19 1016 60 10000 3.6 320 10:37 16.05.2020
2939 Clouds 19 1016 60 10000 3.6 320 10:19 16.05.2020
2940 Clouds 19 1016 68 10000 4.6 330 09:45 16.05.2020
2941 Clouds 18 1016 68 10000 4.6 330 09:27 16.05.2020
2942 Clouds 17 1016 72 10000 4.1 340 08:45 16.05.2020
2943 Clouds 17 1016 72 10000 4.1 340 08:23 16.05.2020
2944 Clouds 17 1015 82 10000 5.1 330 07:56 16.05.2020
2945 Clouds 16 1015 82 10000 3.6 330 07:38 16.05.2020
2946 Clouds 16 1015 82 10000 3.6 330 07:19 16.05.2020
2947 Clouds 16 1015 82 10000 2.6 340 06:45 16.05.2020
2948 Clouds 16 1015 82 10000 2.6 340 06:19 16.05.2020
2949 Clouds 16 1015 87 10000 2.1 10 05:40 16.05.2020
2950 Clouds 16 1015 82 10000 3.1 30 04:51 16.05.2020
2951 Clouds 17 1015 82 10000 3.1 30 03:26 16.05.2020
2952 Clouds 17 1016 82 10000 4.1 30 02:39 16.05.2020
2953 Clouds 17 1016 82 10000 4.1 30 02:18 16.05.2020
2954 Clouds 17 1016 82 10000 3.1 50 01:39 16.05.2020
2955 Clouds 17 1016 82 10000 2.6 50 00:57 16.05.2020
2956 Clouds 17 1016 82 10000 2.6 50 00:57 16.05.2020
2957 Clouds 18 1016 82 10000 2.1 60 00:38 16.05.2020
2958 Clouds 17 1016 82 10000 2.6 60 00:19 16.05.2020
2959 Clouds 18 1016 82 10000 1.5 60 23:39 15.05.2020
2960 Clouds 18 1016 82 10000 1.5 60 23:19 15.05.2020
2961 Clouds 18 1015 77 10000 4.6 60 22:41 15.05.2020
2962 Clouds 18 1015 77 10000 4.6 60 22:20 15.05.2020
2963 Clouds 18 1015 77 10000 4.6 70 21:57 15.05.2020
2964 Clouds 18 1015 77 10000 5.1 80 21:38 15.05.2020
2965 Clouds 18 1015 77 10000 5.1 80 21:20 15.05.2020
2966 Clouds 18 1014 77 10000 4.6 70 20:55 15.05.2020
2967 Clouds 19 1014 68 10000 4.6 60 20:37 15.05.2020
2968 Clouds 19 1014 68 10000 4.6 60 20:18 15.05.2020
2969 Clouds 19 1014 68 10000 4.6 60 19:43 15.05.2020
2970 Clouds 19 1013 77 10000 3.6 70 19:23 15.05.2020
2971 Clouds 19 1014 72 10000 4.1 90 18:54 15.05.2020
2972 Clouds 20 1013 64 10000 4.1 100 18:36 15.05.2020
2973 Clouds 20 1013 64 10000 4.1 100 18:18 15.05.2020
2974 Clouds 20 1013 56 10000 3.6 90 17:37 15.05.2020
2975 Clouds 20 1013 56 10000 3.6 90 17:19 15.05.2020
2976 Clouds 20 1014 64 10000 3.1 90 16:56 15.05.2020
2977 Clouds 20 1014 64 10000 2.6 100 16:37 15.05.2020
2978 Clouds 20 1014 64 10000 2.1 100 16:18 15.05.2020
2979 Clouds 20 1014 72 10000 2.6 110 15:41 15.05.2020
2980 Clouds 20 1014 72 10000 2.6 110 15:41 15.05.2020
2981 Clouds 20 1014 72 10000 2.6 110 15:21 15.05.2020
2982 Clouds 19 1014 77 10000 3.1 140 14:58 15.05.2020
2983 Clouds 20 1014 72 10000 3.6 140 14:40 15.05.2020
2984 Clouds 19 1014 72 10000 3.6 140 14:21 15.05.2020
2985 Clouds 20 1013 60 10000 5.1 110 13:42 15.05.2020
2986 Clouds 20 1013 60 10000 5.1 110 13:22 15.05.2020
2987 Clouds 20 1013 60 10000 4.6 120 12:59 15.05.2020
2988 Clouds 20 1013 56 10000 2.6 100 12:39 15.05.2020
2989 Clouds 20 1013 56 10000 2.6 100 12:39 15.05.2020
2990 Clouds 19 1013 64 10000 4.1 320 12:18 15.05.2020
2991 Clouds 19 1013 64 10000 4.1 320 11:56 15.05.2020
2992 Clouds 19 1013 63 10000 3.1 330 11:37 15.05.2020
2993 Clouds 19 1013 68 10000 1.5 320 11:19 15.05.2020
2994 Clouds 18 1013 68 10000 1.5 320 10:56 15.05.2020
2995 Clouds 18 1013 72 10000 2.1 330 10:38 15.05.2020
2996 Clouds 18 1013 72 10000 2.1 330 10:19 15.05.2020
2997 Clouds 17 1012 77 10000 2.1 320 09:40 15.05.2020
2998 Clouds 16 1012 77 10000 2.1 320 09:20 15.05.2020
2999 Clouds 16 1012 87 10000 2.1 310 08:59 15.05.2020
3000 Clouds 15 1011 87 10000 2.1 330 08:38 15.05.2020
3001 Clouds 15 1011 87 10000 2.1 330 08:38 15.05.2020
3002 Clouds 16 1011 87 10000 2.1 330 08:38 15.05.2020
3003 Clouds 15 1011 87 10000 2.1 330 08:19 15.05.2020
3004 Clouds 15 1011 87 10000 1.5 320 07:46 15.05.2020
3005 Clouds 14 1011 87 10000 1.5 320 07:28 15.05.2020
3006 Clouds 14 1010 87 10000 2.6 300 06:58 15.05.2020
3007 Clouds 14 1009 87 10000 1.5 330 05:56 15.05.2020
3008 Clouds 14 1008 87 10000 2.6 320 04:38 15.05.2020
3009 Clouds 14 1008 87 10000 1.5 310 03:49 15.05.2020
3010 Clouds 14 1008 87 10000 1 310 02:44 15.05.2020
3011 Clouds 14 1008 87 10000 1.5 300 01:36 15.05.2020
3012 Clouds 14 1008 93 10000 1.5 330 00:58 15.05.2020
3013 Clouds 14 1008 87 10000 1.5 290 00:39 15.05.2020
3014 Clouds 14 1008 87 10000 1.5 290 00:21 15.05.2020
3015 Clouds 15 1007 87 10000 2.6 310 23:41 14.05.2020
3016 Clouds 15 1007 87 10000 2.6 310 23:41 14.05.2020
3017 Clouds 15 1007 87 10000 3.1 330 23:18 14.05.2020
3018 Clouds 15 1006 87 10000 2.6 320 22:42 14.05.2020
3019 Clouds 15 1006 87 10000 2.6 320 22:23 14.05.2020
3020 Clouds 15 1006 93 10000 2.1 320 21:58 14.05.2020
3021 Clouds 15 1006 87 10000 3.1 330 21:40 14.05.2020
3022 Clouds 15 1006 87 10000 3.1 330 21:20 14.05.2020
3023 Clouds 15 1005 93 10000 2.6 320 20:57 14.05.2020
3024 Rain 15 1005 93 10000 2.1 320 20:39 14.05.2020
3025 Rain 15 1005 93 10000 1.5 320 20:19 14.05.2020
3026 Rain 15 1005 93 10000 1.5 320 20:19 14.05.2020
3027 Rain 15 1005 93 10000 1.5 320 19:56 14.05.2020
3028 Rain 15 1005 93 10000 2.1 300 19:37 14.05.2020
3029 Rain 15 1005 93 10000 2.1 300 19:37 14.05.2020
3030 Rain 15 1004 93 10000 2.1 220 19:19 14.05.2020
3031 Rain 15 1004 93 10000 2.1 220 18:56 14.05.2020
3032 Rain 15 1004 93 8000 4.1 180 18:37 14.05.2020
3033 Rain 15 1004 93 8000 4.1 180 18:19 14.05.2020
3034 Rain 15 1003 87 10000 5.7 150 17:56 14.05.2020
3035 Rain 16 1004 93 10000 4.1 100 17:37 14.05.2020
3036 Rain 17 1004 93 10000 4.1 100 17:18 14.05.2020
3037 Rain 17 1004 88 10000 4.6 90 16:39 14.05.2020
3038 Rain 17 1004 88 10000 4.6 90 16:21 14.05.2020
3039 Rain 17 1004 88 10000 4.1 90 15:58 14.05.2020
3040 Rain 17 1004 88 10000 5.7 90 15:40 14.05.2020
3041 Drizzle 17 1004 88 10000 5.7 100 15:20 14.05.2020
3042 Drizzle 17 1004 88 10000 5.7 100 14:56 14.05.2020
3043 Rain 17 1004 93 10000 5.7 90 14:38 14.05.2020
3044 Rain 17 1004 93 10000 5.7 90 14:20 14.05.2020
3045 Rain 17 1004 93 10000 6.2 100 13:56 14.05.2020
3046 Rain 17 1004 82 10000 6.2 70 13:38 14.05.2020
3047 Rain 18 1005 82 10000 5.1 90 13:18 14.05.2020
3048 Rain 18 1005 82 10000 5.1 90 12:57 14.05.2020
3049 Rain 18 1004 82 10000 5.7 80 12:37 14.05.2020
3050 Clouds 18 1005 82 10000 4.6 80 12:18 14.05.2020
3051 Clouds 18 1005 82 10000 4.6 80 12:18 14.05.2020
3052 Clouds 18 1005 82 10000 4.6 80 11:56 14.05.2020
3053 Clouds 18 1005 82 10000 5.1 100 11:37 14.05.2020
3054 Clouds 18 1005 82 10000 4.1 70 11:19 14.05.2020
3055 Clouds 18 1004 82 10000 5.1 60 10:42 14.05.2020
3056 Clouds 18 1004 82 10000 5.1 60 10:24 14.05.2020
3057 Clouds 18 1005 82 10000 5.1 60 09:56 14.05.2020
3058 Clouds 18 1005 82 10000 5.1 60 09:56 14.05.2020
3059 Clouds 17 1005 82 10000 5.1 80 09:36 14.05.2020
3060 Clouds 17 1005 82 10000 5.7 70 09:18 14.05.2020
3061 Clouds 17 1005 82 10000 5.1 80 08:37 14.05.2020
3062 Clouds 17 1005 82 10000 5.1 80 08:19 14.05.2020
3063 Clouds 17 1005 88 10000 5.1 80 07:45 14.05.2020
3064 Clouds 17 1005 88 10000 5.1 80 07:45 14.05.2020
3065 Clouds 16 1005 88 10000 5.1 80 07:22 14.05.2020
3066 Clouds 16 1005 82 10000 6.7 70 06:44 14.05.2020
3067 Clouds 17 1005 82 10000 6.7 70 06:25 14.05.2020
3068 Clouds 17 1005 77 10000 5.7 50 05:42 14.05.2020
3069 Clouds 17 1005 77 10000 5.7 50 05:42 14.05.2020
3070 Clouds 17 1005 82 10000 2.6 340 04:46 14.05.2020
3071 Clouds 17 1005 77 10000 3.1 320 03:44 14.05.2020
3072 Clouds 18 1005 77 10000 3.1 320 03:20 14.05.2020
3073 Clouds 18 1006 72 10000 1 40 02:36 14.05.2020
3074 Clouds 18 1006 72 10000 2.6 70 01:52 14.05.2020
3075 Clouds 18 1006 77 10000 0.5 0 00:54 14.05.2020
3076 Clouds 18 1006 82 10000 2.6 250 00:29 14.05.2020
3077 Clouds 18 1006 82 10000 3.6 240 23:55 13.05.2020
3078 Clear 18 1006 82 10000 4.6 240 23:37 13.05.2020
3079 Clear 18 1006 77 10000 3.6 210 23:18 13.05.2020
3080 Clear 19 1006 77 10000 4.6 230 22:41 13.05.2020
3081 Clear 19 1006 77 10000 4.6 230 22:22 13.05.2020
3082 Clear 19 1005 72 10000 4.1 220 21:59 13.05.2020
3083 Clear 19 1005 77 10000 4.6 230 21:39 13.05.2020
3084 Clear 19 1005 77 10000 4.6 230 21:19 13.05.2020
3085 Clear 20 1004 72 10000 5.1 220 20:56 13.05.2020
3086 Clouds 20 1004 77 10000 7.2 230 20:38 13.05.2020
3087 Clouds 20 1004 77 10000 7.2 230 20:19 13.05.2020
3088 Clouds 21 1004 72 10000 8.7 220 19:42 13.05.2020
3089 Clouds 21 1004 72 10000 8.7 220 19:23 13.05.2020
3090 Clouds 22 1004 68 10000 9.3 220 18:45 13.05.2020
3091 Clouds 22 1004 68 10000 9.3 220 18:22 13.05.2020
3092 Clouds 22 1004 68 10000 9.3 220 18:22 13.05.2020
3093 Clouds 22 1004 68 10000 9.3 220 18:22 13.05.2020
3094 Clouds 22 1004 68 10000 9.3 220 17:57 13.05.2020
3095 Clouds 22 1004 73 10000 10.3 220 17:37 13.05.2020
3096 Clouds 22 1004 73 10000 10.3 220 17:18 13.05.2020
3097 Clouds 22 1004 73 10000 10.3 220 17:18 13.05.2020
3098 Clouds 23 1003 64 10000 9.8 220 16:40 13.05.2020
3099 Clouds 23 1003 64 10000 9.8 220 16:19 13.05.2020
3100 Clouds 23 1003 53 10000 9.8 220 15:55 13.05.2020
3101 Clear 23 1004 58 0 1.79 246 15:36 13.05.2020
3102 Clouds 23 1004 64 10000 10.3 220 15:36 13.05.2020
3103 Clouds 22 1004 64 10000 10.3 220 15:18 13.05.2020
3104 Clouds 23 1003 46 10000 5.7 290 14:42 13.05.2020
3105 Clouds 23 1003 46 10000 5.7 290 14:42 13.05.2020
3106 Clouds 23 1003 46 10000 5.7 290 14:23 13.05.2020
3107 Clouds 23 1004 64 10000 8.7 210 13:59 13.05.2020
3108 Clouds 23 1004 49 10000 5.7 240 13:41 13.05.2020
3109 Clouds 23 1004 60 10000 8.2 220 13:21 13.05.2020
3110 Clouds 22 1004 56 10000 8.7 220 12:58 13.05.2020
3111 Clouds 22 1004 60 10000 8.2 220 12:39 13.05.2020
3112 Clouds 21 1004 68 10000 8.2 220 12:20 13.05.2020
3113 Clouds 21 1004 68 10000 8.2 220 11:56 13.05.2020
3114 Clouds 21 1004 68 10000 6.2 220 11:37 13.05.2020
3115 Clouds 21 1003 64 10000 3.6 220 11:19 13.05.2020
3116 Clouds 20 1003 64 10000 3.6 220 10:56 13.05.2020
3117 Clouds 20 1003 68 10000 2.6 290 10:38 13.05.2020
3118 Clouds 20 1003 68 10000 2.6 290 10:19 13.05.2020
3119 Clouds 19 1003 68 10000 3.1 310 09:45 13.05.2020
3120 Clouds 18 1003 77 10000 4.6 330 09:23 13.05.2020
3121 Clouds 17 1003 77 10000 3.6 320 08:57 13.05.2020
3122 Clouds 17 1003 87 10000 4.1 320 08:37 13.05.2020
3123 Clouds 16 1003 87 10000 4.1 320 08:19 13.05.2020
3124 Clouds 16 1003 82 10000 4.1 320 07:44 13.05.2020
3125 Clouds 16 1003 82 10000 4.1 320 07:26 13.05.2020
3126 Rain 16 1003 93 10000 4.6 310 06:49 13.05.2020
3127 Rain 16 1004 82 7000 1 0 06:31 13.05.2020
3128 Rain 16 1003 77 10000 4.02 62 05:33 13.05.2020
3129 Clouds 17 1003 82 10000 2.6 330 03:28 13.05.2020
3130 Rain 17 1004 82 10000 5.7 30 02:34 13.05.2020
3131 Thunderstorm 17 1006 82 10000 8.7 60 01:45 13.05.2020
3132 Rain 17 1007 82 10000 6.7 60 00:55 13.05.2020
3133 Clouds 17 1008 72 10000 5.1 50 00:22 13.05.2020
3134 Clouds 17 1008 72 10000 8.7 60 23:55 12.05.2020
3135 Clouds 17 1008 77 10000 6.2 60 23:36 12.05.2020
3136 Clouds 17 1008 82 10000 6.2 60 23:18 12.05.2020
3137 Clouds 17 1008 82 10000 6.2 60 22:42 12.05.2020
3138 Clouds 17 1008 82 10000 6.2 60 22:22 12.05.2020
3139 Clouds 17 1008 82 10000 5.7 60 21:56 12.05.2020
3140 Clouds 17 1008 77 10000 6.2 50 21:38 12.05.2020
3141 Clouds 17 1008 77 10000 6.2 50 21:19 12.05.2020
3142 Clouds 17 1008 77 10000 5.7 50 20:58 12.05.2020
3143 Clouds 17 1007 82 10000 7.2 50 20:39 12.05.2020
3144 Clouds 17 1007 82 10000 7.2 50 20:20 12.05.2020
3145 Clouds 18 1008 77 10000 6.2 60 19:57 12.05.2020
3146 Clouds 18 1007 77 10000 8.7 60 19:39 12.05.2020
3147 Clouds 18 1007 77 10000 8.7 60 19:20 12.05.2020
3148 Clouds 18 1008 77 10000 7.2 60 18:55 12.05.2020
3149 Clouds 18 1009 77 10000 7.2 70 18:36 12.05.2020
3150 Clouds 19 1009 77 10000 7.2 70 18:18 12.05.2020
3151 Clouds 18 1008 77 10000 8.2 60 17:41 12.05.2020
3152 Clouds 18 1008 77 10000 8.2 60 17:23 12.05.2020
3153 Clouds 18 1010 68 10000 5.7 60 16:47 12.05.2020
3154 Clouds 18 1010 68 10000 5.7 60 16:25 12.05.2020
3155 Drizzle 18 1009 72 10000 8.2 60 15:56 12.05.2020
3156 Clouds 18 1010 72 10000 6.2 70 15:37 12.05.2020
3157 Clouds 18 1010 72 10000 6.2 70 15:19 12.05.2020
3158 Clouds 18 1011 77 10000 6.7 90 14:56 12.05.2020
3159 Clouds 19 1010 72 10000 6.7 90 14:37 12.05.2020
3160 Clouds 19 1010 72 10000 7.2 90 14:19 12.05.2020
3161 Clouds 19 1010 72 10000 7.2 90 13:57 12.05.2020
3162 Clouds 19 1010 72 10000 7.2 90 13:57 12.05.2020
3163 Clouds 19 1010 72 10000 7.7 70 13:39 12.05.2020
3164 Clouds 19 1010 72 10000 7.7 70 13:19 12.05.2020
3165 Clouds 19 1011 72 10000 6.2 60 12:57 12.05.2020
3166 Clouds 19 1011 77 10000 5.7 70 12:39 12.05.2020
3167 Clouds 18 1011 77 10000 5.7 70 12:21 12.05.2020
3168 Clouds 18 1011 77 10000 5.7 70 12:21 12.05.2020
3169 Clouds 18 1012 77 10000 5.1 60 11:57 12.05.2020
3170 Clouds 18 1012 77 10000 5.7 60 11:38 12.05.2020
3171 Clouds 19 1012 77 10000 5.7 60 11:20 12.05.2020
3172 Clouds 19 1012 72 10000 4.6 60 10:57 12.05.2020
3173 Clouds 19 1012 72 10000 5.7 50 10:39 12.05.2020
3174 Clouds 18 1012 72 10000 5.7 50 10:20 12.05.2020
3175 Clouds 18 1011 77 10000 5.7 50 09:58 12.05.2020
3176 Clouds 18 1011 77 10000 5.1 30 09:39 12.05.2020
3177 Clouds 17 1011 77 10000 4.6 50 09:20 12.05.2020
3178 Clouds 17 1011 77 10000 4.6 50 08:42 12.05.2020
3179 Clouds 17 1011 77 10000 4.6 50 08:22 12.05.2020
3180 Clouds 17 1010 77 10000 3.6 30 07:58 12.05.2020
3181 Clear 16 1009 82 10000 4.1 30 07:40 12.05.2020
3182 Clear 17 1009 82 10000 4.1 30 07:21 12.05.2020
3183 Clouds 16 1009 77 10000 3.6 30 06:39 12.05.2020
3184 Clouds 16 1009 77 10000 3.6 30 06:21 12.05.2020
3185 Clouds 16 1009 82 10000 3.1 50 05:49 12.05.2020
3186 Clouds 17 1008 82 10000 1.5 360 04:41 12.05.2020
3187 Clouds 17 1008 87 10000 3.1 40 03:24 12.05.2020
3188 Clouds 17 1008 72 10000 2.6 90 02:28 12.05.2020
3189 Clouds 18 1008 72 10000 2.1 270 01:56 12.05.2020
3190 Clear 19 1008 77 10000 1.5 280 01:20 12.05.2020
3191 Clear 19 1008 82 10000 3.6 240 00:25 12.05.2020
3192 Clear 19 1008 82 10000 1.5 260 23:58 11.05.2020
3193 Clear 19 1008 82 10000 3.6 240 23:40 11.05.2020
3194 Clear 19 1008 82 10000 3.6 240 23:20 11.05.2020
3195 Clear 20 1007 77 10000 5.7 230 22:58 11.05.2020
3196 Clear 20 1007 77 10000 5.7 220 22:40 11.05.2020
3197 Clear 20 1007 77 10000 5.7 220 22:19 11.05.2020
3198 Clear 21 1006 77 10000 5.7 230 21:57 11.05.2020
3199 Clear 21 1006 72 10000 5.7 220 21:38 11.05.2020
3200 Clear 21 1006 72 10000 5.7 220 21:19 11.05.2020
3201 Clear 22 1005 40 10000 4.6 250 20:57 11.05.2020
3202 Clear 22 1005 68 10000 5.1 240 20:38 11.05.2020
3203 Clouds 23 1005 68 10000 5.1 240 20:19 11.05.2020
3204 Clouds 23 1005 60 10000 9.8 230 19:54 11.05.2020
3205 Clouds 23 1005 60 10000 9.8 230 19:36 11.05.2020
3206 Clouds 23 1005 60 10000 9.8 230 19:18 11.05.2020
3207 Clouds 23 1005 68 10000 9.8 230 18:55 11.05.2020
3208 Clouds 23 1005 64 10000 10.8 230 18:36 11.05.2020
3209 Clouds 24 1004 44 10000 8.2 250 18:18 11.05.2020
3210 Clouds 24 1005 64 10000 10.8 230 18:18 11.05.2020
3211 Clouds 24 1004 64 10000 12.3 220 17:41 11.05.2020
3212 Clouds 23 1004 64 10000 11.3 230 17:22 11.05.2020
3213 Clouds 23 1004 64 10000 11.3 230 16:58 11.05.2020
3214 Clouds 23 1003 44 10000 10.3 250 16:38 11.05.2020
3215 Clouds 23 1004 68 10000 10.3 220 16:20 11.05.2020
3216 Clouds 23 1004 68 10000 10.3 220 15:57 11.05.2020
3217 Clouds 23 1004 60 10000 11.8 220 15:39 11.05.2020
3218 Clouds 23 1004 60 10000 11.8 220 15:18 11.05.2020
3219 Clouds 23 1004 53 10000 11.8 230 14:42 11.05.2020
3220 Clouds 23 1004 53 10000 11.8 230 14:42 11.05.2020
3221 Clouds 23 1004 53 10000 11.8 230 14:23 11.05.2020
3222 Clouds 22 1004 56 10000 11.8 230 13:59 11.05.2020
3223 Clouds 23 1004 56 10000 10.8 230 13:41 11.05.2020
3224 Clouds 22 1004 56 10000 10.8 230 13:19 11.05.2020
3225 Clouds 22 1003 56 10000 11.3 230 12:58 11.05.2020
3226 Clouds 22 1003 60 10000 10.3 230 12:39 11.05.2020
3227 Clouds 21 1003 60 10000 10.3 230 12:21 11.05.2020
3228 Clouds 21 1003 60 10000 12.3 230 11:55 11.05.2020
3229 Clouds 20 1003 60 10000 11.3 240 11:37 11.05.2020
3230 Clouds 20 1003 60 10000 11.3 240 11:18 11.05.2020
3231 Clouds 20 1003 63 10000 11.8 230 11:18 11.05.2020
3232 Clouds 20 1003 63 10000 11.8 230 10:54 11.05.2020
3233 Clouds 19 1003 63 10000 10.8 240 10:36 11.05.2020
3234 Clear 19 1003 68 10000 9.3 240 10:18 11.05.2020
3235 Clear 18 1003 72 10000 8.2 240 09:42 11.05.2020
3236 Clouds 17 1003 63 10000 5.1 260 09:22 11.05.2020
3237 Clouds 17 1003 63 10000 5.1 260 08:58 11.05.2020
3238 Clouds 17 1003 63 10000 5.1 260 08:58 11.05.2020
3239 Clouds 16 1002 72 10000 7.2 260 08:38 11.05.2020
3240 Clouds 16 1002 72 10000 7.2 260 08:18 11.05.2020
3241 Clouds 16 1002 77 10000 7.2 260 07:50 11.05.2020
3242 Clouds 15 1002 77 10000 7.2 260 07:31 11.05.2020
3243 Clouds 15 1002 77 10000 6.7 250 06:53 11.05.2020
3244 Clouds 15 1002 77 10000 6.7 240 06:19 11.05.2020
3245 Clouds 15 1002 82 10000 5.1 250 05:30 11.05.2020
3246 Clouds 16 1002 82 10000 6.2 240 04:44 11.05.2020
3247 Clouds 16 1002 77 10000 7.2 250 03:46 11.05.2020
3248 Clouds 16 1002 77 10000 7.2 250 02:35 11.05.2020
3249 Clouds 16 1002 82 10000 5.7 250 01:46 11.05.2020
3250 Rain 15 1002 87 10000 8.7 230 00:54 11.05.2020
3251 Rain 15 1002 87 10000 6.7 240 00:24 11.05.2020
3252 Rain 15 1002 93 10000 5.7 240 23:46 10.05.2020
3253 Rain 15 1002 93 10000 5.7 240 23:27 10.05.2020
3254 Rain 15 1002 87 10000 6.7 240 22:59 10.05.2020
3255 Rain 16 1002 87 10000 6.2 250 22:41 10.05.2020
3256 Rain 16 1002 87 10000 6.2 250 22:23 10.05.2020
3257 Rain 16 1002 87 10000 5.7 250 21:46 10.05.2020
3258 Rain 16 1002 87 10000 6.7 250 21:21 10.05.2020
3259 Rain 16 1002 87 10000 6.7 250 21:21 10.05.2020
3260 Rain 16 1001 93 10000 8.7 250 20:59 10.05.2020
3261 Rain 16 1001 87 10000 11.3 240 20:41 10.05.2020
3262 Clouds 17 1001 87 10000 11.3 240 20:23 10.05.2020
3263 Clouds 18 1001 77 10000 10.8 240 19:54 10.05.2020
3264 Clouds 18 1001 77 10000 13.4 230 19:36 10.05.2020
3265 Clouds 18 1001 77 10000 13.4 230 19:18 10.05.2020
3266 Clouds 18 1001 77 10000 11.8 230 18:54 10.05.2020
3267 Clouds 19 1001 77 10000 8.7 220 18:36 10.05.2020
3268 Clouds 19 1001 77 10000 8.7 220 18:18 10.05.2020
3269 Rain 20 1000 68 10000 3.6 190 17:55 10.05.2020
3270 Rain 19 1000 77 10000 2.6 190 17:36 10.05.2020
3271 Rain 19 1001 82 10000 3.6 200 17:18 10.05.2020
3272 Clouds 19 1001 88 10000 5.1 170 16:41 10.05.2020
3273 Clouds 19 1001 88 10000 5.1 170 16:20 10.05.2020
3274 Clouds 19 1002 77 10000 5.1 180 15:58 10.05.2020
3275 Clouds 19 1002 82 10000 5.1 180 15:36 10.05.2020
3276 Clouds 19 1002 82 10000 5.1 180 15:18 10.05.2020
3277 Rain 19 1003 82 10000 6.2 190 14:55 10.05.2020
3278 Rain 19 1002 77 10000 7.7 160 14:37 10.05.2020
3279 Rain 19 1002 77 10000 7.7 160 14:18 10.05.2020
3280 Rain 19 1003 82 10000 5.1 160 13:55 10.05.2020
3281 Rain 19 1004 82 10000 4.6 160 13:36 10.05.2020
3282 Rain 19 1004 82 10000 4.6 160 13:18 10.05.2020
3283 Clouds 19 1004 93 8000 3.1 140 12:41 10.05.2020
3284 Rain 19 1004 93 8000 3.1 140 12:21 10.05.2020
3285 Rain 19 1005 93 7000 3.1 170 11:58 10.05.2020
3286 Rain 19 1005 93 5000 2.6 150 11:40 10.05.2020
3287 Mist 18 1005 93 5000 2.6 150 11:21 10.05.2020
3288 Rain 18 1004 93 5000 2.1 140 10:54 10.05.2020
3289 Rain 18 1004 93 5000 2.1 140 10:54 10.05.2020
3290 Rain 18 1005 93 5000 2.1 150 10:36 10.05.2020
3291 Rain 18 1005 93 5000 2.1 150 10:18 10.05.2020
3292 Rain 18 1006 100 5000 3.6 140 09:41 10.05.2020
3293 Rain 18 1006 100 5000 3.6 140 09:22 10.05.2020
3294 Rain 18 1005 100 5000 4.1 140 08:55 10.05.2020
3295 Rain 18 1006 93 4000 1.5 150 08:25 10.05.2020
3296 Rain 18 1006 93 7000 2.1 150 07:59 10.05.2020
3297 Rain 18 1006 100 3000 4.1 110 07:38 10.05.2020
3298 Rain 18 1006 100 3000 4.1 110 07:19 10.05.2020
3299 Clouds 18 1006 93 9000 2.87 85 06:50 10.05.2020
3300 Rain 18 1006 100 6000 1.5 100 06:23 10.05.2020
3301 Rain 18 1006 100 6000 2.1 80 05:44 10.05.2020
3302 Clouds 18 1007 93 8000 2.06 77 04:42 10.05.2020
3303 Clouds 18 1007 93 8000 2.25 82 04:23 10.05.2020
3304 Rain 18 1008 93 7000 1 0 03:43 10.05.2020
3305 Rain 18 1009 93 6000 2.6 100 02:55 10.05.2020
3306 Rain 18 1009 93 5000 3.1 70 02:24 10.05.2020
3307 Clouds 18 1009 88 10000 3.6 80 01:57 10.05.2020
3308 Clouds 18 1009 88 10000 3.6 80 01:57 10.05.2020
3309 Clouds 18 1009 88 10000 4.1 70 01:39 10.05.2020
3310 Rain 18 1009 88 10000 3.6 60 01:18 10.05.2020
3311 Rain 18 1010 88 10000 4.6 70 00:42 10.05.2020
3312 Rain 18 1010 88 10000 4.6 70 00:20 10.05.2020
3313 Clouds 18 1010 88 10000 4.1 80 23:40 09.05.2020
3314 Clouds 18 1010 88 10000 4.1 80 23:21 09.05.2020
3315 Clouds 19 1010 88 10000 4.1 70 22:57 09.05.2020
3316 Clouds 19 1010 88 10000 4.1 70 22:57 09.05.2020
3317 Clouds 19 1010 88 10000 4.1 70 22:39 09.05.2020
3318 Clouds 19 1010 88 10000 4.1 70 22:21 09.05.2020
3319 Clouds 19 1010 88 10000 4.6 70 21:56 09.05.2020
3320 Clouds 19 1010 88 10000 4.6 60 21:37 09.05.2020
3321 Clouds 19 1010 88 10000 4.6 60 21:19 09.05.2020
3322 Clouds 19 1010 82 10000 5.7 60 20:56 09.05.2020
3323 Clouds 19 1010 82 10000 5.1 60 20:37 09.05.2020
3324 Clouds 19 1010 82 10000 5.1 60 20:18 09.05.2020
3325 Clouds 19 1010 88 10000 6.2 60 19:40 09.05.2020
3326 Clouds 19 1010 88 10000 6.2 60 19:20 09.05.2020
3327 Clouds 20 1010 77 10000 6.7 70 18:58 09.05.2020
3328 Clouds 20 1011 77 10000 5.1 70 18:40 09.05.2020
3329 Clouds 20 1011 77 10000 5.1 70 18:19 09.05.2020
3330 Clouds 20 1011 77 10000 4.1 80 17:44 09.05.2020
3331 Clouds 20 1011 77 10000 4.1 70 17:23 09.05.2020
3332 Clouds 20 1011 77 10000 5.1 60 16:55 09.05.2020
3333 Clouds 20 1012 77 10000 5.1 60 16:37 09.05.2020
3334 Clouds 19 1012 77 10000 5.1 60 16:18 09.05.2020
3335 Clouds 19 1012 77 10000 5.1 60 16:18 09.05.2020
3336 Clouds 19 1012 82 10000 4.6 50 15:40 09.05.2020
3337 Rain 19 1012 82 10000 4.6 50 15:21 09.05.2020
3338 Rain 19 1012 88 10000 7.2 70 14:43 09.05.2020
3339 Rain 19 1012 88 10000 7.2 70 14:20 09.05.2020
3340 Clouds 19 1013 82 10000 5.7 70 13:59 09.05.2020
3341 Clouds 19 1013 82 10000 5.7 70 13:41 09.05.2020
3342 Clouds 19 1013 82 10000 5.7 70 13:21 09.05.2020
3343 Clouds 19 1013 82 10000 5.7 60 12:58 09.05.2020
3344 Drizzle 19 1014 82 9000 5.7 60 12:39 09.05.2020
3345 Drizzle 19 1014 82 9000 5.7 60 12:39 09.05.2020
3346 Clouds 19 1013 72 10000 6.7 60 12:21 09.05.2020
3347 Clouds 19 1013 72 10000 5.7 60 11:44 09.05.2020
3348 Clouds 19 1013 72 10000 5.1 50 11:20 09.05.2020
3349 Clouds 20 1013 72 10000 5.1 50 10:48 09.05.2020
3350 Clouds 19 1013 68 10000 3.6 40 10:27 09.05.2020
3351 Clouds 18 1013 72 10000 3.1 350 09:59 09.05.2020
3352 Clouds 18 1013 72 10000 3.6 330 09:41 09.05.2020
3353 Clouds 18 1013 72 10000 3.6 330 09:20 09.05.2020
3354 Clouds 17 1013 72 10000 3.6 310 08:52 09.05.2020
3355 Clouds 17 1013 72 10000 3.6 320 08:34 09.05.2020
3356 Clouds 16 1013 72 10000 4.1 340 07:56 09.05.2020
3357 Clouds 17 1013 77 10000 3.6 330 07:38 09.05.2020
3358 Clouds 17 1013 77 10000 3.6 330 07:20 09.05.2020
3359 Clouds 18 1013 77 10000 2.6 40 06:27 09.05.2020
3360 Clouds 17 1013 77 10000 1.5 330 05:50 09.05.2020
3361 Clouds 18 1014 82 10000 2.1 330 05:19 09.05.2020
3362 Clouds 18 1015 72 10000 3.1 70 03:39 09.05.2020
3363 Clouds 18 1015 77 10000 4.1 70 02:53 09.05.2020
3364 Clouds 18 1015 82 10000 3.6 80 02:30 09.05.2020
3365 Clouds 18 1016 77 10000 3.1 70 01:49 09.05.2020
3366 Clouds 18 1015 77 10000 3.1 50 01:21 09.05.2020
3367 Clouds 18 1016 82 10000 2.6 80 00:42 09.05.2020
3368 Clouds 18 1016 82 10000 2.6 80 00:18 09.05.2020
3369 Clouds 18 1016 82 10000 2.1 70 23:43 08.05.2020
3370 Clouds 19 1016 82 10000 2.1 70 23:25 08.05.2020
3371 Clouds 19 1016 82 10000 2.6 80 22:56 08.05.2020
3372 Clouds 19 1016 88 10000 2.1 90 22:37 08.05.2020
3373 Clouds 19 1016 88 10000 2.1 90 22:19 08.05.2020
3374 Clouds 19 1016 88 10000 2.1 90 21:54 08.05.2020
3375 Clouds 19 1015 82 10000 4.1 80 21:36 08.05.2020
3376 Clouds 19 1015 82 10000 4.1 80 21:18 08.05.2020
3377 Clouds 20 1015 77 10000 4.6 60 20:55 08.05.2020
3378 Clouds 20 1015 77 10000 5.1 60 20:37 08.05.2020
3379 Clouds 20 1015 77 10000 5.1 60 20:19 08.05.2020
3380 Clouds 21 1015 73 10000 6.7 60 19:42 08.05.2020
3381 Clouds 21 1015 73 10000 6.7 60 19:21 08.05.2020
3382 Clouds 21 1015 73 10000 6.7 60 19:21 08.05.2020
3383 Clouds 22 1016 68 10000 4.6 80 18:46 08.05.2020
3384 Clouds 22 1016 68 10000 4.6 80 18:46 08.05.2020
3385 Clouds 22 1016 68 10000 4.6 80 18:28 08.05.2020
3386 Clouds 23 1016 60 10000 5.1 90 17:43 08.05.2020
3387 Clouds 23 1016 60 10000 5.1 90 17:20 08.05.2020
3388 Clouds 23 1017 49 10000 4.6 90 16:57 08.05.2020
3389 Clouds 23 1017 53 10000 4.6 80 16:39 08.05.2020
3390 Clouds 23 1017 49 10000 5.1 80 16:21 08.05.2020
3391 Clouds 23 1017 53 10000 5.1 60 15:44 08.05.2020
3392 Clouds 23 1017 53 10000 5.1 60 15:22 08.05.2020
3393 Clouds 23 1017 53 10000 4.6 60 14:58 08.05.2020
3394 Clouds 23 1018 56 10000 3.6 70 14:40 08.05.2020
3395 Clouds 23 1018 56 10000 3.6 70 14:20 08.05.2020
3396 Clouds 24 1018 56 10000 4.1 70 13:57 08.05.2020
3397 Clouds 24 1018 56 10000 3.1 70 13:39 08.05.2020
3398 Clear 23 1018 56 10000 3.1 70 13:18 08.05.2020
3399 Clear 23 1018 60 10000 4.6 80 12:45 08.05.2020
3400 Clear 23 1018 56 10000 3.6 80 12:23 08.05.2020
3401 Clear 23 1018 60 10000 3.6 70 11:55 08.05.2020
3402 Clear 23 1018 60 10000 3.6 80 11:36 08.05.2020
3403 Clear 22 1018 60 10000 3.1 60 11:18 08.05.2020
3404 Clear 21 1018 64 10000 4.1 60 10:43 08.05.2020
3405 Clear 21 1018 64 10000 4.1 60 10:21 08.05.2020
3406 Clear 20 1018 68 10000 4.6 50 09:59 08.05.2020
3407 Clear 20 1018 77 10000 2.1 350 09:40 08.05.2020
3408 Clouds 19 1018 77 10000 2.1 350 09:19 08.05.2020
3409 Clouds 18 1018 77 10000 3.1 340 08:50 08.05.2020
3410 Clouds 18 1018 82 10000 3.1 350 08:24 08.05.2020
3411 Clouds 17 1018 87 10000 2.6 340 07:46 08.05.2020
3412 Clouds 17 1018 87 10000 2.6 340 07:25 08.05.2020
3413 Clouds 17 1018 87 10000 2.6 10 06:53 08.05.2020
3414 Clouds 17 1018 87 10000 2.6 30 06:25 08.05.2020
3415 Clouds 17 1018 87 10000 2.1 20 05:59 08.05.2020
3416 Clouds 18 1019 82 10000 2.1 30 05:24 08.05.2020
3417 Clouds 18 1019 77 10000 3.1 30 02:59 08.05.2020
3418 Clouds 18 1019 82 10000 3.1 30 02:24 08.05.2020
3419 Clouds 18 1019 77 10000 4.6 40 01:39 08.05.2020
3420 Clouds 18 1019 77 10000 4.6 40 01:20 08.05.2020
3421 Clouds 18 1020 77 10000 4.6 60 00:47 08.05.2020
3422 Clouds 19 1020 77 10000 4.6 60 00:25 08.05.2020
3423 Clouds 19 1020 77 10000 3.6 70 23:46 07.05.2020
3424 Clouds 19 1020 77 10000 4.6 60 23:24 07.05.2020
3425 Clouds 19 1020 77 10000 5.7 70 22:59 07.05.2020
3426 Clouds 19 1019 82 10000 4.6 60 22:41 07.05.2020
3427 Clouds 19 1019 82 10000 4.6 60 22:20 07.05.2020
3428 Clouds 19 1019 82 10000 5.1 70 21:57 07.05.2020
3429 Clouds 19 1019 82 10000 5.7 70 21:38 07.05.2020
3430 Clouds 19 1019 82 10000 5.7 70 21:38 07.05.2020
3431 Clouds 19 1019 82 10000 5.7 70 21:20 07.05.2020
3432 Clouds 19 1019 82 10000 6.2 60 21:20 07.05.2020
3433 Clouds 19 1019 82 10000 6.2 60 20:57 07.05.2020
3434 Clouds 19 1018 77 10000 6.7 60 20:37 07.05.2020
3435 Clouds 19 1018 77 10000 6.7 60 20:19 07.05.2020
3436 Clouds 20 1018 72 10000 6.7 60 19:46 07.05.2020
3437 Clouds 20 1018 72 10000 6.7 60 19:22 07.05.2020
3438 Clouds 21 1019 64 10000 5.1 60 18:55 07.05.2020
3439 Clouds 21 1019 64 10000 5.1 70 18:36 07.05.2020
3440 Clouds 21 1019 64 10000 5.1 70 18:36 07.05.2020
3441 Clouds 22 1019 60 10000 5.1 70 18:18 07.05.2020
3442 Clouds 22 1019 64 10000 5.7 70 17:41 07.05.2020
3443 Clouds 22 1019 64 10000 5.7 70 17:20 07.05.2020
3444 Clouds 22 1019 68 10000 5.1 70 16:43 07.05.2020
3445 Clouds 22 1019 68 10000 5.1 80 16:19 07.05.2020
3446 Clouds 23 1020 56 10000 4.6 100 15:57 07.05.2020
3447 Clouds 23 1020 53 10000 4.1 90 15:38 07.05.2020
3448 Clouds 24 1020 53 10000 5.1 100 15:18 07.05.2020
3449 Clouds 23 1020 53 10000 5.1 100 14:55 07.05.2020
3450 Clouds 24 1020 49 10000 4.6 80 14:37 07.05.2020
3451 Clouds 24 1020 49 10000 4.6 80 14:18 07.05.2020
3452 Clouds 23 1020 56 10000 5.1 100 13:41 07.05.2020
3453 Clouds 24 1020 56 10000 5.1 100 13:22 07.05.2020
3454 Clouds 24 1020 46 10000 4.6 80 12:42 07.05.2020
3455 Clouds 23 1020 46 10000 4.6 80 12:20 07.05.2020
3456 Clouds 23 1019 43 10000 5.7 70 11:40 07.05.2020
3457 Clouds 23 1019 43 10000 5.7 70 11:22 07.05.2020
3458 Clouds 22 1019 46 10000 4.6 60 10:58 07.05.2020
3459 Clouds 22 1019 53 10000 4.6 60 10:40 07.05.2020
3460 Clouds 22 1019 56 10000 3.6 60 10:20 07.05.2020
3461 Clouds 21 1019 64 10000 4.1 50 09:40 07.05.2020
3462 Clouds 20 1019 68 10000 3.1 40 09:20 07.05.2020
3463 Clouds 20 1019 68 10000 3.1 40 08:56 07.05.2020
3464 Clouds 20 1019 68 10000 2.6 340 08:37 07.05.2020
3465 Clouds 19 1019 68 10000 2.6 340 08:18 07.05.2020
3466 Clouds 18 1019 77 10000 3.1 330 07:41 07.05.2020
3467 Clouds 19 1018 77 10000 3.1 340 07:21 07.05.2020
3468 Clouds 19 1018 72 10000 3.1 320 06:39 07.05.2020
3469 Clouds 19 1018 72 10000 3.1 320 06:21 07.05.2020
3470 Clouds 19 1018 77 10000 5.7 320 05:25 07.05.2020
3471 Clouds 19 1018 77 10000 2.6 320 03:50 07.05.2020
3472 Clouds 19 1018 77 10000 2.6 320 03:21 07.05.2020
3473 Clouds 19 1019 72 10000 2.6 310 02:41 07.05.2020
3474 Clouds 20 1019 68 10000 2.1 320 01:41 07.05.2020
3475 Clouds 20 1019 68 10000 2.1 320 01:23 07.05.2020
3476 Clouds 20 1019 72 10000 1.5 310 00:44 07.05.2020
3477 Clouds 20 1018 72 10000 1.5 320 00:25 07.05.2020
3478 Clouds 20 1018 77 10000 1 0 23:46 06.05.2020
3479 Clouds 20 1018 77 10000 1 0 23:24 06.05.2020
3480 Clouds 20 1018 77 10000 1 240 22:57 06.05.2020
3481 Clouds 20 1017 77 10000 1 0 22:39 06.05.2020
3482 Clouds 21 1017 77 10000 1 0 22:19 06.05.2020
3483 Clouds 21 1017 72 10000 3.1 240 21:56 06.05.2020
3484 Clouds 21 1017 77 10000 2.6 220 21:38 06.05.2020
3485 Clouds 21 1017 77 10000 2.6 220 21:38 06.05.2020
3486 Clouds 22 1017 56 10000 1 0 21:19 06.05.2020
3487 Clouds 22 1016 73 10000 4.1 210 20:42 06.05.2020
3488 Clouds 22 1016 73 10000 4.1 210 20:23 06.05.2020
3489 Clouds 23 1016 64 10000 3.1 200 19:58 06.05.2020
3490 Clouds 23 1016 64 10000 4.6 210 19:39 06.05.2020
3491 Clouds 24 1017 65 0 3.03 185 19:20 06.05.2020
3492 Clouds 24 1016 60 10000 4.6 200 18:59 06.05.2020
3493 Clouds 24 1016 60 10000 6.2 220 18:39 06.05.2020
3494 Clouds 24 1016 56 10000 6.2 210 18:21 06.05.2020
3495 Clouds 24 1016 56 10000 6.2 210 17:59 06.05.2020
3496 Clouds 24 1016 57 10000 6.2 210 17:39 06.05.2020
3497 Clouds 25 1016 53 10000 4.6 200 17:21 06.05.2020
3498 Clouds 25 1016 53 10000 4.6 200 16:58 06.05.2020
3499 Clouds 25 1016 53 10000 5.1 200 16:40 06.05.2020
3500 Clouds 25 1016 53 10000 5.1 200 16:21 06.05.2020
3501 Clouds 25 1016 53 10000 4.6 200 15:58 06.05.2020
3502 Clouds 25 1017 57 10000 4.6 210 15:40 06.05.2020
3503 Clouds 25 1017 57 10000 4.6 210 15:21 06.05.2020
3504 Clouds 26 1017 56 10000 4.6 200 14:55 06.05.2020
3505 Clouds 26 1017 56 10000 4.6 200 14:36 06.05.2020
3506 Clear 26 1016 42 10000 3.6 180 14:18 06.05.2020
3507 Clear 26 1017 47 10000 2.1 170 13:43 06.05.2020
3508 Clear 25 1017 47 10000 2.1 170 13:24 06.05.2020
3509 Clear 25 1017 47 10000 2.6 200 12:56 06.05.2020
3510 Clear 25 1017 50 10000 1 0 12:37 06.05.2020
3511 Clear 24 1017 53 10000 2.1 150 12:19 06.05.2020
3512 Clear 24 1017 50 10000 2.6 160 11:40 06.05.2020
3513 Clear 24 1017 50 10000 2.6 160 11:21 06.05.2020
3514 Clear 24 1017 56 10000 1 0 10:57 06.05.2020
3515 Clear 23 1017 60 10000 1.5 110 10:38 06.05.2020
3516 Clear 23 1017 60 10000 1.5 110 10:19 06.05.2020
3517 Clear 22 1016 68 10000 1.5 310 09:44 06.05.2020
3518 Clear 20 1016 72 10000 2.6 350 09:23 06.05.2020
3519 Clouds 19 1015 77 10000 5.7 320 08:49 06.05.2020
3520 Clouds 19 1015 77 10000 5.7 320 08:23 06.05.2020
3521 Clouds 18 1015 82 10000 4.6 320 07:59 06.05.2020
3522 Clouds 18 1015 82 10000 5.1 320 07:39 06.05.2020
3523 Clouds 18 1015 87 10000 5.1 320 07:20 06.05.2020
3524 Clouds 18 1015 87 10000 5.1 320 06:53 06.05.2020
3525 Clouds 18 1014 82 10000 4.6 330 06:22 06.05.2020
3526 Clouds 18 1014 82 10000 4.6 320 05:55 06.05.2020
3527 Clouds 18 1014 87 10000 4.6 300 05:37 06.05.2020
3528 Clouds 18 1014 87 10000 4.6 300 05:37 06.05.2020
3529 Clouds 18 1014 88 10000 4.6 330 04:38 06.05.2020
3530 Clouds 18 1014 82 10000 2.6 330 03:42 06.05.2020
3531 Clouds 19 1014 82 10000 2.6 330 03:20 06.05.2020
3532 Clouds 18 1015 82 10000 3.6 330 02:30 06.05.2020
3533 Clouds 18 1015 82 10000 2.6 330 01:54 06.05.2020
3534 Clouds 18 1015 88 10000 2.1 290 01:32 06.05.2020
3535 Clouds 18 1015 82 10000 0.9 56 00:54 06.05.2020
3536 Clouds 19 1015 82 10000 1.28 67 00:27 06.05.2020
3537 Clouds 19 1015 82 10000 1.28 67 23:56 05.05.2020
3538 Clouds 19 1015 82 10000 0.5 0 23:37 05.05.2020
3539 Clouds 19 1015 82 10000 0.5 0 23:18 05.05.2020
3540 Clouds 19 1015 82 10000 1.5 70 22:41 05.05.2020
3541 Clouds 19 1015 82 10000 1.5 70 22:20 05.05.2020
3542 Clouds 19 1014 82 10000 1 0 21:58 05.05.2020
3543 Clouds 20 1014 82 10000 1.5 100 21:39 05.05.2020
3544 Clouds 20 1014 82 10000 1.5 100 21:20 05.05.2020
3545 Clouds 20 1014 82 10000 1.5 80 20:58 05.05.2020
3546 Clouds 20 1014 82 10000 2.1 80 20:39 05.05.2020
3547 Clouds 20 1014 88 10000 3.1 80 20:18 05.05.2020
3548 Clouds 20 1014 88 10000 3.1 80 19:54 05.05.2020
3549 Clouds 21 1014 77 10000 2.6 100 19:36 05.05.2020
3550 Clouds 21 1014 77 10000 2.6 100 19:18 05.05.2020
3551 Clouds 21 1014 73 10000 3.1 60 19:18 05.05.2020
3552 Clouds 21 1014 77 10000 3.6 80 18:42 05.05.2020
3553 Clouds 21 1014 77 10000 3.6 80 18:20 05.05.2020
3554 Clouds 21 1014 77 10000 2.6 80 17:59 05.05.2020
3555 Clouds 21 1014 77 10000 3.6 60 17:41 05.05.2020
3556 Clouds 21 1014 77 10000 3.6 60 17:23 05.05.2020
3557 Clouds 21 1015 77 10000 3.1 60 16:56 05.05.2020
3558 Clouds 20 1014 77 10000 4.1 90 16:36 05.05.2020
3559 Clouds 20 1014 77 10000 4.1 90 16:18 05.05.2020
3560 Clouds 20 1014 77 10000 4.1 90 16:18 05.05.2020
3561 Clouds 20 1014 77 10000 4.1 90 16:18 05.05.2020
3562 Clouds 21 1014 77 10000 6.2 60 15:41 05.05.2020
3563 Clouds 21 1014 77 10000 6.2 60 15:22 05.05.2020
3564 Clouds 21 1015 77 10000 3.1 80 14:58 05.05.2020
3565 Clouds 23 1014 77 10000 3.1 110 14:39 05.05.2020
3566 Clouds 22 1014 77 10000 3.1 110 14:21 05.05.2020
3567 Clouds 24 1014 78 10000 2.1 170 13:58 05.05.2020
3568 Clouds 24 1014 77 10000 3.6 200 13:39 05.05.2020
3569 Clouds 25 1014 44 10000 1.5 180 13:21 05.05.2020
3570 Clouds 25 1015 47 10000 2.6 240 12:58 05.05.2020
3571 Clouds 25 1014 44 10000 2.1 210 12:39 05.05.2020
3572 Clouds 25 1014 47 10000 1.5 190 12:20 05.05.2020
3573 Clouds 25 1014 47 10000 1.5 190 11:55 05.05.2020
3574 Clouds 24 1014 50 10000 0.5 160 11:36 05.05.2020
3575 Clouds 24 1014 50 10000 0.5 160 11:18 05.05.2020
3576 Clouds 23 1014 64 10000 1.5 310 10:39 05.05.2020
3577 Clouds 23 1014 64 10000 1.5 310 10:39 05.05.2020
3578 Clouds 22 1014 68 10000 2.1 310 10:19 05.05.2020
3579 Clouds 21 1014 68 10000 2.1 310 09:59 05.05.2020
3580 Clouds 21 1014 68 10000 2.1 310 09:59 05.05.2020
3581 Clouds 20 1014 72 10000 1.5 310 09:40 05.05.2020
3582 Clouds 20 1014 72 10000 1.5 310 09:40 05.05.2020
3583 Clouds 19 1014 72 10000 1.5 310 09:22 05.05.2020
3584 Clouds 19 1013 77 10000 3.1 320 08:42 05.05.2020
3585 Clouds 19 1013 77 10000 3.1 320 08:21 05.05.2020
3586 Clouds 18 1013 77 10000 3.6 310 07:58 05.05.2020
3587 Clouds 18 1012 72 10000 2.1 330 07:39 05.05.2020
3588 Clouds 18 1012 72 10000 2.1 330 07:19 05.05.2020
3589 Clouds 18 1013 77 10000 3.6 320 06:49 05.05.2020
3590 Clouds 18 1013 77 10000 3.6 300 06:23 05.05.2020
3591 Clouds 18 1013 72 10000 1 0 05:39 05.05.2020
3592 Clouds 19 1014 68 10000 2.36 253 03:36 05.05.2020
3593 Clouds 20 1015 82 10000 2.1 220 01:51 05.05.2020
3594 Clouds 20 1015 82 10000 2.1 240 00:54 05.05.2020
3595 Clouds 20 1015 88 10000 1.5 240 00:22 05.05.2020
3596 Clouds 20 1014 88 10000 2.6 230 23:46 04.05.2020
3597 Clouds 21 1015 82 10000 2.6 220 23:23 04.05.2020
3598 Clouds 21 1015 88 10000 2.6 230 22:56 04.05.2020
3599 Clouds 21 1015 82 10000 2.6 220 22:38 04.05.2020
3600 Clouds 21 1015 82 10000 2.6 220 22:19 04.05.2020
3601 Clouds 21 1014 88 10000 1 0 21:54 04.05.2020
3602 Clear 21 1014 82 10000 2.6 190 21:35 04.05.2020
3603 Clear 21 1015 77 10000 3.1 210 20:58 04.05.2020
3604 Clear 21 1015 77 10000 3.1 210 20:58 04.05.2020
3605 Clear 21 1015 77 10000 3.1 210 20:58 04.05.2020
3606 Clear 22 1015 77 10000 4.1 220 20:38 04.05.2020
3607 Clear 22 1015 77 10000 4.1 220 20:38 04.05.2020
3608 Clear 22 1015 73 10000 4.1 210 20:18 04.05.2020
3609 Clear 23 1015 73 10000 4.6 200 19:43 04.05.2020
3610 Clear 23 1015 73 10000 4.6 200 19:22 04.05.2020
3611 Clear 24 1014 34 10000 4.1 170 18:58 04.05.2020
3612 Clear 25 1015 68 10000 4.6 190 18:38 04.05.2020
3613 Clear 25 1015 68 10000 4.6 190 18:38 04.05.2020
3614 Clear 25 1015 68 10000 5.1 200 18:19 04.05.2020
3615 Clear 26 1014 30 10000 3.6 210 17:56 04.05.2020
3616 Clear 26 1015 60 10000 4.6 200 17:37 04.05.2020
3617 Clear 26 1015 60 10000 4.6 200 17:18 04.05.2020
3618 Clear 26 1015 39 10000 4.6 170 16:43 04.05.2020
3619 Clear 26 1015 42 10000 3.6 210 16:22 04.05.2020
3620 Clear 26 1015 42 10000 3.6 210 15:55 04.05.2020
3621 Clear 26 1015 42 10000 2.6 220 15:37 04.05.2020
3622 Clear 25 1015 42 10000 2.6 220 15:37 04.05.2020
3623 Clear 25 1016 47 10000 3.1 130 15:18 04.05.2020
3624 Clear 25 1016 50 10000 3.1 100 14:43 04.05.2020
3625 Clear 25 1016 50 10000 3.1 100 14:43 04.05.2020
3626 Clouds 25 1016 54 10000 3.1 100 14:19 04.05.2020
3627 Clouds 24 1016 57 10000 2.6 120 12:50 04.05.2020
3628 Clouds 23 1017 60 10000 3.1 170 12:30 04.05.2020
3629 Clouds 23 1017 60 10000 3.1 170 12:27 04.05.2020
3630 Clouds 23 1017 60 10000 3.1 170 12:27 04.05.2020
3631 Clouds 23 1017 60 10000 3.1 170 12:27 04.05.2020
3632 Clouds 23 1017 60 10000 3.1 170 12:27 04.05.2020
3633 Clouds 22 1017 68 10000 2.6 320 10:36 04.05.2020
3634 Clouds 22 1017 68 10000 2.6 320 10:36 04.05.2020
3635 Clouds 22 1017 68 10000 2.6 320 10:36 04.05.2020
3636 Clouds 22 1017 68 10000 2.6 320 10:36 04.05.2020
3637 Clouds 19 1017 77 10000 3.1 330 09:26 04.05.2020
3638 Clouds 19 1017 77 10000 3.1 330 09:26 04.05.2020
3639 Clouds 19 1017 77 10000 3.1 330 09:26 04.05.2020
3640 Clouds 19 1017 77 10000 3.1 330 09:26 04.05.2020
3641 Clouds 19 1017 77 10000 3.1 330 09:26 04.05.2020
3642 Clouds 17 1017 87 10000 4.6 320 07:52 04.05.2020
3643 Clouds 17 1016 87 10000 3.1 320 07:33 04.05.2020
3644 Clouds 17 1016 87 10000 3.1 320 07:33 04.05.2020
3645 Clouds 17 1016 87 10000 3.1 320 07:33 04.05.2020
3646 Clouds 17 1016 87 10000 3.1 320 07:33 04.05.2020
3647 Clouds 17 1016 87 10000 3.1 320 07:33 04.05.2020
3648 Clouds 17 1016 87 10000 2.1 320 04:59 04.05.2020
3649 Clear 18 1017 87 10000 1 310 03:29 04.05.2020
3650 Clouds 18 1017 88 10000 0.5 0 02:32 04.05.2020
3651 Clear 18 1017 88 10000 0.5 0 02:32 04.05.2020
3652 Clouds 18 1017 88 10000 1.5 30 01:19 04.05.2020
3653 Clouds 19 1018 88 10000 1.5 70 23:57 03.05.2020
3654 Clouds 19 1018 88 10000 1.5 70 23:57 03.05.2020
3655 Clear 19 1018 77 10000 1.5 60 23:39 03.05.2020
3656 Clear 19 1018 77 10000 1.5 60 23:39 03.05.2020
3657 Clear 19 1018 77 10000 1.5 60 23:19 03.05.2020
3658 Clear 19 1018 77 10000 1 0 22:41 03.05.2020
3659 Clear 19 1018 77 10000 1 0 22:41 03.05.2020
3660 Clouds 19 1018 77 10000 1 0 22:22 03.05.2020
3661 Clouds 19 1017 82 10000 1.5 100 21:42 03.05.2020
3662 Clouds 19 1017 82 10000 1.5 100 21:42 03.05.2020
3663 Clouds 19 1017 82 10000 1.5 100 21:42 03.05.2020
3664 Clouds 19 1017 82 10000 1.5 100 21:21 03.05.2020
3665 Clouds 19 1017 82 10000 1.5 100 21:21 03.05.2020
3666 Clouds 20 1017 82 10000 1 0 20:54 03.05.2020
3667 Clouds 20 1017 77 10000 1.5 130 20:36 03.05.2020
3668 Clouds 20 1017 77 10000 1.5 140 20:18 03.05.2020
3669 Clouds 21 1017 73 10000 2.6 130 19:46 03.05.2020
3670 Clouds 21 1017 73 10000 2.6 130 19:26 03.05.2020
3671 Clouds 21 1017 73 10000 2.6 130 19:26 03.05.2020
3672 Clouds 21 1018 68 10000 3.1 130 18:40 03.05.2020
3673 Clouds 21 1018 68 10000 3.1 130 18:21 03.05.2020
3674 Clouds 22 1017 73 10000 3.6 140 17:59 03.05.2020
3675 Clouds 22 1018 68 10000 3.1 130 17:40 03.05.2020
3676 Clouds 22 1018 73 10000 3.6 120 17:20 03.05.2020
3677 Clouds 22 1018 73 10000 3.6 120 17:20 03.05.2020
3678 Clouds 22 1018 73 10000 3.6 120 16:45 03.05.2020
3679 Clouds 22 1018 73 10000 3.6 130 16:19 03.05.2020
3680 Clouds 22 1018 73 10000 3.6 130 16:19 03.05.2020
3681 Clouds 22 1018 64 10000 4.1 140 15:58 03.05.2020
3682 Clouds 23 1019 68 10000 3.6 130 15:39 03.05.2020
3683 Clouds 22 1019 68 10000 3.6 130 15:39 03.05.2020
3684 Clouds 22 1019 68 10000 3.6 130 15:20 03.05.2020
3685 Clouds 23 1019 64 10000 3.6 140 14:57 03.05.2020
3686 Clouds 23 1019 73 10000 4.1 150 14:38 03.05.2020
3687 Clouds 22 1019 73 10000 4.1 110 14:20 03.05.2020
3688 Clouds 23 1019 73 10000 4.1 150 14:20 03.05.2020
3689 Clouds 23 1019 73 10000 3.6 110 13:41 03.05.2020
3690 Clouds 23 1019 73 10000 3.6 110 13:41 03.05.2020
3691 Clouds 23 1019 64 10000 4.1 90 12:59 03.05.2020
3692 Clouds 23 1019 64 10000 4.1 90 12:59 03.05.2020
3693 Clouds 22 1020 64 10000 3.6 110 12:39 03.05.2020
3694 Clouds 22 1019 68 10000 3.6 90 12:18 03.05.2020
3695 Clouds 22 1019 68 10000 3.6 90 11:41 03.05.2020
3696 Clouds 22 1019 68 10000 3.6 90 11:21 03.05.2020
3697 Clouds 22 1019 68 10000 3.1 80 10:59 03.05.2020
3698 Clouds 22 1019 68 10000 2.6 80 10:39 03.05.2020
3699 Clouds 21 1019 68 10000 2.6 80 10:39 03.05.2020
3700 Clouds 21 1019 68 10000 2.6 80 10:39 03.05.2020
3701 Clouds 21 1019 68 10000 2.6 80 10:39 03.05.2020
3702 Clouds 22 1019 68 10000 2.6 80 10:39 03.05.2020
3703 Clouds 21 1019 72 10000 2.1 330 09:48 03.05.2020
3704 Clouds 21 1019 72 10000 2.1 330 09:48 03.05.2020
3705 Clouds 21 1019 72 10000 2.1 330 09:48 03.05.2020
3706 Clouds 21 1019 72 10000 2.1 330 09:48 03.05.2020
3707 Clouds 21 1019 72 10000 1.5 350 09:48 03.05.2020
3708 Clouds 20 1019 72 10000 2.1 330 09:27 03.05.2020
3709 Clouds 20 1019 72 10000 2.1 330 09:27 03.05.2020
3710 Clouds 20 1019 72 10000 2.1 330 09:27 03.05.2020
3711 Clouds 20 1019 72 10000 2.1 330 09:27 03.05.2020
3712 Clouds 18 1018 77 10000 3.1 330 08:37 03.05.2020
3713 Clouds 17 1018 77 10000 3.1 330 08:18 03.05.2020
3714 Clouds 17 1018 77 10000 3.1 330 08:18 03.05.2020
3715 Clouds 18 1018 82 10000 3.1 330 08:18 03.05.2020
3716 Clouds 18 1018 82 10000 3.1 330 08:18 03.05.2020
3717 Clouds 17 1018 82 10000 2.6 330 07:38 03.05.2020
3718 Clouds 17 1017 82 10000 1.5 330 06:18 03.05.2020
3719 Clouds 17 1017 82 10000 2.6 360 05:44 03.05.2020
3720 Clouds 18 1017 82 10000 1.5 50 04:29 03.05.2020
3721 Clouds 17 1017 82 10000 1 0 03:58 03.05.2020
3722 Clouds 18 1018 82 10000 1.5 40 02:47 03.05.2020
3723 Clouds 18 1018 82 10000 1 0 02:22 03.05.2020
3724 Clouds 18 1018 88 10000 2.6 30 01:41 03.05.2020
3725 Clouds 18 1018 88 10000 2.6 30 01:23 03.05.2020
3726 Clouds 18 1018 88 10000 2.6 70 00:40 03.05.2020
3727 Clouds 18 1018 88 10000 2.6 70 00:21 03.05.2020
3728 Clouds 19 1018 88 10000 1.5 80 23:55 02.05.2020
3729 Clouds 19 1017 82 10000 3.1 60 23:37 02.05.2020
3730 Clouds 19 1017 82 10000 3.1 60 23:18 02.05.2020
3731 Clouds 19 1017 82 10000 2.1 80 22:41 02.05.2020
3732 Clouds 19 1017 82 10000 2.1 80 22:22 02.05.2020
3733 Clouds 19 1016 82 10000 2.6 60 21:55 02.05.2020
3734 Clouds 20 1016 82 10000 2.6 60 21:37 02.05.2020
3735 Clouds 20 1016 82 10000 2.6 60 21:18 02.05.2020
3736 Clouds 20 1016 77 10000 3.6 70 20:54 02.05.2020
3737 Clouds 20 1016 77 10000 3.6 70 20:36 02.05.2020
3738 Clouds 20 1016 77 10000 4.1 70 20:18 02.05.2020
3739 Clouds 20 1016 77 10000 4.1 70 19:55 02.05.2020
3740 Clouds 21 1016 68 10000 4.1 70 19:36 02.05.2020
3741 Clouds 21 1016 68 10000 4.1 70 19:18 02.05.2020
3742 Clouds 21 1016 64 10000 3.1 100 18:40 02.05.2020
3743 Clouds 22 1016 64 10000 3.1 100 18:22 02.05.2020
3744 Clouds 22 1016 68 10000 3.6 90 17:57 02.05.2020
3745 Clouds 22 1016 64 10000 5.1 70 17:39 02.05.2020
3746 Clouds 22 1016 64 10000 3.1 90 17:20 02.05.2020
3747 Clouds 23 1016 64 10000 3.1 90 16:57 02.05.2020
3748 Clouds 23 1016 64 10000 4.1 90 16:39 02.05.2020
3749 Clouds 23 1016 64 10000 4.1 90 16:20 02.05.2020
3750 Clouds 23 1016 64 10000 3.1 110 15:42 02.05.2020
3751 Clouds 24 1016 64 10000 3.1 110 15:20 02.05.2020
3752 Clouds 25 1016 47 10000 5.7 120 14:46 02.05.2020
3753 Clouds 24 1016 56 10000 3.6 150 14:28 02.05.2020
3754 Clouds 24 1017 56 10000 3.6 140 13:59 02.05.2020
3755 Clouds 23 1017 60 10000 3.1 120 13:40 02.05.2020
3756 Clouds 23 1017 60 10000 3.1 120 13:20 02.05.2020
3757 Clouds 24 1017 50 10000 1.5 210 12:43 02.05.2020
3758 Clouds 23 1017 50 10000 1.5 210 12:24 02.05.2020
3759 Clouds 23 1017 53 10000 2.1 160 11:58 02.05.2020
3760 Clouds 23 1017 60 10000 4.1 70 11:39 02.05.2020
3761 Clouds 22 1017 60 10000 4.1 70 11:21 02.05.2020
3762 Clouds 21 1017 72 10000 3.6 90 10:56 02.05.2020
3763 Clouds 21 1017 64 10000 3.1 110 10:38 02.05.2020
3764 Clouds 21 1017 68 10000 5.1 90 10:20 02.05.2020
3765 Clouds 20 1016 60 10000 3.6 330 09:55 02.05.2020
3766 Clouds 20 1016 60 10000 3.6 330 09:36 02.05.2020
3767 Clouds 19 1016 60 10000 3.6 330 09:18 02.05.2020
3768 Clouds 18 1016 64 10000 4.6 310 08:45 02.05.2020
3769 Clouds 18 1016 72 10000 1.5 200 08:25 02.05.2020
3770 Clouds 18 1015 72 10000 1.5 310 07:47 02.05.2020
3771 Clouds 18 1015 72 10000 1.5 310 07:28 02.05.2020
3772 Clouds 18 1015 77 10000 2.6 280 06:50 02.05.2020
3773 Clouds 18 1015 72 10000 1 0 05:29 02.05.2020
3774 Clouds 18 1015 72 10000 1 0 04:47 02.05.2020
3775 Clouds 18 1015 72 10000 1 350 04:23 02.05.2020
3776 Clouds 18 1016 72 10000 1 0 02:44 02.05.2020
3777 Clouds 19 1016 68 10000 3.1 30 02:23 02.05.2020
3778 Clouds 19 1016 68 10000 3.1 50 01:48 02.05.2020
3779 Clouds 19 1015 72 10000 3.1 90 00:46 02.05.2020
3780 Clouds 20 1015 72 10000 3.1 90 00:25 02.05.2020
3781 Clouds 20 1015 68 10000 2.6 90 23:58 01.05.2020
3782 Clouds 21 1014 68 10000 1 0 23:39 01.05.2020
3783 Clouds 21 1014 72 10000 3.6 260 23:20 01.05.2020
3784 Clouds 22 1014 53 10000 2.6 230 22:55 01.05.2020
3785 Clouds 22 1014 53 10000 2.6 230 22:55 01.05.2020
3786 Clouds 22 1014 68 10000 4.1 240 22:37 01.05.2020
3787 Clouds 22 1014 68 10000 4.1 240 22:18 01.05.2020
3788 Clouds 22 1013 64 10000 6.2 240 21:55 01.05.2020
3789 Clouds 23 1013 64 10000 6.7 240 21:36 01.05.2020
3790 Clouds 23 1013 64 10000 9.3 230 21:18 01.05.2020
3791 Clouds 23 1013 64 10000 9.3 230 20:54 01.05.2020
3792 Clouds 24 1012 44 10000 5.7 250 20:36 01.05.2020
3793 Clouds 24 1012 60 10000 9.8 240 20:18 01.05.2020
3794 Clouds 25 1012 44 10000 6.2 250 19:41 01.05.2020
3795 Clouds 26 1012 44 10000 12.3 240 19:22 01.05.2020
3796 Clouds 26 1012 44 10000 12.3 240 18:57 01.05.2020
3797 Clouds 27 1012 39 10000 7.7 260 18:38 01.05.2020
3798 Clouds 26 1012 44 10000 10.8 240 18:19 01.05.2020
3799 Clouds 27 1012 44 10000 10.8 240 17:56 01.05.2020
3800 Clouds 26 1012 47 10000 9.8 250 17:38 01.05.2020
3801 Clouds 26 1012 41 10000 10.3 230 17:20 01.05.2020
3802 Clouds 26 1012 39 10000 7.7 260 16:55 01.05.2020
3803 Clouds 27 1013 41 10000 8.7 250 16:37 01.05.2020
3804 Clouds 26 1013 41 10000 8.7 250 16:18 01.05.2020
3805 Clouds 26 1013 41 10000 9.3 250 15:42 01.05.2020
3806 Clouds 26 1013 41 10000 9.3 250 15:24 01.05.2020
3807 Clouds 26 1013 41 10000 7.7 240 14:58 01.05.2020
3808 Clouds 26 1013 41 10000 7.7 240 14:39 01.05.2020
3809 Clouds 25 1013 41 10000 7.7 240 14:21 01.05.2020
3810 Clouds 25 1013 47 10000 8.7 250 13:41 01.05.2020
3811 Clouds 24 1013 47 10000 8.7 250 13:22 01.05.2020
3812 Clouds 24 1014 53 10000 11.3 230 12:58 01.05.2020
3813 Clouds 24 1014 53 10000 9.8 240 12:39 01.05.2020
3814 Clouds 23 1014 53 10000 9.8 240 12:19 01.05.2020
3815 Clouds 23 1014 56 10000 8.2 210 11:57 01.05.2020
3816 Clouds 23 1014 49 10000 5.7 270 11:39 01.05.2020
3817 Clouds 22 1014 49 10000 5.7 270 11:19 01.05.2020
3818 Clouds 21 1014 52 10000 3.6 280 10:41 01.05.2020
3819 Clouds 21 1014 52 10000 3.6 280 10:20 01.05.2020
3820 Clouds 20 1014 52 10000 2.6 310 09:55 01.05.2020
3821 Clouds 20 1014 52 10000 3.6 290 09:37 01.05.2020
3822 Clouds 19 1014 52 10000 3.6 290 09:18 01.05.2020
3823 Clouds 18 1014 55 10000 2.1 320 08:42 01.05.2020
3824 Clouds 18 1014 55 10000 2.1 320 08:24 01.05.2020
3825 Clouds 17 1014 59 10000 3.6 260 07:47 01.05.2020
3826 Clouds 17 1014 59 10000 3.6 260 07:23 01.05.2020
3827 Clouds 17 1013 55 10000 2.6 260 06:57 01.05.2020
3828 Clouds 17 1013 52 10000 6.7 260 05:41 01.05.2020
3829 Clouds 17 1013 52 10000 6.7 260 05:19 01.05.2020
3830 Clouds 17 1014 77 10000 1.5 280 03:41 01.05.2020
3831 Clouds 16 1014 82 10000 2.1 290 02:49 01.05.2020
3832 Clouds 16 1014 76 10000 1.5 300 02:30 01.05.2020
3833 Clouds 17 1015 77 10000 1 320 01:42 01.05.2020
3834 Clouds 17 1015 77 10000 1 320 01:24 01.05.2020
3835 Clouds 17 1014 72 10000 3.6 50 00:39 01.05.2020
3836 Clouds 18 1014 72 10000 3.6 50 00:20 01.05.2020
3837 Clouds 18 1014 72 10000 3.6 50 23:57 30.04.2020
3838 Clouds 18 1014 72 10000 4.1 50 23:38 30.04.2020
3839 Clouds 18 1014 72 10000 4.1 50 23:19 30.04.2020
3840 Clouds 18 1014 63 10000 4.6 40 22:42 30.04.2020
3841 Clouds 18 1014 63 10000 4.6 40 22:21 30.04.2020
3842 Clouds 18 1014 63 10000 5.1 40 21:58 30.04.2020
3843 Clouds 19 1013 59 10000 2.6 40 21:40 30.04.2020
3844 Clouds 19 1013 59 10000 2.6 40 21:21 30.04.2020
3845 Clear 20 1013 68 10000 5.1 220 20:57 30.04.2020
3846 Clear 21 1012 52 10000 5.1 240 20:39 30.04.2020
3847 Clouds 22 1012 52 10000 5.1 240 20:18 30.04.2020
3848 Clouds 22 1012 52 10000 5.1 240 20:18 30.04.2020
3849 Clouds 22 1012 56 10000 9.8 240 19:45 30.04.2020
3850 Clouds 23 1012 56 10000 9.8 240 19:26 30.04.2020
3851 Clouds 23 1012 52 10000 9.8 230 18:57 30.04.2020
3852 Clouds 24 1011 29 10000 9.8 260 18:39 30.04.2020
3853 Clouds 24 1011 29 10000 9.8 260 18:21 30.04.2020
3854 Clouds 24 1011 33 10000 10.8 260 17:57 30.04.2020
3855 Clouds 24 1011 33 10000 8.7 270 17:39 30.04.2020
3856 Clouds 24 1011 33 10000 8.7 270 17:39 30.04.2020
3857 Clouds 24 1011 33 10000 8.7 270 17:20 30.04.2020
3858 Clouds 23 1011 35 10000 11.3 280 16:56 30.04.2020
3859 Clouds 23 1011 33 10000 11.3 270 16:38 30.04.2020
3860 Clouds 23 1011 33 10000 11.3 270 16:18 30.04.2020
3861 Clouds 23 1011 31 10000 7.2 270 15:45 30.04.2020
3862 Clouds 23 1011 31 10000 7.2 270 15:24 30.04.2020
3863 Clouds 23 1011 46 10000 10.3 240 14:56 30.04.2020
3864 Clouds 23 1011 43 10000 9.3 220 14:38 30.04.2020
3865 Clouds 23 1011 53 10000 10.8 230 14:18 30.04.2020
3866 Clouds 23 1011 53 10000 10.8 230 13:54 30.04.2020
3867 Clouds 22 1012 53 10000 9.8 220 13:36 30.04.2020
3868 Clouds 22 1012 53 10000 9.8 220 13:18 30.04.2020
3869 Clouds 22 1012 46 10000 8.7 240 12:41 30.04.2020
3870 Clouds 22 1012 46 10000 8.7 240 12:19 30.04.2020
3871 Clouds 21 1012 49 10000 7.7 260 11:57 30.04.2020
3872 Clouds 21 1012 52 10000 5.7 250 11:36 30.04.2020
3873 Clouds 20 1012 52 10000 5.7 250 11:18 30.04.2020
3874 Clouds 19 1012 68 10000 4.1 240 10:41 30.04.2020
3875 Clouds 19 1012 68 10000 4.1 240 10:21 30.04.2020
3876 Clouds 19 1012 59 10000 6.2 260 09:57 30.04.2020
3877 Clouds 18 1012 55 10000 3.1 260 09:39 30.04.2020
3878 Clouds 18 1012 55 10000 3.1 260 09:20 30.04.2020
3879 Clouds 18 1012 63 10000 1.5 110 08:46 30.04.2020
3880 Clouds 17 1012 63 10000 1.5 110 08:26 30.04.2020
3881 Clouds 16 1011 72 10000 2.1 330 07:45 30.04.2020
3882 Clouds 16 1011 72 10000 2.1 330 07:26 30.04.2020
3883 Clouds 16 1011 67 10000 1 270 06:59 30.04.2020
3884 Clouds 16 1011 67 10000 1 270 06:59 30.04.2020
3885 Clouds 17 1011 71 10000 2.1 350 06:32 30.04.2020
3886 Clouds 17 1012 67 10000 3.6 330 05:47 30.04.2020
3887 Clouds 17 1012 72 10000 2.6 320 04:43 30.04.2020
3888 Clouds 17 1012 63 10000 1 0 04:24 30.04.2020
3889 Clear 17 1013 67 10000 4.1 230 02:50 30.04.2020
3890 Clouds 17 1013 67 10000 4.1 230 02:28 30.04.2020
3891 Clouds 18 1014 59 10000 5.1 240 01:37 30.04.2020
3892 Clouds 18 1014 59 10000 4.1 240 00:53 30.04.2020
3893 Clouds 18 1014 67 10000 5.7 230 00:24 30.04.2020
3894 Clouds 18 1014 67 10000 5.7 230 00:24 30.04.2020
3895 Clouds 18 1014 67 10000 5.7 230 23:59 29.04.2020
3896 Clouds 18 1014 72 10000 6.7 230 23:41 29.04.2020
3897 Clouds 18 1014 72 10000 6.7 230 23:22 29.04.2020
3898 Clouds 19 1014 67 10000 8.7 240 22:58 29.04.2020
3899 Clouds 19 1014 67 10000 7.7 240 22:39 29.04.2020
3900 Clouds 19 1014 67 10000 7.2 240 22:19 29.04.2020
3901 Clouds 19 1014 59 10000 5.1 220 21:38 29.04.2020
3902 Clouds 19 1013 63 10000 7.2 230 21:20 29.04.2020
3903 Clouds 19 1013 48 10000 5.7 240 20:58 29.04.2020
3904 Clouds 19 1013 63 10000 7.7 220 20:39 29.04.2020
3905 Clouds 20 1013 46 10000 4.6 210 20:19 29.04.2020
3906 Clouds 20 1014 63 10000 10.3 220 19:54 29.04.2020
3907 Clouds 20 1014 63 10000 10.3 220 19:36 29.04.2020
3908 Clouds 21 1014 63 10000 10.3 220 19:18 29.04.2020
3909 Clouds 21 1013 52 10000 11.3 230 18:41 29.04.2020
3910 Clouds 22 1013 52 10000 11.3 230 18:20 29.04.2020
3911 Clouds 22 1013 56 10000 10.8 230 17:55 29.04.2020
3912 Clouds 22 1013 56 10000 9.3 220 17:37 29.04.2020
3913 Clouds 21 1014 60 10000 9.8 220 17:18 29.04.2020
3914 Clouds 21 1014 60 10000 9.8 220 17:18 29.04.2020
3915 Clouds 22 1014 56 10000 8.7 230 16:37 29.04.2020
3916 Clouds 21 1014 56 10000 8.7 230 16:19 29.04.2020
3917 Clouds 21 1014 56 10000 8.7 230 16:19 29.04.2020
3918 Clouds 21 1014 49 10000 8.2 220 15:57 29.04.2020
3919 Clouds 21 1015 49 10000 8.7 220 15:38 29.04.2020
3920 Clouds 21 1015 52 10000 6.7 210 15:20 29.04.2020
3921 Clouds 20 1015 59 10000 6.2 200 14:45 29.04.2020
3922 Clouds 20 1015 59 10000 6.2 200 14:26 29.04.2020
3923 Clouds 20 1015 72 10000 5.7 200 13:59 29.04.2020
3924 Clouds 20 1015 72 10000 5.7 200 13:59 29.04.2020
3925 Clouds 19 1016 68 10000 3.6 180 13:40 29.04.2020
3926 Clouds 19 1016 77 10000 3.6 170 13:20 29.04.2020
3927 Clouds 19 1016 77 10000 3.6 170 12:56 29.04.2020
3928 Clouds 19 1016 72 10000 3.1 160 12:38 29.04.2020
3929 Clouds 19 1016 72 10000 3.1 160 12:38 29.04.2020
3930 Clouds 19 1016 72 10000 3.1 130 12:18 29.04.2020
3931 Clouds 18 1016 72 10000 2.6 180 11:39 29.04.2020
3932 Clouds 18 1016 72 10000 2.6 180 11:39 29.04.2020
3933 Clouds 18 1016 72 10000 2.1 180 11:20 29.04.2020
3934 Clouds 17 1016 72 10000 2.1 180 10:56 29.04.2020
3935 Clouds 17 1016 68 10000 2.1 130 10:37 29.04.2020
3936 Clouds 17 1016 68 10000 2.1 130 10:37 29.04.2020
3937 Clouds 17 1016 68 10000 2.1 130 10:18 29.04.2020
3938 Clouds 17 1016 77 10000 1.5 330 09:42 29.04.2020
3939 Clouds 16 1016 77 10000 1.5 330 09:22 29.04.2020
3940 Clouds 15 1016 82 10000 2.6 310 08:55 29.04.2020
3941 Clouds 14 1016 87 10000 2.1 310 08:36 29.04.2020
3942 Clouds 14 1016 87 10000 2.1 310 08:18 29.04.2020
3943 Clouds 14 1015 87 10000 1.5 300 07:39 29.04.2020
3944 Clouds 13 1015 87 10000 1 0 07:18 29.04.2020
3945 Clouds 14 1015 87 10000 1 0 06:48 29.04.2020
3946 Clouds 14 1015 87 10000 1.5 360 06:30 29.04.2020
3947 Clouds 14 1015 87 10000 2.6 70 05:21 29.04.2020
3948 Clouds 14 1015 87 10000 2.6 70 05:21 29.04.2020
3949 Clouds 14 1015 82 10000 3.1 70 04:38 29.04.2020
3950 Clouds 15 1014 82 10000 5.7 70 04:18 29.04.2020
3951 Clouds 15 1015 77 10000 4.6 40 02:39 29.04.2020
3952 Clouds 16 1015 82 10000 5.1 50 01:44 29.04.2020
3953 Clouds 16 1015 82 10000 5.1 50 01:21 29.04.2020
3954 Clouds 16 1014 59 10000 3.6 80 00:40 29.04.2020
3955 Clouds 17 1014 59 10000 1 280 00:19 29.04.2020
3956 Clouds 17 1014 59 10000 1 280 23:48 28.04.2020
3957 Clouds 17 1014 63 10000 2.6 250 23:24 28.04.2020
3958 Clear 18 1014 59 10000 3.6 240 22:55 28.04.2020
3959 Clear 18 1013 59 10000 4.6 230 22:37 28.04.2020
3960 Clear 18 1013 59 10000 4.6 230 22:18 28.04.2020
3961 Clear 18 1013 63 10000 5.1 240 21:54 28.04.2020
3962 Clear 18 1013 63 10000 5.1 240 21:54 28.04.2020
3963 Clear 18 1012 63 10000 7.2 230 21:36 28.04.2020
3964 Clear 18 1012 63 10000 7.2 230 21:36 28.04.2020
3965 Clear 19 1012 63 10000 7.2 230 21:18 28.04.2020
3966 Clear 19 1012 68 10000 6.7 230 20:54 28.04.2020
3967 Clear 19 1012 72 10000 8.7 230 20:36 28.04.2020
3968 Clouds 20 1012 72 10000 8.2 230 20:18 28.04.2020
3969 Clouds 20 1012 63 10000 9.3 230 19:42 28.04.2020
3970 Clouds 20 1012 63 10000 9.3 230 19:22 28.04.2020
3971 Clouds 20 1012 63 10000 9.3 230 19:22 28.04.2020
3972 Clouds 21 1011 63 10000 9.8 230 18:59 28.04.2020
3973 Clouds 21 1011 63 10000 11.3 230 18:40 28.04.2020
3974 Clouds 21 1011 63 10000 11.3 230 18:19 28.04.2020
3975 Clouds 21 1011 60 10000 10.3 230 18:19 28.04.2020
3976 Clouds 21 1011 60 10000 10.3 230 18:19 28.04.2020
3977 Clouds 21 1011 60 10000 10.3 230 17:57 28.04.2020
3978 Clouds 21 1011 60 10000 10.3 230 17:57 28.04.2020
3979 Clouds 21 1011 64 10000 8.7 220 17:36 28.04.2020
3980 Clouds 22 1011 64 10000 8.7 220 17:18 28.04.2020
3981 Clouds 21 1011 52 10000 8.2 220 16:42 28.04.2020
3982 Clouds 22 1011 52 10000 8.2 220 16:23 28.04.2020
3983 Clouds 22 1011 52 10000 8.7 210 15:57 28.04.2020
3984 Clouds 22 1011 56 10000 10.3 220 15:39 28.04.2020
3985 Clouds 21 1011 56 10000 10.3 220 15:21 28.04.2020
3986 Clouds 21 1011 56 10000 9.3 220 14:58 28.04.2020
3987 Clouds 21 1011 60 10000 9.3 220 14:40 28.04.2020
3988 Clouds 21 1012 60 10000 7.7 220 14:21 28.04.2020
3989 Clouds 21 1012 60 10000 7.7 220 13:58 28.04.2020
3990 Clouds 20 1012 59 10000 6.7 220 13:38 28.04.2020
3991 Clouds 20 1012 59 10000 6.7 220 13:19 28.04.2020
3992 Clouds 20 1012 63 10000 6.7 220 12:46 28.04.2020
3993 Clouds 19 1012 63 10000 5.7 190 12:25 28.04.2020
3994 Clouds 18 1012 63 10000 3.1 170 11:46 28.04.2020
3995 Clouds 18 1012 63 10000 3.1 170 11:26 28.04.2020
3996 Clouds 18 1012 68 10000 1.5 150 11:00 28.04.2020
3997 Clouds 18 1012 68 10000 1.5 150 11:00 28.04.2020
3998 Clouds 17 1012 67 10000 1 10 10:39 28.04.2020
3999 Clouds 16 1012 72 10000 1 0 10:19 28.04.2020
4000 Clouds 16 1012 72 10000 1 0 09:58 28.04.2020
4001 Clear 16 1011 77 10000 1.5 350 09:39 28.04.2020
4002 Clear 16 1011 77 10000 1.5 350 09:20 28.04.2020
4003 Clouds 15 1011 76 10000 0.5 240 08:46 28.04.2020
4004 Clouds 14 1011 76 10000 0.5 240 08:26 28.04.2020
4005 Clouds 14 1010 82 10000 1.5 340 07:46 28.04.2020
4006 Clouds 14 1010 82 10000 3.6 300 07:21 28.04.2020
4007 Clouds 14 1010 82 10000 3.1 310 06:54 28.04.2020
4008 Clouds 15 1009 76 10000 2.6 320 06:22 28.04.2020
4009 Clouds 14 1009 87 10000 3.6 290 05:43 28.04.2020
4010 Clouds 14 1009 87 10000 3.6 290 05:25 28.04.2020
4011 Rain 14 1010 82 10000 3.6 310 04:27 28.04.2020
4012 Rain 15 1011 77 10000 8.7 310 02:34 28.04.2020
4013 Rain 17 1010 88 10000 5.7 240 01:23 28.04.2020
4014 Rain 17 1010 88 10000 5.7 240 01:23 28.04.2020
4015 Rain 17 1010 88 10000 5.7 240 01:23 28.04.2020
4016 Rain 17 1010 88 10000 5.7 240 00:58 28.04.2020
4017 Clouds 17 1010 88 10000 3.1 230 00:25 28.04.2020
4018 Clouds 17 1010 88 10000 3.6 240 23:47 27.04.2020
4019 Clouds 17 1010 88 10000 4.6 230 23:47 27.04.2020
4020 Clouds 17 1010 88 10000 4.6 230 23:24 27.04.2020
4021 Clouds 17 1009 88 10000 4.6 220 22:56 27.04.2020
4022 Clouds 17 1009 93 10000 4.6 240 22:38 27.04.2020
4023 Clouds 17 1009 93 10000 4.6 240 22:19 27.04.2020
4024 Clouds 17 1009 88 10000 6.2 230 21:56 27.04.2020
4025 Clouds 17 1009 88 10000 6.2 230 21:56 27.04.2020
4026 Clouds 18 1009 88 10000 6.2 220 21:38 27.04.2020
4027 Clouds 17 1009 88 10000 6.2 220 21:18 27.04.2020
4028 Clouds 18 1009 82 10000 6.2 220 20:44 27.04.2020
4029 Clouds 18 1009 82 10000 5.7 210 20:22 27.04.2020
4030 Clouds 18 1009 82 10000 5.7 210 19:59 27.04.2020
4031 Clouds 18 1009 88 10000 6.2 210 19:39 27.04.2020
4032 Clouds 19 1009 77 10000 6.2 210 19:20 27.04.2020
4033 Clouds 19 1009 77 10000 6.2 210 18:58 27.04.2020
4034 Clouds 19 1009 82 10000 6.7 200 18:40 27.04.2020
4035 Clouds 20 1009 77 10000 2.1 210 18:19 27.04.2020
4036 Clouds 19 1009 77 10000 6.2 210 18:19 27.04.2020
4037 Clouds 19 1009 77 10000 5.7 210 17:44 27.04.2020
4038 Clouds 19 1009 77 10000 5.7 210 17:24 27.04.2020
4039 Clouds 19 1010 77 10000 5.1 200 17:00 27.04.2020
4040 Clouds 20 1010 77 10000 5.7 190 16:40 27.04.2020
4041 Clouds 20 1010 77 10000 5.7 190 16:21 27.04.2020
4042 Clouds 20 1010 82 10000 5.1 180 15:56 27.04.2020
4043 Clouds 20 1010 82 10000 5.7 180 15:38 27.04.2020
4044 Clouds 20 1010 82 10000 5.7 180 15:38 27.04.2020
4045 Clouds 20 1010 82 10000 5.7 180 15:18 27.04.2020
4046 Clouds 20 1010 72 10000 4.1 190 14:42 27.04.2020
4047 Clouds 20 1010 72 10000 4.1 190 14:23 27.04.2020
4048 Clouds 20 1011 68 10000 4.1 190 14:00 27.04.2020
4049 Clouds 19 1011 77 10000 3.1 240 13:41 27.04.2020
4050 Clouds 19 1011 77 10000 3.1 240 13:20 27.04.2020
4051 Clouds 19 1011 77 10000 3.6 210 12:56 27.04.2020
4052 Clouds 18 1012 82 10000 4.1 200 12:38 27.04.2020
4053 Clouds 18 1012 82 10000 4.1 200 12:19 27.04.2020
4054 Clouds 18 1011 82 10000 3.1 190 11:41 27.04.2020
4055 Clouds 18 1011 82 10000 3.1 190 11:19 27.04.2020
4056 Clouds 17 1011 88 10000 1 0 10:57 27.04.2020
4057 Clouds 17 1011 82 10000 1 0 10:38 27.04.2020
4058 Clouds 16 1011 82 10000 1 0 10:20 27.04.2020
4059 Clouds 16 1011 87 8000 2.1 320 09:44 27.04.2020
4060 Clouds 15 1011 93 8000 2.1 330 09:19 27.04.2020
4061 Clouds 15 1011 93 8000 2.1 330 08:58 27.04.2020
4062 Clouds 15 1011 93 7000 2.1 330 08:40 27.04.2020
4063 Clouds 14 1011 93 7000 2.1 330 08:22 27.04.2020
4064 Clouds 14 1011 100 7000 2.6 310 07:44 27.04.2020
4065 Clouds 14 1011 93 8000 2.6 320 07:20 27.04.2020
4066 Clouds 14 1011 93 10000 1.5 320 06:56 27.04.2020
4067 Clouds 14 1011 93 10000 2.1 310 06:27 27.04.2020
4068 Clouds 14 1011 93 10000 2.1 310 06:27 27.04.2020
4069 Clouds 15 1011 93 10000 2.6 310 05:50 27.04.2020
4070 Clouds 15 1011 87 10000 2.6 320 04:49 27.04.2020
4071 Clouds 14 1011 87 10000 2.1 300 03:59 27.04.2020
4072 Clouds 15 1012 82 10000 1 270 03:35 27.04.2020
4073 Clouds 15 1012 87 10000 1.5 300 01:41 27.04.2020
4074 Clouds 16 1012 82 10000 1 0 00:58 27.04.2020
4075 Clouds 16 1012 82 10000 2.6 240 00:20 27.04.2020
4076 Clouds 16 1012 82 10000 2.6 240 23:56 26.04.2020
4077 Clouds 16 1012 87 10000 2.6 220 23:38 26.04.2020
4078 Clouds 17 1012 87 10000 2.6 220 23:19 26.04.2020
4079 Clouds 17 1012 87 10000 3.1 230 22:58 26.04.2020
4080 Clouds 17 1012 87 10000 3.1 220 22:39 26.04.2020
4081 Clouds 17 1012 87 10000 3.1 220 22:20 26.04.2020
4082 Clouds 17 1011 82 10000 3.6 230 21:57 26.04.2020
4083 Clouds 17 1011 82 10000 4.1 220 21:38 26.04.2020
4084 Clouds 17 1011 82 10000 4.1 220 21:18 26.04.2020
4085 Clouds 17 1011 82 10000 4.1 220 21:18 26.04.2020
4086 Clouds 17 1011 82 10000 4.1 220 21:18 26.04.2020
4087 Clouds 17 1011 82 10000 4.1 220 20:54 26.04.2020
4088 Clouds 18 1011 77 10000 4.1 210 20:36 26.04.2020
4089 Clouds 18 1011 77 10000 4.1 210 20:18 26.04.2020
4090 Clouds 19 1011 77 10000 4.6 210 19:56 26.04.2020
4091 Clouds 19 1010 77 10000 4.1 200 19:36 26.04.2020
4092 Clouds 19 1010 77 10000 4.1 200 19:18 26.04.2020
4093 Clouds 19 1010 77 10000 4.1 200 19:18 26.04.2020
4094 Clouds 19 1011 77 10000 4.6 210 18:41 26.04.2020
4095 Clouds 19 1011 77 10000 4.6 210 18:23 26.04.2020
4096 Clouds 20 1010 77 10000 4.6 200 17:42 26.04.2020
4097 Clouds 20 1010 77 10000 4.6 200 17:22 26.04.2020
4098 Clouds 20 1010 72 10000 4.1 210 16:57 26.04.2020
4099 Clouds 20 1010 60 10000 5.7 110 16:38 26.04.2020
4100 Clouds 20 1010 60 10000 5.7 110 16:19 26.04.2020
4101 Clouds 21 1011 77 10000 4.6 200 15:57 26.04.2020
4102 Clouds 21 1010 56 10000 5.1 120 15:37 26.04.2020
4103 Clouds 21 1010 60 10000 5.1 110 15:18 26.04.2020
4104 Clear 21 1011 64 10000 4.1 120 14:41 26.04.2020
4105 Clear 21 1011 64 10000 4.6 130 14:19 26.04.2020
4106 Clear 21 1011 64 10000 4.6 130 13:59 26.04.2020
4107 Clear 21 1011 56 10000 3.1 120 13:40 26.04.2020
4108 Clear 21 1011 56 10000 3.1 120 13:22 26.04.2020
4109 Clear 21 1011 56 10000 1.5 110 12:57 26.04.2020
4110 Clouds 20 1011 77 10000 3.1 140 12:38 26.04.2020
4111 Clear 20 1011 60 10000 1 110 12:20 26.04.2020
4112 Clear 20 1011 60 10000 0.5 340 11:54 26.04.2020
4113 Clear 20 1011 68 10000 0.5 0 11:36 26.04.2020
4114 Clouds 19 1011 72 10000 1 0 11:18 26.04.2020
4115 Clouds 18 1011 63 10000 2.1 310 10:42 26.04.2020
4116 Clouds 18 1011 63 10000 2.1 310 10:24 26.04.2020
4117 Clouds 17 1010 77 10000 3.1 310 09:58 26.04.2020
4118 Clouds 16 1010 77 10000 3.1 320 09:38 26.04.2020
4119 Clouds 16 1010 77 10000 3.1 320 09:38 26.04.2020
4120 Clouds 15 1010 77 10000 3.1 320 09:20 26.04.2020
4121 Clouds 14 1010 87 10000 2.6 330 08:41 26.04.2020
4122 Clouds 14 1010 87 10000 2.6 330 08:23 26.04.2020
4123 Clouds 13 1010 87 10000 3.1 320 07:49 26.04.2020
4124 Clouds 13 1010 87 10000 3.1 320 07:49 26.04.2020
4125 Clouds 14 1009 87 10000 2.6 330 07:25 26.04.2020
4126 Clouds 14 1009 87 10000 2.6 320 06:53 26.04.2020
4127 Clouds 14 1009 87 10000 2.1 310 06:31 26.04.2020
4128 Clouds 14 1009 87 10000 2.1 330 05:54 26.04.2020
4129 Clouds 14 1009 87 10000 1.5 330 05:34 26.04.2020
4130 Clouds 14 1009 93 10000 3.1 320 04:42 26.04.2020
4131 Clouds 14 1009 82 10000 3.1 320 03:46 26.04.2020
4132 Clouds 15 1010 87 10000 2.6 330 02:40 26.04.2020
4133 Clouds 15 1010 87 10000 2.6 330 02:19 26.04.2020
4134 Clouds 15 1010 93 10000 1.5 300 01:37 26.04.2020
4135 Clouds 15 1010 93 10000 1.5 300 01:18 26.04.2020
4136 Clouds 16 1010 87 10000 0.5 0 00:37 26.04.2020
4137 Clouds 15 1010 87 10000 0.5 0 00:18 26.04.2020
4138 Clouds 16 1010 87 10000 0.5 0 23:38 25.04.2020
4139 Clouds 16 1010 87 10000 0.5 0 23:19 25.04.2020
4140 Clouds 16 1009 77 10000 0.5 0 22:43 25.04.2020
4141 Clouds 16 1009 77 10000 0.5 0 22:21 25.04.2020
4142 Clouds 16 1009 82 10000 1 150 21:59 25.04.2020
4143 Clouds 17 1009 77 10000 1.5 150 21:39 25.04.2020
4144 Clouds 17 1009 77 10000 1.5 150 21:20 25.04.2020
4145 Clouds 17 1009 82 10000 2.1 150 20:55 25.04.2020
4146 Clouds 18 1008 82 10000 2.1 140 20:37 25.04.2020
4147 Clouds 17 1008 82 10000 2.1 140 20:37 25.04.2020
4148 Clouds 18 1008 72 10000 3.1 150 20:18 25.04.2020
4149 Clouds 19 1008 72 10000 3.1 130 19:41 25.04.2020
4150 Clouds 19 1008 72 10000 3.1 130 19:22 25.04.2020
4151 Clouds 20 1008 68 10000 3.1 150 18:57 25.04.2020
4152 Clear 20 1008 63 10000 1.5 130 18:39 25.04.2020
4153 Clear 20 1008 63 10000 1.5 130 18:20 25.04.2020
4154 Clear 20 1009 63 10000 1.5 130 17:56 25.04.2020
4155 Clear 20 1009 68 10000 2.6 170 17:37 25.04.2020
4156 Clear 20 1009 68 10000 2.6 170 17:19 25.04.2020
4157 Clouds 20 1009 72 10000 3.1 180 16:48 25.04.2020
4158 Clouds 20 1010 68 10000 3.1 180 16:29 25.04.2020
4159 Clouds 20 1010 72 10000 3.1 160 15:59 25.04.2020
4160 Clouds 20 1010 72 10000 4.1 180 15:39 25.04.2020
4161 Clouds 20 1010 72 10000 4.1 180 15:19 25.04.2020
4162 Clouds 20 1010 52 10000 5.7 120 14:58 25.04.2020
4163 Clouds 20 1011 72 10000 4.6 180 14:38 25.04.2020
4164 Clouds 20 1011 72 10000 4.6 180 14:19 25.04.2020
4165 Clouds 20 1011 77 10000 5.1 180 13:43 25.04.2020
4166 Clouds 20 1011 82 10000 5.1 170 13:19 25.04.2020
4167 Clouds 20 1011 49 10000 2.1 150 12:58 25.04.2020
4168 Clouds 20 1011 72 10000 4.6 170 12:40 25.04.2020
4169 Clouds 19 1011 59 10000 1.5 140 12:20 25.04.2020
4170 Clouds 20 1011 59 10000 1.5 140 11:56 25.04.2020
4171 Clouds 20 1011 59 10000 2.6 120 11:38 25.04.2020
4172 Clouds 19 1011 59 10000 2.6 120 11:20 25.04.2020
4173 Clouds 18 1011 67 10000 2.1 340 10:43 25.04.2020
4174 Clouds 17 1011 72 10000 3.6 330 10:23 25.04.2020
4175 Clouds 17 1011 72 10000 3.6 330 09:48 25.04.2020
4176 Clouds 16 1011 76 10000 2.6 330 09:29 25.04.2020
4177 Clouds 15 1011 82 10000 2.6 320 08:58 25.04.2020
4178 Clouds 14 1011 87 10000 3.1 310 08:39 25.04.2020
4179 Clouds 14 1011 87 10000 3.1 310 08:21 25.04.2020
4180 Clouds 14 1011 81 10000 1.5 330 07:58 25.04.2020
4181 Clouds 14 1011 81 10000 1.5 330 07:39 25.04.2020
4182 Clouds 14 1011 81 10000 2.1 300 06:47 25.04.2020
4183 Clouds 14 1011 81 10000 2.6 290 06:28 25.04.2020
4184 Clouds 14 1012 82 10000 3.1 300 05:40 25.04.2020
4185 Clouds 14 1012 82 10000 3.1 300 05:18 25.04.2020
4186 Clouds 15 1013 93 10000 1.5 270 02:59 25.04.2020
4187 Clouds 15 1013 93 10000 2.6 250 02:21 25.04.2020
4188 Clouds 15 1014 93 10000 3.1 240 01:53 25.04.2020
4189 Clouds 15 1013 93 10000 2.1 230 01:34 25.04.2020
4190 Clouds 15 1013 93 10000 2.1 230 01:34 25.04.2020
4191 Clouds 16 1013 93 10000 2.6 220 00:56 25.04.2020
4192 Clouds 16 1013 87 10000 2.6 210 00:32 25.04.2020
4193 Clouds 16 1014 87 10000 2.6 200 23:45 24.04.2020
4194 Clouds 16 1013 82 10000 2.1 210 23:27 24.04.2020
4195 Clouds 16 1014 82 10000 2.6 220 22:59 24.04.2020
4196 Clouds 16 1013 82 10000 3.1 220 22:39 24.04.2020
4197 Clouds 17 1013 82 10000 3.6 210 22:19 24.04.2020
4198 Clouds 17 1013 82 10000 3.6 210 21:56 24.04.2020
4199 Clouds 17 1013 63 10000 2.1 260 21:37 24.04.2020
4200 Clouds 17 1013 82 10000 4.1 220 21:37 24.04.2020
4201 Clouds 18 1013 72 10000 4.1 210 21:19 24.04.2020
4202 Clouds 18 1013 72 10000 4.1 210 20:56 24.04.2020
4203 Clouds 19 1013 67 10000 4.6 210 20:38 24.04.2020
4204 Clouds 19 1013 52 10000 2.6 170 20:18 24.04.2020
4205 Clouds 20 1013 43 10000 3.6 160 19:40 24.04.2020
4206 Clouds 20 1013 43 10000 3.6 160 19:22 24.04.2020
4207 Clouds 21 1013 40 10000 4.6 180 18:46 24.04.2020
4208 Clear 21 1013 40 10000 4.6 180 18:28 24.04.2020
4209 Clear 21 1014 68 10000 6.2 220 17:59 24.04.2020
4210 Clear 21 1013 40 10000 4.1 160 17:39 24.04.2020
4211 Clear 21 1013 40 10000 4.1 160 17:20 24.04.2020
4212 Clear 21 1014 68 10000 6.7 210 16:58 24.04.2020
4213 Clouds 21 1015 72 10000 6.7 210 16:40 24.04.2020
4214 Clouds 21 1015 72 10000 6.7 210 16:21 24.04.2020
4215 Clouds 21 1015 72 10000 6.7 210 15:55 24.04.2020
4216 Clear 21 1015 46 10000 3.6 150 15:37 24.04.2020
4217 Clear 21 1015 46 10000 3.6 150 15:18 24.04.2020
4218 Clouds 21 1015 56 10000 4.6 120 14:40 24.04.2020
4219 Clouds 21 1015 56 10000 4.6 120 14:20 24.04.2020
4220 Clouds 21 1016 64 10000 3.6 100 13:45 24.04.2020
4221 Clouds 21 1016 64 10000 3.6 100 13:27 24.04.2020
4222 Clouds 21 1016 68 10000 4.1 120 12:59 24.04.2020
4223 Clear 20 1016 60 10000 2.1 160 12:41 24.04.2020
4224 Clear 20 1016 60 10000 2.1 160 12:21 24.04.2020
4225 Clouds 20 1016 60 10000 1.5 70 11:57 24.04.2020
4226 Clear 20 1017 72 10000 3.1 200 11:37 24.04.2020
4227 Clear 19 1017 72 10000 3.1 200 11:18 24.04.2020
4228 Clear 19 1017 72 10000 2.6 220 10:39 24.04.2020
4229 Clear 18 1017 72 10000 2.6 220 10:20 24.04.2020
4230 Clear 18 1017 72 10000 1.5 210 09:58 24.04.2020
4231 Clear 18 1017 72 10000 2.1 230 09:39 24.04.2020
4232 Clear 16 1017 72 10000 2.1 230 09:21 24.04.2020
4233 Clear 16 1016 82 10000 2.1 310 08:54 24.04.2020
4234 Clear 15 1016 82 10000 1.5 300 08:36 24.04.2020
4235 Clear 15 1016 82 10000 1.5 300 08:18 24.04.2020
4236 Clear 15 1016 87 8000 1 0 07:43 24.04.2020
4237 Clear 15 1016 87 8000 1 0 07:24 24.04.2020
4238 Clear 14 1016 87 10000 2.6 320 06:49 24.04.2020
4239 Clouds 14 1016 87 10000 1 0 06:30 24.04.2020
4240 Clouds 14 1017 82 10000 1.5 280 05:42 24.04.2020
4241 Clouds 15 1017 82 10000 1.5 340 03:57 24.04.2020
4242 Clouds 15 1018 82 10000 2.1 320 02:58 24.04.2020
4243 Clouds 14 1018 82 10000 2.6 250 02:37 24.04.2020
4244 Clouds 15 1018 82 10000 3.6 250 01:57 24.04.2020
4245 Clear 15 1018 82 10000 4.1 230 00:58 24.04.2020
4246 Clear 16 1018 82 10000 3.6 230 00:21 24.04.2020
4247 Clear 16 1018 82 10000 3.6 230 00:21 24.04.2020
4248 Clear 16 1018 77 10000 2.6 250 23:54 23.04.2020
4249 Clear 16 1018 77 10000 3.6 230 23:36 23.04.2020
4250 Clear 16 1018 77 10000 3.6 230 23:18 23.04.2020
4251 Clouds 16 1018 82 10000 4.6 220 22:54 23.04.2020
4252 Clouds 17 1018 77 10000 4.6 220 22:36 23.04.2020
4253 Clouds 17 1018 77 10000 4.6 220 22:18 23.04.2020
4254 Clear 17 1018 67 10000 2.1 230 21:54 23.04.2020
4255 Clear 17 1017 67 10000 4.1 230 21:36 23.04.2020
4256 Clouds 18 1017 67 10000 4.1 230 21:18 23.04.2020
4257 Clouds 18 1017 59 10000 6.7 230 20:41 23.04.2020
4258 Clouds 19 1017 59 10000 6.7 230 20:22 23.04.2020
4259 Clouds 19 1017 55 10000 7.2 220 19:57 23.04.2020
4260 Clouds 20 1017 63 10000 7.2 230 19:39 23.04.2020
4261 Clouds 20 1017 63 10000 7.2 230 19:21 23.04.2020
4262 Clouds 20 1017 52 10000 4.1 170 18:55 23.04.2020
4263 Clouds 21 1017 49 10000 4.1 180 18:36 23.04.2020
4264 Clouds 21 1018 60 10000 7.7 220 18:18 23.04.2020
4265 Clouds 21 1018 60 10000 7.7 220 17:55 23.04.2020
4266 Clouds 21 1018 56 0 2.68 263 17:36 23.04.2020
4267 Clouds 21 1018 56 0 2.68 263 17:36 23.04.2020
4268 Clouds 21 1018 56 0 1.34 232 17:18 23.04.2020
4269 Clouds 21 1018 52 10000 7.7 230 16:42 23.04.2020
4270 Clouds 21 1018 52 10000 7.7 230 16:19 23.04.2020
4271 Clouds 21 1018 64 10000 2.6 190 15:42 23.04.2020
4272 Clouds 21 1018 64 10000 2.6 190 15:23 23.04.2020
4273 Clouds 20 1019 63 10000 6.2 220 14:58 23.04.2020
4274 Clouds 20 1019 63 10000 5.1 210 14:38 23.04.2020
4275 Clouds 20 1019 63 10000 5.1 210 14:20 23.04.2020
4276 Clouds 20 1019 63 10000 5.1 210 14:20 23.04.2020
4277 Clouds 20 1019 63 10000 5.1 210 13:56 23.04.2020
4278 Clouds 20 1020 63 10000 3.6 180 13:38 23.04.2020
4279 Clouds 20 1020 63 10000 3.6 180 13:19 23.04.2020
4280 Clouds 20 1020 64 10000 2.1 160 12:44 23.04.2020
4281 Clouds 19 1020 64 10000 2.1 160 12:26 23.04.2020
4282 Clouds 18 1020 68 10000 2.1 220 11:59 23.04.2020
4283 Clouds 18 1020 67 10000 1.5 310 11:40 23.04.2020
4284 Clouds 18 1020 67 10000 1.5 310 11:22 23.04.2020
4285 Clouds 17 1020 82 10000 1 0 10:43 23.04.2020
4286 Clouds 17 1019 82 10000 4.1 310 10:24 23.04.2020
4287 Clouds 16 1019 82 10000 3.6 310 09:58 23.04.2020
4288 Clouds 15 1019 82 10000 4.1 320 09:37 23.04.2020
4289 Clouds 14 1019 82 10000 4.1 310 09:18 23.04.2020
4290 Clouds 14 1019 82 10000 3.6 310 08:46 23.04.2020
4291 Clouds 14 1019 82 10000 3.6 310 08:27 23.04.2020
4292 Clouds 14 1019 87 10000 3.1 330 07:43 23.04.2020
4293 Clouds 14 1019 87 10000 3.1 330 07:24 23.04.2020
4294 Clouds 13 1019 87 10000 3.1 310 06:49 23.04.2020
4295 Clouds 13 1019 87 10000 3.1 310 06:27 23.04.2020
4296 Clouds 13 1019 82 10000 3.6 300 05:31 23.04.2020
4297 Clouds 13 1019 93 10000 2.1 310 04:53 23.04.2020
4298 Clouds 14 1019 82 10000 1.5 10 02:25 23.04.2020
4299 Clouds 14 1019 82 10000 1.5 20 01:55 23.04.2020
4300 Clouds 14 1019 76 10000 3.1 50 01:33 23.04.2020
4301 Clouds 14 1019 72 10000 4.1 60 00:47 23.04.2020
4302 Clouds 14 1019 72 10000 4.6 70 00:24 23.04.2020
4303 Clouds 15 1019 72 10000 2.1 50 23:53 22.04.2020
4304 Clouds 14 1019 77 10000 3.1 50 23:26 22.04.2020
4305 Clouds 15 1018 77 10000 2.1 60 22:58 22.04.2020
4306 Clouds 15 1018 77 10000 2.1 80 22:39 22.04.2020
4307 Clouds 15 1018 77 10000 2.1 90 22:19 22.04.2020
4308 Clouds 15 1018 77 10000 2.1 90 21:56 22.04.2020
4309 Clouds 15 1017 77 10000 2.6 90 21:38 22.04.2020
4310 Clouds 15 1017 77 10000 2.6 90 21:20 22.04.2020
4311 Clouds 15 1017 72 10000 4.6 80 20:54 22.04.2020
4312 Clouds 15 1017 72 10000 6.7 80 20:36 22.04.2020
4313 Clouds 15 1017 72 10000 6.7 80 20:18 22.04.2020
4314 Clouds 15 1016 67 10000 5.1 60 19:54 22.04.2020
4315 Clouds 16 1016 67 10000 6.2 60 19:36 22.04.2020
4316 Clouds 15 1016 67 10000 6.2 60 19:36 22.04.2020
4317 Clouds 16 1016 67 10000 6.2 60 19:18 22.04.2020
4318 Clouds 16 1016 67 10000 7.7 60 18:55 22.04.2020
4319 Clouds 16 1016 67 10000 8.2 60 18:36 22.04.2020
4320 Clouds 16 1015 72 10000 9.8 60 18:18 22.04.2020
4321 Clouds 16 1015 72 10000 8.2 70 17:42 22.04.2020
4322 Clouds 16 1015 72 10000 8.2 70 17:23 22.04.2020
4323 Clouds 16 1015 77 10000 10.8 60 16:46 22.04.2020
4324 Clouds 16 1015 77 10000 10.8 60 16:28 22.04.2020
4325 Clouds 16 1015 72 10000 9.3 60 15:54 22.04.2020
4326 Clouds 16 1014 72 10000 9.3 50 15:36 22.04.2020
4327 Clouds 16 1014 72 10000 9.3 50 15:18 22.04.2020
4328 Clouds 16 1014 67 10000 10.3 60 14:55 22.04.2020
4329 Clouds 16 1014 63 10000 9.8 40 14:36 22.04.2020
4330 Clouds 16 1014 63 10000 9.8 50 14:18 22.04.2020
4331 Clouds 16 1013 67 10000 10.3 40 13:43 22.04.2020
4332 Clouds 16 1013 67 10000 10.3 40 13:20 22.04.2020
4333 Clouds 16 1013 67 10000 11.8 30 12:42 22.04.2020
4334 Clouds 15 1013 67 10000 11.8 30 12:23 22.04.2020
4335 Clouds 15 1013 67 10000 9.3 30 11:58 22.04.2020
4336 Clouds 15 1012 67 10000 8.2 30 11:38 22.04.2020
4337 Clouds 15 1012 67 10000 8.2 30 11:18 22.04.2020
4338 Clouds 14 1012 77 10000 8.2 30 10:42 22.04.2020
4339 Clouds 14 1012 77 10000 8.2 30 10:24 22.04.2020
4340 Clouds 14 1011 72 10000 8.7 30 09:55 22.04.2020
4341 Clouds 14 1011 77 10000 7.7 30 09:36 22.04.2020
4342 Clouds 14 1011 77 10000 7.7 30 09:18 22.04.2020
4343 Clouds 14 1010 82 10000 8.2 30 08:41 22.04.2020
4344 Clouds 14 1010 82 10000 8.2 30 08:23 22.04.2020
4345 Clouds 14 1009 82 10000 9.8 30 07:55 22.04.2020
4346 Clouds 14 1009 82 10000 8.2 30 07:36 22.04.2020
4347 Clouds 14 1009 82 10000 7.7 40 07:18 22.04.2020
4348 Clouds 13 1008 87 10000 5.7 30 06:41 22.04.2020
4349 Rain 13 1008 93 10000 6.7 40 05:39 22.04.2020
4350 Rain 14 1008 93 10000 6.7 40 05:39 22.04.2020
4351 Rain 13 1007 93 10000 8.7 40 04:42 22.04.2020
4352 Rain 14 1007 100 10000 9.8 60 02:59 22.04.2020
4353 Rain 13 1007 100 10000 7.7 50 02:18 22.04.2020
4354 Rain 13 1006 93 10000 5.1 30 01:39 22.04.2020
4355 Rain 13 1006 93 10000 5.1 30 01:19 22.04.2020
4356 Rain 14 1006 100 10000 6.7 40 00:41 22.04.2020
4357 Rain 14 1006 100 10000 6.7 40 00:20 22.04.2020
4358 Rain 14 1006 93 10000 8.2 60 23:44 21.04.2020
4359 Rain 14 1006 93 10000 6.7 50 23:22 21.04.2020
4360 Rain 14 1006 93 10000 6.7 50 22:58 21.04.2020
4361 Rain 14 1005 87 10000 5.7 60 22:39 21.04.2020
4362 Rain 14 1005 87 10000 5.7 60 22:19 21.04.2020
4363 Rain 14 1005 93 10000 6.7 70 21:55 21.04.2020
4364 Rain 14 1004 93 8000 6.2 80 21:37 21.04.2020
4365 Rain 14 1003 93 7000 5.1 70 21:18 21.04.2020
4366 Rain 14 1003 100 6000 6.2 90 20:40 21.04.2020
4367 Rain 14 1003 100 6000 6.2 90 20:22 21.04.2020
4368 Rain 14 1002 93 5000 11.8 50 19:58 21.04.2020
4369 Rain 14 1002 93 4000 11.3 40 19:38 21.04.2020
4370 Rain 14 1002 93 4000 11.3 40 19:18 21.04.2020
4371 Rain 14 1003 93 4000 9.8 40 18:55 21.04.2020
4372 Rain 14 1003 93 4000 6.2 40 18:36 21.04.2020
4373 Rain 15 1003 93 4000 6.2 40 18:18 21.04.2020
4374 Rain 15 1003 93 6000 5.1 50 17:39 21.04.2020
4375 Rain 15 1003 93 6000 5.1 50 17:20 21.04.2020
4376 Rain 15 1003 93 6000 5.7 60 16:56 21.04.2020
4377 Rain 15 1004 93 6000 7.7 60 16:37 21.04.2020
4378 Rain 15 1004 93 6000 7.7 60 16:18 21.04.2020
4379 Rain 15 1004 100 5000 6.7 60 15:55 21.04.2020
4380 Rain 15 1004 100 4500 7.2 60 15:37 21.04.2020
4381 Rain 15 1004 100 4500 7.2 60 15:18 21.04.2020
4382 Rain 15 1004 100 4000 5.1 50 14:45 21.04.2020
4383 Rain 15 1004 100 4000 5.1 50 14:23 21.04.2020
4384 Rain 15 1004 100 4000 4.1 50 13:55 21.04.2020
4385 Rain 15 1004 100 6000 5.1 70 13:37 21.04.2020
4386 Rain 15 1004 100 6000 5.1 70 13:18 21.04.2020
4387 Rain 15 1004 93 7000 5.7 60 12:38 21.04.2020
4388 Rain 15 1004 93 7000 5.7 60 12:19 21.04.2020
4389 Rain 15 1004 93 5000 6.7 50 11:57 21.04.2020
4390 Rain 15 1004 93 6000 7.7 50 11:38 21.04.2020
4391 Rain 15 1004 93 6000 7.7 50 11:19 21.04.2020
4392 Rain 15 1004 93 4500 8.7 50 10:59 21.04.2020
4393 Rain 15 1004 100 3500 7.7 40 10:39 21.04.2020
4394 Rain 14 1004 100 3500 7.7 40 10:21 21.04.2020
4395 Rain 14 1004 100 2500 3.6 320 09:55 21.04.2020
4396 Rain 14 1004 100 2500 3.6 320 09:36 21.04.2020
4397 Rain 14 1004 100 2500 4.1 310 09:18 21.04.2020
4398 Rain 14 1004 100 4200 4.1 310 08:43 21.04.2020
4399 Rain 14 1004 100 4200 4.1 310 08:24 21.04.2020
4400 Rain 15 1003 93 3000 3.1 330 07:51 21.04.2020
4401 Rain 15 1003 93 8000 2.6 330 07:27 21.04.2020
4402 Rain 15 1003 93 7000 2.1 310 06:50 21.04.2020
4403 Rain 15 1003 100 5000 2.1 300 06:32 21.04.2020
4404 Rain 15 1003 100 5000 1 0 05:50 21.04.2020
4405 Rain 15 1004 100 7000 2.17 332 04:55 21.04.2020
4406 Rain 15 1004 100 7000 1 260 03:46 21.04.2020
4407 Rain 15 1005 100 6000 1.5 240 02:41 21.04.2020
4408 Rain 15 1005 100 4000 2.1 250 01:30 21.04.2020
4409 Rain 15 1006 100 8000 2.1 240 00:38 21.04.2020
4410 Rain 15 1006 100 7000 1.5 210 23:58 20.04.2020
4411 Rain 15 1006 100 6000 2.1 160 23:40 20.04.2020
4412 Rain 15 1006 100 5000 1.5 160 23:19 20.04.2020
4413 Rain 15 1006 100 7000 1 0 22:54 20.04.2020
4414 Rain 15 1006 100 7000 1 0 22:36 20.04.2020
4415 Rain 15 1006 100 7000 1 0 22:18 20.04.2020
4416 Rain 15 1006 100 9000 2.1 160 21:54 20.04.2020
4417 Rain 16 1005 100 8000 1.5 130 21:36 20.04.2020
4418 Rain 16 1005 100 8000 1.5 130 21:18 20.04.2020
4419 Rain 16 1005 100 10000 3.1 230 20:41 20.04.2020
4420 Rain 16 1005 100 10000 3.6 240 20:19 20.04.2020
4421 Rain 16 1005 100 10000 3.6 240 19:59 20.04.2020
4422 Rain 16 1005 100 5000 2.6 220 19:40 20.04.2020
4423 Rain 16 1005 100 5000 2.6 220 19:20 20.04.2020
4424 Rain 16 1005 100 3000 2.1 210 18:55 20.04.2020
4425 Rain 16 1005 100 5000 2.6 150 18:37 20.04.2020
4426 Rain 16 1004 93 5000 3.6 160 18:19 20.04.2020
4427 Rain 16 1004 93 5000 3.6 160 17:43 20.04.2020
4428 Rain 16 1004 93 10000 3.6 200 17:23 20.04.2020
4429 Rain 17 1005 100 10000 4.1 230 16:59 20.04.2020
4430 Clouds 17 1005 93 10000 3.1 200 16:41 20.04.2020
4431 Clouds 17 1005 93 10000 3.1 200 16:20 20.04.2020
4432 Clouds 17 1005 93 10000 3.6 210 15:55 20.04.2020
4433 Clouds 17 1005 88 10000 3.1 220 15:37 20.04.2020
4434 Clouds 18 1005 88 10000 3.1 220 15:19 20.04.2020
4435 Clouds 17 1005 93 10000 3.1 210 14:41 20.04.2020
4436 Clouds 17 1005 93 10000 3.1 210 14:19 20.04.2020
4437 Clouds 17 1005 93 10000 1 0 13:58 20.04.2020
4438 Clouds 17 1005 82 10000 1 50 13:38 20.04.2020
4439 Rain 16 1005 100 10000 1.5 140 13:20 20.04.2020
4440 Rain 17 1005 88 9000 1.5 20 12:44 20.04.2020
4441 Rain 16 1005 88 9000 1.5 20 12:22 20.04.2020
4442 Rain 16 1005 88 9000 2.1 10 11:57 20.04.2020
4443 Rain 16 1005 93 7000 2.6 30 11:38 20.04.2020
4444 Rain 15 1005 93 7000 2.6 30 11:18 20.04.2020
4445 Rain 15 1005 93 5000 2.6 20 10:54 20.04.2020
4446 Rain 15 1005 100 5000 2.1 360 10:36 20.04.2020
4447 Rain 15 1005 100 5000 2.1 360 10:18 20.04.2020
4448 Rain 15 1005 100 5000 2.1 350 09:43 20.04.2020
4449 Rain 15 1005 100 5000 2.1 350 09:25 20.04.2020
4450 Rain 15 1005 100 5000 2.1 360 08:58 20.04.2020
4451 Rain 15 1005 100 5000 2.1 360 08:58 20.04.2020
4452 Rain 15 1005 100 5000 1.5 360 08:39 20.04.2020
4453 Rain 15 1005 100 5000 1.5 360 08:18 20.04.2020
4454 Rain 15 1005 100 9000 1.5 350 07:51 20.04.2020
4455 Rain 15 1005 100 9000 3.1 20 07:28 20.04.2020
4456 Rain 15 1005 100 10000 2.1 360 06:38 20.04.2020
4457 Rain 15 1005 100 10000 2.1 360 06:38 20.04.2020
4458 Rain 15 1005 100 10000 2.1 360 06:19 20.04.2020
4459 Rain 15 1005 93 10000 3.1 20 05:20 20.04.2020
4460 Rain 15 1006 93 8000 3.6 20 03:19 20.04.2020
4461 Rain 15 1007 93 6000 4.1 50 02:36 20.04.2020
4462 Rain 16 1007 93 6000 6.7 60 01:31 20.04.2020
4463 Rain 16 1007 93 6000 7.2 70 00:47 20.04.2020
4464 Rain 16 1007 93 7000 5.7 60 00:25 20.04.2020
4465 Rain 16 1007 93 10000 6.2 60 23:42 19.04.2020
4466 Rain 16 1007 93 10000 6.2 60 23:22 19.04.2020
4467 Drizzle 16 1007 100 9000 6.2 60 22:59 19.04.2020
4468 Drizzle 16 1007 100 9000 5.7 60 22:39 19.04.2020
4469 Drizzle 16 1007 93 9000 5.7 50 22:20 19.04.2020
4470 Drizzle 16 1007 93 9000 5.7 50 21:55 19.04.2020
4471 Drizzle 16 1007 93 8000 6.2 60 21:37 19.04.2020
4472 Clouds 16 1007 100 8000 6.2 60 21:18 19.04.2020
4473 Rain 16 1007 100 4000 5.7 60 20:41 19.04.2020
4474 Rain 16 1007 100 4000 5.7 60 20:21 19.04.2020
4475 Drizzle 16 1007 100 4000 5.1 60 19:58 19.04.2020
4476 Rain 16 1007 100 3000 5.1 50 19:40 19.04.2020
4477 Rain 16 1007 100 3000 5.1 50 19:22 19.04.2020
4478 Rain 16 1007 100 3000 5.7 50 18:58 19.04.2020
4479 Rain 16 1007 100 3000 5.7 50 18:39 19.04.2020
4480 Rain 16 1007 100 3000 5.7 50 18:19 19.04.2020
4481 Drizzle 16 1007 100 8000 6.7 50 17:56 19.04.2020
4482 Rain 16 1007 100 6000 4.6 40 17:38 19.04.2020
4483 Rain 16 1007 100 6000 4.6 40 17:20 19.04.2020
4484 Rain 16 1008 100 3500 4.1 30 16:56 19.04.2020
4485 Rain 16 1009 100 1600 2.1 350 16:37 19.04.2020
4486 Rain 16 1009 100 1600 2.1 350 16:19 19.04.2020
4487 Rain 16 1009 100 2500 5.7 30 15:42 19.04.2020
4488 Rain 16 1009 100 2500 5.7 30 15:42 19.04.2020
4489 Rain 16 1009 100 2500 5.7 30 15:22 19.04.2020
4490 Rain 16 1010 93 4400 1.5 30 14:55 19.04.2020
4491 Rain 16 1010 93 3400 0.5 10 14:37 19.04.2020
4492 Rain 16 1010 100 2000 4.1 330 14:18 19.04.2020
4493 Rain 15 1010 93 2900 7.7 50 13:39 19.04.2020
4494 Rain 16 1010 93 2900 7.7 50 13:20 19.04.2020
4495 Rain 16 1010 100 2800 6.2 70 12:50 19.04.2020
4496 Rain 16 1010 100 2800 7.2 60 12:25 19.04.2020
4497 Rain 16 1010 100 1600 6.7 40 11:59 19.04.2020
4498 Rain 16 1010 93 2200 6.2 50 11:37 19.04.2020
4499 Rain 16 1010 93 2200 6.2 50 11:37 19.04.2020
4500 Rain 16 1010 93 2000 6.2 40 11:19 19.04.2020
4501 Rain 16 1010 93 2000 6.2 40 10:56 19.04.2020
4502 Rain 16 1010 93 2000 6.2 40 10:38 19.04.2020
4503 Rain 15 1010 93 2000 6.2 40 10:19 19.04.2020
4504 Rain 16 1011 93 10000 6.2 40 09:45 19.04.2020
4505 Rain 16 1011 93 10000 6.2 40 09:27 19.04.2020
4506 Rain 15 1011 93 10000 6.2 50 08:41 19.04.2020
4507 Clouds 15 1011 93 10000 6.2 50 08:23 19.04.2020
4508 Clouds 15 1011 93 10000 6.2 60 07:59 19.04.2020
4509 Clouds 15 1011 93 10000 6.2 50 07:41 19.04.2020
4510 Rain 15 1011 93 10000 6.2 50 07:23 19.04.2020
4511 Rain 15 1011 93 10000 4.6 60 06:30 19.04.2020
4512 Rain 16 1011 93 10000 5.1 50 05:56 19.04.2020
4513 Rain 15 1011 93 10000 5.1 40 04:48 19.04.2020
4514 Rain 16 1013 93 7000 4.1 50 02:59 19.04.2020
4515 Rain 16 1013 93 8000 5.1 90 02:21 19.04.2020
4516 Rain 16 1015 93 9000 2.6 100 01:39 19.04.2020
4517 Rain 16 1014 93 8000 2.6 120 00:50 19.04.2020
4518 Rain 16 1014 93 10000 6.7 80 00:26 19.04.2020
4519 Rain 16 1014 93 6000 5.7 80 23:56 18.04.2020
4520 Rain 16 1014 93 10000 4.1 50 23:36 18.04.2020
4521 Rain 16 1015 93 10000 5.1 100 23:18 18.04.2020
4522 Clouds 16 1015 93 10000 4.1 90 22:42 18.04.2020
4523 Rain 16 1015 93 10000 4.1 90 22:21 18.04.2020
4524 Rain 16 1015 87 10000 2.1 60 21:57 18.04.2020
4525 Rain 16 1015 93 10000 4.6 50 21:38 18.04.2020
4526 Rain 16 1015 93 10000 4.6 50 21:20 18.04.2020
4527 Thunderstorm 16 1015 93 6000 4.1 90 20:42 18.04.2020
4528 Thunderstorm 16 1015 93 6000 4.1 90 20:22 18.04.2020
4529 Thunderstorm 17 1016 93 8000 3.6 100 19:59 18.04.2020
4530 Clouds 17 1015 88 9000 4.6 70 19:39 18.04.2020
4531 Clouds 17 1015 88 9000 4.6 70 19:21 18.04.2020
4532 Clouds 17 1015 88 9000 6.7 60 18:39 18.04.2020
4533 Clouds 18 1015 88 9000 6.7 60 18:20 18.04.2020
4534 Clouds 18 1015 82 10000 6.7 70 17:56 18.04.2020
4535 Clouds 18 1015 77 10000 6.2 70 17:38 18.04.2020
4536 Clouds 19 1015 77 9000 5.7 60 17:18 18.04.2020
4537 Clouds 19 1016 77 10000 5.1 70 16:42 18.04.2020
4538 Clouds 19 1016 77 10000 5.1 70 16:22 18.04.2020
4539 Clouds 19 1016 72 10000 4.1 70 15:55 18.04.2020
4540 Clouds 19 1017 77 9000 5.1 90 15:37 18.04.2020
4541 Clouds 19 1017 77 10000 5.1 70 15:19 18.04.2020
4542 Clouds 19 1017 72 10000 5.1 70 14:42 18.04.2020
4543 Clouds 19 1017 72 10000 5.1 70 14:19 18.04.2020
4544 Clouds 18 1017 77 8000 6.2 60 13:43 18.04.2020
4545 Clouds 18 1017 77 8000 6.2 60 13:43 18.04.2020
4546 Clouds 18 1017 77 8000 6.2 60 13:21 18.04.2020
4547 Clouds 18 1018 88 8000 6.2 60 12:43 18.04.2020
4548 Clouds 17 1018 88 8000 6.2 60 12:25 18.04.2020
4549 Clouds 17 1017 88 7000 6.2 50 11:59 18.04.2020
4550 Clouds 17 1017 88 8000 6.2 50 11:40 18.04.2020
4551 Clouds 16 1017 82 9000 4.6 60 11:21 18.04.2020
4552 Clouds 16 1017 82 9000 4.6 60 10:56 18.04.2020
4553 Clouds 16 1017 88 10000 3.6 60 10:36 18.04.2020
4554 Clouds 16 1017 88 10000 3.6 60 10:18 18.04.2020
4555 Clouds 16 1016 87 10000 2.1 60 09:41 18.04.2020
4556 Clouds 16 1016 87 10000 2.1 60 09:21 18.04.2020
4557 Clouds 15 1016 87 10000 2.1 80 08:43 18.04.2020
4558 Clouds 15 1015 93 10000 0.5 0 08:23 18.04.2020
4559 Clouds 15 1015 93 10000 0.5 0 07:49 18.04.2020
4560 Clouds 16 1015 87 10000 3.1 310 07:30 18.04.2020
4561 Clouds 16 1014 82 10000 6.2 340 06:50 18.04.2020
4562 Clouds 16 1015 87 10000 4.1 320 05:50 18.04.2020
4563 Clouds 16 1015 87 10000 3.6 320 04:57 18.04.2020
4564 Clouds 16 1015 87 10000 3.6 330 04:39 18.04.2020
4565 Rain 16 1016 87 10000 3.1 330 04:18 18.04.2020
4566 Clouds 16 1017 87 10000 0.5 0 02:44 18.04.2020
4567 Clouds 16 1017 87 10000 0.5 0 02:21 18.04.2020
4568 Clouds 16 1017 87 10000 0.5 0 02:21 18.04.2020
4569 Clouds 16 1017 87 10000 0.5 0 02:21 18.04.2020
4570 Clouds 16 1017 87 10000 0.5 0 02:21 18.04.2020
4571 Clouds 16 1018 87 10000 0.5 0 01:48 18.04.2020
4572 Clouds 16 1017 87 10000 1.5 220 01:27 18.04.2020
4573 Clouds 16 1017 87 10000 1.5 200 00:38 18.04.2020
4574 Clouds 16 1017 87 10000 1.5 200 00:20 18.04.2020
4575 Clouds 16 1016 87 10000 0.5 0 23:41 17.04.2020
4576 Clouds 16 1016 87 10000 0.5 0 23:20 17.04.2020
4577 Clouds 16 1016 87 10000 1.5 180 23:00 17.04.2020
4578 Clouds 16 1016 87 10000 1.5 180 22:59 17.04.2020
4579 Clouds 16 1016 87 10000 2.1 170 22:40 17.04.2020
4580 Clouds 16 1016 87 10000 1.5 170 22:21 17.04.2020
4581 Clouds 16 1016 87 10000 1.5 170 21:58 17.04.2020
4582 Clouds 16 1016 87 10000 1.5 160 21:40 17.04.2020
4583 Clouds 17 1016 87 10000 1.5 160 21:20 17.04.2020
4584 Clouds 17 1015 87 10000 1 240 20:56 17.04.2020
4585 Clouds 17 1015 87 10000 1 240 20:56 17.04.2020
4586 Clouds 17 1015 87 10000 1.5 240 20:37 17.04.2020
4587 Clouds 17 1015 87 10000 1.5 240 20:18 17.04.2020
4588 Clouds 17 1016 87 10000 2.6 210 19:55 17.04.2020
4589 Clouds 17 1016 87 10000 3.6 210 19:37 17.04.2020
4590 Clouds 17 1016 87 10000 3.6 210 19:18 17.04.2020
4591 Clouds 18 1016 82 10000 3.6 180 18:40 17.04.2020
4592 Clouds 18 1016 82 10000 3.6 180 18:21 17.04.2020
4593 Clouds 19 1016 88 10000 3.1 180 17:38 17.04.2020
4594 Clouds 19 1017 77 10000 4.6 190 17:20 17.04.2020
4595 Clouds 18 1017 77 10000 4.6 190 16:59 17.04.2020
4596 Clouds 19 1016 82 10000 0.5 260 16:41 17.04.2020
4597 Clouds 19 1016 82 10000 0.5 260 16:21 17.04.2020
4598 Clouds 18 1018 82 10000 5.1 200 15:39 17.04.2020
4599 Clouds 18 1018 82 10000 5.1 200 15:21 17.04.2020
4600 Clouds 18 1018 77 10000 4.6 210 14:54 17.04.2020
4601 Clouds 18 1018 82 10000 4.6 220 14:36 17.04.2020
4602 Clouds 18 1018 82 10000 4.6 220 14:18 17.04.2020
4603 Clouds 18 1018 82 10000 5.7 210 13:40 17.04.2020
4604 Clouds 19 1018 82 10000 5.7 210 13:20 17.04.2020
4605 Clouds 19 1018 82 10000 4.6 200 12:48 17.04.2020
4606 Clouds 19 1018 82 10000 4.6 200 12:28 17.04.2020
4607 Clouds 19 1019 82 10000 4.1 200 11:59 17.04.2020
4608 Clouds 18 1018 77 10000 3.1 180 11:40 17.04.2020
4609 Clouds 18 1018 77 10000 3.1 180 11:19 17.04.2020
4610 Clouds 17 1018 82 10000 2.1 220 10:40 17.04.2020
4611 Clouds 17 1018 82 10000 2.1 220 10:20 17.04.2020
4612 Clouds 16 1018 87 10000 1.5 220 09:55 17.04.2020
4613 Clouds 16 1018 82 10000 1 0 09:37 17.04.2020
4614 Clouds 15 1018 82 10000 1 0 09:18 17.04.2020
4615 Clouds 14 1018 93 10000 1 0 08:46 17.04.2020
4616 Clouds 14 1018 93 10000 1 0 08:27 17.04.2020
4617 Clouds 13 1017 93 10000 1.5 340 07:57 17.04.2020
4618 Clouds 13 1017 93 10000 1 0 07:39 17.04.2020
4619 Clouds 13 1017 93 10000 0.5 0 07:18 17.04.2020
4620 Clouds 14 1017 87 10000 0.71 18 06:43 17.04.2020
4621 Clouds 14 1017 93 10000 0.5 20 05:58 17.04.2020
4622 Clouds 15 1018 93 9000 2.1 80 03:24 17.04.2020
4623 Clouds 15 1019 93 9000 1.5 40 02:52 17.04.2020
4624 Clouds 15 1019 87 8000 2.6 90 01:41 17.04.2020
4625 Clouds 15 1019 87 10000 2.1 80 01:19 17.04.2020
4626 Clouds 15 1018 93 10000 2.6 70 00:21 17.04.2020
4627 Clouds 15 1018 93 10000 2.6 70 23:55 16.04.2020
4628 Clouds 15 1018 93 10000 3.6 60 23:36 16.04.2020
4629 Clouds 15 1018 93 10000 3.1 70 23:18 16.04.2020
4630 Clouds 15 1018 87 10000 2.6 70 22:39 16.04.2020
4631 Clouds 15 1018 87 10000 3.1 70 22:21 16.04.2020
4632 Clouds 15 1018 87 10000 3.1 70 21:57 16.04.2020
4633 Clouds 15 1017 87 10000 3.1 80 21:39 16.04.2020
4634 Clouds 15 1017 87 10000 2.6 60 21:19 16.04.2020
4635 Clouds 16 1017 87 10000 2.6 90 20:42 16.04.2020
4636 Clouds 16 1017 87 10000 2.6 80 20:22 16.04.2020
4637 Clouds 16 1017 87 10000 2.6 80 19:59 16.04.2020
4638 Clouds 17 1017 82 10000 3.1 100 19:39 16.04.2020
4639 Clouds 17 1017 82 10000 3.6 90 19:19 16.04.2020
4640 Clouds 18 1017 82 10000 4.1 90 18:55 16.04.2020
4641 Clouds 18 1017 82 10000 4.1 90 18:36 16.04.2020
4642 Clouds 18 1018 82 10000 4.1 90 18:18 16.04.2020
4643 Clouds 18 1018 77 10000 4.6 120 17:42 16.04.2020
4644 Clouds 19 1018 77 10000 4.6 120 17:23 16.04.2020
4645 Clouds 19 1018 72 10000 5.1 100 16:55 16.04.2020
4646 Clouds 19 1018 72 10000 5.1 100 16:37 16.04.2020
4647 Clouds 19 1018 63 10000 5.7 90 16:18 16.04.2020
4648 Clouds 19 1019 68 10000 5.1 100 15:41 16.04.2020
4649 Clouds 19 1019 63 10000 4.6 90 15:19 16.04.2020
4650 Clouds 19 1019 63 10000 4.6 90 14:58 16.04.2020
4651 Clouds 19 1019 68 10000 4.6 80 14:38 16.04.2020
4652 Clouds 19 1019 68 10000 4.6 70 14:19 16.04.2020
4653 Clouds 19 1019 68 10000 5.7 70 13:55 16.04.2020
4654 Clouds 19 1019 68 10000 5.7 70 13:36 16.04.2020
4655 Clouds 18 1020 68 10000 4.6 70 13:18 16.04.2020
4656 Clouds 18 1020 72 10000 5.7 70 12:55 16.04.2020
4657 Clouds 18 1020 72 10000 5.7 70 12:36 16.04.2020
4658 Clouds 18 1020 68 10000 6.2 70 12:18 16.04.2020
4659 Clouds 17 1020 72 10000 5.1 70 11:41 16.04.2020
4660 Clouds 17 1020 77 10000 5.1 70 11:21 16.04.2020
4661 Clouds 16 1020 67 10000 5.1 70 10:57 16.04.2020
4662 Clouds 16 1020 67 10000 5.1 70 10:38 16.04.2020
4663 Clouds 16 1020 72 10000 5.1 50 10:19 16.04.2020
4664 Clouds 16 1020 72 10000 4.1 50 09:55 16.04.2020
4665 Clouds 16 1020 72 10000 4.1 50 09:37 16.04.2020
4666 Clouds 15 1019 72 10000 3.6 40 09:18 16.04.2020
4667 Clouds 14 1019 77 10000 2.6 40 08:41 16.04.2020
4668 Clouds 14 1019 77 10000 2.1 30 08:22 16.04.2020
4669 Clouds 14 1019 77 10000 3.1 40 07:46 16.04.2020
4670 Clouds 15 1019 77 10000 3.6 40 07:26 16.04.2020
4671 Clouds 15 1019 72 10000 4.1 50 06:44 16.04.2020
4672 Clouds 15 1019 77 10000 4.1 50 06:25 16.04.2020
4673 Clouds 15 1020 72 10000 4.6 40 05:34 16.04.2020
4674 Clouds 15 1020 77 10000 5.7 40 03:59 16.04.2020
4675 Clouds 15 1020 82 10000 4.6 50 03:23 16.04.2020
4676 Clouds 15 1020 82 9000 4.6 50 02:49 16.04.2020
4677 Clouds 15 1020 82 9000 4.6 50 02:31 16.04.2020
4678 Clouds 15 1020 87 10000 5.7 60 01:19 16.04.2020
4679 Clouds 15 1020 87 10000 5.1 60 00:34 16.04.2020
4680 Rain 15 1020 87 10000 5.1 60 23:59 15.04.2020
4681 Rain 15 1020 87 10000 5.1 60 23:41 15.04.2020
4682 Rain 15 1020 87 10000 4.6 60 23:22 15.04.2020
4683 Clouds 15 1020 87 10000 5.1 60 22:41 15.04.2020
4684 Clouds 15 1019 87 10000 5.7 60 22:22 15.04.2020
4685 Clouds 16 1019 87 10000 5.7 60 21:59 15.04.2020
4686 Clouds 16 1019 87 10000 5.7 60 21:41 15.04.2020
4687 Clouds 16 1019 87 10000 5.7 60 21:23 15.04.2020
4688 Clouds 16 1019 87 10000 5.7 60 20:58 15.04.2020
4689 Clouds 16 1018 87 10000 6.7 60 20:40 15.04.2020
4690 Clouds 16 1018 87 10000 6.7 60 20:40 15.04.2020
4691 Clouds 16 1018 87 10000 6.2 70 20:22 15.04.2020
4692 Clouds 16 1018 87 10000 6.2 70 20:22 15.04.2020
4693 Clouds 16 1018 82 10000 6.2 70 19:46 15.04.2020
4694 Clouds 16 1018 82 10000 6.2 70 19:46 15.04.2020
4695 Clouds 16 1018 82 10000 5.7 80 19:21 15.04.2020
4696 Clouds 17 1018 77 10000 5.1 90 18:58 15.04.2020
4697 Clouds 17 1018 77 10000 5.1 90 18:40 15.04.2020
4698 Clouds 17 1018 77 10000 5.1 90 18:21 15.04.2020
4699 Clouds 17 1018 77 10000 5.1 90 18:21 15.04.2020
4700 Clouds 18 1017 72 10000 6.2 90 17:55 15.04.2020
4701 Clouds 18 1017 72 10000 6.2 90 17:36 15.04.2020
4702 Clouds 18 1017 72 10000 6.2 90 17:36 15.04.2020
4703 Clouds 18 1017 68 10000 8.7 80 17:18 15.04.2020
4704 Clouds 18 1018 72 10000 6.7 80 16:54 15.04.2020
4705 Clouds 18 1018 72 10000 6.7 80 16:36 15.04.2020
4706 Clouds 18 1018 72 10000 6.2 60 16:18 15.04.2020
4707 Clouds 18 1018 72 10000 7.2 60 15:55 15.04.2020
4708 Clouds 18 1018 72 10000 7.2 60 15:36 15.04.2020
4709 Clouds 18 1018 77 10000 7.2 70 15:18 15.04.2020
4710 Clouds 18 1019 77 10000 7.7 70 14:42 15.04.2020
4711 Clouds 18 1019 77 10000 6.7 70 14:23 15.04.2020
4712 Clouds 18 1019 72 10000 6.7 70 14:00 15.04.2020
4713 Clouds 18 1019 72 10000 6.7 70 13:40 15.04.2020
4714 Clouds 18 1019 72 10000 6.7 60 13:21 15.04.2020
4715 Clouds 18 1019 72 10000 6.7 60 12:59 15.04.2020
4716 Clouds 18 1019 77 10000 6.7 70 12:40 15.04.2020
4717 Clouds 17 1019 72 10000 6.2 60 12:22 15.04.2020
4718 Clouds 17 1019 72 10000 6.2 60 11:58 15.04.2020
4719 Clouds 17 1018 77 10000 5.1 50 11:38 15.04.2020
4720 Clouds 16 1018 82 10000 5.7 40 11:20 15.04.2020
4721 Clouds 15 1018 82 10000 5.1 50 10:38 15.04.2020
4722 Clouds 15 1018 82 10000 5.7 70 10:20 15.04.2020
4723 Clouds 14 1018 87 10000 3.1 330 09:57 15.04.2020
4724 Clouds 14 1018 87 10000 3.1 330 09:38 15.04.2020
4725 Clouds 13 1017 87 10000 2.6 320 09:20 15.04.2020
4726 Clouds 12 1017 93 10000 1.5 330 08:54 15.04.2020
4727 Clouds 12 1017 93 10000 1.5 330 08:36 15.04.2020
4728 Clouds 11 1017 87 10000 2.1 320 08:18 15.04.2020
4729 Clouds 11 1016 93 10000 1.5 340 07:44 15.04.2020
4730 Clouds 11 1016 87 10000 2.6 330 07:26 15.04.2020
4731 Clouds 11 1016 93 10000 3.1 330 06:25 15.04.2020
4732 Clouds 11 1016 93 10000 2.1 320 05:48 15.04.2020
4733 Clouds 11 1016 87 10000 2.6 320 04:47 15.04.2020
4734 Clouds 11 1016 87 10000 2.6 320 04:22 15.04.2020
4735 Clouds 12 1016 87 10000 3.1 320 03:22 15.04.2020
4736 Clear 12 1015 87 10000 3.1 330 02:49 15.04.2020
4737 Clear 12 1015 87 10000 1.5 320 01:52 15.04.2020
4738 Clear 12 1015 87 10000 2.1 310 01:25 15.04.2020
4739 Clear 12 1015 93 10000 3.1 240 00:49 15.04.2020
4740 Clear 12 1015 93 10000 3.1 220 00:27 15.04.2020
4741 Clear 13 1015 93 10000 3.1 220 23:56 14.04.2020
4742 Clear 13 1015 93 10000 3.1 220 23:38 14.04.2020
4743 Clear 13 1015 93 10000 2.1 220 23:20 14.04.2020
4744 Clear 13 1015 93 10000 2.1 220 22:56 14.04.2020
4745 Clear 14 1014 87 10000 2.1 210 22:38 14.04.2020
4746 Clear 14 1014 87 10000 2.1 220 22:20 14.04.2020
4747 Clear 14 1014 87 10000 2.1 220 22:20 14.04.2020
4748 Clear 14 1014 87 10000 2.1 220 21:56 14.04.2020
4749 Clear 15 1014 87 10000 2.1 220 21:56 14.04.2020
4750 Clear 15 1014 87 10000 2.1 220 21:38 14.04.2020
4751 Clouds 15 1013 87 10000 1.5 210 21:19 14.04.2020
4752 Clouds 15 1013 87 10000 2.6 220 20:58 14.04.2020
4753 Clouds 16 1013 87 10000 2.6 220 20:39 14.04.2020
4754 Clouds 16 1014 82 10000 3.6 210 20:20 14.04.2020
4755 Clouds 17 1013 82 10000 3.6 200 19:41 14.04.2020
4756 Clouds 17 1013 77 10000 4.1 180 19:23 14.04.2020
4757 Clouds 17 1013 77 10000 4.1 180 18:58 14.04.2020
4758 Clouds 17 1013 77 10000 3.6 180 18:39 14.04.2020
4759 Clouds 18 1013 77 10000 3.6 170 18:21 14.04.2020
4760 Clouds 18 1013 77 10000 3.6 170 17:58 14.04.2020
4761 Clouds 18 1013 72 10000 3.6 170 17:38 14.04.2020
4762 Clouds 19 1013 67 10000 3.1 170 17:19 14.04.2020
4763 Clouds 19 1013 67 10000 3.1 170 16:56 14.04.2020
4764 Clouds 19 1013 67 10000 3.1 170 16:37 14.04.2020
4765 Clouds 19 1013 60 10000 4.1 110 16:19 14.04.2020
4766 Clouds 19 1013 72 10000 3.1 160 15:55 14.04.2020
4767 Clouds 19 1014 67 10000 3.1 170 15:37 14.04.2020
4768 Clouds 19 1014 67 10000 3.1 160 15:18 14.04.2020
4769 Clouds 19 1013 60 10000 3.6 130 14:55 14.04.2020
4770 Clouds 19 1014 72 10000 3.1 180 14:37 14.04.2020
4771 Clouds 19 1014 67 10000 3.1 150 14:19 14.04.2020
4772 Clouds 19 1014 67 10000 3.1 150 14:19 14.04.2020
4773 Clouds 18 1014 67 10000 3.1 140 13:40 14.04.2020
4774 Clouds 18 1014 72 10000 3.6 150 13:22 14.04.2020
4775 Clouds 18 1014 63 10000 3.1 140 12:54 14.04.2020
4776 Clouds 18 1014 63 10000 3.1 140 12:36 14.04.2020
4777 Clouds 17 1014 59 10000 3.1 80 12:18 14.04.2020
4778 Clouds 17 1013 67 10000 3.1 80 11:40 14.04.2020
4779 Clouds 17 1013 72 10000 2.6 340 11:20 14.04.2020
4780 Clouds 16 1013 82 10000 3.1 310 10:47 14.04.2020
4781 Clouds 15 1013 82 10000 3.1 310 10:28 14.04.2020
4782 Clouds 14 1013 82 10000 3.1 330 09:59 14.04.2020
4783 Clouds 14 1013 82 10000 3.1 330 09:41 14.04.2020
4784 Clouds 14 1013 82 10000 3.1 330 09:22 14.04.2020
4785 Clouds 13 1013 87 10000 2.6 330 08:44 14.04.2020
4786 Clouds 13 1013 87 10000 2.6 330 08:26 14.04.2020
4787 -273 0 0 0 0 0 07:59 14.04.2020
4788 Clouds 12 1013 87 10000 2.6 30 07:41 14.04.2020
4789 Clouds 12 1013 87 10000 3.1 10 07:22 14.04.2020
4790 Clouds 12 1012 87 10000 3.1 30 06:45 14.04.2020
4791 Clouds 14 1012 76 0 4.57 42 05:40 14.04.2020
4792 Rain 14 1012 76 0 5.42 40 03:27 14.04.2020
4793 Clouds 13 1012 87 10000 5.1 40 02:33 14.04.2020
4794 Clouds 13 1012 93 10000 4.1 40 01:27 14.04.2020
4795 Drizzle 13 1012 93 10000 3.6 20 00:50 14.04.2020
4796 Rain 13 1012 82 10000 5.1 40 00:24 14.04.2020
4797 Rain 13 1012 82 10000 5.1 40 23:56 13.04.2020
4798 Rain 13 1012 82 10000 5.1 40 23:37 13.04.2020
4799 Rain 13 1011 87 10000 5.7 40 23:18 13.04.2020
4800 Clouds 13 1011 82 10000 7.7 40 22:42 13.04.2020
4801 Clouds 13 1011 82 10000 7.7 40 22:42 13.04.2020
4802 Clouds 13 1010 82 10000 8.7 50 22:22 13.04.2020
4803 Clouds 13 1010 82 10000 8.7 50 21:58 13.04.2020
4804 Clouds 13 1010 82 10000 8.2 40 21:39 13.04.2020
4805 Clouds 13 1009 82 10000 9.3 50 21:20 13.04.2020
4806 Clouds 13 1009 82 10000 9.3 50 20:56 13.04.2020
4807 Clouds 13 1009 77 10000 8.7 40 20:38 13.04.2020
4808 Clouds 14 1009 87 10000 6.2 30 20:19 13.04.2020
4809 Clouds 14 1009 87 10000 6.2 30 19:57 13.04.2020
4810 Clouds 14 1009 82 10000 6.7 30 19:36 13.04.2020
4811 Clouds 14 1008 82 10000 8.2 40 19:18 13.04.2020
4812 Rain 14 1008 82 10000 8.7 40 18:54 13.04.2020
4813 Rain 14 1008 82 10000 8.7 40 18:36 13.04.2020
4814 Rain 14 1008 87 10000 8.7 40 18:18 13.04.2020
4815 Rain 14 1008 87 10000 8.2 40 17:55 13.04.2020
4816 Clouds 14 1008 87 10000 8.2 40 17:36 13.04.2020
4817 Clouds 14 1008 87 10000 7.7 50 17:18 13.04.2020
4818 Clouds 14 1008 87 10000 7.7 50 16:55 13.04.2020
4819 Clouds 14 1008 87 10000 8.7 50 16:55 13.04.2020
4820 Clouds 14 1008 87 10000 8.7 50 16:55 13.04.2020
4821 Clouds 15 1008 87 10000 8.7 50 16:36 13.04.2020
4822 Clouds 14 1008 87 10000 7.7 40 16:18 13.04.2020
4823 Drizzle 14 1008 93 8000 7.7 40 15:44 13.04.2020
4824 Drizzle 14 1008 93 8000 7.7 40 15:26 13.04.2020
4825 Drizzle 14 1008 93 5000 7.7 40 14:57 13.04.2020
4826 Drizzle 14 1008 100 4000 7.7 50 14:39 13.04.2020
4827 Drizzle 14 1009 100 5000 7.7 40 14:21 13.04.2020
4828 Rain 13 1009 93 8000 7.2 40 13:56 13.04.2020
4829 Rain 13 1009 93 8000 7.2 40 13:38 13.04.2020
4830 Rain 13 1009 93 10000 5.7 30 13:19 13.04.2020
4831 Rain 13 1009 100 10000 3.6 360 12:58 13.04.2020
4832 Rain 13 1009 100 10000 3.6 360 12:39 13.04.2020
4833 Rain 12 1009 93 5000 3.6 340 12:19 13.04.2020
4834 Rain 13 1009 93 5000 3.6 340 12:19 13.04.2020
4835 Rain 12 1009 100 5000 3.6 330 11:44 13.04.2020
4836 Rain 12 1009 100 4000 4.1 320 11:19 13.04.2020
4837 Rain 12 1009 100 4000 4.1 320 10:57 13.04.2020
4838 Rain 12 1009 100 3000 3.6 340 10:39 13.04.2020
4839 Rain 12 1009 93 3000 4.1 330 10:20 13.04.2020
4840 Rain 12 1009 100 5000 3.6 330 09:58 13.04.2020
4841 Rain 12 1009 100 5000 3.6 330 09:39 13.04.2020
4842 Rain 12 1010 100 5000 3.1 330 09:21 13.04.2020
4843 Rain 12 1010 93 6000 4.1 20 08:45 13.04.2020
4844 Rain 12 1010 93 6000 4.1 20 08:26 13.04.2020
4845 Rain 12 1010 93 8000 4.1 30 07:44 13.04.2020
4846 Rain 12 1010 87 10000 2.6 10 07:26 13.04.2020
4847 Rain 13 1010 87 10000 3.1 20 06:56 13.04.2020
4848 Rain 13 1010 87 10000 3.1 20 06:37 13.04.2020
4849 Clouds 13 1011 67 10000 4.1 30 05:40 13.04.2020
4850 Clouds 12 1011 71 10000 4.1 30 05:19 13.04.2020
4851 Clouds 12 1012 76 10000 4.1 30 04:31 13.04.2020
4852 Clouds 12 1012 76 10000 4.6 40 03:55 13.04.2020
4853 Clouds 13 1012 71 10000 4.1 40 03:34 13.04.2020
4854 Clouds 12 1013 87 10000 3.6 40 02:41 13.04.2020
4855 Clouds 12 1014 87 10000 2.6 30 01:46 13.04.2020
4856 Clouds 13 1014 87 10000 3.6 40 01:27 13.04.2020
4857 Clouds 13 1014 87 10000 3.6 50 00:48 13.04.2020
4858 Clouds 13 1015 87 10000 4.1 50 00:25 13.04.2020
4859 Clouds 13 1015 87 10000 4.1 50 23:56 12.04.2020
4860 Clouds 14 1015 87 10000 3.6 50 23:38 12.04.2020
4861 Clouds 14 1015 87 10000 4.1 50 23:19 12.04.2020
4862 Clouds 14 1015 87 10000 4.1 50 22:54 12.04.2020
4863 Clouds 14 1015 87 10000 4.6 50 22:36 12.04.2020
4864 Clouds 14 1015 82 10000 4.1 50 22:18 12.04.2020
4865 Clouds 15 1015 82 10000 3.6 60 21:37 12.04.2020
4866 Clouds 15 1015 82 10000 3.6 70 21:19 12.04.2020
4867 Clouds 16 1015 82 10000 3.6 70 20:43 12.04.2020
4868 Clouds 16 1015 82 10000 3.6 70 20:23 12.04.2020
4869 Clouds 17 1016 72 10000 3.6 80 19:59 12.04.2020
4870 Clouds 17 1016 67 10000 4.6 90 19:40 12.04.2020
4871 Clouds 17 1016 72 10000 5.1 90 19:19 12.04.2020
4872 Clouds 18 1016 63 10000 4.6 90 18:57 12.04.2020
4873 Clouds 18 1016 63 10000 4.6 90 18:39 12.04.2020
4874 Clouds 18 1017 77 10000 5.1 90 18:19 12.04.2020
4875 Clouds 18 1017 72 10000 5.1 80 17:54 12.04.2020
4876 Clouds 19 1017 72 10000 5.1 80 17:36 12.04.2020
4877 Clouds 19 1017 55 10000 4.6 80 17:18 12.04.2020
4878 Clouds 19 1018 55 10000 4.6 80 16:41 12.04.2020
4879 Clouds 19 1018 52 10000 4.1 100 16:20 12.04.2020
4880 Clouds 19 1019 45 10000 3.6 90 15:52 12.04.2020
4881 Clouds 20 1019 48 10000 3.1 100 15:31 12.04.2020
4882 Clouds 20 1019 48 10000 3.1 100 14:57 12.04.2020
4883 Clouds 20 1019 55 10000 3.6 100 14:39 12.04.2020
4884 Clouds 19 1020 52 10000 3.1 100 14:20 12.04.2020
4885 Clouds 19 1020 52 10000 3.1 100 13:55 12.04.2020
4886 Clouds 19 1021 68 10000 3.6 90 13:36 12.04.2020
4887 Clouds 19 1021 68 10000 3.6 90 13:18 12.04.2020
4888 Clouds 19 1021 68 10000 3.6 90 13:18 12.04.2020
4889 Clouds 18 1021 63 10000 3.1 100 12:45 12.04.2020
4890 Clouds 18 1021 55 10000 2.6 100 12:21 12.04.2020
4891 Clouds 18 1021 55 10000 2.6 100 11:57 12.04.2020
4892 Clouds 17 1021 55 10000 1.5 340 11:37 12.04.2020
4893 Clouds 16 1021 54 10000 3.6 320 11:18 12.04.2020
4894 Clouds 16 1021 54 10000 3.6 320 10:55 12.04.2020
4895 Clouds 16 1021 58 10000 3.6 330 10:37 12.04.2020
4896 Clouds 14 1021 58 10000 4.1 330 10:18 12.04.2020
4897 Clouds 14 1021 58 10000 4.1 330 09:54 12.04.2020
4898 Clouds 12 1021 58 10000 4.1 330 09:36 12.04.2020
4899 Clouds 12 1021 62 10000 4.6 320 09:18 12.04.2020
4900 Clouds 12 1021 62 10000 4.6 320 09:18 12.04.2020
4901 Clouds 12 1021 66 10000 4.6 330 08:46 12.04.2020
4902 Clouds 11 1021 66 10000 5.1 330 08:27 12.04.2020
4903 Clouds 11 1021 66 10000 4.6 330 07:45 12.04.2020
4904 Clouds 11 1021 71 10000 4.1 330 07:19 12.04.2020
4905 Clouds 11 1021 66 10000 0.5 0 06:36 12.04.2020
4906 Clouds 11 1021 71 10000 2.1 320 05:58 12.04.2020
4907 Clouds 12 1021 66 10000 2.6 310 05:37 12.04.2020
4908 Clouds 13 1022 67 10000 2.1 310 03:45 12.04.2020
4909 Clouds 13 1022 67 10000 2.1 310 03:25 12.04.2020
4910 Clouds 13 1023 67 10000 1.5 310 02:35 12.04.2020
4911 Clouds 13 1023 72 10000 1.5 310 01:53 12.04.2020
4912 Clouds 14 1023 77 10000 1.5 300 01:19 12.04.2020
4913 Clouds 14 1023 87 10000 2.1 220 00:42 12.04.2020
4914 Clouds 14 1023 87 10000 2.1 210 00:20 12.04.2020
4915 Clouds 14 1023 87 10000 2.6 210 23:47 11.04.2020
4916 Clouds 14 1023 87 10000 2.6 210 23:26 11.04.2020
4917 Clouds 14 1023 82 10000 2.6 200 22:55 11.04.2020
4918 Clouds 15 1023 82 10000 2.6 200 22:36 11.04.2020
4919 Clouds 15 1022 82 10000 2.1 200 22:18 11.04.2020
4920 Clouds 15 1022 82 10000 2.6 210 21:54 11.04.2020
4921 Clouds 15 1022 82 10000 2.6 210 21:36 11.04.2020
4922 Clouds 16 1022 82 10000 3.6 220 21:18 11.04.2020
4923 Clouds 16 1022 82 10000 3.6 220 21:18 11.04.2020
4924 Clouds 16 1021 82 10000 4.1 220 20:54 11.04.2020
4925 Clouds 17 1021 82 10000 4.1 220 20:36 11.04.2020
4926 Clouds 17 1021 82 10000 4.1 220 20:36 11.04.2020
4927 Clouds 17 1022 72 10000 4.1 220 20:18 11.04.2020
4928 Clouds 18 1022 82 10000 4.6 210 19:54 11.04.2020
4929 Clouds 18 1022 82 10000 4.6 210 19:36 11.04.2020
4930 Clouds 18 1022 82 10000 5.7 210 19:18 11.04.2020
4931 Clouds 19 1022 77 10000 4.6 200 18:54 11.04.2020
4932 Clouds 19 1022 77 10000 4.6 200 18:36 11.04.2020
4933 Clouds 19 1022 77 10000 4.6 190 18:18 11.04.2020
4934 Clouds 19 1022 77 10000 4.6 190 18:18 11.04.2020
4935 Clouds 19 1022 77 10000 4.6 190 17:56 11.04.2020
4936 Clouds 19 1022 77 10000 4.6 200 17:36 11.04.2020
4937 Clouds 19 1022 77 10000 4.6 200 17:18 11.04.2020
4938 Clouds 20 1022 68 10000 4.6 210 16:42 11.04.2020
4939 Clouds 19 1023 68 10000 5.1 220 16:21 11.04.2020
4940 Clouds 19 1023 68 10000 4.6 220 15:41 11.04.2020
4941 Clouds 19 1023 72 10000 4.6 200 15:20 11.04.2020
4942 Clouds 19 1023 72 10000 4.6 200 14:57 11.04.2020
4943 Clouds 19 1023 72 10000 4.1 190 14:39 11.04.2020
4944 Clouds 19 1023 82 10000 3.1 190 14:20 11.04.2020
4945 Clouds 18 1024 77 10000 4.1 200 13:42 11.04.2020
4946 Clouds 18 1024 77 10000 3.1 210 13:24 11.04.2020
4947 Clouds 18 1024 77 10000 3.1 210 12:59 11.04.2020
4948 Clouds 18 1024 77 10000 2.6 210 12:37 11.04.2020
4949 Clouds 17 1024 77 10000 3.1 190 12:18 11.04.2020
4950 Clouds 17 1023 77 10000 2.6 200 11:42 11.04.2020
4951 Clouds 16 1023 63 10000 0.5 360 11:20 11.04.2020
4952 Clouds 16 1023 63 10000 0.5 360 10:57 11.04.2020
4953 Clouds 16 1023 67 10000 1 0 10:37 11.04.2020
4954 Clouds 15 1023 66 10000 2.1 330 10:19 11.04.2020
4955 Clouds 14 1023 66 10000 2.1 330 09:57 11.04.2020
4956 Clouds 14 1023 71 10000 3.1 320 09:38 11.04.2020
4957 Clouds 12 1023 71 10000 3.1 330 09:19 11.04.2020
4958 Clouds 11 1022 76 10000 2.6 330 08:43 11.04.2020
4959 Clouds 11 1022 76 10000 2.6 330 08:23 11.04.2020
4960 Clouds 10 1022 71 10000 3.1 320 07:49 11.04.2020
4961 Clouds 10 1022 71 10000 3.1 320 07:28 11.04.2020
4962 Clouds 10 1022 76 10000 3.1 320 06:44 11.04.2020
4963 Clouds 10 1022 76 10000 1 0 05:59 11.04.2020
4964 Clouds 11 1022 76 10000 3.1 320 04:33 11.04.2020
4965 Clouds 11 1022 76 10000 3.6 320 03:40 11.04.2020
4966 Clouds 12 1023 76 10000 2.1 310 01:52 11.04.2020
4967 Clouds 12 1023 81 10000 1.5 310 01:20 11.04.2020
4968 Clouds 12 1023 82 10000 1.5 290 00:44 11.04.2020
4969 Clouds 13 1023 87 9000 1.5 220 00:19 11.04.2020
4970 Clouds 13 1023 93 9000 1.5 200 23:56 10.04.2020
4971 Clouds 13 1023 93 9000 1.5 200 23:56 10.04.2020
4972 Clouds 13 1023 93 9000 1.5 200 23:37 10.04.2020
4973 Clouds 13 1023 93 10000 1.5 210 23:18 10.04.2020
4974 Clouds 14 1023 93 10000 2.1 210 22:43 10.04.2020
4975 Clouds 14 1022 87 10000 1.5 200 22:21 10.04.2020
4976 Clouds 15 1022 87 10000 1.5 200 21:58 10.04.2020
4977 Clouds 15 1022 87 10000 1.5 190 21:39 10.04.2020
4978 Clouds 15 1022 87 10000 2.1 210 21:20 10.04.2020
4979 Clouds 16 1022 87 10000 3.1 200 20:41 10.04.2020
4980 Clouds 16 1022 87 10000 3.1 200 20:23 10.04.2020
4981 Clouds 17 1022 82 10000 3.6 200 19:58 10.04.2020
4982 Clouds 18 1022 82 10000 4.1 190 19:40 10.04.2020
4983 Clouds 18 1022 77 10000 3.6 190 19:20 10.04.2020
4984 Clouds 18 1022 72 10000 4.1 190 18:57 10.04.2020
4985 Clouds 18 1022 72 10000 4.1 190 18:39 10.04.2020
4986 Clouds 19 1022 72 10000 4.6 180 18:21 10.04.2020
4987 Clouds 19 1022 72 10000 4.6 180 17:58 10.04.2020
4988 Clouds 19 1022 72 10000 4.6 200 17:39 10.04.2020
4989 Clouds 20 1022 77 10000 4.6 180 17:20 10.04.2020
4990 Clouds 19 1022 82 10000 5.1 180 16:56 10.04.2020
4991 Clouds 20 1022 82 10000 5.1 180 16:37 10.04.2020
4992 Clouds 20 1022 68 10000 4.6 160 16:19 10.04.2020
4993 Clouds 20 1022 68 10000 4.6 160 15:55 10.04.2020
4994 Clouds 20 1022 68 10000 4.6 170 15:36 10.04.2020
4995 Clouds 20 1023 59 10000 4.1 170 15:18 10.04.2020
4996 Clouds 20 1023 63 10000 4.1 170 14:56 10.04.2020
4997 Clouds 20 1023 63 10000 4.1 170 14:38 10.04.2020
4998 Clouds 20 1023 45 10000 3.6 150 14:18 10.04.2020
4999 Clouds 20 1023 45 10000 3.6 150 14:18 10.04.2020
5000 Clouds 20 1023 48 10000 3.1 140 13:43 10.04.2020
5001 Clouds 20 1023 39 10000 3.1 170 13:21 10.04.2020
5002 Clouds 19 1023 42 10000 2.1 150 12:43 10.04.2020
5003 Clear 18 1023 45 10000 1.5 270 12:24 10.04.2020
5004 Clear 18 1023 48 10000 2.1 310 11:56 10.04.2020
5005 Clear 17 1023 48 10000 2.1 310 11:38 10.04.2020
5006 Clouds 17 1023 51 10000 3.1 330 11:20 10.04.2020
5007 Clouds 16 1023 54 10000 4.6 320 10:46 10.04.2020
5008 Clouds 15 1023 62 10000 4.6 330 10:23 10.04.2020
5009 Clouds 14 1023 62 10000 4.6 320 09:57 10.04.2020
5010 Clouds 13 1023 62 10000 4.6 320 09:38 10.04.2020
5011 Clouds 12 1022 66 10000 5.1 330 09:20 10.04.2020
5012 Clouds 11 1022 71 10000 3.6 320 08:43 10.04.2020
5013 Clouds 11 1022 71 10000 3.6 320 08:24 10.04.2020
5014 Clouds 11 1022 71 10000 4.1 320 07:45 10.04.2020
5015 Clouds 10 1022 71 10000 3.6 320 07:24 10.04.2020
5016 Clouds 10 1022 71 10000 3.6 330 06:49 10.04.2020
5017 Clouds 11 1022 71 10000 3.6 330 06:29 10.04.2020
5018 Clouds 11 1022 66 10000 4.1 320 05:42 10.04.2020
5019 Clouds 11 1022 71 10000 3.6 330 04:59 10.04.2020
5020 Clouds 11 1022 71 10000 2.1 330 03:51 10.04.2020
5021 Clouds 11 1022 71 10000 2.1 330 03:32 10.04.2020
5022 Clouds 11 1022 66 10000 3.1 310 02:49 10.04.2020
5023 Clouds 11 1022 66 10000 1 290 02:30 10.04.2020
5024 Clouds 12 1023 71 10000 1.5 320 01:30 10.04.2020
5025 Clear 12 1023 66 10000 2.6 310 00:52 10.04.2020
5026 Clear 13 1023 82 10000 1.5 310 00:25 10.04.2020
5027 Clear 13 1023 82 10000 1.5 310 23:56 09.04.2020
5028 Clear 13 1023 82 10000 1.5 270 23:38 09.04.2020
5029 Clear 13 1022 93 10000 1.5 260 23:20 09.04.2020
5030 Clear 14 1022 93 10000 3.1 240 22:42 09.04.2020
5031 Clear 14 1022 87 10000 2.6 220 22:23 09.04.2020
5032 Clear 14 1022 87 10000 2.6 220 21:56 09.04.2020
5033 Clear 15 1022 87 10000 2.1 220 21:37 09.04.2020
5034 Clear 15 1022 87 10000 2.1 200 21:19 09.04.2020
5035 Clear 15 1022 87 10000 2.1 200 21:19 09.04.2020
5036 Clear 16 1022 87 10000 3.1 190 20:44 09.04.2020
5037 Clear 17 1021 77 10000 3.6 190 20:21 09.04.2020
5038 Clear 17 1021 77 10000 4.1 180 19:58 09.04.2020
5039 Clear 18 1021 77 10000 4.1 180 19:37 09.04.2020
5040 Clear 18 1021 77 10000 3.6 180 19:18 09.04.2020
5041 Clear 18 1021 77 10000 3.6 180 19:18 09.04.2020
5042 Clear 18 1021 77 10000 3.6 160 18:42 09.04.2020
5043 Clear 18 1021 77 10000 3.6 160 18:42 09.04.2020
5044 Clouds 18 1021 77 10000 3.6 170 18:20 09.04.2020
5045 Clear 18 1022 77 10000 4.1 150 17:42 09.04.2020
5046 Clear 18 1022 77 10000 3.6 150 17:24 09.04.2020
5047 Clear 18 1022 77 10000 3.6 150 16:56 09.04.2020
5048 Clear 19 1022 67 10000 4.1 130 16:38 09.04.2020
5049 Clear 18 1022 72 10000 3.6 130 16:19 09.04.2020
5050 Clouds 19 1023 67 10000 3.6 120 15:55 09.04.2020
5051 Clouds 19 1023 67 10000 3.6 120 15:37 09.04.2020
5052 Clouds 19 1023 72 10000 4.1 100 15:18 09.04.2020
5053 Clouds 18 1023 67 10000 3.6 120 14:41 09.04.2020
5054 Clouds 18 1023 72 10000 3.1 110 14:21 09.04.2020
5055 Clouds 19 1023 63 10000 2.6 100 13:56 09.04.2020
5056 Clouds 19 1023 63 10000 2.6 100 13:37 09.04.2020
5057 Clouds 18 1023 63 10000 2.6 110 13:18 09.04.2020
5058 Clouds 17 1023 72 10000 2.1 120 12:42 09.04.2020
5059 Clouds 17 1023 72 10000 2.1 130 12:23 09.04.2020
5060 Clouds 17 1023 72 10000 2.1 130 11:59 09.04.2020
5061 Clouds 16 1023 63 10000 0.5 250 11:40 09.04.2020
5062 Clouds 16 1023 67 10000 1 0 11:20 09.04.2020
5063 Clouds 16 1023 67 10000 1 0 10:57 09.04.2020
5064 Clouds 15 1023 72 10000 2.1 320 10:38 09.04.2020
5065 Clouds 15 1023 76 10000 3.6 320 10:19 09.04.2020
5066 Clouds 14 1023 81 10000 4.1 320 09:55 09.04.2020
5067 Clouds 14 1023 81 10000 4.1 320 09:37 09.04.2020
5068 Clouds 12 1022 81 10000 4.6 320 09:19 09.04.2020
5069 Clouds 11 1022 81 10000 3.1 320 08:43 09.04.2020
5070 Clouds 11 1022 81 10000 3.1 320 08:23 09.04.2020
5071 Clouds 11 1022 81 10000 3.1 320 08:23 09.04.2020
5072 Clouds 11 1022 81 10000 3.6 320 07:53 09.04.2020
5073 Clouds 11 1022 81 10000 3.1 320 07:24 09.04.2020
5074 Clouds 11 1022 81 10000 3.1 320 06:52 09.04.2020
5075 Clouds 11 1022 87 10000 3.1 330 05:59 09.04.2020
5076 Clouds 11 1022 87 10000 3.1 330 05:38 09.04.2020
5077 Clear 11 1023 87 10000 3.1 320 03:36 09.04.2020
5078 Clouds 12 1024 87 10000 1.5 330 02:21 09.04.2020
5079 Clouds 12 1024 82 10000 1 320 01:40 09.04.2020
5080 Clouds 12 1024 72 10000 0.5 110 01:20 09.04.2020
5081 Clouds 13 1024 72 10000 0.5 0 00:41 09.04.2020
5082 Clouds 13 1024 77 10000 0.5 0 00:19 09.04.2020
5083 Clouds 13 1024 77 10000 0.5 0 23:57 08.04.2020
5084 Clouds 13 1024 77 10000 0.5 0 23:39 08.04.2020
5085 Clouds 14 1024 72 10000 0.5 0 23:20 08.04.2020
5086 Clouds 14 1024 72 10000 1 0 22:42 08.04.2020
5087 Clouds 15 1024 67 10000 1 0 22:24 08.04.2020
5088 Clouds 15 1024 67 10000 1 0 21:56 08.04.2020
5089 Clouds 15 1024 67 10000 1 0 21:37 08.04.2020
5090 Clouds 15 1024 63 10000 1.5 160 21:19 08.04.2020
5091 Clouds 15 1024 67 10000 1.5 150 20:56 08.04.2020
5092 Clouds 16 1024 67 10000 1.5 150 20:38 08.04.2020
5093 Clouds 16 1024 72 10000 2.1 150 20:19 08.04.2020
5094 Clouds 16 1024 72 10000 2.6 150 19:41 08.04.2020
5095 Clouds 16 1024 72 10000 2.6 150 19:41 08.04.2020
5096 Clouds 16 1024 72 10000 2.6 150 19:22 08.04.2020
5097 Clouds 17 1023 72 10000 2.6 140 18:56 08.04.2020
5098 Clouds 17 1023 72 10000 3.1 150 18:38 08.04.2020
5099 Clouds 17 1023 72 10000 3.1 150 18:19 08.04.2020
5100 Clouds 18 1024 72 10000 3.1 120 17:42 08.04.2020
5101 Clouds 18 1024 72 10000 3.1 120 17:22 08.04.2020
5102 Clouds 18 1024 63 10000 3.1 130 16:59 08.04.2020
5103 Clouds 18 1024 63 10000 3.1 130 16:40 08.04.2020
5104 Clouds 18 1024 63 10000 3.1 130 16:22 08.04.2020
5105 Clouds 18 1025 48 10000 3.1 170 15:39 08.04.2020
5106 Clouds 18 1025 48 10000 3.1 170 15:39 08.04.2020
5107 Clouds 19 1025 48 10000 3.1 170 15:21 08.04.2020
5108 Clouds 18 1025 34 10000 3.1 190 14:59 08.04.2020
5109 Clouds 18 1025 34 10000 3.1 190 14:40 08.04.2020
5110 Clouds 19 1025 39 10000 3.1 170 14:22 08.04.2020
5111 Clouds 18 1026 45 10000 2.6 190 13:44 08.04.2020
5112 Clouds 18 1026 45 10000 2.6 190 13:44 08.04.2020
5113 Clouds 18 1026 48 10000 2.1 190 13:21 08.04.2020
5114 Clouds 18 1026 48 10000 2.1 190 13:21 08.04.2020
5115 Clouds 18 1026 48 10000 2.1 190 12:58 08.04.2020
5116 Clouds 18 1026 45 10000 2.1 150 12:39 08.04.2020
5117 Clouds 17 1026 45 10000 2.6 130 12:18 08.04.2020
5118 Clouds 17 1026 51 10000 0.5 240 11:42 08.04.2020
5119 Clouds 16 1026 59 10000 1.5 340 11:23 08.04.2020
5120 Clouds 16 1026 59 10000 1.5 340 10:59 08.04.2020
5121 Clouds 15 1026 62 10000 2.1 320 10:41 08.04.2020
5122 Clouds 15 1026 66 10000 3.1 330 10:21 08.04.2020
5123 Clouds 14 1026 66 10000 3.1 330 09:59 08.04.2020
5124 Clouds 13 1026 66 10000 2.6 320 09:41 08.04.2020
5125 Clouds 12 1026 71 10000 4.1 320 09:19 08.04.2020
5126 Clouds 11 1026 71 10000 4.1 320 08:58 08.04.2020
5127 Clouds 11 1025 71 10000 3.6 310 08:39 08.04.2020
5128 Clouds 11 1025 76 10000 4.1 320 08:20 08.04.2020
5129 Clouds 12 1025 71 10000 2.6 320 07:43 08.04.2020
5130 Clouds 11 1025 71 10000 3.6 320 07:21 08.04.2020
5131 Clouds 12 1025 76 10000 2.1 320 06:32 08.04.2020
5132 Clouds 12 1026 71 10000 3.1 320 04:59 08.04.2020
5133 Clouds 13 1027 67 10000 0.5 320 02:51 08.04.2020
5134 Clouds 13 1027 67 10000 1 320 02:22 08.04.2020
5135 Clouds 13 1027 67 10000 1 320 01:56 08.04.2020
5136 Clouds 13 1027 76 10000 1 320 01:28 08.04.2020
5137 Clouds 13 1027 76 10000 1.5 190 00:47 08.04.2020
5138 Clouds 13 1027 82 10000 1.5 190 00:26 08.04.2020
5139 Clouds 13 1027 82 10000 1.5 190 23:57 07.04.2020
5140 Clouds 13 1027 87 10000 1.5 200 23:37 07.04.2020
5141 Clouds 13 1027 82 10000 1 0 23:19 07.04.2020
5142 Clouds 13 1027 82 10000 2.1 210 22:55 07.04.2020
5143 Clouds 14 1027 82 10000 2.1 210 22:37 07.04.2020
5144 Clouds 14 1026 82 10000 2.1 220 22:18 07.04.2020
5145 Clouds 15 1026 77 10000 1.5 210 21:42 07.04.2020
5146 Clouds 15 1026 77 10000 2.6 210 21:21 07.04.2020
5147 Clouds 15 1026 72 10000 3.1 210 20:59 07.04.2020
5148 Clouds 15 1026 72 10000 3.1 210 20:40 07.04.2020
5149 Clouds 16 1026 72 10000 3.1 200 20:21 07.04.2020
5150 Clouds 16 1026 67 10000 3.6 180 19:57 07.04.2020
5151 Clouds 16 1026 67 10000 3.6 180 19:38 07.04.2020
5152 Clouds 16 1026 67 10000 3.6 180 19:38 07.04.2020
5153 Clouds 16 1026 67 10000 3.6 180 19:38 07.04.2020
5154 Clouds 16 1026 72 10000 3.1 180 19:20 07.04.2020
5155 Clouds 17 1026 72 10000 3.6 180 18:59 07.04.2020
5156 Clouds 17 1026 72 10000 3.6 180 18:40 07.04.2020
5157 Clouds 17 1026 72 10000 3.6 180 18:40 07.04.2020
5158 Clouds 17 1026 77 10000 3.6 160 18:21 07.04.2020
5159 Clouds 17 1026 67 10000 4.1 170 17:47 07.04.2020
5160 Clouds 17 1026 67 10000 4.1 170 17:47 07.04.2020
5161 Clouds 17 1026 72 10000 4.1 170 17:25 07.04.2020
5162 Clouds 17 1026 72 10000 4.1 170 16:59 07.04.2020
5163 Clouds 17 1026 67 10000 3.6 150 16:40 07.04.2020
5164 Clouds 17 1026 67 10000 3.6 150 16:22 07.04.2020
5165 Clouds 17 1027 72 10000 3.6 130 15:44 07.04.2020
5166 Clouds 17 1027 67 10000 3.1 130 15:26 07.04.2020
5167 Clouds 17 1027 67 10000 3.1 140 14:55 07.04.2020
5168 Clouds 17 1027 67 10000 3.1 140 14:37 07.04.2020
5169 Clouds 17 1027 67 10000 3.1 120 14:18 07.04.2020
5170 Clouds 17 1027 72 10000 3.1 120 13:42 07.04.2020
5171 Clouds 17 1027 77 10000 2.6 110 13:19 07.04.2020
5172 Clouds 17 1027 77 10000 2.6 110 13:19 07.04.2020
5173 Clouds 17 1027 72 10000 2.1 120 12:57 07.04.2020
5174 Clouds 16 1027 72 10000 2.1 120 12:37 07.04.2020
5175 Clouds 16 1027 72 10000 2.6 110 12:19 07.04.2020
5176 Clouds 16 1027 67 10000 1.4 146 11:56 07.04.2020
5177 Clouds 15 1027 67 10000 1.4 146 11:38 07.04.2020
5178 Clouds 15 1027 67 10000 1.5 310 11:19 07.04.2020
5179 Clouds 14 1027 67 10000 1.5 310 10:39 07.04.2020
5180 Clouds 14 1027 71 10000 2.1 320 10:20 07.04.2020
5181 Clouds 13 1027 71 10000 2.1 320 09:54 07.04.2020
5182 Clouds 12 1026 76 10000 2.1 320 09:36 07.04.2020
5183 Clouds 12 1026 81 10000 2.6 340 09:18 07.04.2020
5184 Clouds 11 1026 81 10000 3.1 330 08:39 07.04.2020
5185 Clouds 11 1026 76 10000 3.1 320 08:20 07.04.2020
5186 Clouds 11 1026 81 10000 2.6 330 07:44 07.04.2020
5187 Clouds 11 1026 81 10000 2.6 330 07:44 07.04.2020
5188 Clouds 11 1026 81 10000 3.1 330 07:26 07.04.2020
5189 Clouds 11 1026 81 10000 2.6 320 06:53 07.04.2020
5190 Clouds 11 1025 81 10000 2.6 320 06:26 07.04.2020
5191 Clouds 11 1026 81 10000 2.6 320 05:56 07.04.2020
5192 Clouds 11 1026 81 10000 2.6 320 05:26 07.04.2020
5193 Clouds 11 1026 76 10000 2.6 320 04:18 07.04.2020
5194 Clouds 11 1026 76 10000 2.1 310 03:21 07.04.2020
5195 Clouds 11 1026 81 10000 2.6 320 02:46 07.04.2020
5196 Clouds 11 1026 76 10000 1 300 01:40 07.04.2020
5197 Clouds 12 1026 76 10000 1 310 01:21 07.04.2020
5198 Clouds 12 1026 76 10000 1 0 00:26 07.04.2020
5199 Clouds 12 1026 87 10000 1.5 240 23:43 06.04.2020
5200 Clouds 12 1026 82 10000 2.1 220 23:22 06.04.2020
5201 Clouds 12 1026 82 10000 2.1 220 23:22 06.04.2020
5202 Clouds 13 1026 82 10000 2.1 210 22:56 06.04.2020
5203 Clouds 13 1026 82 10000 2.1 210 22:37 06.04.2020
5204 Clouds 13 1025 87 10000 2.6 210 22:18 06.04.2020
5205 Clouds 14 1025 87 10000 2.1 190 21:56 06.04.2020
5206 Clouds 14 1025 87 10000 2.1 190 21:37 06.04.2020
5207 Clouds 14 1025 82 10000 2.6 210 21:18 06.04.2020
5208 Clouds 15 1024 82 10000 2.1 200 20:41 06.04.2020
5209 Clouds 15 1024 82 10000 2.6 190 20:21 06.04.2020
5210 Clouds 15 1024 82 10000 2.6 190 19:58 06.04.2020
5211 Clouds 16 1024 82 10000 2.6 190 19:39 06.04.2020
5212 Clouds 16 1024 72 10000 3.1 180 19:20 06.04.2020
5213 Clouds 16 1024 72 10000 3.1 160 18:45 06.04.2020
5214 Clouds 17 1024 72 10000 3.1 180 18:24 06.04.2020
5215 Clouds 17 1024 72 10000 3.1 180 18:24 06.04.2020
5216 Clouds 17 1024 72 10000 2.6 150 17:59 06.04.2020
5217 Clouds 17 1024 72 10000 2.6 150 17:41 06.04.2020
5218 Clouds 17 1024 72 10000 3.1 140 17:19 06.04.2020
5219 Clouds 17 1025 72 10000 2.6 130 16:49 06.04.2020
5220 Clouds 17 1025 72 10000 2.6 130 16:49 06.04.2020
5221 Clouds 17 1025 72 10000 3.1 130 16:31 06.04.2020
5222 Clouds 18 1025 77 10000 3.6 120 15:39 06.04.2020
5223 Clouds 18 1025 77 10000 3.6 120 15:38 06.04.2020
5224 Clouds 17 1025 72 10000 2.6 140 13:45 06.04.2020
5225 Clouds 17 1025 72 10000 2.6 140 13:45 06.04.2020
5226 Clouds 17 1024 72 10000 2.6 110 13:23 06.04.2020
5227 Clouds 17 1024 72 10000 2.6 110 12:53 06.04.2020
5228 Clouds 17 1024 72 10000 2.6 110 12:53 06.04.2020
5229 Clouds 17 1024 72 10000 2.6 110 12:50 06.04.2020
5230 Clouds 17 1024 72 10000 2.6 110 12:50 06.04.2020
5231 Clouds 17 1024 72 10000 2.6 110 12:50 06.04.2020
5232 Clouds 16 1024 72 10000 2.1 110 12:21 06.04.2020
5233 Clouds 16 1024 72 10000 2.1 110 12:21 06.04.2020
5234 Clouds 16 1024 63 10000 2.1 110 11:54 06.04.2020
5235 Clouds 16 1024 63 10000 2.1 110 11:54 06.04.2020
5236 Clouds 16 1024 63 10000 2.1 110 11:54 06.04.2020
5237 Clouds 16 1024 63 10000 2.1 110 11:54 06.04.2020
5238 Clouds 15 1024 67 10000 1 0 11:28 06.04.2020
5239 Clouds 15 1024 67 10000 1 0 11:28 06.04.2020
5240 Clouds 15 1024 67 10000 1 0 11:28 06.04.2020
5241 Clouds 15 1024 67 10000 1 0 11:28 06.04.2020
5242 Clouds 15 1024 67 10000 1 0 11:28 06.04.2020
5243 Clouds 14 1024 66 10000 2.6 330 10:50 06.04.2020
5244 Clouds 14 1024 66 10000 2.6 330 10:50 06.04.2020
5245 Clouds 14 1024 66 10000 2.6 330 10:50 06.04.2020
5246 Clouds 14 1024 66 10000 2.6 330 10:50 06.04.2020
5247 Clouds 14 1024 66 10000 2.6 330 10:50 06.04.2020
5248 Clouds 13 1024 66 10000 2.6 320 10:21 06.04.2020
5249 Clouds 12 1023 76 10000 3.6 330 09:43 06.04.2020
5250 Clouds 12 1023 76 10000 3.6 330 09:43 06.04.2020
5251 Clouds 11 1023 81 10000 3.1 330 09:20 06.04.2020
5252 Clouds 10 1023 81 10000 3.1 330 08:53 06.04.2020
5253 Clouds 9 1022 76 10000 4.6 330 08:30 06.04.2020
5254 Clouds 9 1022 76 10000 3.6 320 07:26 06.04.2020
5255 Clouds 9 1022 81 10000 3.6 320 06:40 06.04.2020
5256 Clouds 9 1022 81 10000 3.6 320 06:40 06.04.2020
5257 Clouds 9 1022 81 10000 3.6 320 06:18 06.04.2020
5258 Clouds 9 1022 76 10000 3.6 330 04:18 06.04.2020
5259 Clouds 9 1022 76 10000 3.6 320 02:56 06.04.2020
5260 Clouds 9 1022 76 10000 2.6 320 02:18 06.04.2020
5261 Clouds 9 1022 81 10000 0.5 0 01:23 06.04.2020
5262 Clouds 10 1021 76 10000 1 320 00:41 06.04.2020
5263 Clouds 10 1021 76 10000 1 320 00:21 06.04.2020
5264 Clouds 10 1021 76 10000 1 320 00:21 06.04.2020
5265 Clouds 10 1021 71 10000 0.5 270 23:41 05.04.2020
5266 Clouds 10 1021 71 10000 0.5 270 23:21 05.04.2020
5267 Clouds 11 1021 81 10000 1 0 22:54 05.04.2020
5268 Clouds 11 1021 81 10000 1 0 22:54 05.04.2020
5269 Clouds 11 1021 82 10000 1.5 220 22:36 05.04.2020
5270 Clouds 12 1021 82 10000 1.5 220 22:18 05.04.2020
5271 Clouds 12 1020 82 10000 1.5 220 21:44 05.04.2020
5272 Clouds 12 1020 82 10000 1.5 220 21:44 05.04.2020
5273 Clouds 12 1020 82 10000 1.5 220 21:44 05.04.2020
5274 Clouds 13 1020 82 10000 1.5 220 21:23 05.04.2020
5275 Clouds 14 1020 76 10000 3.1 220 20:25 05.04.2020
5276 Clouds 14 1020 76 10000 3.1 220 20:25 05.04.2020
5277 Clouds 14 1020 76 10000 3.1 220 20:25 05.04.2020
5278 Clouds 15 1020 67 10000 4.1 210 19:45 05.04.2020
5279 Clouds 16 1020 67 10000 4.1 210 19:26 05.04.2020
5280 Clouds 16 1020 72 10000 4.1 210 18:50 05.04.2020
5281 Clouds 17 1020 67 10000 4.1 200 18:28 05.04.2020
5282 Clouds 17 1020 67 10000 4.1 200 18:28 05.04.2020
5283 Clouds 17 1020 67 10000 4.1 200 18:28 05.04.2020
5284 Clouds 17 1020 67 10000 4.1 200 18:28 05.04.2020
5285 Clouds 17 1020 67 10000 4.1 200 18:28 05.04.2020
5286 Clouds 17 1020 63 10000 4.1 190 17:49 05.04.2020
5287 Clouds 17 1020 63 10000 4.1 190 17:49 05.04.2020
5288 Clouds 17 1020 67 10000 4.1 200 17:49 05.04.2020
5289 Clouds 17 1020 63 10000 4.1 190 17:49 05.04.2020
5290 Clouds 17 1020 67 10000 4.1 200 17:49 05.04.2020
5291 Clouds 17 1020 63 10000 4.1 200 17:23 05.04.2020
5292 Clouds 17 1020 67 10000 4.6 180 16:47 05.04.2020
5293 Clouds 17 1020 63 10000 4.1 200 16:47 05.04.2020
5294 Clouds 17 1020 67 10000 4.6 180 16:19 05.04.2020
5295 Clouds 18 1021 63 10000 4.1 180 15:46 05.04.2020
5296 Clouds 18 1021 63 10000 4.1 180 15:46 05.04.2020
5297 Clouds 17 1021 63 10000 4.1 180 15:28 05.04.2020
5298 Clouds 18 1021 63 10000 3.6 170 14:48 05.04.2020
5299 Clouds 18 1021 63 10000 3.6 170 14:48 05.04.2020
5300 Clouds 18 1021 63 10000 3.6 170 14:48 05.04.2020
5301 Clouds 18 1021 63 10000 3.6 170 14:48 05.04.2020
5302 Clouds 18 1021 63 10000 3.6 170 14:48 05.04.2020
5303 Clouds 18 1021 67 10000 3.6 180 14:23 05.04.2020
5304 Clouds 18 1021 67 10000 3.6 180 14:23 05.04.2020
5305 Clouds 18 1021 67 10000 3.6 180 14:23 05.04.2020
5306 Clouds 18 1021 67 10000 3.6 180 14:23 05.04.2020
5307 Clouds 18 1021 67 10000 3.6 180 14:23 05.04.2020
5308 Clouds 17 1022 63 10000 3.6 200 13:40 05.04.2020
5309 Clouds 16 1022 63 10000 2.6 190 12:27 05.04.2020
5310 Clouds 15 1022 63 10000 2.6 190 12:24 05.04.2020
5311 Clouds 16 1022 63 10000 2.6 190 12:24 05.04.2020
5312 Clouds 15 1022 54 10000 2.1 330 11:40 05.04.2020
5313 Clouds 14 1022 54 10000 2.1 330 11:20 05.04.2020
5314 Clear 13 1022 71 10000 4.1 320 10:48 05.04.2020
5315 Clear 12 1022 71 10000 4.1 320 10:23 05.04.2020
5316 Clear 12 1022 71 10000 4.1 320 10:23 05.04.2020
5317 Clear 12 1022 76 10000 4.6 320 09:55 05.04.2020
5318 Clear 10 1021 76 10000 5.1 320 09:27 05.04.2020
5319 Clear 8 1021 81 10000 4.6 330 08:34 05.04.2020
5320 Clear 8 1021 81 10000 4.6 330 08:34 05.04.2020
5321 Clear 8 1021 81 10000 4.6 330 08:34 05.04.2020
5322 Clear 7 1020 81 10000 4.1 320 07:21 05.04.2020
5323 Clear 8 1020 93 10000 3.6 330 04:32 05.04.2020
5324 Clouds 9 1021 87 10000 4.1 320 03:29 05.04.2020
5325 Clouds 9 1021 87 10000 4.1 320 03:29 05.04.2020
5326 Clouds 9 1021 87 10000 3.1 320 02:46 05.04.2020
5327 Clouds 9 1021 81 10000 1.5 300 01:45 05.04.2020
5328 Clouds 10 1021 81 10000 1.5 300 01:23 05.04.2020
5329 Clouds 10 1021 87 10000 1.5 300 00:42 05.04.2020
5330 Clouds 10 1021 87 10000 1.5 300 00:21 05.04.2020
5331 Clear 11 1021 87 10000 2.6 240 23:42 04.04.2020
5332 Clear 11 1021 87 10000 2.6 240 23:42 04.04.2020
5333 Clear 11 1021 93 10000 2.6 230 23:23 04.04.2020
5334 Clear 11 1021 93 10000 2.6 230 22:57 04.04.2020
5335 Clear 12 1021 87 10000 3.1 230 22:39 04.04.2020
5336 Clear 12 1021 87 10000 3.1 230 22:21 04.04.2020
5337 Clear 13 1020 87 10000 3.1 220 21:58 04.04.2020
5338 Clear 13 1020 87 10000 3.1 220 21:39 04.04.2020
5339 Clear 13 1020 87 10000 3.1 220 21:19 04.04.2020
5340 Clear 14 1020 82 10000 3.6 220 20:58 04.04.2020
5341 Clear 14 1020 82 10000 4.6 220 20:39 04.04.2020
5342 Clear 15 1020 82 10000 4.6 220 20:20 04.04.2020
5343 Clear 15 1020 77 10000 5.7 220 19:56 04.04.2020
5344 Clear 16 1019 77 10000 5.1 210 19:36 04.04.2020
5345 Clear 16 1019 77 10000 5.1 210 19:18 04.04.2020
5346 Clear 17 1019 77 10000 5.1 210 18:55 04.04.2020
5347 Clear 17 1019 67 10000 5.1 210 18:37 04.04.2020
5348 Clear 17 1019 63 10000 5.7 220 18:18 04.04.2020
5349 Clear 18 1020 67 10000 6.2 210 17:40 04.04.2020
5350 Clouds 18 1020 63 10000 6.2 210 17:20 04.04.2020
5351 Clouds 18 1020 63 10000 6.2 210 16:55 04.04.2020
5352 Clouds 18 1020 67 10000 6.2 210 16:37 04.04.2020
5353 Clouds 18 1020 67 10000 6.2 210 16:18 04.04.2020
5354 Clouds 18 1020 67 10000 6.2 200 15:40 04.04.2020
5355 Clouds 18 1020 67 10000 6.2 200 15:22 04.04.2020
5356 Clouds 17 1020 77 10000 5.1 190 14:57 04.04.2020
5357 Clouds 17 1020 72 10000 4.1 200 14:39 04.04.2020
5358 Clouds 17 1020 72 10000 4.1 200 14:20 04.04.2020
5359 Clouds 17 1020 67 10000 3.1 170 13:55 04.04.2020
5360 Clear 17 1021 67 10000 2.1 160 13:37 04.04.2020
5361 Clear 17 1021 62 10000 1.5 110 13:18 04.04.2020
5362 Clear 16 1021 62 10000 2.6 70 12:43 04.04.2020
5363 Clear 16 1021 62 10000 2.6 70 12:23 04.04.2020
5364 Clear 15 1021 62 10000 1 0 11:55 04.04.2020
5365 Clear 14 1020 62 10000 1 0 11:36 04.04.2020
5366 Clear 14 1020 62 10000 1 0 11:18 04.04.2020
5367 Clear 13 1020 66 10000 2.6 310 10:55 04.04.2020
5368 Clear 13 1020 66 10000 4.1 320 10:37 04.04.2020
5369 Clear 12 1020 76 10000 3.6 310 10:18 04.04.2020
5370 Clear 11 1019 81 10000 4.6 320 09:44 04.04.2020
5371 Clear 10 1019 81 10000 4.6 320 09:25 04.04.2020
5372 Clear 8 1019 81 10000 5.1 320 08:58 04.04.2020
5373 Clear 8 1019 87 10000 4.6 310 08:38 04.04.2020
5374 Clear 8 1019 87 10000 4.6 320 08:19 04.04.2020
5375 Clear 8 1018 81 10000 4.1 320 07:40 04.04.2020
5376 Clear 8 1018 81 10000 4.1 320 07:22 04.04.2020
5377 Clear 8 1018 81 10000 4.1 320 06:46 04.04.2020
5378 Clear 8 1018 81 10000 3.6 310 06:18 04.04.2020
5379 Clear 8 1018 87 10000 3.6 310 05:40 04.04.2020
5380 Clear 8 1018 87 10000 3.6 310 05:22 04.04.2020
5381 Clear 9 1019 81 10000 3.1 310 04:25 04.04.2020
5382 Clear 9 1019 87 10000 3.6 320 03:47 04.04.2020
5383 Clear 9 1019 81 10000 2.6 310 02:49 04.04.2020
5384 Clear 9 1019 81 10000 3.1 310 02:30 04.04.2020
5385 Clouds 9 1019 81 10000 1.5 330 01:51 04.04.2020
5386 Clouds 10 1019 76 10000 1.5 300 01:22 04.04.2020
5387 Clouds 10 1019 76 10000 1.5 300 00:47 04.04.2020
5388 Clouds 10 1018 71 10000 0.5 50 00:27 04.04.2020
5389 Clouds 11 1018 76 10000 2.1 210 23:39 03.04.2020
5390 Clouds 11 1018 76 10000 2.1 210 23:39 03.04.2020
5391 Clouds 11 1018 76 10000 2.1 210 23:21 03.04.2020
5392 Clouds 11 1018 71 10000 2.6 220 22:56 03.04.2020
5393 Clouds 11 1018 71 10000 1 230 22:38 03.04.2020
5394 Clouds 12 1018 71 10000 1 230 22:18 03.04.2020
5395 Clouds 12 1017 71 10000 3.6 230 21:43 03.04.2020
5396 Clouds 12 1017 71 10000 3.6 230 21:24 03.04.2020
5397 Clouds 13 1017 67 10000 3.6 210 20:57 03.04.2020
5398 Clouds 13 1017 67 10000 5.1 220 20:37 03.04.2020
5399 Clouds 14 1017 67 10000 5.1 220 20:19 03.04.2020
5400 Clouds 14 1016 62 10000 6.2 220 19:57 03.04.2020
5401 Clouds 15 1016 58 10000 6.2 220 19:38 03.04.2020
5402 Clouds 15 1016 58 10000 6.2 220 19:38 03.04.2020
5403 Clouds 15 1016 58 10000 6.2 220 19:20 03.04.2020
5404 Clouds 15 1016 58 10000 6.2 210 18:58 03.04.2020
5405 Clouds 16 1016 54 10000 6.7 220 18:40 03.04.2020
5406 Clouds 16 1016 51 10000 7.2 220 18:22 03.04.2020
5407 Clouds 16 1016 48 10000 7.2 220 17:54 03.04.2020
5408 Clouds 16 1016 48 10000 7.2 220 17:36 03.04.2020
5409 Clouds 16 1016 55 10000 7.2 220 17:18 03.04.2020
5410 Clouds 16 1016 51 10000 5.7 220 16:42 03.04.2020
5411 Clouds 16 1016 51 10000 5.7 220 16:21 03.04.2020
5412 Clouds 16 1016 59 10000 6.7 210 15:58 03.04.2020
5413 Clouds 16 1016 62 10000 6.7 220 15:39 03.04.2020
5414 Clouds 16 1016 62 10000 6.7 220 15:19 03.04.2020
5415 Clouds 16 1021 52 0 3.08 231 14:55 03.04.2020
5416 Clouds 16 1021 54 0 3.08 231 14:55 03.04.2020
5417 Clouds 16 1016 64 0 3.08 231 14:37 03.04.2020
5418 Clouds 16 1016 58 10000 4.6 200 14:19 03.04.2020
5419 Clouds 15 1016 58 10000 4.6 200 13:42 03.04.2020
5420 Clouds 15 1016 58 10000 4.6 200 13:24 03.04.2020
5421 Clouds 15 1016 58 10000 3.6 320 12:44 03.04.2020
5422 Clouds 14 1016 58 10000 3.6 320 12:21 03.04.2020
5423 Clouds 14 1016 58 10000 4.1 300 11:57 03.04.2020
5424 Clouds 14 1016 62 10000 4.1 310 11:39 03.04.2020
5425 Clouds 13 1016 62 10000 4.1 310 11:21 03.04.2020
5426 Clouds 13 1016 66 10000 4.6 310 10:59 03.04.2020
5427 Clouds 12 1015 71 10000 3.6 310 10:39 03.04.2020
5428 Clouds 12 1015 71 10000 3.6 310 10:20 03.04.2020
5429 Clouds 11 1015 76 10000 3.1 330 09:59 03.04.2020
5430 Clouds 10 1015 87 10000 3.6 330 09:40 03.04.2020
5431 Clouds 10 1015 87 10000 3.6 330 09:21 03.04.2020
5432 Clouds 9 1014 81 10000 4.1 320 08:56 03.04.2020
5433 Clouds 9 1014 87 10000 4.1 320 08:38 03.04.2020
5434 Clouds 9 1014 87 10000 4.1 320 08:20 03.04.2020
5435 Clouds 8 1013 93 10000 3.6 340 07:46 03.04.2020
5436 Clouds 8 1013 93 10000 3.6 340 07:28 03.04.2020
5437 Clouds 8 1013 87 10000 3.6 310 06:41 03.04.2020
5438 Clouds 8 1013 87 10000 3.6 310 06:22 03.04.2020
5439 Clouds 8 1013 93 10000 1.5 10 05:39 03.04.2020
5440 Clouds 9 1014 81 10000 2.1 300 03:42 03.04.2020
5441 Clouds 9 1014 87 10000 3.1 300 02:56 03.04.2020
5442 Clouds 10 1014 87 10000 2.1 300 02:18 03.04.2020
5443 Clouds 10 1014 81 10000 1.5 330 01:22 03.04.2020
5444 Clouds 11 1014 71 10000 1.5 20 00:37 03.04.2020
5445 Clouds 11 1014 71 10000 3.1 60 00:19 03.04.2020
5446 Clouds 11 1014 71 10000 4.6 60 23:42 02.04.2020
5447 Clouds 11 1014 71 10000 4.6 60 23:23 02.04.2020
5448 Clouds 11 1014 71 10000 5.1 60 22:58 02.04.2020
5449 Clouds 11 1013 71 10000 5.7 70 22:38 02.04.2020
5450 Clouds 12 1013 71 10000 5.7 70 22:20 02.04.2020
5451 Clouds 12 1013 66 10000 5.7 70 21:39 02.04.2020
5452 Clouds 12 1013 66 10000 5.7 70 21:20 02.04.2020
5453 Clouds 12 1012 66 10000 7.2 70 20:58 02.04.2020
5454 Clouds 12 1012 66 10000 7.2 70 20:40 02.04.2020
5455 Clouds 12 1012 66 10000 7.2 70 20:21 02.04.2020
5456 Clouds 13 1012 62 10000 10.3 70 19:44 02.04.2020
5457 Clouds 13 1012 62 10000 10.3 70 19:21 02.04.2020
5458 Clouds 14 1011 62 10000 9.8 70 18:59 02.04.2020
5459 Clouds 14 1011 62 10000 9.8 70 18:39 02.04.2020
5460 Clouds 14 1011 62 10000 9.8 70 18:20 02.04.2020
5461 Clouds 14 1011 58 10000 8.7 70 17:57 02.04.2020
5462 Clouds 14 1011 58 10000 9.3 70 17:38 02.04.2020
5463 Clouds 14 1011 58 10000 9.3 70 17:20 02.04.2020
5464 Clouds 15 1011 62 10000 9.3 70 16:56 02.04.2020
5465 Clouds 15 1011 62 10000 10.3 70 16:37 02.04.2020
5466 Clouds 15 1011 62 10000 10.3 70 16:19 02.04.2020
5467 Clouds 15 1012 62 10000 9.8 70 15:54 02.04.2020
5468 Clouds 14 1012 66 10000 9.8 70 15:36 02.04.2020
5469 Clouds 14 1012 66 10000 9.8 70 15:18 02.04.2020
5470 Drizzle 14 1012 71 10000 7.7 50 14:40 02.04.2020
5471 Drizzle 14 1012 71 10000 7.7 50 14:40 02.04.2020
5472 Drizzle 14 1012 66 10000 8.7 60 14:20 02.04.2020
5473 Drizzle 14 1012 66 10000 8.7 60 13:58 02.04.2020
5474 Clouds 13 1012 62 10000 8.2 60 13:39 02.04.2020
5475 Clouds 13 1012 62 10000 8.2 60 13:21 02.04.2020
5476 Clouds 13 1012 62 10000 6.7 50 12:56 02.04.2020
5477 Clouds 13 1012 62 10000 6.7 50 12:56 02.04.2020
5478 Clouds 13 1012 62 10000 6.7 50 12:56 02.04.2020
5479 Clouds 13 1012 62 10000 8.2 50 12:37 02.04.2020
5480 Clouds 12 1012 58 10000 7.2 50 12:19 02.04.2020
5481 Clouds 12 1012 58 10000 7.2 50 11:57 02.04.2020
5482 Clouds 12 1012 66 10000 9.3 50 11:38 02.04.2020
5483 Clouds 12 1012 66 10000 9.3 50 11:38 02.04.2020
5484 Clouds 12 1011 66 10000 8.2 40 11:19 02.04.2020
5485 Clouds 12 1011 66 10000 8.2 40 11:19 02.04.2020
5486 Clouds 11 1011 66 10000 8.2 40 10:55 02.04.2020
5487 Clouds 11 1011 66 10000 8.2 40 10:37 02.04.2020
5488 Clouds 11 1011 76 10000 6.2 40 10:19 02.04.2020
5489 Clouds 10 1011 71 10000 6.2 40 09:43 02.04.2020
5490 Clouds 10 1011 71 10000 6.2 40 09:25 02.04.2020
5491 Clouds 10 1011 76 10000 6.2 30 08:59 02.04.2020
5492 Clouds 10 1011 76 10000 6.7 30 08:40 02.04.2020
5493 Clouds 9 1011 76 10000 6.7 30 08:22 02.04.2020
5494 Clouds 9 1011 76 10000 7.2 30 07:45 02.04.2020
5495 Clouds 10 1011 76 10000 6.2 30 07:20 02.04.2020
5496 Clouds 10 1011 76 10000 6.2 30 06:58 02.04.2020
5497 Clouds 10 1011 76 10000 6.2 30 06:21 02.04.2020
5498 Drizzle 10 1011 76 10000 5.7 30 05:45 02.04.2020
5499 Clouds 10 1011 76 10000 7.2 30 04:33 02.04.2020
5500 Clouds 10 1012 81 10000 8.2 40 01:51 02.04.2020
5501 Clouds 10 1013 87 10000 7.7 40 00:48 02.04.2020
5502 Clouds 10 1013 87 9000 9.8 60 00:27 02.04.2020
5503 Drizzle 10 1013 87 9000 8.7 50 23:55 01.04.2020
5504 Drizzle 10 1013 87 10000 10.3 60 23:37 01.04.2020
5505 Drizzle 10 1013 87 10000 10.3 60 23:37 01.04.2020
5506 Drizzle 10 1013 87 10000 10.3 60 23:18 01.04.2020
5507 Rain 10 1013 87 9000 10.3 60 22:41 01.04.2020
5508 Rain 10 1013 87 9000 10.3 60 22:22 01.04.2020
5509 Rain 9 1013 87 7000 11.3 60 21:57 01.04.2020
5510 Clouds 9 1013 87 10000 9.8 70 21:38 01.04.2020
5511 Clouds 9 1013 87 10000 9.8 70 21:18 01.04.2020
5512 Drizzle 9 1012 87 10000 11.8 60 20:55 01.04.2020
5513 Drizzle 9 1012 87 10000 11.8 60 20:37 01.04.2020
5514 Rain 9 1012 93 9000 11.8 60 20:18 01.04.2020
5515 Rain 10 1012 100 4000 13.4 60 19:43 01.04.2020
5516 Rain 10 1012 100 4000 13.4 60 19:22 01.04.2020
5517 Rain 10 1013 100 3200 10.8 70 18:59 01.04.2020
5518 Rain 10 1013 100 3200 10.8 70 18:59 01.04.2020
5519 Rain 10 1013 100 3200 10.8 70 18:59 01.04.2020
5520 Rain 10 1013 100 4000 10.3 70 18:40 01.04.2020
5521 Rain 10 1013 100 4000 10.3 70 18:21 01.04.2020
5522 Rain 10 1013 93 3000 11.8 60 17:56 01.04.2020
5523 Rain 10 1013 93 3000 11.8 60 17:56 01.04.2020
5524 Rain 10 1013 93 3000 12.9 70 17:36 01.04.2020
5525 Rain 10 1013 87 6000 11.8 60 17:18 01.04.2020
5526 Rain 10 1013 93 3200 13.4 70 16:43 01.04.2020
5527 Rain 10 1013 93 3200 13.4 70 16:43 01.04.2020
5528 Rain 11 1013 93 2500 12.9 60 16:25 01.04.2020
5529 Rain 11 1013 93 2500 12.9 60 15:59 01.04.2020
5530 Rain 11 1013 93 1400 12.3 50 15:41 01.04.2020
5531 Rain 11 1013 93 1400 12.3 50 15:22 01.04.2020
5532 Rain 11 1013 93 1200 12.9 60 14:58 01.04.2020
5533 Clouds 11 1014 87 10000 12.3 50 14:39 01.04.2020
5534 Clouds 11 1014 87 10000 12.3 50 14:20 01.04.2020
5535 Clouds 11 1014 87 10000 11.3 50 13:58 01.04.2020
5536 Clouds 11 1014 87 10000 11.3 50 13:38 01.04.2020
5537 Clouds 11 1014 87 10000 11.3 50 13:19 01.04.2020
5538 Clouds 11 1015 87 10000 9.8 50 12:57 01.04.2020
5539 Clouds 11 1015 87 9000 11.3 50 12:37 01.04.2020
5540 Clouds 11 1015 87 10000 11.3 50 12:18 01.04.2020
5541 Clouds 11 1015 87 10000 11.3 50 11:56 01.04.2020
5542 Clouds 11 1015 87 8000 11.3 50 11:37 01.04.2020
5543 Clouds 11 1015 87 8000 11.3 50 11:18 01.04.2020
5544 Drizzle 10 1015 87 10000 10.8 50 10:38 01.04.2020
5545 Clouds 10 1015 81 10000 10.8 50 10:20 01.04.2020
5546 Clouds 10 1015 81 10000 10.8 50 09:58 01.04.2020
5547 Rain 10 1015 93 10000 10.3 50 09:39 01.04.2020
5548 Rain 10 1015 87 10000 11.3 60 09:19 01.04.2020
5549 Drizzle 10 1014 87 10000 10.3 60 08:44 01.04.2020
5550 Drizzle 11 1014 87 10000 10.3 60 08:18 01.04.2020
5551 Drizzle 10 1014 87 10000 9.8 60 07:48 01.04.2020
5552 Drizzle 11 1014 87 10000 11.8 60 07:23 01.04.2020
5553 Drizzle 11 1014 87 10000 11.8 60 06:59 01.04.2020
5554 Clouds 11 1014 93 10000 9.3 60 06:39 01.04.2020
5555 Clouds 11 1014 93 10000 9.3 60 06:20 01.04.2020
5556 Clouds 11 1014 93 10000 10.3 50 04:55 01.04.2020
5557 Clouds 11 1015 82 10000 8.7 60 03:36 01.04.2020
5558 Clouds 11 1015 82 10000 8.2 50 02:59 01.04.2020
5559 Clouds 11 1015 82 10000 8.2 60 02:31 01.04.2020
5560 Clouds 11 1015 82 10000 7.2 50 01:46 01.04.2020
5561 Clouds 11 1015 76 9000 7.2 50 01:24 01.04.2020
5562 Clouds 11 1015 76 9000 6.7 50 00:47 01.04.2020
5563 Clouds 11 1015 76 9000 6.7 50 00:21 01.04.2020
5564 Clouds 11 1015 81 9000 8.7 50 23:54 31.03.2020
5565 Clouds 11 1015 76 9000 7.7 60 23:36 31.03.2020
5566 Clouds 11 1015 76 9000 8.2 50 23:18 31.03.2020
5567 Clouds 11 1015 76 9000 9.8 50 22:40 31.03.2020
5568 Clouds 11 1014 81 9000 9.3 50 22:21 31.03.2020
5569 Clouds 11 1014 81 9000 9.3 50 21:58 31.03.2020
5570 Clouds 11 1014 81 9000 9.3 50 21:58 31.03.2020
5571 Clouds 11 1014 81 9000 9.3 50 21:39 31.03.2020
5572 Clouds 11 1014 81 9000 9.3 50 21:21 31.03.2020
5573 Rain 11 1014 76 9000 9.8 50 20:57 31.03.2020
5574 Rain 11 1014 76 9000 9.8 50 20:37 31.03.2020
5575 Rain 11 1014 76 9000 10.8 50 20:18 31.03.2020
5576 Clouds 11 1014 76 9000 10.8 50 19:55 31.03.2020
5577 Rain 11 1013 76 10000 9.3 60 19:37 31.03.2020
5578 Drizzle 11 1013 81 7000 10.8 60 19:18 31.03.2020
5579 Drizzle 11 1013 81 7000 10.8 60 19:18 31.03.2020
5580 Rain 11 1013 81 6000 10.8 50 18:43 31.03.2020
5581 Rain 12 1013 81 6000 9.3 60 18:20 31.03.2020
5582 Rain 12 1013 81 6000 9.3 60 17:56 31.03.2020
5583 Rain 12 1013 81 7000 8.2 60 17:56 31.03.2020
5584 Rain 12 1013 81 7000 8.2 60 17:38 31.03.2020
5585 Rain 12 1013 81 7000 8.2 60 17:38 31.03.2020
5586 Rain 12 1013 81 7000 8.2 60 17:20 31.03.2020
5587 Rain 12 1013 81 7000 8.2 60 16:56 31.03.2020
5588 Rain 12 1013 76 8000 7.7 60 16:36 31.03.2020
5589 Rain 12 1013 76 8000 7.7 60 16:18 31.03.2020
5590 Rain 12 1014 76 9000 8.2 60 15:54 31.03.2020
5591 Rain 12 1013 81 9000 9.3 60 15:36 31.03.2020
5592 Rain 12 1014 81 9000 8.2 60 15:18 31.03.2020
5593 Rain 12 1014 81 9000 9.3 60 14:41 31.03.2020
5594 Rain 12 1014 81 9000 9.3 60 14:22 31.03.2020
5595 Drizzle 12 1014 71 10000 9.8 70 13:58 31.03.2020
5596 Clouds 13 1014 62 10000 10.3 70 13:40 31.03.2020
5597 Clouds 13 1014 62 10000 10.3 70 13:19 31.03.2020
5598 Clouds 12 1014 66 10000 9.3 60 12:45 31.03.2020
5599 -273 0 0 0 0 0 12:20 31.03.2020
5600 Clouds 11 1014 66 10000 10.3 60 11:56 31.03.2020
5601 Clouds 11 1014 66 10000 10.3 60 11:37 31.03.2020
5602 Clouds 11 1014 66 10000 10.3 60 11:19 31.03.2020
5603 Clouds 10 1014 66 10000 8.7 60 10:55 31.03.2020
5604 Clouds 10 1014 66 10000 8.7 60 10:55 31.03.2020
5605 Clouds 10 1014 66 10000 8.7 60 10:37 31.03.2020
5606 Clouds 10 1014 71 10000 9.3 60 10:18 31.03.2020
5607 Drizzle 9 1014 76 10000 8.7 60 09:43 31.03.2020
5608 Drizzle 9 1014 76 10000 8.7 60 09:25 31.03.2020
5609 Clouds 9 1014 71 10000 8.7 60 08:58 31.03.2020
5610 Clouds 9 1014 71 10000 7.7 50 08:40 31.03.2020
5611 Clouds 9 1014 71 10000 7.7 50 08:20 31.03.2020
5612 Clouds 9 1014 71 10000 7.7 50 08:20 31.03.2020
5613 Clouds 9 1013 66 10000 8.7 60 07:57 31.03.2020
5614 Clouds 9 1013 71 10000 10.3 60 07:38 31.03.2020
5615 Clouds 9 1013 66 10000 9.3 60 07:20 31.03.2020
5616 Clouds 9 1013 66 10000 9.3 60 06:51 31.03.2020
5617 Clouds 9 1013 71 10000 8.7 70 06:31 31.03.2020
5618 Clouds 9 1013 66 10000 8.2 70 05:41 31.03.2020
5619 Clouds 8 1014 87 10000 4.6 40 03:57 31.03.2020
5620 Clouds 8 1014 87 10000 2.6 340 02:30 31.03.2020
5621 Clouds 8 1015 81 10000 4.1 330 01:46 31.03.2020
5622 Rain 8 1015 81 10000 3.1 320 00:52 31.03.2020
5623 Clouds 8 1015 81 10000 3.6 330 00:25 31.03.2020
5624 Clouds 8 1015 81 10000 2.6 320 23:59 30.03.2020
5625 Clouds 8 1015 81 10000 3.1 330 23:38 30.03.2020
5626 Clouds 8 1015 81 10000 4.1 330 23:19 30.03.2020
5627 Clouds 8 1015 81 10000 4.1 330 22:57 30.03.2020
5628 Clouds 8 1015 81 10000 4.1 320 22:37 30.03.2020
5629 Clouds 8 1015 81 10000 4.6 320 22:18 30.03.2020
5630 Clouds 8 1015 81 10000 4.6 320 21:57 30.03.2020
5631 Clouds 8 1015 81 10000 4.6 320 21:37 30.03.2020
5632 Clouds 8 1015 81 10000 4.6 320 21:19 30.03.2020
5633 Clouds 8 1015 81 10000 4.6 330 20:55 30.03.2020
5634 Clouds 8 1015 81 10000 4.1 330 20:36 30.03.2020
5635 Clouds 8 1015 81 10000 4.1 330 20:36 30.03.2020
5636 Clouds 7 1015 81 10000 4.1 330 20:18 30.03.2020
5637 Clouds 7 1015 87 10000 4.1 340 19:41 30.03.2020
5638 Rain 7 1015 87 10000 4.1 340 19:22 30.03.2020
5639 Rain 7 1015 81 10000 5.1 320 18:57 30.03.2020
5640 Rain 7 1015 81 10000 3.1 320 18:39 30.03.2020
5641 Rain 8 1015 81 10000 3.1 320 18:20 30.03.2020
5642 Rain 8 1015 81 10000 2.1 320 17:57 30.03.2020
5643 Clouds 8 1015 81 10000 2.6 340 17:38 30.03.2020
5644 Clouds 8 1015 81 10000 2.6 340 17:19 30.03.2020
5645 Clouds 8 1015 81 10000 3.6 320 16:56 30.03.2020
5646 Clouds 8 1015 81 10000 3.6 320 16:56 30.03.2020
5647 Clouds 8 1015 81 10000 3.6 330 16:38 30.03.2020
5648 Rain 8 1015 81 10000 3.6 330 16:19 30.03.2020
5649 Rain 8 1015 87 10000 4.1 350 15:54 30.03.2020
5650 Rain 8 1015 81 10000 5.1 340 15:36 30.03.2020
5651 Rain 8 1015 81 10000 5.7 340 15:18 30.03.2020
5652 Rain 8 1015 81 10000 5.1 330 14:54 30.03.2020
5653 Rain 8 1015 81 10000 5.1 330 14:36 30.03.2020
5654 Rain 8 1015 81 10000 5.1 330 14:18 30.03.2020
5655 Rain 9 1015 81 10000 3.6 320 13:43 30.03.2020
5656 Rain 9 1015 81 8000 3.6 330 13:21 30.03.2020
5657 Rain 9 1015 81 8000 3.6 330 12:57 30.03.2020
5658 Rain 10 1015 81 7000 2.6 320 12:38 30.03.2020
5659 Rain 10 1015 81 7000 2.6 320 12:38 30.03.2020
5660 Rain 9 1015 87 10000 1 80 12:19 30.03.2020
5661 Clouds 10 1015 87 10000 1 80 11:56 30.03.2020
5662 Clouds 10 1015 87 10000 2.6 70 11:38 30.03.2020
5663 Clouds 10 1015 87 10000 2.6 70 11:20 30.03.2020
5664 Rain 10 1014 93 8000 4.6 70 10:39 30.03.2020
5665 Rain 10 1014 87 5000 4.1 60 10:21 30.03.2020
5666 Rain 10 1014 87 5000 4.1 60 09:56 30.03.2020
5667 Rain 10 1014 87 5000 4.1 60 09:56 30.03.2020
5668 Rain 10 1013 87 10000 6.2 80 09:38 30.03.2020
5669 Rain 10 1013 81 10000 4.1 60 09:18 30.03.2020
5670 Clouds 10 1013 76 10000 7.2 70 08:41 30.03.2020
5671 Clouds 10 1013 76 10000 7.2 70 08:22 30.03.2020
5672 Clouds 10 1013 76 10000 7.2 70 08:22 30.03.2020
5673 Clouds 10 1013 71 10000 8.2 70 07:49 30.03.2020
5674 Clouds 11 1013 71 10000 8.2 70 07:31 30.03.2020
5675 Clouds 11 1013 76 10000 8.2 80 06:56 30.03.2020
5676 Clouds 11 1013 76 10000 7.7 70 06:32 30.03.2020
5677 Clouds 11 1013 76 10000 9.8 60 05:54 30.03.2020
5678 Clouds 11 1013 76 10000 9.8 60 05:22 30.03.2020
5679 Clouds 11 1013 67 10000 9.3 70 04:23 30.03.2020
5680 Clouds 11 1013 82 10000 5.1 60 03:44 30.03.2020
5681 Clouds 12 1013 82 10000 2.1 70 02:42 30.03.2020
5682 Clouds 12 1013 76 10000 1 0 01:44 30.03.2020
5683 Clouds 12 1013 77 10000 1.5 150 00:50 30.03.2020
5684 Clouds 13 1013 77 10000 1.5 120 00:23 30.03.2020
5685 Clouds 13 1014 72 10000 1 0 23:42 29.03.2020
5686 Clouds 13 1014 72 10000 1 0 23:24 29.03.2020
5687 Clouds 13 1014 67 10000 0.5 70 22:59 29.03.2020
5688 Clouds 13 1014 67 10000 1 60 22:39 29.03.2020
5689 Clouds 13 1014 67 10000 1 60 22:19 29.03.2020
5690 Clouds 13 1014 67 10000 1 0 21:57 29.03.2020
5691 Clouds 14 1014 72 10000 2.6 90 21:36 29.03.2020
5692 Clouds 14 1014 72 10000 2.6 90 21:18 29.03.2020
5693 Clouds 14 1013 72 10000 2.6 90 20:55 29.03.2020
5694 Clouds 14 1013 72 10000 3.1 100 20:37 29.03.2020
5695 Clouds 14 1013 72 10000 3.1 100 20:37 29.03.2020
5696 Clouds 14 1013 72 10000 3.1 100 20:37 29.03.2020
5697 Clouds 15 1013 67 10000 3.6 100 20:18 29.03.2020
5698 Clouds 15 1013 67 10000 3.6 100 19:54 29.03.2020
5699 Clouds 16 1013 63 10000 4.1 80 19:36 29.03.2020
5700 Clouds 16 1013 59 10000 4.6 70 19:18 29.03.2020
5701 Clouds 16 1013 59 10000 4.6 70 18:54 29.03.2020
5702 Clouds 16 1013 51 10000 3.1 100 18:36 29.03.2020
5703 Clouds 16 1013 51 10000 3.1 100 18:36 29.03.2020
5704 Clouds 17 1013 55 10000 2.1 0 18:18 29.03.2020
5705 Clouds 17 1013 55 10000 2.1 0 18:18 29.03.2020
5706 Clouds 18 1013 55 10000 3.1 180 17:42 29.03.2020
5707 Clouds 18 1013 55 10000 4.1 180 17:22 29.03.2020
5708 Clouds 18 1013 55 10000 4.1 180 16:59 29.03.2020
5709 Clouds 18 1013 52 10000 5.1 200 16:40 29.03.2020
5710 Clouds 18 1013 52 10000 5.1 200 16:21 29.03.2020
5711 Clouds 19 1013 48 10000 5.1 200 15:58 29.03.2020
5712 Clouds 19 1014 45 10000 4.1 210 15:40 29.03.2020
5713 Clouds 19 1014 45 10000 4.1 210 15:20 29.03.2020
5714 Clouds 19 1014 55 10000 3.6 210 14:56 29.03.2020
5715 Clouds 19 1014 63 10000 4.6 190 14:37 29.03.2020
5716 Clouds 19 1014 63 10000 4.6 190 14:19 29.03.2020
5717 Clouds 19 1014 63 10000 4.6 200 13:55 29.03.2020
5718 Clouds 18 1015 63 10000 4.1 200 13:37 29.03.2020
5719 Clouds 18 1015 48 10000 2.6 230 13:18 29.03.2020
5720 Clouds 18 1015 48 10000 2.6 230 12:54 29.03.2020
5721 Clouds 18 1015 48 10000 2.6 230 12:54 29.03.2020
5722 Clouds 17 1015 51 10000 3.1 310 12:36 29.03.2020
5723 Clouds 15 1015 51 10000 3.6 310 12:18 29.03.2020
5724 Clouds 15 1015 58 10000 4.1 320 11:38 29.03.2020
5725 Clouds 15 1015 58 10000 4.1 320 11:20 29.03.2020
5726 Clouds 13 1015 66 10000 5.1 330 10:40 29.03.2020
5727 Clouds 12 1015 66 10000 5.1 330 10:21 29.03.2020
5728 Clouds 12 1015 71 10000 5.7 330 09:59 29.03.2020
5729 Clouds 11 1015 76 10000 5.1 330 09:38 29.03.2020
5730 Clouds 9 1016 76 10000 5.7 330 09:19 29.03.2020
5731 Clouds 8 1016 76 10000 5.7 330 08:45 29.03.2020
5732 Clouds 9 1015 76 10000 4.6 320 08:27 29.03.2020
5733 Clouds 8 1015 76 10000 4.1 320 07:56 29.03.2020
5734 Clouds 8 1015 76 10000 3.6 320 07:37 29.03.2020
5735 Clouds 8 1015 81 10000 4.1 320 07:19 29.03.2020
5736 Clouds 9 1016 76 10000 2.6 310 04:58 29.03.2020
5737 Clouds 10 1017 76 10000 1 310 03:42 29.03.2020
5738 Clouds 10 1017 76 10000 1 310 03:24 29.03.2020
5739 Clouds 10 1017 71 10000 1.5 290 01:50 29.03.2020
5740 Clouds 11 1017 66 10000 2.6 300 01:23 29.03.2020
5741 Clouds 11 1017 66 10000 3.1 270 00:53 29.03.2020
5742 Clouds 11 1017 66 10000 5.7 240 00:29 29.03.2020
5743 Clouds 11 1017 66 10000 5.1 230 23:42 28.03.2020
5744 Clouds 11 1017 66 10000 5.1 230 23:23 28.03.2020
5745 Clouds 11 1017 71 10000 5.1 230 22:57 28.03.2020
5746 Clouds 12 1017 67 10000 3.6 240 22:37 28.03.2020
5747 Clouds 12 1017 67 10000 3.6 240 22:18 28.03.2020
5748 Clouds 12 1017 67 10000 4.6 230 21:42 28.03.2020
5749 Clouds 12 1017 67 10000 4.6 230 21:24 28.03.2020
5750 Clouds 13 1017 67 10000 4.1 220 20:58 28.03.2020
5751 Clouds 13 1017 71 10000 4.1 230 20:39 28.03.2020
5752 Clouds 13 1017 71 10000 4.1 230 20:21 28.03.2020
5753 Clouds 13 1017 71 10000 3.6 220 19:56 28.03.2020
5754 Clouds 13 1017 71 10000 3.6 220 19:56 28.03.2020
5755 Clouds 14 1016 62 10000 4.1 220 19:37 28.03.2020
5756 Clouds 14 1016 58 10000 4.6 210 19:19 28.03.2020
5757 Clouds 14 1016 58 10000 4.6 210 18:55 28.03.2020
5758 Clouds 15 1016 58 10000 4.6 210 18:36 28.03.2020
5759 Clouds 15 1016 62 10000 4.6 210 18:18 28.03.2020
5760 Clouds 15 1016 58 10000 4.1 210 17:38 28.03.2020
5761 Clouds 16 1016 54 10000 4.6 210 17:19 28.03.2020
5762 Clouds 16 1017 55 10000 4.6 200 16:42 28.03.2020
5763 Clouds 16 1017 55 10000 4.6 200 16:20 28.03.2020
5764 Clouds 16 1017 51 10000 4.1 190 15:56 28.03.2020
5765 Clouds 17 1017 54 10000 3.6 170 15:38 28.03.2020
5766 Clouds 17 1017 51 10000 3.6 160 15:19 28.03.2020
5767 Clouds 17 1017 48 10000 3.1 150 14:43 28.03.2020
5768 Clouds 17 1017 48 10000 3.1 150 14:23 28.03.2020
5769 Clouds 17 1017 48 10000 3.1 150 13:59 28.03.2020
5770 Clouds 17 1017 48 10000 3.1 140 13:38 28.03.2020
5771 Clouds 17 1018 48 10000 3.1 110 13:18 28.03.2020
5772 Clouds 16 1018 44 10000 4.1 90 12:39 28.03.2020
5773 Clouds 16 1018 44 10000 4.1 90 12:21 28.03.2020
5774 Clouds 15 1018 51 10000 2.6 60 11:42 28.03.2020
5775 Clouds 13 1017 51 10000 1.5 350 11:21 28.03.2020
5776 Clouds 14 1017 51 10000 1.5 350 10:56 28.03.2020
5777 Clouds 13 1017 54 10000 3.1 320 10:37 28.03.2020
5778 Clouds 12 1017 58 10000 3.6 320 10:18 28.03.2020
5779 Clouds 11 1017 58 10000 4.1 320 09:41 28.03.2020
5780 Clouds 11 1017 58 10000 4.1 320 09:22 28.03.2020
5781 Clouds 10 1017 71 10000 4.1 320 08:45 28.03.2020
5782 Clouds 9 1017 71 10000 4.1 320 08:27 28.03.2020
5783 Clouds 9 1016 71 10000 4.6 320 07:59 28.03.2020
5784 Clouds 9 1016 71 10000 3.6 320 07:41 28.03.2020
5785 Clouds 9 1016 66 10000 4.1 320 06:55 28.03.2020
5786 Clouds 9 1016 71 10000 4.1 320 06:32 28.03.2020
5787 Clouds 9 1016 71 10000 4.6 320 05:39 28.03.2020
5788 Clouds 9 1016 71 10000 5.1 320 05:19 28.03.2020
5789 Clouds 9 1016 71 10000 4.1 330 04:39 28.03.2020
5790 Clouds 9 1016 71 10000 4.1 320 02:55 28.03.2020
5791 Clouds 10 1016 71 10000 4.1 320 01:48 28.03.2020
5792 Clouds 9 1016 76 10000 3.6 320 01:24 28.03.2020
5793 Clouds 10 1016 71 10000 2.6 320 00:54 28.03.2020
5794 Clouds 10 1016 71 10000 2.6 300 00:33 28.03.2020
5795 Clouds 9 1016 76 10000 3.1 320 23:45 27.03.2020
5796 Clouds 9 1016 76 10000 3.1 320 23:26 27.03.2020
5797 Clouds 9 1016 81 10000 2.1 300 22:58 27.03.2020
5798 Drizzle 9 1016 71 10000 1.5 290 22:40 27.03.2020
5799 Drizzle 9 1016 71 10000 1.5 290 22:21 27.03.2020
5800 Drizzle 9 1016 71 10000 1.5 270 22:00 27.03.2020
5801 Rain 10 1016 76 10000 1.5 300 21:41 27.03.2020
5802 Rain 10 1016 76 10000 1.5 300 21:23 27.03.2020
5803 Clouds 10 1016 71 10000 0.5 210 20:58 27.03.2020
5804 Clouds 10 1015 66 10000 3.18 356 20:39 27.03.2020
5805 Clouds 10 1015 62 10000 3.6 70 20:19 27.03.2020
5806 Clouds 10 1015 62 10000 3.6 70 19:56 27.03.2020
5807 Drizzle 11 1015 46 10000 1 90 19:38 27.03.2020
5808 Drizzle 11 1015 47 10000 2.6 100 19:19 27.03.2020
5809 Clouds 12 1014 43 10000 2.1 200 18:43 27.03.2020
5810 Clouds 12 1014 43 10000 2.1 200 18:23 27.03.2020
5811 Clouds 12 1014 47 10000 3.1 210 17:57 27.03.2020
5812 Clouds 12 1014 47 10000 3.1 210 17:38 27.03.2020
5813 Clouds 13 1013 43 10000 3.6 210 17:19 27.03.2020
5814 Clouds 13 1014 43 10000 4.1 210 16:44 27.03.2020
5815 Clouds 13 1014 43 10000 4.1 210 16:25 27.03.2020
5816 Clouds 13 1014 43 10000 4.1 210 16:25 27.03.2020
5817 Clouds 13 1014 43 10000 4.1 210 16:25 27.03.2020
5818 Clouds 14 1013 35 10000 4.1 160 15:46 27.03.2020
5819 Clouds 14 1013 35 10000 4.1 160 15:27 27.03.2020
5820 Clouds 15 1013 35 10000 4.1 170 14:59 27.03.2020
5821 Clouds 14 1013 35 10000 4.1 170 14:40 27.03.2020
5822 Clouds 15 1013 38 10000 3.1 170 14:21 27.03.2020
5823 Clouds 15 1013 38 10000 3.1 170 13:54 27.03.2020
5824 Clouds 15 1013 37 10000 3.6 180 13:36 27.03.2020
5825 Clouds 14 1013 37 10000 3.6 180 13:18 27.03.2020
5826 Clouds 14 1014 37 10000 1.5 320 12:42 27.03.2020
5827 Clouds 13 1014 44 10000 5.1 320 12:19 27.03.2020
5828 Clouds 13 1014 50 10000 5.7 330 11:44 27.03.2020
5829 Clouds 13 1014 50 10000 5.7 330 11:25 27.03.2020
5830 Clouds 11 1014 53 10000 5.7 310 10:59 27.03.2020
5831 Clouds 10 1014 66 10000 5.1 320 10:41 27.03.2020
5832 Clouds 9 1014 61 10000 5.7 310 10:22 27.03.2020
5833 Clouds 9 1014 61 10000 5.7 310 09:58 27.03.2020
5834 Clouds 8 1014 65 10000 6.7 310 09:40 27.03.2020
5835 Clouds 7 1014 65 10000 6.7 310 09:22 27.03.2020
5836 Clouds 8 1014 70 10000 6.7 310 08:58 27.03.2020
5837 Clouds 8 1014 70 10000 6.7 310 08:58 27.03.2020
5838 Clouds 7 1013 75 10000 6.2 300 08:40 27.03.2020
5839 Clouds 6 1013 58 10000 4.6 300 08:21 27.03.2020
5840 Clouds 6 1013 58 10000 4.6 300 07:55 27.03.2020
5841 Clouds 5 1013 58 10000 5.7 320 07:37 27.03.2020
5842 Clouds 6 1013 80 10000 6.7 320 07:19 27.03.2020
5843 Clouds 6 1013 80 10000 5.7 320 06:38 27.03.2020
5844 Clouds 6 1013 80 10000 5.7 320 05:45 27.03.2020
5845 Clouds 6 1013 80 10000 4.6 320 03:26 27.03.2020
5846 Clouds 7 1013 75 10000 3.6 320 01:55 27.03.2020
5847 Clouds 6 1013 70 10000 4.1 320 01:18 27.03.2020
5848 Clouds 6 1013 70 10000 3.1 320 00:38 27.03.2020
5849 Clouds 6 1013 70 10000 3.1 320 00:19 27.03.2020
5850 Clouds 7 1013 65 10000 2.1 320 23:37 26.03.2020
5851 Clouds 8 1013 65 10000 3.1 360 23:18 26.03.2020
5852 Clouds 8 1013 65 10000 3.1 360 22:56 26.03.2020
5853 Clouds 8 1013 61 10000 3.6 20 22:36 26.03.2020
5854 Clouds 8 1013 61 10000 3.6 20 22:18 26.03.2020
5855 Clouds 9 1012 57 10000 3.1 30 21:40 26.03.2020
5856 Clouds 9 1012 57 10000 3.1 30 21:21 26.03.2020
5857 Clouds 9 1012 57 10000 4.6 40 20:59 26.03.2020
5858 Clouds 9 1012 57 10000 5.1 30 20:39 26.03.2020
5859 Clouds 9 1012 57 10000 5.1 30 20:21 26.03.2020
5860 Clouds 9 1012 61 10000 6.7 50 19:58 26.03.2020
5861 Clouds 9 1012 61 10000 6.7 50 19:58 26.03.2020
5862 Clouds 9 1011 61 10000 6.7 60 19:39 26.03.2020
5863 Clouds 9 1011 61 10000 6.7 60 19:21 26.03.2020
5864 Clouds 9 1011 70 10000 8.7 60 18:58 26.03.2020
5865 Clouds 9 1011 66 10000 9.8 60 18:40 26.03.2020
5866 Clouds 9 1010 66 10000 9.8 60 18:21 26.03.2020
5867 Clouds 10 1010 66 10000 4.1 50 17:44 26.03.2020
5868 Clouds 10 1010 66 10000 10.8 40 17:20 26.03.2020
5869 Clouds 10 1010 66 10000 10.8 40 16:57 26.03.2020
5870 Clouds 10 1009 66 10000 5.1 50 16:38 26.03.2020
5871 Clouds 10 1009 62 10000 10.8 60 16:18 26.03.2020
5872 Clouds 11 1009 62 10000 10.8 60 15:54 26.03.2020
5873 Clouds 10 1009 62 10000 10.3 60 15:36 26.03.2020
5874 Clouds 11 1009 62 10000 10.8 60 15:18 26.03.2020
5875 Clouds 10 1009 62 10000 10.3 60 14:42 26.03.2020
5876 Clouds 10 1009 62 10000 10.3 60 14:24 26.03.2020
5877 Clouds 10 1009 62 10000 10.3 60 13:54 26.03.2020
5878 Clouds 10 1009 66 10000 9.3 60 13:36 26.03.2020
5879 Clouds 10 1009 71 10000 9.8 70 13:18 26.03.2020
5880 Clouds 10 1008 62 10000 4.6 50 12:38 26.03.2020
5881 Clouds 10 1008 66 10000 10.8 60 12:38 26.03.2020
5882 Clouds 11 1008 66 10000 10.8 60 12:20 26.03.2020
5883 Clouds 11 1008 58 10000 7.2 60 11:46 26.03.2020
5884 Clouds 10 1008 57 10000 4.6 40 11:23 26.03.2020
5885 Clouds 11 1008 57 10000 4.6 40 10:57 26.03.2020
5886 Clouds 10 1008 61 10000 2.6 350 10:39 26.03.2020
5887 Clouds 10 1008 61 10000 2.6 350 10:19 26.03.2020
5888 Clouds 8 1008 66 10000 4.1 320 09:44 26.03.2020
5889 Clouds 7 1008 75 10000 4.1 320 09:21 26.03.2020
5890 Clouds 7 1008 75 10000 4.1 320 08:57 26.03.2020
5891 Clouds 7 1008 75 10000 3.6 320 08:38 26.03.2020
5892 Clouds 7 1008 75 10000 3.6 320 08:19 26.03.2020
5893 Clouds 7 1008 80 10000 3.1 330 07:44 26.03.2020
5894 Clouds 7 1008 75 10000 1 0 07:22 26.03.2020
5895 Clouds 7 1008 75 10000 1 0 06:57 26.03.2020
5896 Clouds 7 1009 80 10000 1 0 06:27 26.03.2020
5897 Clouds 7 1009 80 10000 2.6 310 05:29 26.03.2020
5898 Clouds 7 1011 75 10000 3.1 320 03:45 26.03.2020
5899 Clouds 7 1011 81 10000 3.1 310 02:56 26.03.2020
5900 Clouds 8 1012 81 10000 2.6 300 01:51 26.03.2020
5901 Clouds 8 1013 75 10000 2.6 340 00:56 26.03.2020
5902 Clouds 8 1013 75 10000 2.6 320 00:23 26.03.2020
5903 Clouds 9 1014 75 10000 2.1 310 23:42 25.03.2020
5904 Clouds 9 1014 70 10000 2.6 310 23:22 25.03.2020
5905 Clouds 9 1015 65 10000 2.1 300 22:42 25.03.2020
5906 Clouds 8 1015 65 10000 2.1 300 22:22 25.03.2020
5907 Clouds 9 1015 61 10000 1 300 21:59 25.03.2020
5908 Clouds 9 1015 61 10000 1.5 280 21:40 25.03.2020
5909 Clouds 9 1015 66 10000 3.1 250 21:22 25.03.2020
5910 Clouds 9 1015 66 10000 3.1 250 20:57 25.03.2020
5911 Clouds 9 1015 61 10000 3.1 240 20:37 25.03.2020
5912 Clouds 10 1015 61 10000 3.1 240 20:18 25.03.2020
5913 Clouds 10 1015 57 10000 3.1 220 19:43 25.03.2020
5914 Clouds 10 1015 57 10000 3.1 220 19:24 25.03.2020
5915 Clouds 10 1015 53 10000 3.1 200 18:59 25.03.2020
5916 Clouds 10 1015 53 10000 2.1 190 18:41 25.03.2020
5917 Clouds 10 1015 53 10000 2.1 190 18:23 25.03.2020
5918 Drizzle 10 1015 53 10000 2.1 180 17:58 25.03.2020
5919 Drizzle 10 1015 53 10000 2.1 180 17:58 25.03.2020
5920 Drizzle 10 1015 53 10000 2.1 150 17:39 25.03.2020
5921 Drizzle 10 1015 53 10000 2.1 150 17:21 25.03.2020
5922 Rain 10 1015 57 10000 3.1 180 16:55 25.03.2020
5923 Drizzle 10 1016 57 10000 3.1 160 16:37 25.03.2020
5924 Rain 10 1016 54 10000 3.1 150 16:19 25.03.2020
5925 Clouds 11 1016 46 10000 2.6 170 15:41 25.03.2020
5926 Clouds 12 1016 46 10000 2.6 160 15:20 25.03.2020
5927 Clouds 12 1016 46 10000 2.6 160 14:56 25.03.2020
5928 Clouds 12 1017 44 10000 2.1 120 14:37 25.03.2020
5929 Drizzle 12 1017 50 10000 1.5 80 14:19 25.03.2020
5930 Clouds 12 1017 53 10000 2.6 130 13:44 25.03.2020
5931 Clouds 12 1017 53 10000 2.6 130 13:24 25.03.2020
5932 Clouds 12 1017 46 10000 4.6 60 12:39 25.03.2020
5933 Clouds 12 1017 46 10000 4.6 60 12:39 25.03.2020
5934 Clouds 12 1017 46 10000 4.6 60 12:21 25.03.2020
5935 Clouds 12 1017 50 10000 4.1 310 11:57 25.03.2020
5936 Clouds 12 1018 53 10000 6.2 310 11:39 25.03.2020
5937 Clouds 11 1018 53 10000 5.7 330 11:21 25.03.2020
5938 Clouds 10 1018 53 10000 5.7 330 10:58 25.03.2020
5939 Clouds 10 1018 47 10000 4.1 330 10:39 25.03.2020
5940 Clouds 10 1018 47 10000 4.1 330 10:39 25.03.2020
5941 Clouds 10 1018 47 10000 4.1 330 10:18 25.03.2020
5942 Clouds 10 1018 46 10000 3.6 320 09:56 25.03.2020
5943 Clouds 10 1018 47 10000 3.1 340 09:38 25.03.2020
5944 Clouds 9 1018 47 10000 0.5 310 09:19 25.03.2020
5945 Clouds 9 1018 57 10000 5.7 20 08:41 25.03.2020
5946 Clouds 9 1018 57 10000 5.7 20 08:23 25.03.2020
5947 Clouds 9 1018 57 10000 3.6 360 07:56 25.03.2020
5948 Clouds 9 1018 46 10000 5.7 30 07:37 25.03.2020
5949 Clouds 9 1017 46 10000 4.6 30 07:18 25.03.2020
5950 Clouds 9 1017 46 10000 5.1 40 06:41 25.03.2020
5951 Clouds 9 1017 46 10000 5.1 40 06:23 25.03.2020
5952 Clouds 9 1018 53 10000 5.7 20 05:47 25.03.2020
5953 Clouds 9 1018 53 10000 6.7 40 04:42 25.03.2020
5954 Clouds 9 1018 53 10000 6.2 30 03:57 25.03.2020
5955 Clouds 10 1018 57 10000 6.7 30 03:32 25.03.2020
5956 Clouds 10 1019 53 10000 3.6 30 01:40 25.03.2020
5957 Clouds 10 1019 57 10000 4.1 40 00:50 25.03.2020
5958 Clouds 10 1019 57 10000 7.2 60 00:27 25.03.2020
5959 Clouds 10 1020 57 10000 6.7 60 23:58 24.03.2020
5960 Clouds 10 1020 57 10000 6.7 50 23:39 24.03.2020
5961 Clouds 10 1020 62 10000 6.7 50 23:19 24.03.2020
5962 Clouds 10 1020 62 10000 8.7 50 22:54 24.03.2020
5963 Clouds 10 1020 62 10000 8.7 50 22:36 24.03.2020
5964 Clouds 10 1020 62 10000 8.7 50 22:18 24.03.2020
5965 Clouds 11 1019 62 10000 9.3 70 21:42 24.03.2020
5966 Clouds 11 1019 62 10000 9.3 70 21:19 24.03.2020
5967 Clouds 11 1019 58 10000 9.3 70 20:59 24.03.2020
5968 Clouds 11 1019 62 10000 9.3 60 20:40 24.03.2020
5969 Clouds 11 1019 62 10000 9.3 60 20:22 24.03.2020
5970 Clouds 11 1019 62 10000 10.3 60 19:48 24.03.2020
5971 Clouds 11 1019 62 10000 10.8 60 19:22 24.03.2020
5972 Clouds 12 1019 62 10000 9.8 70 18:59 24.03.2020
5973 Clouds 12 1018 62 10000 10.8 70 18:39 24.03.2020
5974 Clouds 12 1019 62 10000 9.3 70 18:20 24.03.2020
5975 Clouds 12 1019 62 10000 9.3 70 17:58 24.03.2020
5976 Clouds 12 1019 71 10000 8.7 70 17:40 24.03.2020
5977 Clouds 12 1019 71 10000 8.7 70 17:40 24.03.2020
5978 Clouds 12 1019 71 10000 8.7 70 17:22 24.03.2020
5979 Clouds 12 1019 67 10000 8.2 90 16:57 24.03.2020
5980 Clouds 12 1019 66 10000 7.2 90 16:57 24.03.2020
5981 Clouds 12 1019 67 10000 8.2 90 16:38 24.03.2020
5982 Clouds 12 1019 62 10000 7.7 90 16:20 24.03.2020
5983 Clouds 13 1019 58 10000 9.3 80 15:43 24.03.2020
5984 Clouds 13 1019 58 10000 9.3 80 15:25 24.03.2020
5985 Clouds 13 1019 62 10000 9.3 80 14:57 24.03.2020
5986 Clouds 13 1020 62 10000 8.2 80 14:37 24.03.2020
5987 Clouds 14 1020 58 10000 8.7 70 14:18 24.03.2020
5988 Clouds 13 1020 54 10000 8.7 80 13:41 24.03.2020
5989 Clouds 13 1020 58 10000 9.3 70 13:22 24.03.2020
5990 Clouds 13 1020 58 10000 9.8 60 12:47 24.03.2020
5991 Clouds 13 1020 58 10000 9.8 60 12:28 24.03.2020
5992 Clouds 14 1020 62 10000 8.7 60 11:58 24.03.2020
5993 Clouds 13 1021 62 10000 9.8 60 11:39 24.03.2020
5994 Clouds 13 1021 62 10000 9.8 60 11:18 24.03.2020
5995 Clouds 13 1021 62 10000 9.3 50 10:42 24.03.2020
5996 Clouds 13 1021 62 10000 9.3 50 10:19 24.03.2020
5997 Clouds 12 1021 66 10000 8.2 60 09:55 24.03.2020
5998 Clouds 12 1020 66 10000 9.3 40 09:37 24.03.2020
5999 Clouds 12 1020 71 10000 7.7 50 09:19 24.03.2020
6000 Clouds 11 1020 76 10000 7.7 50 08:38 24.03.2020
6001 Clouds 11 1020 76 10000 7.7 50 08:20 24.03.2020
6002 Clouds 10 1020 76 10000 6.2 40 07:47 24.03.2020
6003 Clouds 10 1020 76 10000 6.2 40 07:24 24.03.2020
6004 -273 0 0 0 0 0 06:50 24.03.2020
6005 Clouds 10 1020 76 10000 7.7 50 06:24 24.03.2020
6006 Clouds 11 1020 81 10000 8.7 50 04:57 24.03.2020
6007 Clouds 11 1020 81 10000 8.7 50 03:46 24.03.2020
6008 Clouds 11 1021 76 10000 6.7 50 02:49 24.03.2020
6009 Clouds 12 1021 76 10000 7.7 50 01:42 24.03.2020
6010 Clouds 12 1021 76 10000 7.7 50 00:44 24.03.2020
6011 Clouds 12 1021 76 10000 7.7 50 00:23 24.03.2020
6012 Clouds 12 1021 76 10000 8.7 70 23:44 23.03.2020
6013 Clouds 12 1021 76 10000 8.7 70 23:26 23.03.2020
6014 Clouds 12 1020 87 10000 8.2 60 22:55 23.03.2020
6015 Clouds 12 1020 87 10000 8.2 60 22:36 23.03.2020
6016 Clouds 12 1020 87 10000 9.8 60 22:18 23.03.2020
6017 Clouds 12 1020 87 10000 7.7 50 21:42 23.03.2020
6018 Clouds 12 1020 87 10000 7.7 50 21:20 23.03.2020
6019 Clouds 12 1020 82 10000 10.8 60 20:57 23.03.2020
6020 Clouds 12 1020 76 10000 8.7 60 20:39 23.03.2020
6021 Clouds 13 1020 76 10000 8.7 60 20:19 23.03.2020
6022 Clouds 13 1019 82 10000 9.3 60 19:45 23.03.2020
6023 Clouds 13 1019 82 10000 8.7 60 19:27 23.03.2020
6024 Clouds 13 1019 82 10000 8.2 80 18:59 23.03.2020
6025 Clouds 14 1019 77 10000 8.2 70 18:40 23.03.2020
6026 Clouds 14 1019 72 10000 8.2 80 18:21 23.03.2020
6027 Clouds 14 1018 77 10000 8.7 60 17:43 23.03.2020
6028 Clouds 15 1018 67 10000 4.6 50 17:21 23.03.2020
6029 Clouds 15 1018 67 10000 4.6 50 16:59 23.03.2020
6030 Clouds 15 1019 77 10000 10.3 60 16:39 23.03.2020
6031 Clouds 15 1019 77 10000 10.3 60 16:20 23.03.2020
6032 Clouds 15 1019 72 10000 7.7 70 15:42 23.03.2020
6033 Clouds 15 1019 77 10000 8.7 60 15:20 23.03.2020
6034 Clouds 15 1019 77 10000 8.7 60 14:55 23.03.2020
6035 Clouds 15 1019 77 10000 8.2 60 14:36 23.03.2020
6036 Clouds 15 1019 77 10000 8.2 60 14:18 23.03.2020
6037 Clouds 14 1020 87 10000 7.2 50 13:40 23.03.2020
6038 Drizzle 14 1020 93 10000 5.7 50 13:21 23.03.2020
6039 Rain 13 1020 93 6000 2.6 30 12:46 23.03.2020
6040 Drizzle 13 1019 93 10000 6.2 30 12:26 23.03.2020
6041 Drizzle 13 1019 93 10000 6.2 30 11:59 23.03.2020
6042 Rain 13 1019 93 8000 1.5 350 11:40 23.03.2020
6043 Rain 13 1019 93 8000 1.5 350 11:21 23.03.2020
6044 Rain 12 1019 93 6000 5.1 340 10:58 23.03.2020
6045 Thunderstorm 12 1019 93 10000 5.7 50 10:39 23.03.2020
6046 Drizzle 12 1019 87 10000 6.2 80 10:21 23.03.2020
6047 Rain 12 1018 93 9000 3.6 40 09:48 23.03.2020
6048 Rain 12 1018 87 9000 3.6 60 09:21 23.03.2020
6049 Rain 12 1018 87 9000 3.6 60 08:58 23.03.2020
6050 Drizzle 12 1018 93 9000 6.2 80 08:37 23.03.2020
6051 Drizzle 12 1017 87 10000 5.7 40 08:19 23.03.2020
6052 Drizzle 12 1017 87 10000 5.7 40 07:48 23.03.2020
6053 Drizzle 12 1017 87 10000 6.2 40 07:29 23.03.2020
6054 Rain 12 1017 87 10000 6.2 40 06:52 23.03.2020
6055 Drizzle 12 1017 87 9000 7.2 40 06:20 23.03.2020
6056 Drizzle 12 1016 87 9000 5.1 40 05:34 23.03.2020
6057 Rain 12 1016 87 10000 4.6 50 03:45 23.03.2020
6058 Rain 12 1016 87 10000 4.6 60 02:37 23.03.2020
6059 Clouds 12 1016 87 10000 5.1 60 01:34 23.03.2020
6060 Clouds 12 1016 93 9000 3.6 60 00:40 23.03.2020
6061 Clouds 12 1016 93 9000 4.1 60 23:53 22.03.2020
6062 Clouds 12 1016 93 9000 5.1 50 23:27 22.03.2020
6063 Drizzle 12 1016 93 8000 4.6 60 22:59 22.03.2020
6064 Drizzle 12 1016 93 9000 3.6 70 22:39 22.03.2020
6065 Drizzle 13 1016 93 10000 3.1 50 22:18 22.03.2020
6066 Drizzle 13 1016 93 10000 4.1 60 21:40 22.03.2020
6067 Drizzle 13 1016 93 10000 4.1 60 21:20 22.03.2020
6068 Rain 13 1015 93 10000 4.1 70 20:58 22.03.2020
6069 Rain 13 1015 93 5000 6.2 90 20:39 22.03.2020
6070 Rain 13 1015 93 5000 6.2 90 20:21 22.03.2020
6071 Rain 13 1015 93 10000 5.7 60 19:55 22.03.2020
6072 Rain 13 1014 87 10000 6.7 70 19:37 22.03.2020
6073 Clouds 14 1014 87 10000 6.7 70 19:18 22.03.2020
6074 Clouds 14 1014 82 10000 6.7 70 18:56 22.03.2020
6075 Clouds 14 1014 82 10000 6.7 70 18:37 22.03.2020
6076 Clouds 14 1014 82 10000 5.1 70 18:18 22.03.2020
6077 Clouds 14 1014 82 10000 5.1 70 17:56 22.03.2020
6078 Clouds 15 1013 82 10000 6.2 70 17:36 22.03.2020
6079 Clouds 15 1013 82 10000 6.2 70 17:36 22.03.2020
6080 Clouds 15 1013 82 10000 6.2 70 17:36 22.03.2020
6081 Clouds 15 1013 82 10000 6.7 70 17:18 22.03.2020
6082 Clouds 15 1013 82 10000 6.7 70 16:54 22.03.2020
6083 Clouds 15 1013 82 10000 6.2 70 16:36 22.03.2020
6084 Clouds 15 1013 82 10000 6.2 70 16:18 22.03.2020
6085 Clouds 16 1013 77 10000 7.2 70 15:39 22.03.2020
6086 Clouds 16 1013 77 10000 7.2 70 14:47 22.03.2020
6087 Clouds 16 1013 77 10000 7.2 70 14:20 22.03.2020
6088 Clouds 16 1014 77 10000 6.7 90 13:58 22.03.2020
6089 Clouds 16 1014 77 10000 6.7 90 13:58 22.03.2020
6090 Clouds 16 1014 77 10000 6.2 70 13:40 22.03.2020
6091 Clouds 16 1014 77 10000 6.2 70 13:19 22.03.2020
6092 Clouds 16 1014 77 10000 6.2 70 12:47 22.03.2020
6093 Clouds 15 1014 77 10000 6.7 70 12:23 22.03.2020
6094 Clouds 15 1014 82 10000 7.2 70 11:59 22.03.2020
6095 Clouds 15 1014 82 10000 6.2 70 11:41 22.03.2020
6096 Clouds 15 1014 82 10000 6.2 70 11:22 22.03.2020
6097 Clouds 15 1013 82 10000 5.7 70 10:54 22.03.2020
6098 Clouds 14 1013 77 10000 5.1 50 10:36 22.03.2020
6099 Clouds 14 1013 82 10000 4.6 50 10:18 22.03.2020
6100 Clouds 13 1013 87 10000 2.1 350 09:41 22.03.2020
6101 Clouds 12 1013 87 10000 2.1 350 09:19 22.03.2020
6102 Clouds 11 1012 93 10000 3.6 330 08:43 22.03.2020
6103 Clouds 10 1012 93 9000 3.1 320 08:24 22.03.2020
6104 Clouds 9 1012 93 9000 3.1 320 07:51 22.03.2020
6105 Clouds 10 1012 87 9000 3.6 320 07:23 22.03.2020
6106 Clouds 10 1012 87 10000 3.6 320 06:35 22.03.2020
6107 Clouds 10 1012 87 10000 2.6 320 05:35 22.03.2020
6108 Clouds 10 1012 87 10000 2.6 330 03:30 22.03.2020
6109 Clouds 11 1013 87 10000 1.5 320 01:27 22.03.2020
6110 Clouds 11 1013 87 10000 2.1 320 00:48 22.03.2020
6111 Clouds 12 1013 87 10000 2.1 320 00:28 22.03.2020
6112 Clouds 12 1013 93 10000 2.1 40 23:43 21.03.2020
6113 Clouds 12 1013 93 10000 2.1 40 23:19 21.03.2020
6114 Clouds 12 1013 93 10000 2.6 60 22:58 21.03.2020
6115 Clouds 12 1013 93 10000 2.6 50 22:37 21.03.2020
6116 Clouds 12 1013 93 10000 1.5 70 22:18 21.03.2020
6117 Clouds 12 1013 93 10000 1.5 70 21:56 21.03.2020
6118 Clouds 12 1013 93 10000 2.6 50 21:37 21.03.2020
6119 Clouds 12 1013 87 10000 2.6 50 21:18 21.03.2020
6120 Clouds 13 1013 82 10000 2.6 60 20:41 21.03.2020
6121 Clouds 13 1013 82 10000 2.6 60 20:20 21.03.2020
6122 Clouds 13 1013 82 10000 3.1 60 19:45 21.03.2020
6123 Clouds 14 1012 82 10000 3.1 70 19:25 21.03.2020
6124 Clouds 14 1012 82 10000 3.6 80 18:59 21.03.2020
6125 Clouds 14 1012 77 10000 3.6 80 18:40 21.03.2020
6126 Clouds 14 1012 77 10000 3.6 80 18:20 21.03.2020
6127 Clouds 15 1012 72 10000 4.1 90 17:57 21.03.2020
6128 Clouds 15 1012 72 10000 4.1 90 17:39 21.03.2020
6129 Clouds 15 1012 72 10000 4.1 90 17:21 21.03.2020
6130 Clouds 16 1012 67 10000 4.1 110 16:42 21.03.2020
6131 Clouds 16 1013 63 10000 5.1 100 16:22 21.03.2020
6132 Clouds 16 1013 63 10000 5.1 100 15:58 21.03.2020
6133 Clouds 16 1013 63 10000 6.2 90 15:39 21.03.2020
6134 Clouds 16 1013 63 10000 5.1 100 15:21 21.03.2020
6135 Clouds 16 1013 63 10000 5.1 100 14:55 21.03.2020
6136 Clouds 16 1013 67 10000 5.7 100 14:37 21.03.2020
6137 Clouds 16 1013 67 10000 5.7 100 14:19 21.03.2020
6138 Clouds 16 1014 63 10000 5.1 80 13:57 21.03.2020
6139 Clouds 16 1014 59 10000 5.7 70 13:38 21.03.2020
6140 Clouds 16 1014 67 10000 5.1 70 13:20 21.03.2020
6141 Clouds 15 1015 67 10000 5.1 70 12:41 21.03.2020
6142 Clouds 15 1015 62 10000 4.6 80 12:21 21.03.2020
6143 Clouds 15 1015 62 10000 4.6 80 11:59 21.03.2020
6144 Clouds 15 1015 58 10000 2.1 10 11:39 21.03.2020
6145 Clouds 15 1015 58 10000 2.1 10 11:39 21.03.2020
6146 Clouds 14 1015 58 10000 3.1 320 11:20 21.03.2020
6147 Clouds 14 1015 58 10000 3.1 320 10:58 21.03.2020
6148 Clouds 14 1015 58 10000 3.1 320 10:58 21.03.2020
6149 Clouds 13 1015 62 10000 3.6 320 10:40 21.03.2020
6150 Clouds 13 1015 62 10000 3.6 320 10:22 21.03.2020
6151 Clouds 12 1015 71 10000 4.1 320 09:59 21.03.2020
6152 Clouds 11 1015 76 10000 5.1 320 09:39 21.03.2020
6153 Clouds 10 1015 76 10000 4.6 320 09:20 21.03.2020
6154 Clouds 9 1015 76 10000 4.6 320 08:55 21.03.2020
6155 Clouds 9 1015 81 10000 4.6 320 08:37 21.03.2020
6156 Clouds 8 1015 81 10000 4.6 320 08:19 21.03.2020
6157 Clouds 7 1015 81 10000 5.1 330 07:39 21.03.2020
6158 Clouds 7 1015 81 10000 5.1 330 07:20 21.03.2020
6159 Clouds 7 1015 81 10000 4.6 320 06:44 21.03.2020
6160 Clouds 7 1015 81 10000 4.6 320 06:25 21.03.2020
6161 Clouds 7 1016 81 10000 4.1 320 05:40 21.03.2020
6162 Clouds 8 1016 87 10000 4.1 320 04:34 21.03.2020
6163 Clouds 8 1017 87 10000 3.6 320 02:37 21.03.2020
6164 Clouds 9 1017 87 10000 2.6 330 01:49 21.03.2020
6165 Clouds 9 1017 87 10000 2.6 330 01:26 21.03.2020
6166 Clouds 9 1018 81 10000 2.6 320 00:43 21.03.2020
6167 Clouds 9 1018 81 10000 2.6 320 00:23 21.03.2020
6168 Clouds 9 1018 81 10000 2.1 330 23:44 20.03.2020
6169 Clouds 9 1018 81 10000 2.1 330 23:22 20.03.2020
6170 Clouds 10 1018 76 10000 2.1 20 22:44 20.03.2020
6171 Clouds 10 1018 76 10000 2.1 20 22:44 20.03.2020
6172 Clouds 10 1018 76 10000 2.1 20 22:25 20.03.2020
6173 Clouds 10 1018 82 10000 2.6 40 21:59 20.03.2020
6174 Clouds 11 1018 76 10000 2.6 50 21:40 20.03.2020
6175 Clouds 11 1019 76 10000 2.6 60 21:20 20.03.2020
6176 Clouds 11 1019 76 10000 2.6 60 20:59 20.03.2020
6177 Clouds 11 1018 76 10000 2.1 60 20:41 20.03.2020
6178 Clouds 12 1018 76 10000 2.1 60 20:20 20.03.2020
6179 Clouds 12 1018 82 10000 2.6 70 19:49 20.03.2020
6180 Clouds 13 1019 76 10000 2.6 70 19:22 20.03.2020
6181 Clouds 13 1019 76 10000 4.1 90 18:59 20.03.2020
6182 Clouds 14 1019 76 10000 4.1 90 18:39 20.03.2020
6183 Clouds 14 1019 76 10000 4.1 90 18:20 20.03.2020
6184 Clouds 15 1019 72 10000 4.1 90 17:56 20.03.2020
6185 Clouds 15 1019 72 10000 4.1 90 17:38 20.03.2020
6186 Clouds 15 1019 72 10000 5.1 80 17:19 20.03.2020
6187 Clouds 15 1019 72 10000 5.1 80 17:19 20.03.2020
6188 Clouds 15 1019 72 10000 5.1 100 16:43 20.03.2020
6189 Clouds 16 1019 72 10000 5.7 90 16:21 20.03.2020
6190 Clouds 16 1019 72 10000 5.7 90 15:58 20.03.2020
6191 Clouds 16 1019 72 10000 5.7 90 15:39 20.03.2020
6192 Clouds 16 1019 72 10000 6.2 100 15:20 20.03.2020
6193 Clouds 16 1020 67 10000 6.2 80 14:42 20.03.2020
6194 Clouds 16 1020 72 10000 5.7 70 14:21 20.03.2020
6195 Clouds 16 1020 72 10000 5.7 70 13:55 20.03.2020
6196 Clouds 16 1020 67 10000 6.2 80 13:36 20.03.2020
6197 Clouds 15 1020 72 10000 6.2 70 13:18 20.03.2020
6198 Clouds 15 1021 72 10000 6.2 70 12:39 20.03.2020
6199 Clouds 15 1021 72 10000 6.2 70 12:20 20.03.2020
6200 Clouds 14 1021 71 10000 4.6 60 11:42 20.03.2020
6201 Clouds 14 1021 71 10000 4.6 60 11:22 20.03.2020
6202 Clouds 14 1021 71 10000 3.6 50 10:59 20.03.2020
6203 Clouds 13 1021 71 10000 2.6 330 10:41 20.03.2020
6204 Clouds 13 1021 71 10000 2.6 330 10:20 20.03.2020
6205 Clouds 12 1021 71 10000 3.1 320 09:47 20.03.2020
6206 Clouds 11 1021 81 10000 4.6 330 09:22 20.03.2020
6207 Clouds 10 1021 81 10000 4.6 330 08:59 20.03.2020
6208 Clouds 10 1020 81 10000 4.6 320 08:40 20.03.2020
6209 Clouds 9 1020 87 10000 5.7 320 08:20 20.03.2020
6210 Clouds 9 1020 87 10000 5.7 320 07:48 20.03.2020
6211 Clouds 8 1020 87 10000 5.7 320 07:26 20.03.2020
6212 Clouds 8 1020 87 10000 4.6 320 06:51 20.03.2020
6213 Clouds 8 1020 87 10000 5.1 320 06:32 20.03.2020
6214 Clouds 8 1020 81 10000 4.6 320 04:51 20.03.2020
6215 Clouds 9 1021 87 10000 3.6 330 03:21 20.03.2020
6216 Clouds 9 1021 87 10000 2.6 330 01:57 20.03.2020
6217 Clouds 9 1022 87 10000 2.1 320 00:51 20.03.2020
6218 Clouds 9 1022 87 10000 2.1 320 00:29 20.03.2020
6219 Clouds 9 1022 81 10000 2.1 60 23:47 19.03.2020
6220 Clouds 9 1022 81 10000 2.1 60 23:28 19.03.2020
6221 Clouds 10 1022 81 10000 2.1 50 22:56 19.03.2020
6222 Clouds 10 1022 81 10000 2.1 50 22:56 19.03.2020
6223 Clouds 10 1022 76 10000 2.1 80 22:38 19.03.2020
6224 Clouds 10 1022 81 10000 1.5 60 22:19 19.03.2020
6225 Clouds 11 1022 81 10000 2.6 60 21:42 19.03.2020
6226 Clouds 11 1022 76 10000 1.5 70 21:20 19.03.2020
6227 Clouds 11 1022 76 10000 1.5 70 20:59 19.03.2020
6228 Clouds 11 1022 76 10000 1.5 60 20:41 19.03.2020
6229 Clouds 12 1022 76 10000 2.6 70 20:22 19.03.2020
6230 Clouds 12 1022 76 10000 2.6 70 19:55 19.03.2020
6231 Clouds 12 1022 76 10000 2.1 90 19:37 19.03.2020
6232 Clouds 13 1022 76 10000 2.1 90 19:19 19.03.2020
6233 Clouds 13 1022 82 10000 2.6 90 18:54 19.03.2020
6234 Clouds 13 1022 71 10000 2.6 110 18:36 19.03.2020
6235 Clouds 14 1022 76 10000 2.6 120 18:18 19.03.2020
6236 Clouds 14 1022 71 10000 3.1 100 17:41 19.03.2020
6237 Clouds 15 1022 71 10000 2.6 130 17:19 19.03.2020
6238 Clouds 15 1022 76 10000 3.1 120 16:44 19.03.2020
6239 Clouds 15 1023 76 10000 2.6 110 16:24 19.03.2020
6240 Clouds 16 1023 72 10000 3.6 90 15:46 19.03.2020
6241 Clouds 16 1023 72 10000 3.6 90 15:27 19.03.2020
6242 Clouds 16 1023 72 10000 3.1 90 14:58 19.03.2020
6243 Clouds 16 1023 72 10000 3.1 110 14:40 19.03.2020
6244 Clouds 16 1024 72 10000 3.1 130 14:19 19.03.2020
6245 Clouds 16 1024 72 10000 3.1 110 13:40 19.03.2020
6246 Clouds 16 1024 72 10000 3.1 110 13:40 19.03.2020
6247 Clouds 16 1024 72 10000 3.1 120 13:19 19.03.2020
6248 Clouds 16 1024 72 10000 3.1 120 12:56 19.03.2020
6249 Clouds 16 1024 71 10000 3.6 110 12:38 19.03.2020
6250 Clouds 15 1025 71 9000 3.1 100 12:19 19.03.2020
6251 Clouds 15 1025 72 9000 2.6 100 11:42 19.03.2020
6252 Clouds 15 1025 72 9000 2.6 100 11:23 19.03.2020
6253 Clouds 14 1025 76 9000 1.59 142 10:57 19.03.2020
6254 Clouds 14 1025 76 9000 1 0 10:37 19.03.2020
6255 Clouds 14 1025 76 9000 1 0 10:18 19.03.2020
6256 Clouds 13 1025 76 9000 2.6 320 09:44 19.03.2020
6257 Clouds 12 1024 87 9000 3.1 330 09:26 19.03.2020
6258 Clouds 11 1024 87 9000 4.1 330 08:57 19.03.2020
6259 Clouds 11 1024 87 9000 4.1 320 08:38 19.03.2020
6260 Clouds 9 1024 87 9000 4.1 320 08:18 19.03.2020
6261 Clouds 8 1024 87 9000 3.6 330 07:43 19.03.2020
6262 Clouds 8 1024 87 9000 3.6 330 07:22 19.03.2020
6263 Clouds 8 1024 93 10000 3.6 330 06:32 19.03.2020
6264 Clouds 8 1024 87 10000 3.6 320 05:46 19.03.2020
6265 Clouds 8 1024 87 10000 3.6 330 04:51 19.03.2020
6266 Clouds 8 1024 87 10000 3.6 320 04:24 19.03.2020
6267 Clouds 9 1025 81 10000 2.1 320 02:34 19.03.2020
6268 Clouds 10 1025 81 10000 2.1 330 00:57 19.03.2020
6269 Clouds 10 1026 93 10000 1.5 300 00:21 19.03.2020
6270 Clouds 10 1026 93 10000 0.5 270 23:46 18.03.2020
6271 Clouds 10 1026 93 10000 0.5 270 23:26 18.03.2020
6272 Clouds 11 1026 93 10000 1 270 22:44 18.03.2020
6273 Clouds 11 1026 93 10000 1 270 22:24 18.03.2020
6274 Clouds 11 1026 93 9000 1 250 21:59 18.03.2020
6275 Clouds 11 1026 93 9000 0.63 161 21:41 18.03.2020
6276 Clouds 11 1026 93 9000 0.63 161 21:21 18.03.2020
6277 Clouds 12 1026 87 10000 0.5 120 20:57 18.03.2020
6278 Clouds 12 1026 87 10000 1.5 100 20:39 18.03.2020
6279 Clouds 13 1025 93 10000 2.1 120 20:20 18.03.2020
6280 Clouds 13 1025 93 10000 2.1 120 19:55 18.03.2020
6281 Clear 13 1025 87 10000 1.5 120 19:36 18.03.2020
6282 Clear 14 1025 82 10000 1 120 19:18 18.03.2020
6283 Clear 15 1025 82 10000 1 0 18:41 18.03.2020
6284 Clear 15 1025 77 10000 1.5 100 18:20 18.03.2020
6285 Clouds 16 1025 82 10000 2.6 120 17:57 18.03.2020
6286 Clouds 16 1025 82 10000 2.6 120 17:39 18.03.2020
6287 Clouds 16 1025 51 10000 1.5 130 17:21 18.03.2020
6288 Clouds 16 1025 51 10000 1.5 130 16:54 18.03.2020
6289 Clouds 17 1026 77 10000 2.6 110 16:36 18.03.2020
6290 Clouds 17 1026 63 10000 3.1 80 16:18 18.03.2020
6291 Clouds 17 1026 63 10000 3.1 70 15:44 18.03.2020
6292 Clear 17 1027 67 10000 3.1 90 15:20 18.03.2020
6293 Clear 16 1027 67 10000 3.1 100 14:45 18.03.2020
6294 Clear 17 1027 67 10000 3.1 100 14:22 18.03.2020
6295 Clear 16 1027 77 10000 3.6 90 13:56 18.03.2020
6296 Clear 16 1028 72 10000 3.6 100 13:36 18.03.2020
6297 Clouds 16 1028 67 10000 3.6 80 13:18 18.03.2020
6298 Clouds 16 1028 67 10000 3.6 70 12:41 18.03.2020
6299 Clear 15 1028 62 10000 4.1 70 12:19 18.03.2020
6300 Clear 15 1028 71 10000 4.6 60 11:39 18.03.2020
6301 Clear 14 1028 76 10000 4.6 50 11:21 18.03.2020
6302 Clear 15 1028 76 10000 4.6 50 10:58 18.03.2020
6303 Clear 14 1028 76 10000 1.5 340 10:39 18.03.2020
6304 Clear 13 1028 76 10000 1.5 340 10:20 18.03.2020
6305 Clear 13 1028 81 10000 2.6 330 09:44 18.03.2020
6306 Clear 12 1028 81 10000 2.6 330 09:26 18.03.2020
6307 Clear 11 1028 87 10000 2.6 330 08:58 18.03.2020
6308 Clear 11 1028 87 10000 2.1 320 08:39 18.03.2020
6309 Clouds 10 1028 87 10000 2.1 320 08:21 18.03.2020
6310 Clouds 10 1028 87 10000 2.1 330 07:49 18.03.2020
6311 Clouds 10 1028 87 10000 1.5 320 07:30 18.03.2020
6312 Clouds 10 1028 87 10000 1.5 310 06:45 18.03.2020
6313 Clouds 11 1028 87 10000 1.5 310 06:24 18.03.2020
6314 Clouds 11 1028 87 10000 1.5 330 05:35 18.03.2020
6315 Clouds 11 1028 87 10000 2.1 330 04:27 18.03.2020
6316 Clouds 11 1029 87 10000 2.1 330 02:51 18.03.2020
6317 Clouds 11 1029 87 10000 1.5 40 02:23 18.03.2020
6318 Clouds 11 1029 87 10000 2.1 50 01:29 18.03.2020
6319 Clouds 12 1029 93 10000 3.1 50 00:26 18.03.2020
6320 Clouds 12 1029 93 10000 3.1 50 23:59 17.03.2020
6321 Clouds 12 1029 93 10000 3.6 60 23:40 17.03.2020
6322 Clouds 13 1029 87 10000 2.6 30 23:19 17.03.2020
6323 Clouds 13 1029 87 10000 2.6 50 22:42 17.03.2020
6324 Clouds 13 1029 87 10000 2.1 40 22:23 17.03.2020
6325 Clouds 13 1029 82 10000 3.6 60 21:42 17.03.2020
6326 Clouds 13 1029 82 10000 3.6 60 21:22 17.03.2020
6327 Clouds 14 1029 82 10000 3.6 50 20:56 17.03.2020
6328 Clouds 14 1028 77 10000 3.6 50 20:37 17.03.2020
6329 Clouds 14 1028 77 10000 3.6 50 20:19 17.03.2020
6330 Clouds 14 1028 77 10000 3.6 50 19:41 17.03.2020
6331 Clouds 14 1028 77 10000 4.1 50 19:18 17.03.2020
6332 Clouds 15 1028 77 10000 4.1 50 18:57 17.03.2020
6333 Clouds 15 1028 77 10000 5.1 60 18:39 17.03.2020
6334 -273 0 0 0 0 0 18:20 17.03.2020
6335 Clouds 15 1028 67 10000 6.2 70 17:55 17.03.2020
6336 Clouds 16 1028 63 10000 6.7 60 17:36 17.03.2020
6337 Clouds 16 1028 63 10000 7.7 60 17:18 17.03.2020
6338 Clouds 16 1027 67 10000 8.7 60 16:41 17.03.2020
6339 Clouds 16 1027 67 10000 8.7 60 16:19 17.03.2020
6340 Clouds 16 1028 72 10000 8.7 60 15:44 17.03.2020
6341 Clouds 16 1028 72 10000 8.7 60 15:22 17.03.2020
6342 Clouds 16 1028 72 10000 9.8 60 14:44 17.03.2020
6343 Clouds 16 1028 72 10000 9.8 60 14:25 17.03.2020
6344 Clouds 16 1028 72 10000 8.7 60 13:58 17.03.2020
6345 Clouds 16 1028 72 10000 7.7 70 13:39 17.03.2020
6346 Clouds 16 1028 72 10000 7.7 70 13:21 17.03.2020
6347 Clouds 15 1028 77 10000 8.7 50 12:44 17.03.2020
6348 Clouds 15 1028 77 10000 8.7 50 12:24 17.03.2020
6349 Clouds 15 1028 77 10000 7.2 60 11:48 17.03.2020
6350 Clouds 15 1028 77 10000 7.2 60 11:29 17.03.2020
6351 Drizzle 15 1027 77 10000 7.2 60 10:59 17.03.2020
6352 Drizzle 15 1027 77 10000 7.2 60 10:58 17.03.2020
6353 Drizzle 15 1027 77 10000 8.2 50 10:40 17.03.2020
6354 Drizzle 14 1027 77 10000 8.2 50 10:22 17.03.2020
6355 Clouds 14 1027 77 10000 8.2 40 09:59 17.03.2020
6356 Clouds 14 1026 77 10000 8.7 50 09:41 17.03.2020
6357 Clouds 14 1026 77 10000 8.7 50 09:20 17.03.2020
6358 Clouds 14 1026 77 10000 8.2 50 08:50 17.03.2020
6359 Clouds 13 1025 77 10000 9.3 50 08:23 17.03.2020
6360 Clouds 13 1025 77 10000 9.3 50 07:58 17.03.2020
6361 Clouds 13 1025 82 10000 8.2 50 07:39 17.03.2020
6362 Clouds 13 1025 82 10000 9.8 50 07:19 17.03.2020
6363 Clouds 13 1025 82 10000 8.7 60 06:40 17.03.2020
6364 Clouds 13 1024 82 10000 8.7 50 06:19 17.03.2020
6365 Drizzle 13 1023 82 10000 9.8 60 04:40 17.03.2020
6366 Clouds 13 1024 82 10000 9.3 50 03:19 17.03.2020
6367 Clouds 13 1023 82 10000 6.7 70 01:49 17.03.2020
6368 Clouds 13 1023 82 10000 6.7 70 01:28 17.03.2020
6369 Clouds 13 1023 82 10000 10.8 50 00:50 17.03.2020
6370 Drizzle 13 1023 93 7000 10.3 50 23:51 16.03.2020
6371 Drizzle 13 1023 87 5000 9.3 60 23:33 16.03.2020
6372 Drizzle 12 1022 87 6000 11.3 50 22:45 16.03.2020
6373 Drizzle 12 1022 87 6000 11.3 50 22:26 16.03.2020
6374 Drizzle 13 1021 87 5000 9.8 60 21:59 16.03.2020
6375 Clouds 13 1021 87 7000 10.3 70 21:41 16.03.2020
6376 Clouds 13 1021 87 7000 10.3 70 21:23 16.03.2020
6377 Drizzle 12 1020 93 4000 10.8 60 20:58 16.03.2020
6378 Rain 12 1020 93 2500 10.3 50 20:38 16.03.2020
6379 Rain 12 1019 93 2500 9.8 60 20:20 16.03.2020
6380 Drizzle 12 1019 93 3000 10.3 50 19:42 16.03.2020
6381 Drizzle 12 1019 93 3000 10.3 50 19:23 16.03.2020
6382 Clouds 12 1018 87 6000 9.8 60 18:57 16.03.2020
6383 Drizzle 12 1018 87 6000 10.3 50 18:37 16.03.2020
6384 Rain 12 1018 93 6000 10.3 50 18:18 16.03.2020
6385 Rain 12 1018 93 5000 8.7 60 17:43 16.03.2020
6386 Rain 12 1018 93 5000 8.7 60 17:24 16.03.2020
6387 Rain 12 1017 93 5000 8.2 70 16:47 16.03.2020
6388 Rain 12 1017 93 5000 8.2 70 16:29 16.03.2020
6389 Rain 12 1017 93 3500 7.2 70 15:57 16.03.2020
6390 Rain 12 1017 93 3000 7.2 80 15:39 16.03.2020
6391 Rain 12 1017 93 3000 7.2 80 15:19 16.03.2020
6392 Rain 12 1017 93 3500 3.6 80 14:43 16.03.2020
6393 Rain 13 1017 93 3500 3.6 80 14:19 16.03.2020
6394 Rain 13 1016 93 6000 9.3 80 13:42 16.03.2020
6395 Rain 13 1016 93 6000 9.3 80 13:24 16.03.2020
6396 Rain 13 1016 93 4000 9.3 80 12:55 16.03.2020
6397 Rain 13 1016 87 4000 4.1 70 12:36 16.03.2020
6398 Rain 13 1016 93 8000 8.7 70 12:18 16.03.2020
6399 Clouds 13 1016 87 10000 9.8 60 11:41 16.03.2020
6400 Drizzle 13 1016 87 10000 9.8 60 11:19 16.03.2020
6401 Clouds 13 1015 87 10000 9.8 60 10:43 16.03.2020
6402 Clouds 13 1016 82 10000 10.3 60 10:24 16.03.2020
6403 Clouds 13 1015 82 10000 9.3 60 09:46 16.03.2020
6404 Clouds 13 1015 82 10000 9.3 60 09:28 16.03.2020
6405 Clouds 13 1015 82 10000 8.7 60 08:58 16.03.2020
6406 Clouds 12 1015 82 10000 8.7 50 08:26 16.03.2020
6407 Clouds 12 1015 87 10000 8.2 60 07:56 16.03.2020
6408 Clouds 12 1015 87 10000 6.7 60 07:38 16.03.2020
6409 Clouds 12 1014 76 10000 7.7 60 07:18 16.03.2020
6410 Clouds 12 1014 76 10000 6.7 70 06:27 16.03.2020
6411 Clouds 12 1014 82 10000 5.7 70 05:54 16.03.2020
6412 Clouds 13 1015 87 10000 4.1 90 03:31 16.03.2020
6413 Clouds 13 1016 82 10000 3.1 110 01:29 16.03.2020
6414 Clouds 13 1017 82 10000 3.1 110 00:43 16.03.2020
6415 Clouds 13 1017 87 10000 3.1 110 23:49 15.03.2020
6416 Clouds 13 1017 87 10000 2.6 110 23:22 15.03.2020
6417 Clouds 13 1017 87 10000 3.1 110 22:58 15.03.2020
6418 Clouds 13 1017 87 10000 2.1 110 22:38 15.03.2020
6419 Clouds 13 1017 87 10000 2.1 110 22:20 15.03.2020
6420 Clouds 13 1016 87 10000 2.6 110 21:39 15.03.2020
6421 Clouds 13 1016 87 10000 2.6 110 21:20 15.03.2020
6422 Clouds 13 1016 87 10000 2.1 110 20:44 15.03.2020
6423 Clouds 13 1016 87 10000 2.1 110 20:22 15.03.2020
6424 Clouds 13 1016 82 10000 2.1 130 19:59 15.03.2020
6425 Clouds 13 1016 82 10000 2.1 130 19:59 15.03.2020
6426 Clouds 13 1016 82 10000 2.1 130 19:41 15.03.2020
6427 Clouds 13 1016 82 10000 2.1 130 19:23 15.03.2020
6428 Clouds 14 1016 82 10000 3.1 140 18:59 15.03.2020
6429 Clouds 14 1016 77 10000 3.6 150 18:39 15.03.2020
6430 Clouds 14 1016 77 10000 4.1 170 18:21 15.03.2020
6431 Clouds 15 1017 82 10000 4.1 170 17:54 15.03.2020
6432 Clouds 15 1017 82 10000 4.1 170 17:36 15.03.2020
6433 Clouds 15 1017 77 10000 4.6 180 17:18 15.03.2020
6434 Clouds 16 1017 82 10000 4.6 190 16:42 15.03.2020
6435 Clouds 16 1017 82 10000 4.6 190 16:24 15.03.2020
6436 Clouds 16 1017 77 10000 4.6 200 15:57 15.03.2020
6437 Clouds 16 1017 82 10000 4.6 200 15:38 15.03.2020
6438 Clouds 16 1017 82 10000 4.6 200 15:19 15.03.2020
6439 Clouds 17 1018 82 10000 4.1 200 14:46 15.03.2020
6440 Clouds 16 1018 77 10000 4.1 190 14:24 15.03.2020
6441 Clouds 16 1018 77 10000 4.1 190 13:57 15.03.2020
6442 Clouds 16 1019 72 10000 4.6 190 13:38 15.03.2020
6443 Clouds 16 1019 72 10000 4.1 190 13:20 15.03.2020
6444 Clouds 16 1019 72 10000 4.1 190 12:44 15.03.2020
6445 Clouds 16 1019 72 10000 4.1 190 12:25 15.03.2020
6446 Clouds 16 1019 77 10000 2.6 210 11:56 15.03.2020
6447 Clouds 15 1019 77 10000 2.1 230 11:38 15.03.2020
6448 Clouds 15 1019 77 10000 2.1 230 11:20 15.03.2020
6449 Clouds 14 1020 72 10000 1 0 10:55 15.03.2020
6450 Clouds 14 1020 76 10000 2.6 310 10:36 15.03.2020
6451 Clouds 13 1020 81 10000 3.1 320 10:18 15.03.2020
6452 Clouds 12 1020 81 10000 3.1 330 09:39 15.03.2020
6453 Clouds 11 1020 81 10000 3.1 330 09:20 15.03.2020
6454 Clouds 10 1019 87 9000 3.6 320 08:42 15.03.2020
6455 Clouds 10 1019 87 9000 3.6 320 08:20 15.03.2020
6456 Clouds 9 1019 87 9000 3.6 320 07:51 15.03.2020
6457 Clouds 9 1019 87 9000 3.6 320 07:29 15.03.2020
6458 Clouds 9 1019 87 9000 4.6 330 06:49 15.03.2020
6459 Clouds 10 1019 87 10000 4.1 320 05:50 15.03.2020
6460 Clouds 10 1019 87 10000 4.1 330 05:18 15.03.2020
6461 Clouds 9 1020 81 10000 3.1 330 04:41 15.03.2020
6462 Clouds 9 1020 81 10000 3.1 330 04:41 15.03.2020
6463 Clouds 10 1020 81 10000 3.6 320 04:23 15.03.2020
6464 Clouds 9 1020 81 10000 3.1 320 03:38 15.03.2020
6465 Clouds 10 1021 81 10000 2.1 310 02:37 15.03.2020
6466 Clear 10 1021 81 10000 2.1 320 01:34 15.03.2020
6467 Clear 10 1021 76 10000 2.1 310 00:45 15.03.2020
6468 Clear 11 1021 76 10000 2.1 310 00:22 15.03.2020
6469 Clear 11 1021 76 10000 1 310 23:55 14.03.2020
6470 Clouds 11 1021 76 10000 0.5 20 23:36 14.03.2020
6471 Clouds 11 1021 76 10000 0.5 20 23:18 14.03.2020
6472 Clouds 11 1020 81 10000 2.1 270 22:41 14.03.2020
6473 Clouds 11 1020 81 10000 2.1 270 22:23 14.03.2020
6474 Clouds 12 1020 87 10000 2.1 220 21:56 14.03.2020
6475 Clouds 12 1020 76 10000 2.1 220 21:36 14.03.2020
6476 Clouds 12 1020 76 10000 2.6 230 21:18 14.03.2020
6477 Clouds 13 1020 76 10000 2.6 230 20:58 14.03.2020
6478 Clouds 13 1020 76 10000 2.1 210 20:40 14.03.2020
6479 Clouds 13 1020 76 10000 2.1 210 20:19 14.03.2020
6480 Clouds 14 1020 76 10000 2.1 200 19:43 14.03.2020
6481 Clouds 14 1020 76 10000 2.1 200 19:25 14.03.2020
6482 Clouds 14 1020 72 10000 2.6 190 18:43 14.03.2020
6483 Clouds 15 1020 72 10000 2.6 190 18:24 14.03.2020
6484 Clouds 15 1019 72 10000 3.6 200 17:58 14.03.2020
6485 Clouds 16 1019 72 10000 4.1 190 17:38 14.03.2020
6486 Clouds 16 1019 72 10000 4.1 190 17:38 14.03.2020
6487 Clouds 16 1019 72 10000 3.6 180 17:20 14.03.2020
6488 Clouds 16 1019 72 10000 3.6 180 17:20 14.03.2020
6489 Clouds 16 1019 77 10000 3.6 170 16:41 14.03.2020
6490 Clouds 16 1019 77 10000 3.6 170 16:23 14.03.2020
6491 Clouds 16 1019 72 10000 3.6 180 15:58 14.03.2020
6492 Clouds 16 1019 72 10000 3.6 170 15:27 14.03.2020
6493 Clouds 16 1019 72 10000 3.6 170 14:58 14.03.2020
6494 Clouds 16 1020 77 10000 3.1 140 14:37 14.03.2020
6495 Clouds 16 1020 72 10000 3.6 120 14:18 14.03.2020
6496 Clouds 16 1020 67 10000 3.6 120 13:42 14.03.2020
6497 Clouds 16 1020 67 10000 3.6 120 13:23 14.03.2020
6498 Clouds 16 1020 68 10000 3.1 100 12:57 14.03.2020
6499 Clouds 16 1020 72 10000 2.6 100 12:38 14.03.2020
6500 Clouds 16 1020 72 10000 2.1 100 12:20 14.03.2020
6501 Clouds 16 1020 63 10000 1.5 340 11:42 14.03.2020
6502 Clouds 16 1020 63 10000 1.5 340 11:24 14.03.2020
6503 Clouds 15 1020 72 10000 3.6 340 10:47 14.03.2020
6504 Clouds 15 1020 72 10000 3.6 340 10:27 14.03.2020
6505 Clouds 14 1020 72 10000 5.7 360 09:59 14.03.2020
6506 Clouds 14 1020 76 10000 4.1 350 09:40 14.03.2020
6507 Clouds 13 1020 76 10000 4.1 350 09:20 14.03.2020
6508 Clouds 13 1019 82 10000 2.6 330 08:46 14.03.2020
6509 Clouds 13 1019 82 10000 2.6 330 08:26 14.03.2020
6510 Clouds 12 1019 87 9000 2.6 320 07:40 14.03.2020
6511 Clouds 12 1019 87 9000 2.1 320 07:21 14.03.2020
6512 Clouds 12 1019 87 9000 2.1 320 06:55 14.03.2020
6513 Clouds 12 1018 82 9000 2.6 310 06:34 14.03.2020
6514 Clouds 12 1018 82 10000 1.5 260 04:55 14.03.2020
6515 Clouds 11 1019 87 10000 3.1 300 03:37 14.03.2020
6516 Clouds 11 1019 93 10000 0.5 0 02:53 14.03.2020
6517 Clouds 11 1019 87 10000 2.6 240 01:46 14.03.2020
6518 Clouds 12 1019 87 10000 4.1 240 00:34 14.03.2020
6519 Clouds 12 1019 87 10000 4.6 250 23:42 13.03.2020
6520 Clouds 12 1019 87 10000 4.6 250 23:23 13.03.2020
6521 Clouds 13 1019 87 10000 5.7 230 22:45 13.03.2020
6522 Clouds 13 1019 87 10000 5.7 230 22:22 13.03.2020
6523 Clouds 14 1018 87 10000 6.7 220 21:41 13.03.2020
6524 Clouds 14 1018 87 10000 6.7 220 21:19 13.03.2020
6525 Clouds 14 1018 87 10000 6.7 220 20:43 13.03.2020
6526 Clouds 14 1018 87 10000 7.7 220 20:23 13.03.2020
6527 Clouds 15 1018 87 10000 7.7 220 19:59 13.03.2020
6528 Clouds 15 1017 87 10000 7.7 220 19:40 13.03.2020
6529 Clouds 15 1017 87 10000 7.7 220 19:22 13.03.2020
6530 Clouds 15 1017 82 10000 8.7 220 18:44 13.03.2020
6531 Clouds 16 1017 82 10000 8.7 220 18:23 13.03.2020
6532 Clouds 17 1018 77 10000 7.7 210 17:43 13.03.2020
6533 Clouds 18 1018 77 10000 7.7 210 17:22 13.03.2020
6534 Clouds 18 1018 77 10000 8.7 210 16:59 13.03.2020
6535 Clouds 18 1018 77 10000 8.2 210 16:39 13.03.2020
6536 Clouds 19 1018 77 10000 8.2 210 16:21 13.03.2020
6537 Clouds 19 1018 72 10000 7.7 220 15:46 13.03.2020
6538 Clouds 19 1018 72 10000 7.7 220 15:23 13.03.2020
6539 Clouds 19 1018 67 10000 7.2 220 14:59 13.03.2020
6540 Clouds 19 1019 77 10000 7.2 220 14:40 13.03.2020
6541 Clouds 19 1019 77 10000 7.2 220 14:22 13.03.2020
6542 Clouds 19 1019 72 10000 7.7 220 13:55 13.03.2020
6543 Clouds 18 1020 77 10000 6.7 220 13:36 13.03.2020
6544 Clouds 18 1020 77 10000 6.7 210 13:18 13.03.2020
6545 Clouds 18 1020 77 10000 6.7 210 12:39 13.03.2020
6546 Clouds 17 1020 77 10000 6.7 210 12:21 13.03.2020
6547 Clouds 17 1021 77 7000 4.6 220 11:57 13.03.2020
6548 Clouds 17 1021 77 7000 4.6 220 11:37 13.03.2020
6549 Clouds 16 1021 82 6000 3.1 200 11:19 13.03.2020
6550 Clouds 16 1021 82 6000 2.6 220 10:47 13.03.2020
6551 Clouds 15 1021 82 6000 2.6 220 10:26 13.03.2020
6552 Mist 14 1021 93 3100 2.1 240 09:56 13.03.2020
6553 Mist 14 1021 93 3100 2.1 240 09:56 13.03.2020
6554 Mist 14 1020 93 2700 2.1 260 09:38 13.03.2020
6555 Mist 13 1020 93 1500 2.6 260 09:19 13.03.2020
6556 Mist 12 1020 93 1500 2.6 270 08:42 13.03.2020
6557 Mist 12 1020 93 1500 2.6 270 08:22 13.03.2020
6558 Clouds 11 1019 100 7000 0.5 0 07:47 13.03.2020
6559 Clouds 11 1019 100 7000 0.5 0 07:27 13.03.2020
6560 Fog 11 1019 93 7000 1.4 276 06:46 13.03.2020
6561 Clouds 11 1019 93 7000 1 0 06:24 13.03.2020
6562 Fog 11 1019 100 7000 0.5 0 05:46 13.03.2020
6563 Fog 11 1019 93 7000 1 110 05:19 13.03.2020
6564 Mist 11 1019 93 5000 1 0 04:35 13.03.2020
6565 Mist 12 1019 93 4000 1.5 40 02:58 13.03.2020
6566 Clouds 12 1020 93 6000 2.6 70 01:43 13.03.2020
6567 Clouds 12 1020 93 6000 4.1 60 01:18 13.03.2020
6568 Clouds 13 1020 93 6000 3.1 70 00:46 13.03.2020
6569 Clouds 13 1020 93 8000 2.6 60 00:20 13.03.2020
6570 Clouds 13 1020 87 8000 4.1 60 23:47 12.03.2020
6571 Clouds 13 1020 87 8000 4.1 60 23:26 12.03.2020
6572 Clouds 13 1020 93 8000 4.6 50 22:55 12.03.2020
6573 Clouds 13 1020 93 8000 4.1 50 22:37 12.03.2020
6574 Clouds 13 1019 93 8000 3.1 50 22:19 12.03.2020
6575 Clouds 13 1019 93 8000 1.5 80 21:42 12.03.2020
6576 Clouds 13 1019 93 8000 1.5 80 21:24 12.03.2020
6577 Clouds 13 1019 93 10000 1 0 20:55 12.03.2020
6578 Clouds 14 1019 93 9000 1 0 20:37 12.03.2020
6579 Clouds 14 1019 93 9000 1 0 20:18 12.03.2020
6580 Clouds 14 1018 93 9000 1.5 190 19:39 12.03.2020
6581 Clouds 16 1018 100 10000 2.6 200 19:19 12.03.2020
6582 Clouds 17 1018 93 9000 2.1 190 18:43 12.03.2020
6583 Clouds 17 1017 77 10000 2.6 110 18:23 12.03.2020
6584 Clouds 18 1018 93 8000 3.1 200 17:56 12.03.2020
6585 Mist 18 1018 93 5000 3.1 200 17:37 12.03.2020
6586 Mist 19 1018 93 1100 3.1 210 17:18 12.03.2020
6587 Mist 20 1018 93 1100 3.1 210 16:54 12.03.2020
6588 Mist 20 1018 93 1100 3.6 200 16:36 12.03.2020
6589 Clouds 21 1018 60 10000 3.1 100 16:18 12.03.2020
6590 Mist 20 1019 93 2500 4.1 210 15:41 12.03.2020
6591 Clouds 21 1019 53 10000 2.6 120 15:22 12.03.2020
6592 Clouds 22 1019 49 10000 2.6 100 14:39 12.03.2020
6593 Clouds 22 1020 56 10000 2.6 110 14:19 12.03.2020
6594 Clouds 21 1020 56 10000 2.1 110 13:41 12.03.2020
6595 Clouds 21 1020 56 10000 2.1 110 13:22 12.03.2020
6596 Fog 20 1021 82 10000 3.6 200 12:55 12.03.2020
6597 Clouds 21 1020 49 10000 2.1 110 12:55 12.03.2020
6598 Clouds 20 1021 56 10000 2.1 110 12:37 12.03.2020
6599 Clouds 20 1021 56 10000 2.1 110 12:37 12.03.2020
6600 Clouds 19 1021 55 10000 1 0 12:18 12.03.2020
6601 Clouds 19 1021 55 10000 1 0 11:56 12.03.2020
6602 Clouds 19 1021 55 10000 1 0 11:56 12.03.2020
6603 Clouds 19 1021 55 10000 0.5 10 11:37 12.03.2020
6604 Clouds 18 1021 77 10000 2.6 210 11:19 12.03.2020
6605 Clouds 17 1021 77 10000 2.6 210 10:56 12.03.2020
6606 Clouds 17 1021 67 10000 1.5 260 10:38 12.03.2020
6607 Clouds 16 1021 71 10000 2.1 300 10:19 12.03.2020
6608 Clouds 15 1021 71 10000 2.6 320 09:43 12.03.2020
6609 Clouds 15 1021 71 10000 2.6 320 09:25 12.03.2020
6610 Clouds 13 1021 81 10000 3.6 310 08:41 12.03.2020
6611 Clouds 12 1021 81 10000 3.6 310 08:19 12.03.2020
6612 Clouds 12 1021 87 10000 2.6 310 07:53 12.03.2020
6613 Clouds 12 1020 81 10000 2.1 310 07:23 12.03.2020
6614 Clouds 12 1020 81 10000 3.1 290 06:44 12.03.2020
6615 Clouds 12 1020 81 10000 4.1 310 05:40 12.03.2020
6616 Clouds 12 1020 76 10000 3.6 320 04:27 12.03.2020
6617 Clouds 12 1022 81 10000 3.6 310 02:36 12.03.2020
6618 Clouds 12 1022 93 10000 3.6 310 01:30 12.03.2020
6619 Clouds 12 1022 93 10000 2.1 310 00:43 12.03.2020
6620 Clouds 12 1022 93 10000 2.1 310 00:24 12.03.2020
6621 Clouds 12 1022 93 9000 0.5 0 23:42 11.03.2020
6622 Clouds 12 1022 93 10000 3.1 220 23:23 11.03.2020
6623 Clouds 12 1022 93 9000 2.1 210 22:45 11.03.2020
6624 Clouds 12 1022 93 9000 2.1 210 22:27 11.03.2020
6625 Clouds 13 1022 87 10000 1 0 21:59 11.03.2020
6626 Clouds 13 1022 93 10000 1 180 21:41 11.03.2020
6627 Clouds 13 1022 93 10000 1 180 21:22 11.03.2020
6628 Clouds 13 1022 87 10000 1 200 20:58 11.03.2020
6629 Clouds 13 1022 93 10000 1.5 210 20:39 11.03.2020
6630 Clouds 14 1022 87 10000 1 0 20:19 11.03.2020
6631 Clear 14 1022 87 10000 2.1 180 19:44 11.03.2020
6632 Clear 15 1022 87 10000 2.1 180 19:25 11.03.2020
6633 Clear 16 1022 87 10000 1 0 18:58 11.03.2020
6634 Clear 17 1022 82 10000 1.5 190 18:40 11.03.2020
6635 Clear 17 1022 82 10000 1.5 190 18:40 11.03.2020
6636 Clear 17 1022 82 10000 1.5 170 18:21 11.03.2020
6637 Clear 18 1022 82 10000 1.5 170 17:57 11.03.2020
6638 Clear 18 1022 82 10000 1.5 170 17:57 11.03.2020
6639 Clear 18 1022 82 10000 2.1 170 17:39 11.03.2020
6640 Clear 19 1022 77 10000 2.1 150 17:20 11.03.2020
6641 Clear 19 1022 82 10000 2.6 160 16:46 11.03.2020
6642 Clear 19 1022 82 10000 2.6 160 16:23 11.03.2020
6643 Clear 19 1022 77 10000 3.1 170 15:46 11.03.2020
6644 Clear 19 1022 77 10000 3.1 170 15:25 11.03.2020
6645 Clear 19 1023 72 10000 2.6 150 14:59 11.03.2020
6646 Clear 19 1023 77 10000 3.1 130 14:41 11.03.2020
6647 Clear 19 1023 77 10000 3.1 150 14:22 11.03.2020
6648 Clear 18 1024 72 10000 3.6 120 13:45 11.03.2020
6649 Clear 18 1024 72 10000 3.6 120 13:27 11.03.2020
6650 Clear 17 1024 82 10000 3.6 90 12:58 11.03.2020
6651 Clear 18 1024 77 10000 3.1 100 12:40 11.03.2020
6652 Clear 17 1024 67 10000 3.6 80 12:19 11.03.2020
6653 Clear 17 1024 67 10000 3.6 80 11:55 11.03.2020
6654 Clear 17 1024 72 10000 3.6 80 11:36 11.03.2020
6655 Clear 15 1024 72 10000 3.1 70 11:18 11.03.2020
6656 Clear 15 1024 71 10000 4.1 60 10:42 11.03.2020
6657 Clear 14 1024 66 10000 2.6 330 10:18 11.03.2020
6658 Clear 13 1024 76 10000 3.6 330 09:43 11.03.2020
6659 Clear 13 1024 76 10000 3.6 330 09:25 11.03.2020
6660 Clear 11 1023 81 10000 2.6 320 08:49 11.03.2020
6661 Clear 10 1023 81 10000 2.6 320 08:31 11.03.2020
6662 Clear 10 1023 76 10000 3.1 330 07:59 11.03.2020
6663 Clouds 9 1022 76 10000 4.1 330 07:38 11.03.2020
6664 Clouds 10 1022 76 10000 4.1 330 07:18 11.03.2020
6665 Clear 10 1022 81 10000 4.6 320 06:37 11.03.2020
6666 Clear 9 1022 81 10000 4.1 330 05:35 11.03.2020